<?xml version="1.0" encoding="UTF-8" standalone="no" ?>
<gpx xmlns="http://www.topografix.com/GPX/1/1" xmlns:xsi="http://www.w3.org/2001/XMLSchema-instance" xsi:schemaLocation="http://www.topografix.com/GPX/1/1 http://www.topografix.com/GPX/1/1/gpx.xsd" version="1.1" creator="VisuGPX - https://www.visugpx.com">
  <metadata>
    <name>VTT du mercredi 11 juillet 2012</name>
    <desc><![CDATA[J\'ai réglé l\'altitude de départ à - 230 m au lieu de   230 m ! Corrigé après 1 km (après 8 min). 
Parcours sympa, sauf aux alentours du km 20 : passage gras, en forte côte
]]></desc>
  </metadata>
  <trk>
    <name><![CDATA[Mont Marcot]]></name>
    <trkseg>
      <trkpt lat="47.64442" lon="6.18309">
        <ele>-0.20000000298023</ele>
        <time>2012-07-11T08:33:32.000Z</time>
      </trkpt>
      <trkpt lat="47.64442" lon="6.18309">
        <ele>-0.20000000298023</ele>
        <time>2012-07-11T08:33:33.000Z</time>
      </trkpt>
      <trkpt lat="47.64439" lon="6.18306">
        <ele>-0.40000000596046</ele>
        <time>2012-07-11T08:33:48.000Z</time>
      </trkpt>
      <trkpt lat="47.64437" lon="6.18299">
        <ele>-0.40000000596046</ele>
        <time>2012-07-11T08:33:51.000Z</time>
      </trkpt>
      <trkpt lat="47.64436" lon="6.18298">
        <ele>-0.40000000596046</ele>
        <time>2012-07-11T08:33:54.000Z</time>
      </trkpt>
      <trkpt lat="47.64437" lon="6.18295">
        <ele>-0.40000000596046</ele>
        <time>2012-07-11T08:34:22.000Z</time>
      </trkpt>
      <trkpt lat="47.64437" lon="6.18294">
        <ele>-0.40000000596046</ele>
        <time>2012-07-11T08:34:23.000Z</time>
      </trkpt>
      <trkpt lat="47.64445" lon="6.18289">
        <ele>-0.40000000596046</ele>
        <time>2012-07-11T08:34:28.000Z</time>
      </trkpt>
      <trkpt lat="47.64449" lon="6.18285">
        <ele>-0.40000000596046</ele>
        <time>2012-07-11T08:34:30.000Z</time>
      </trkpt>
      <trkpt lat="47.64458" lon="6.18274">
        <ele>-0.40000000596046</ele>
        <time>2012-07-11T08:34:35.000Z</time>
      </trkpt>
      <trkpt lat="47.64469" lon="6.18258">
        <ele>-0.40000000596046</ele>
        <time>2012-07-11T08:34:41.000Z</time>
      </trkpt>
      <trkpt lat="47.64474" lon="6.18251">
        <ele>-0.40000000596046</ele>
        <time>2012-07-11T08:34:45.000Z</time>
      </trkpt>
      <trkpt lat="47.64475" lon="6.1825">
        <ele>-230.19999694824</ele>
        <time>2012-07-11T08:35:19.000Z</time>
      </trkpt>
      <trkpt lat="47.64478" lon="6.18244">
        <ele>-230.19999694824</ele>
        <time>2012-07-11T08:35:22.000Z</time>
      </trkpt>
      <trkpt lat="47.64486" lon="6.18228">
        <ele>-230.19999694824</ele>
        <time>2012-07-11T08:35:28.000Z</time>
      </trkpt>
      <trkpt lat="47.64494" lon="6.18208">
        <ele>-230.19999694824</ele>
        <time>2012-07-11T08:35:35.000Z</time>
      </trkpt>
      <trkpt lat="47.64501" lon="6.18185">
        <ele>-230.19999694824</ele>
        <time>2012-07-11T08:35:40.000Z</time>
      </trkpt>
      <trkpt lat="47.64495" lon="6.18161">
        <ele>-230.19999694824</ele>
        <time>2012-07-11T08:35:44.000Z</time>
      </trkpt>
      <trkpt lat="47.64494" lon="6.18154">
        <ele>-230.19999694824</ele>
        <time>2012-07-11T08:35:45.000Z</time>
      </trkpt>
      <trkpt lat="47.64492" lon="6.18136">
        <ele>-230.19999694824</ele>
        <time>2012-07-11T08:35:48.000Z</time>
      </trkpt>
      <trkpt lat="47.64493" lon="6.1813">
        <ele>-230.19999694824</ele>
        <time>2012-07-11T08:35:49.000Z</time>
      </trkpt>
      <trkpt lat="47.64497" lon="6.18104">
        <ele>-230.19999694824</ele>
        <time>2012-07-11T08:35:54.000Z</time>
      </trkpt>
      <trkpt lat="47.64503" lon="6.18078">
        <ele>-230.19999694824</ele>
        <time>2012-07-11T08:36:00.000Z</time>
      </trkpt>
      <trkpt lat="47.6451" lon="6.18052">
        <ele>-230.19999694824</ele>
        <time>2012-07-11T08:36:07.000Z</time>
      </trkpt>
      <trkpt lat="47.64522" lon="6.1804">
        <ele>-230.19999694824</ele>
        <time>2012-07-11T08:36:12.000Z</time>
      </trkpt>
      <trkpt lat="47.64534" lon="6.18025">
        <ele>-230.19999694824</ele>
        <time>2012-07-11T08:36:18.000Z</time>
      </trkpt>
      <trkpt lat="47.64538" lon="6.18017">
        <ele>-229.80000305176</ele>
        <time>2012-07-11T08:36:21.000Z</time>
      </trkpt>
      <trkpt lat="47.6454" lon="6.18014">
        <ele>-229.39999389648</ele>
        <time>2012-07-11T08:36:22.000Z</time>
      </trkpt>
      <trkpt lat="47.64541" lon="6.18011">
        <ele>-229</ele>
        <time>2012-07-11T08:36:23.000Z</time>
      </trkpt>
      <trkpt lat="47.64542" lon="6.18008">
        <ele>-228.60000610352</ele>
        <time>2012-07-11T08:36:24.000Z</time>
      </trkpt>
      <trkpt lat="47.64543" lon="6.18004">
        <ele>-228.19999694824</ele>
        <time>2012-07-11T08:36:25.000Z</time>
      </trkpt>
      <trkpt lat="47.6455" lon="6.17976">
        <ele>-228.19999694824</ele>
        <time>2012-07-11T08:36:32.000Z</time>
      </trkpt>
      <trkpt lat="47.6456" lon="6.17946">
        <ele>-228.19999694824</ele>
        <time>2012-07-11T08:36:37.000Z</time>
      </trkpt>
      <trkpt lat="47.64564" lon="6.17934">
        <ele>-228.19999694824</ele>
        <time>2012-07-11T08:36:39.000Z</time>
      </trkpt>
      <trkpt lat="47.64573" lon="6.17919">
        <ele>-228.19999694824</ele>
        <time>2012-07-11T08:36:42.000Z</time>
      </trkpt>
      <trkpt lat="47.64578" lon="6.17915">
        <ele>-228.19999694824</ele>
        <time>2012-07-11T08:36:43.000Z</time>
      </trkpt>
      <trkpt lat="47.64589" lon="6.17901">
        <ele>-228.60000610352</ele>
        <time>2012-07-11T08:36:46.000Z</time>
      </trkpt>
      <trkpt lat="47.64593" lon="6.17897">
        <ele>-229</ele>
        <time>2012-07-11T08:36:47.000Z</time>
      </trkpt>
      <trkpt lat="47.64597" lon="6.17894">
        <ele>-229.60000610352</ele>
        <time>2012-07-11T08:36:48.000Z</time>
      </trkpt>
      <trkpt lat="47.64601" lon="6.17891">
        <ele>-230</ele>
        <time>2012-07-11T08:36:49.000Z</time>
      </trkpt>
      <trkpt lat="47.64604" lon="6.17886">
        <ele>-230.39999389648</ele>
        <time>2012-07-11T08:36:50.000Z</time>
      </trkpt>
      <trkpt lat="47.64609" lon="6.17878">
        <ele>-230.39999389648</ele>
        <time>2012-07-11T08:36:52.000Z</time>
      </trkpt>
      <trkpt lat="47.64611" lon="6.17873">
        <ele>-230.39999389648</ele>
        <time>2012-07-11T08:36:53.000Z</time>
      </trkpt>
      <trkpt lat="47.64616" lon="6.1785">
        <ele>-230.39999389648</ele>
        <time>2012-07-11T08:36:58.000Z</time>
      </trkpt>
      <trkpt lat="47.64624" lon="6.17817">
        <ele>-230.39999389648</ele>
        <time>2012-07-11T08:37:05.000Z</time>
      </trkpt>
      <trkpt lat="47.64632" lon="6.17799">
        <ele>-230.39999389648</ele>
        <time>2012-07-11T08:37:10.000Z</time>
      </trkpt>
      <trkpt lat="47.64635" lon="6.17794">
        <ele>-230.39999389648</ele>
        <time>2012-07-11T08:37:11.000Z</time>
      </trkpt>
      <trkpt lat="47.64636" lon="6.17782">
        <ele>-230.39999389648</ele>
        <time>2012-07-11T08:37:13.000Z</time>
      </trkpt>
      <trkpt lat="47.6463" lon="6.1776">
        <ele>-230.39999389648</ele>
        <time>2012-07-11T08:37:17.000Z</time>
      </trkpt>
      <trkpt lat="47.64626" lon="6.1775">
        <ele>-230.39999389648</ele>
        <time>2012-07-11T08:37:19.000Z</time>
      </trkpt>
      <trkpt lat="47.64615" lon="6.1772">
        <ele>-230.39999389648</ele>
        <time>2012-07-11T08:37:25.000Z</time>
      </trkpt>
      <trkpt lat="47.64611" lon="6.17696">
        <ele>-230.39999389648</ele>
        <time>2012-07-11T08:37:30.000Z</time>
      </trkpt>
      <trkpt lat="47.64616" lon="6.17664">
        <ele>-230.39999389648</ele>
        <time>2012-07-11T08:37:36.000Z</time>
      </trkpt>
      <trkpt lat="47.64626" lon="6.1763">
        <ele>-230.39999389648</ele>
        <time>2012-07-11T08:37:43.000Z</time>
      </trkpt>
      <trkpt lat="47.64636" lon="6.17613">
        <ele>-230.39999389648</ele>
        <time>2012-07-11T08:37:49.000Z</time>
      </trkpt>
      <trkpt lat="47.64639" lon="6.17609">
        <ele>-230</ele>
        <time>2012-07-11T08:37:51.000Z</time>
      </trkpt>
      <trkpt lat="47.64641" lon="6.17607">
        <ele>-229.60000610352</ele>
        <time>2012-07-11T08:37:52.000Z</time>
      </trkpt>
      <trkpt lat="47.64643" lon="6.17606">
        <ele>-229.19999694824</ele>
        <time>2012-07-11T08:37:53.000Z</time>
      </trkpt>
      <trkpt lat="47.64644" lon="6.17605">
        <ele>-228.80000305176</ele>
        <time>2012-07-11T08:37:54.000Z</time>
      </trkpt>
      <trkpt lat="47.64646" lon="6.17604">
        <ele>-228.19999694824</ele>
        <time>2012-07-11T08:37:55.000Z</time>
      </trkpt>
      <trkpt lat="47.64653" lon="6.17599">
        <ele>-228.19999694824</ele>
        <time>2012-07-11T08:38:00.000Z</time>
      </trkpt>
      <trkpt lat="47.6466" lon="6.17597">
        <ele>-227.80000305176</ele>
        <time>2012-07-11T08:38:04.000Z</time>
      </trkpt>
      <trkpt lat="47.64663" lon="6.17596">
        <ele>-227.39999389648</ele>
        <time>2012-07-11T08:38:05.000Z</time>
      </trkpt>
      <trkpt lat="47.64665" lon="6.17595">
        <ele>-227</ele>
        <time>2012-07-11T08:38:06.000Z</time>
      </trkpt>
      <trkpt lat="47.64667" lon="6.17594">
        <ele>-226.60000610352</ele>
        <time>2012-07-11T08:38:07.000Z</time>
      </trkpt>
      <trkpt lat="47.64669" lon="6.17593">
        <ele>-226.19999694824</ele>
        <time>2012-07-11T08:38:08.000Z</time>
      </trkpt>
      <trkpt lat="47.64678" lon="6.17588">
        <ele>-226.19999694824</ele>
        <time>2012-07-11T08:38:13.000Z</time>
      </trkpt>
      <trkpt lat="47.64688" lon="6.17576">
        <ele>-226.19999694824</ele>
        <time>2012-07-11T08:38:19.000Z</time>
      </trkpt>
      <trkpt lat="47.64698" lon="6.17561">
        <ele>-226.19999694824</ele>
        <time>2012-07-11T08:38:26.000Z</time>
      </trkpt>
      <trkpt lat="47.647" lon="6.17557">
        <ele>-225.80000305176</ele>
        <time>2012-07-11T08:38:28.000Z</time>
      </trkpt>
      <trkpt lat="47.64702" lon="6.17555">
        <ele>-225.39999389648</ele>
        <time>2012-07-11T08:38:29.000Z</time>
      </trkpt>
      <trkpt lat="47.64703" lon="6.17553">
        <ele>-225</ele>
        <time>2012-07-11T08:38:30.000Z</time>
      </trkpt>
      <trkpt lat="47.64704" lon="6.1755">
        <ele>-224.39999389648</ele>
        <time>2012-07-11T08:38:31.000Z</time>
      </trkpt>
      <trkpt lat="47.64705" lon="6.17548">
        <ele>-224</ele>
        <time>2012-07-11T08:38:32.000Z</time>
      </trkpt>
      <trkpt lat="47.64706" lon="6.17546">
        <ele>-224</ele>
        <time>2012-07-11T08:38:33.000Z</time>
      </trkpt>
      <trkpt lat="47.64714" lon="6.17533">
        <ele>-223.60000610352</ele>
        <time>2012-07-11T08:38:39.000Z</time>
      </trkpt>
      <trkpt lat="47.64716" lon="6.1753">
        <ele>-223.19999694824</ele>
        <time>2012-07-11T08:38:40.000Z</time>
      </trkpt>
      <trkpt lat="47.64717" lon="6.17527">
        <ele>-222.80000305176</ele>
        <time>2012-07-11T08:38:41.000Z</time>
      </trkpt>
      <trkpt lat="47.64719" lon="6.17524">
        <ele>-222.19999694824</ele>
        <time>2012-07-11T08:38:42.000Z</time>
      </trkpt>
      <trkpt lat="47.6472" lon="6.17522">
        <ele>-221.80000305176</ele>
        <time>2012-07-11T08:38:43.000Z</time>
      </trkpt>
      <trkpt lat="47.64722" lon="6.17517">
        <ele>-221.80000305176</ele>
        <time>2012-07-11T08:38:45.000Z</time>
      </trkpt>
      <trkpt lat="47.64727" lon="6.17499">
        <ele>-221.80000305176</ele>
        <time>2012-07-11T08:38:52.000Z</time>
      </trkpt>
      <trkpt lat="47.64728" lon="6.17495">
        <ele>-221.39999389648</ele>
        <time>2012-07-11T08:38:54.000Z</time>
      </trkpt>
      <trkpt lat="47.64729" lon="6.17492">
        <ele>-221</ele>
        <time>2012-07-11T08:38:55.000Z</time>
      </trkpt>
      <trkpt lat="47.6473" lon="6.1749">
        <ele>-220.60000610352</ele>
        <time>2012-07-11T08:38:56.000Z</time>
      </trkpt>
      <trkpt lat="47.6473" lon="6.17487">
        <ele>-220.19999694824</ele>
        <time>2012-07-11T08:38:57.000Z</time>
      </trkpt>
      <trkpt lat="47.64731" lon="6.17485">
        <ele>-219.80000305176</ele>
        <time>2012-07-11T08:38:58.000Z</time>
      </trkpt>
      <trkpt lat="47.64735" lon="6.17472">
        <ele>-219.80000305176</ele>
        <time>2012-07-11T08:39:04.000Z</time>
      </trkpt>
      <trkpt lat="47.64738" lon="6.17461">
        <ele>-219.39999389648</ele>
        <time>2012-07-11T08:39:09.000Z</time>
      </trkpt>
      <trkpt lat="47.64739" lon="6.17459">
        <ele>-219</ele>
        <time>2012-07-11T08:39:10.000Z</time>
      </trkpt>
      <trkpt lat="47.6474" lon="6.17457">
        <ele>-218.60000610352</ele>
        <time>2012-07-11T08:39:11.000Z</time>
      </trkpt>
      <trkpt lat="47.64741" lon="6.17455">
        <ele>-218.19999694824</ele>
        <time>2012-07-11T08:39:12.000Z</time>
      </trkpt>
      <trkpt lat="47.64743" lon="6.17453">
        <ele>-217.80000305176</ele>
        <time>2012-07-11T08:39:13.000Z</time>
      </trkpt>
      <trkpt lat="47.64745" lon="6.17442">
        <ele>-217.80000305176</ele>
        <time>2012-07-11T08:39:19.000Z</time>
      </trkpt>
      <trkpt lat="47.64747" lon="6.17425">
        <ele>-217.80000305176</ele>
        <time>2012-07-11T08:39:26.000Z</time>
      </trkpt>
      <trkpt lat="47.64747" lon="6.17423">
        <ele>-217.39999389648</ele>
        <time>2012-07-11T08:39:27.000Z</time>
      </trkpt>
      <trkpt lat="47.64747" lon="6.17421">
        <ele>-217</ele>
        <time>2012-07-11T08:39:28.000Z</time>
      </trkpt>
      <trkpt lat="47.64748" lon="6.17418">
        <ele>-216.60000610352</ele>
        <time>2012-07-11T08:39:29.000Z</time>
      </trkpt>
      <trkpt lat="47.64748" lon="6.17415">
        <ele>-216.19999694824</ele>
        <time>2012-07-11T08:39:30.000Z</time>
      </trkpt>
      <trkpt lat="47.64749" lon="6.17413">
        <ele>-215.80000305176</ele>
        <time>2012-07-11T08:39:31.000Z</time>
      </trkpt>
      <trkpt lat="47.6475" lon="6.1741">
        <ele>-215.80000305176</ele>
        <time>2012-07-11T08:39:32.000Z</time>
      </trkpt>
      <trkpt lat="47.64755" lon="6.17396">
        <ele>-215.80000305176</ele>
        <time>2012-07-11T08:39:38.000Z</time>
      </trkpt>
      <trkpt lat="47.64755" lon="6.17394">
        <ele>-215.80000305176</ele>
        <time>2012-07-11T08:39:40.000Z</time>
      </trkpt>
      <trkpt lat="47.64757" lon="6.17388">
        <ele>-213.60000610352</ele>
        <time>2012-07-11T08:40:59.000Z</time>
      </trkpt>
      <trkpt lat="47.64757" lon="6.17387">
        <ele>-213.60000610352</ele>
        <time>2012-07-11T08:41:00.000Z</time>
      </trkpt>
      <trkpt lat="47.64766" lon="6.17373">
        <ele>-213.60000610352</ele>
        <time>2012-07-11T08:41:06.000Z</time>
      </trkpt>
      <trkpt lat="47.64773" lon="6.17356">
        <ele>-213.60000610352</ele>
        <time>2012-07-11T08:41:13.000Z</time>
      </trkpt>
      <trkpt lat="47.64779" lon="6.17338">
        <ele>-213.60000610352</ele>
        <time>2012-07-11T08:41:21.000Z</time>
      </trkpt>
      <trkpt lat="47.64781" lon="6.17329">
        <ele>-213.19999694824</ele>
        <time>2012-07-11T08:41:25.000Z</time>
      </trkpt>
      <trkpt lat="47.64782" lon="6.17326">
        <ele>-212.80000305176</ele>
        <time>2012-07-11T08:41:26.000Z</time>
      </trkpt>
      <trkpt lat="47.64783" lon="6.17324">
        <ele>-212.19999694824</ele>
        <time>2012-07-11T08:41:27.000Z</time>
      </trkpt>
      <trkpt lat="47.64783" lon="6.17322">
        <ele>-211.80000305176</ele>
        <time>2012-07-11T08:41:28.000Z</time>
      </trkpt>
      <trkpt lat="47.64785" lon="6.17319">
        <ele>-211.39999389648</ele>
        <time>2012-07-11T08:41:29.000Z</time>
      </trkpt>
      <trkpt lat="47.64788" lon="6.17309">
        <ele>-211.39999389648</ele>
        <time>2012-07-11T08:41:33.000Z</time>
      </trkpt>
      <trkpt lat="47.64796" lon="6.17289">
        <ele>-211.39999389648</ele>
        <time>2012-07-11T08:41:40.000Z</time>
      </trkpt>
      <trkpt lat="47.64805" lon="6.17268">
        <ele>-211.39999389648</ele>
        <time>2012-07-11T08:41:48.000Z</time>
      </trkpt>
      <trkpt lat="47.64808" lon="6.17257">
        <ele>-211</ele>
        <time>2012-07-11T08:41:52.000Z</time>
      </trkpt>
      <trkpt lat="47.64809" lon="6.17254">
        <ele>-210.60000610352</ele>
        <time>2012-07-11T08:41:53.000Z</time>
      </trkpt>
      <trkpt lat="47.6481" lon="6.17251">
        <ele>-209.80000305176</ele>
        <time>2012-07-11T08:41:54.000Z</time>
      </trkpt>
      <trkpt lat="47.64811" lon="6.17248">
        <ele>-209.39999389648</ele>
        <time>2012-07-11T08:41:55.000Z</time>
      </trkpt>
      <trkpt lat="47.64813" lon="6.17241">
        <ele>-209.39999389648</ele>
        <time>2012-07-11T08:41:58.000Z</time>
      </trkpt>
      <trkpt lat="47.64821" lon="6.17223">
        <ele>-209.39999389648</ele>
        <time>2012-07-11T08:42:05.000Z</time>
      </trkpt>
      <trkpt lat="47.6483" lon="6.17207">
        <ele>-209.39999389648</ele>
        <time>2012-07-11T08:42:12.000Z</time>
      </trkpt>
      <trkpt lat="47.64841" lon="6.17188">
        <ele>-209.60000610352</ele>
        <time>2012-07-11T08:42:20.000Z</time>
      </trkpt>
      <trkpt lat="47.64851" lon="6.17176">
        <ele>-209.60000610352</ele>
        <time>2012-07-11T08:42:26.000Z</time>
      </trkpt>
      <trkpt lat="47.64864" lon="6.17162">
        <ele>-209.60000610352</ele>
        <time>2012-07-11T08:42:33.000Z</time>
      </trkpt>
      <trkpt lat="47.6488" lon="6.17146">
        <ele>-209.60000610352</ele>
        <time>2012-07-11T08:42:42.000Z</time>
      </trkpt>
      <trkpt lat="47.64894" lon="6.17131">
        <ele>-209.60000610352</ele>
        <time>2012-07-11T08:42:50.000Z</time>
      </trkpt>
      <trkpt lat="47.64902" lon="6.17124">
        <ele>-209.19999694824</ele>
        <time>2012-07-11T08:42:54.000Z</time>
      </trkpt>
      <trkpt lat="47.64903" lon="6.17122">
        <ele>-208.80000305176</ele>
        <time>2012-07-11T08:42:55.000Z</time>
      </trkpt>
      <trkpt lat="47.64904" lon="6.17122">
        <ele>-208.39999389648</ele>
        <time>2012-07-11T08:42:56.000Z</time>
      </trkpt>
      <trkpt lat="47.64904" lon="6.17122">
        <ele>-208</ele>
        <time>2012-07-11T08:42:57.000Z</time>
      </trkpt>
      <trkpt lat="47.64906" lon="6.1712">
        <ele>245</ele>
        <time>2012-07-11T08:43:47.000Z</time>
      </trkpt>
      <trkpt lat="47.64909" lon="6.17117">
        <ele>245</ele>
        <time>2012-07-11T08:43:49.000Z</time>
      </trkpt>
      <trkpt lat="47.64923" lon="6.171">
        <ele>245</ele>
        <time>2012-07-11T08:43:56.000Z</time>
      </trkpt>
      <trkpt lat="47.6494" lon="6.1708">
        <ele>245</ele>
        <time>2012-07-11T08:44:04.000Z</time>
      </trkpt>
      <trkpt lat="47.64953" lon="6.17066">
        <ele>245</ele>
        <time>2012-07-11T08:44:11.000Z</time>
      </trkpt>
      <trkpt lat="47.64964" lon="6.17055">
        <ele>245</ele>
        <time>2012-07-11T08:44:17.000Z</time>
      </trkpt>
      <trkpt lat="47.64979" lon="6.17037">
        <ele>245</ele>
        <time>2012-07-11T08:44:25.000Z</time>
      </trkpt>
      <trkpt lat="47.64994" lon="6.17017">
        <ele>245</ele>
        <time>2012-07-11T08:44:32.000Z</time>
      </trkpt>
      <trkpt lat="47.6501" lon="6.16995">
        <ele>245.39999389648</ele>
        <time>2012-07-11T08:44:39.000Z</time>
      </trkpt>
      <trkpt lat="47.65012" lon="6.16992">
        <ele>245.80000305176</ele>
        <time>2012-07-11T08:44:40.000Z</time>
      </trkpt>
      <trkpt lat="47.65013" lon="6.16989">
        <ele>246.19999694824</ele>
        <time>2012-07-11T08:44:41.000Z</time>
      </trkpt>
      <trkpt lat="47.65015" lon="6.16986">
        <ele>246.60000610352</ele>
        <time>2012-07-11T08:44:42.000Z</time>
      </trkpt>
      <trkpt lat="47.65017" lon="6.16983">
        <ele>247</ele>
        <time>2012-07-11T08:44:43.000Z</time>
      </trkpt>
      <trkpt lat="47.65023" lon="6.16974">
        <ele>247</ele>
        <time>2012-07-11T08:44:46.000Z</time>
      </trkpt>
      <trkpt lat="47.6504" lon="6.16949">
        <ele>247</ele>
        <time>2012-07-11T08:44:52.000Z</time>
      </trkpt>
      <trkpt lat="47.65058" lon="6.16921">
        <ele>247</ele>
        <time>2012-07-11T08:44:59.000Z</time>
      </trkpt>
      <trkpt lat="47.65064" lon="6.16914">
        <ele>246.60000610352</ele>
        <time>2012-07-11T08:45:02.000Z</time>
      </trkpt>
      <trkpt lat="47.65066" lon="6.16911">
        <ele>246.19999694824</ele>
        <time>2012-07-11T08:45:03.000Z</time>
      </trkpt>
      <trkpt lat="47.65068" lon="6.16909">
        <ele>245.80000305176</ele>
        <time>2012-07-11T08:45:04.000Z</time>
      </trkpt>
      <trkpt lat="47.6507" lon="6.16906">
        <ele>245.39999389648</ele>
        <time>2012-07-11T08:45:05.000Z</time>
      </trkpt>
      <trkpt lat="47.65072" lon="6.16902">
        <ele>245</ele>
        <time>2012-07-11T08:45:06.000Z</time>
      </trkpt>
      <trkpt lat="47.6508" lon="6.16891">
        <ele>245</ele>
        <time>2012-07-11T08:45:10.000Z</time>
      </trkpt>
      <trkpt lat="47.65092" lon="6.16872">
        <ele>245</ele>
        <time>2012-07-11T08:45:16.000Z</time>
      </trkpt>
      <trkpt lat="47.65104" lon="6.16854">
        <ele>245</ele>
        <time>2012-07-11T08:45:22.000Z</time>
      </trkpt>
      <trkpt lat="47.65118" lon="6.16832">
        <ele>245</ele>
        <time>2012-07-11T08:45:29.000Z</time>
      </trkpt>
      <trkpt lat="47.6513" lon="6.16817">
        <ele>245</ele>
        <time>2012-07-11T08:45:35.000Z</time>
      </trkpt>
      <trkpt lat="47.65139" lon="6.16804">
        <ele>245</ele>
        <time>2012-07-11T08:45:41.000Z</time>
      </trkpt>
      <trkpt lat="47.65145" lon="6.1679">
        <ele>245</ele>
        <time>2012-07-11T08:45:47.000Z</time>
      </trkpt>
      <trkpt lat="47.65158" lon="6.16777">
        <ele>245</ele>
        <time>2012-07-11T08:45:54.000Z</time>
      </trkpt>
      <trkpt lat="47.65169" lon="6.16768">
        <ele>245</ele>
        <time>2012-07-11T08:46:00.000Z</time>
      </trkpt>
      <trkpt lat="47.65175" lon="6.16763">
        <ele>245.39999389648</ele>
        <time>2012-07-11T08:46:03.000Z</time>
      </trkpt>
      <trkpt lat="47.65177" lon="6.16761">
        <ele>245.80000305176</ele>
        <time>2012-07-11T08:46:04.000Z</time>
      </trkpt>
      <trkpt lat="47.65179" lon="6.1676">
        <ele>246.19999694824</ele>
        <time>2012-07-11T08:46:05.000Z</time>
      </trkpt>
      <trkpt lat="47.65181" lon="6.16758">
        <ele>246.60000610352</ele>
        <time>2012-07-11T08:46:06.000Z</time>
      </trkpt>
      <trkpt lat="47.65183" lon="6.16757">
        <ele>247</ele>
        <time>2012-07-11T08:46:07.000Z</time>
      </trkpt>
      <trkpt lat="47.65186" lon="6.16754">
        <ele>247</ele>
        <time>2012-07-11T08:46:09.000Z</time>
      </trkpt>
      <trkpt lat="47.65194" lon="6.16737">
        <ele>247</ele>
        <time>2012-07-11T08:46:16.000Z</time>
      </trkpt>
      <trkpt lat="47.65201" lon="6.1672">
        <ele>246.60000610352</ele>
        <time>2012-07-11T08:46:22.000Z</time>
      </trkpt>
      <trkpt lat="47.65202" lon="6.16717">
        <ele>246.19999694824</ele>
        <time>2012-07-11T08:46:23.000Z</time>
      </trkpt>
      <trkpt lat="47.65203" lon="6.16714">
        <ele>245.80000305176</ele>
        <time>2012-07-11T08:46:24.000Z</time>
      </trkpt>
      <trkpt lat="47.65204" lon="6.16711">
        <ele>245.39999389648</ele>
        <time>2012-07-11T08:46:25.000Z</time>
      </trkpt>
      <trkpt lat="47.65205" lon="6.16708">
        <ele>245</ele>
        <time>2012-07-11T08:46:26.000Z</time>
      </trkpt>
      <trkpt lat="47.65205" lon="6.16706">
        <ele>245</ele>
        <time>2012-07-11T08:46:27.000Z</time>
      </trkpt>
      <trkpt lat="47.65207" lon="6.167">
        <ele>245</ele>
        <time>2012-07-11T08:46:31.000Z</time>
      </trkpt>
      <trkpt lat="47.65212" lon="6.16689">
        <ele>243</ele>
        <time>2012-07-11T08:47:26.000Z</time>
      </trkpt>
      <trkpt lat="47.65224" lon="6.16675">
        <ele>243</ele>
        <time>2012-07-11T08:47:32.000Z</time>
      </trkpt>
      <trkpt lat="47.65232" lon="6.16662">
        <ele>242.39999389648</ele>
        <time>2012-07-11T08:47:36.000Z</time>
      </trkpt>
      <trkpt lat="47.65233" lon="6.16659">
        <ele>242</ele>
        <time>2012-07-11T08:47:37.000Z</time>
      </trkpt>
      <trkpt lat="47.65233" lon="6.16655">
        <ele>241.60000610352</ele>
        <time>2012-07-11T08:47:38.000Z</time>
      </trkpt>
      <trkpt lat="47.65232" lon="6.16651">
        <ele>241.19999694824</ele>
        <time>2012-07-11T08:47:39.000Z</time>
      </trkpt>
      <trkpt lat="47.6523" lon="6.16648">
        <ele>240.80000305176</ele>
        <time>2012-07-11T08:47:40.000Z</time>
      </trkpt>
      <trkpt lat="47.65227" lon="6.16644">
        <ele>240.80000305176</ele>
        <time>2012-07-11T08:47:42.000Z</time>
      </trkpt>
      <trkpt lat="47.65225" lon="6.16641">
        <ele>240.80000305176</ele>
        <time>2012-07-11T08:47:43.000Z</time>
      </trkpt>
      <trkpt lat="47.65217" lon="6.16629">
        <ele>240.80000305176</ele>
        <time>2012-07-11T08:47:48.000Z</time>
      </trkpt>
      <trkpt lat="47.65209" lon="6.16617">
        <ele>240.39999389648</ele>
        <time>2012-07-11T08:47:52.000Z</time>
      </trkpt>
      <trkpt lat="47.65207" lon="6.16614">
        <ele>240</ele>
        <time>2012-07-11T08:47:53.000Z</time>
      </trkpt>
      <trkpt lat="47.65205" lon="6.16613">
        <ele>239.39999389648</ele>
        <time>2012-07-11T08:47:54.000Z</time>
      </trkpt>
      <trkpt lat="47.65203" lon="6.16611">
        <ele>239</ele>
        <time>2012-07-11T08:47:55.000Z</time>
      </trkpt>
      <trkpt lat="47.65201" lon="6.16608">
        <ele>238.60000610352</ele>
        <time>2012-07-11T08:47:56.000Z</time>
      </trkpt>
      <trkpt lat="47.65189" lon="6.1659">
        <ele>238.60000610352</ele>
        <time>2012-07-11T08:48:02.000Z</time>
      </trkpt>
      <trkpt lat="47.65179" lon="6.16578">
        <ele>238.60000610352</ele>
        <time>2012-07-11T08:48:07.000Z</time>
      </trkpt>
      <trkpt lat="47.65168" lon="6.16561">
        <ele>238.60000610352</ele>
        <time>2012-07-11T08:48:14.000Z</time>
      </trkpt>
      <trkpt lat="47.65158" lon="6.16544">
        <ele>238.60000610352</ele>
        <time>2012-07-11T08:48:21.000Z</time>
      </trkpt>
      <trkpt lat="47.65157" lon="6.16539">
        <ele>238.60000610352</ele>
        <time>2012-07-11T08:48:23.000Z</time>
      </trkpt>
      <trkpt lat="47.6516" lon="6.16535">
        <ele>238.60000610352</ele>
        <time>2012-07-11T08:48:25.000Z</time>
      </trkpt>
      <trkpt lat="47.65162" lon="6.16533">
        <ele>238.19999694824</ele>
        <time>2012-07-11T08:48:26.000Z</time>
      </trkpt>
      <trkpt lat="47.65164" lon="6.16531">
        <ele>237.80000305176</ele>
        <time>2012-07-11T08:48:27.000Z</time>
      </trkpt>
      <trkpt lat="47.65166" lon="6.1653">
        <ele>237.39999389648</ele>
        <time>2012-07-11T08:48:28.000Z</time>
      </trkpt>
      <trkpt lat="47.65168" lon="6.1653">
        <ele>237</ele>
        <time>2012-07-11T08:48:29.000Z</time>
      </trkpt>
      <trkpt lat="47.6517" lon="6.16531">
        <ele>236.60000610352</ele>
        <time>2012-07-11T08:48:30.000Z</time>
      </trkpt>
      <trkpt lat="47.65178" lon="6.16529">
        <ele>236.60000610352</ele>
        <time>2012-07-11T08:48:34.000Z</time>
      </trkpt>
      <trkpt lat="47.65186" lon="6.16528">
        <ele>236.60000610352</ele>
        <time>2012-07-11T08:48:37.000Z</time>
      </trkpt>
      <trkpt lat="47.65194" lon="6.16527">
        <ele>236.19999694824</ele>
        <time>2012-07-11T08:48:40.000Z</time>
      </trkpt>
      <trkpt lat="47.65197" lon="6.16527">
        <ele>235.60000610352</ele>
        <time>2012-07-11T08:48:41.000Z</time>
      </trkpt>
      <trkpt lat="47.652" lon="6.16527">
        <ele>235.19999694824</ele>
        <time>2012-07-11T08:48:42.000Z</time>
      </trkpt>
      <trkpt lat="47.65204" lon="6.16527">
        <ele>234.80000305176</ele>
        <time>2012-07-11T08:48:43.000Z</time>
      </trkpt>
      <trkpt lat="47.65208" lon="6.16527">
        <ele>234.39999389648</ele>
        <time>2012-07-11T08:48:44.000Z</time>
      </trkpt>
      <trkpt lat="47.65222" lon="6.16524">
        <ele>234</ele>
        <time>2012-07-11T08:48:47.000Z</time>
      </trkpt>
      <trkpt lat="47.65227" lon="6.16523">
        <ele>233.60000610352</ele>
        <time>2012-07-11T08:48:48.000Z</time>
      </trkpt>
      <trkpt lat="47.65231" lon="6.16523">
        <ele>233.19999694824</ele>
        <time>2012-07-11T08:48:49.000Z</time>
      </trkpt>
      <trkpt lat="47.65234" lon="6.16522">
        <ele>232.80000305176</ele>
        <time>2012-07-11T08:48:50.000Z</time>
      </trkpt>
      <trkpt lat="47.65237" lon="6.16522">
        <ele>232.39999389648</ele>
        <time>2012-07-11T08:48:51.000Z</time>
      </trkpt>
      <trkpt lat="47.6524" lon="6.16522">
        <ele>232</ele>
        <time>2012-07-11T08:48:52.000Z</time>
      </trkpt>
      <trkpt lat="47.65243" lon="6.16521">
        <ele>231.60000610352</ele>
        <time>2012-07-11T08:48:53.000Z</time>
      </trkpt>
      <trkpt lat="47.65246" lon="6.16522">
        <ele>231.19999694824</ele>
        <time>2012-07-11T08:48:54.000Z</time>
      </trkpt>
      <trkpt lat="47.65248" lon="6.16521">
        <ele>230.39999389648</ele>
        <time>2012-07-11T08:48:55.000Z</time>
      </trkpt>
      <trkpt lat="47.65261" lon="6.16516">
        <ele>230.39999389648</ele>
        <time>2012-07-11T08:49:02.000Z</time>
      </trkpt>
      <trkpt lat="47.65275" lon="6.16516">
        <ele>230.39999389648</ele>
        <time>2012-07-11T08:49:10.000Z</time>
      </trkpt>
      <trkpt lat="47.65288" lon="6.16519">
        <ele>230.39999389648</ele>
        <time>2012-07-11T08:49:17.000Z</time>
      </trkpt>
      <trkpt lat="47.65299" lon="6.16519">
        <ele>230.39999389648</ele>
        <time>2012-07-11T08:49:23.000Z</time>
      </trkpt>
      <trkpt lat="47.65308" lon="6.16519">
        <ele>230.39999389648</ele>
        <time>2012-07-11T08:49:29.000Z</time>
      </trkpt>
      <trkpt lat="47.65308" lon="6.16519">
        <ele>230.39999389648</ele>
        <time>2012-07-11T08:49:30.000Z</time>
      </trkpt>
      <trkpt lat="47.65315" lon="6.16514">
        <ele>230.39999389648</ele>
        <time>2012-07-11T08:50:54.000Z</time>
      </trkpt>
      <trkpt lat="47.65319" lon="6.16514">
        <ele>230.39999389648</ele>
        <time>2012-07-11T08:50:56.000Z</time>
      </trkpt>
      <trkpt lat="47.65336" lon="6.16515">
        <ele>230.39999389648</ele>
        <time>2012-07-11T08:51:02.000Z</time>
      </trkpt>
      <trkpt lat="47.65364" lon="6.1652">
        <ele>230.39999389648</ele>
        <time>2012-07-11T08:51:09.000Z</time>
      </trkpt>
      <trkpt lat="47.65399" lon="6.16526">
        <ele>230.39999389648</ele>
        <time>2012-07-11T08:51:17.000Z</time>
      </trkpt>
      <trkpt lat="47.65432" lon="6.16532">
        <ele>230.39999389648</ele>
        <time>2012-07-11T08:51:24.000Z</time>
      </trkpt>
      <trkpt lat="47.65437" lon="6.16533">
        <ele>230</ele>
        <time>2012-07-11T08:51:25.000Z</time>
      </trkpt>
      <trkpt lat="47.65441" lon="6.16534">
        <ele>229.60000610352</ele>
        <time>2012-07-11T08:51:26.000Z</time>
      </trkpt>
      <trkpt lat="47.65446" lon="6.16535">
        <ele>229.19999694824</ele>
        <time>2012-07-11T08:51:27.000Z</time>
      </trkpt>
      <trkpt lat="47.6545" lon="6.16536">
        <ele>228.80000305176</ele>
        <time>2012-07-11T08:51:28.000Z</time>
      </trkpt>
      <trkpt lat="47.65455" lon="6.16537">
        <ele>228.39999389648</ele>
        <time>2012-07-11T08:51:29.000Z</time>
      </trkpt>
      <trkpt lat="47.65471" lon="6.16541">
        <ele>228.39999389648</ele>
        <time>2012-07-11T08:51:33.000Z</time>
      </trkpt>
      <trkpt lat="47.65503" lon="6.16545">
        <ele>228.39999389648</ele>
        <time>2012-07-11T08:51:41.000Z</time>
      </trkpt>
      <trkpt lat="47.65524" lon="6.16546">
        <ele>228.39999389648</ele>
        <time>2012-07-11T08:51:46.000Z</time>
      </trkpt>
      <trkpt lat="47.65528" lon="6.16546">
        <ele>228.39999389648</ele>
        <time>2012-07-11T08:51:47.000Z</time>
      </trkpt>
      <trkpt lat="47.65532" lon="6.16546">
        <ele>228.39999389648</ele>
        <time>2012-07-11T08:51:48.000Z</time>
      </trkpt>
      <trkpt lat="47.65544" lon="6.16536">
        <ele>228.39999389648</ele>
        <time>2012-07-11T08:51:51.000Z</time>
      </trkpt>
      <trkpt lat="47.65555" lon="6.16508">
        <ele>228.39999389648</ele>
        <time>2012-07-11T08:51:55.000Z</time>
      </trkpt>
      <trkpt lat="47.65558" lon="6.16502">
        <ele>228.39999389648</ele>
        <time>2012-07-11T08:51:56.000Z</time>
      </trkpt>
      <trkpt lat="47.65569" lon="6.16483">
        <ele>228.39999389648</ele>
        <time>2012-07-11T08:51:59.000Z</time>
      </trkpt>
      <trkpt lat="47.65576" lon="6.16471">
        <ele>228.39999389648</ele>
        <time>2012-07-11T08:52:01.000Z</time>
      </trkpt>
      <trkpt lat="47.6558" lon="6.16466">
        <ele>228</ele>
        <time>2012-07-11T08:52:02.000Z</time>
      </trkpt>
      <trkpt lat="47.65583" lon="6.16461">
        <ele>227.39999389648</ele>
        <time>2012-07-11T08:52:03.000Z</time>
      </trkpt>
      <trkpt lat="47.65587" lon="6.16456">
        <ele>227</ele>
        <time>2012-07-11T08:52:04.000Z</time>
      </trkpt>
      <trkpt lat="47.6559" lon="6.1645">
        <ele>226.60000610352</ele>
        <time>2012-07-11T08:52:05.000Z</time>
      </trkpt>
      <trkpt lat="47.65594" lon="6.16444">
        <ele>226.19999694824</ele>
        <time>2012-07-11T08:52:06.000Z</time>
      </trkpt>
      <trkpt lat="47.65598" lon="6.16439">
        <ele>226.19999694824</ele>
        <time>2012-07-11T08:52:07.000Z</time>
      </trkpt>
      <trkpt lat="47.65613" lon="6.16416">
        <ele>226.19999694824</ele>
        <time>2012-07-11T08:52:11.000Z</time>
      </trkpt>
      <trkpt lat="47.65625" lon="6.16399">
        <ele>226.19999694824</ele>
        <time>2012-07-11T08:52:14.000Z</time>
      </trkpt>
      <trkpt lat="47.65649" lon="6.16366">
        <ele>225.80000305176</ele>
        <time>2012-07-11T08:52:20.000Z</time>
      </trkpt>
      <trkpt lat="47.65653" lon="6.1636">
        <ele>225.39999389648</ele>
        <time>2012-07-11T08:52:21.000Z</time>
      </trkpt>
      <trkpt lat="47.65657" lon="6.16355">
        <ele>225</ele>
        <time>2012-07-11T08:52:22.000Z</time>
      </trkpt>
      <trkpt lat="47.6566" lon="6.1635">
        <ele>224.60000610352</ele>
        <time>2012-07-11T08:52:23.000Z</time>
      </trkpt>
      <trkpt lat="47.65664" lon="6.16344">
        <ele>224.19999694824</ele>
        <time>2012-07-11T08:52:24.000Z</time>
      </trkpt>
      <trkpt lat="47.65682" lon="6.16319">
        <ele>224.19999694824</ele>
        <time>2012-07-11T08:52:29.000Z</time>
      </trkpt>
      <trkpt lat="47.6571" lon="6.1628">
        <ele>224.19999694824</ele>
        <time>2012-07-11T08:52:37.000Z</time>
      </trkpt>
      <trkpt lat="47.65737" lon="6.16241">
        <ele>224.19999694824</ele>
        <time>2012-07-11T08:52:44.000Z</time>
      </trkpt>
      <trkpt lat="47.65761" lon="6.16207">
        <ele>224.19999694824</ele>
        <time>2012-07-11T08:52:51.000Z</time>
      </trkpt>
      <trkpt lat="47.65774" lon="6.16188">
        <ele>224.19999694824</ele>
        <time>2012-07-11T08:52:55.000Z</time>
      </trkpt>
      <trkpt lat="47.65783" lon="6.16175">
        <ele>224.19999694824</ele>
        <time>2012-07-11T08:52:58.000Z</time>
      </trkpt>
      <trkpt lat="47.6579" lon="6.16164">
        <ele>224.80000305176</ele>
        <time>2012-07-11T08:53:01.000Z</time>
      </trkpt>
      <trkpt lat="47.65793" lon="6.1616">
        <ele>225.80000305176</ele>
        <time>2012-07-11T08:53:02.000Z</time>
      </trkpt>
      <trkpt lat="47.65795" lon="6.16157">
        <ele>226.19999694824</ele>
        <time>2012-07-11T08:53:03.000Z</time>
      </trkpt>
      <trkpt lat="47.65797" lon="6.16153">
        <ele>226.80000305176</ele>
        <time>2012-07-11T08:53:04.000Z</time>
      </trkpt>
      <trkpt lat="47.65812" lon="6.16131">
        <ele>226.80000305176</ele>
        <time>2012-07-11T08:53:11.000Z</time>
      </trkpt>
      <trkpt lat="47.65823" lon="6.16113">
        <ele>226.80000305176</ele>
        <time>2012-07-11T08:53:17.000Z</time>
      </trkpt>
      <trkpt lat="47.6583" lon="6.16104">
        <ele>227.19999694824</ele>
        <time>2012-07-11T08:53:20.000Z</time>
      </trkpt>
      <trkpt lat="47.65833" lon="6.16102">
        <ele>227.60000610352</ele>
        <time>2012-07-11T08:53:21.000Z</time>
      </trkpt>
      <trkpt lat="47.65835" lon="6.16098">
        <ele>228</ele>
        <time>2012-07-11T08:53:22.000Z</time>
      </trkpt>
      <trkpt lat="47.65837" lon="6.16095">
        <ele>228.39999389648</ele>
        <time>2012-07-11T08:53:23.000Z</time>
      </trkpt>
      <trkpt lat="47.65839" lon="6.16092">
        <ele>228.80000305176</ele>
        <time>2012-07-11T08:53:24.000Z</time>
      </trkpt>
      <trkpt lat="47.65847" lon="6.16079">
        <ele>228.80000305176</ele>
        <time>2012-07-11T08:53:28.000Z</time>
      </trkpt>
      <trkpt lat="47.6586" lon="6.16063">
        <ele>229.19999694824</ele>
        <time>2012-07-11T08:53:34.000Z</time>
      </trkpt>
      <trkpt lat="47.65862" lon="6.1606">
        <ele>229.80000305176</ele>
        <time>2012-07-11T08:53:35.000Z</time>
      </trkpt>
      <trkpt lat="47.65864" lon="6.16057">
        <ele>230.19999694824</ele>
        <time>2012-07-11T08:53:36.000Z</time>
      </trkpt>
      <trkpt lat="47.65866" lon="6.16055">
        <ele>230.60000610352</ele>
        <time>2012-07-11T08:53:37.000Z</time>
      </trkpt>
      <trkpt lat="47.65868" lon="6.16051">
        <ele>231</ele>
        <time>2012-07-11T08:53:38.000Z</time>
      </trkpt>
      <trkpt lat="47.65875" lon="6.16041">
        <ele>231</ele>
        <time>2012-07-11T08:53:42.000Z</time>
      </trkpt>
      <trkpt lat="47.65891" lon="6.16019">
        <ele>231</ele>
        <time>2012-07-11T08:53:50.000Z</time>
      </trkpt>
      <trkpt lat="47.6591" lon="6.15993">
        <ele>231</ele>
        <time>2012-07-11T08:53:56.000Z</time>
      </trkpt>
      <trkpt lat="47.65918" lon="6.15984">
        <ele>231</ele>
        <time>2012-07-11T08:53:58.000Z</time>
      </trkpt>
      <trkpt lat="47.65931" lon="6.1597">
        <ele>231</ele>
        <time>2012-07-11T08:54:01.000Z</time>
      </trkpt>
      <trkpt lat="47.6593" lon="6.15948">
        <ele>231</ele>
        <time>2012-07-11T08:54:04.000Z</time>
      </trkpt>
      <trkpt lat="47.65921" lon="6.15933">
        <ele>231</ele>
        <time>2012-07-11T08:54:07.000Z</time>
      </trkpt>
      <trkpt lat="47.65915" lon="6.15924">
        <ele>231</ele>
        <time>2012-07-11T08:54:09.000Z</time>
      </trkpt>
      <trkpt lat="47.65902" lon="6.15902">
        <ele>231</ele>
        <time>2012-07-11T08:54:14.000Z</time>
      </trkpt>
      <trkpt lat="47.65887" lon="6.1588">
        <ele>231</ele>
        <time>2012-07-11T08:54:20.000Z</time>
      </trkpt>
      <trkpt lat="47.65877" lon="6.15861">
        <ele>231</ele>
        <time>2012-07-11T08:54:25.000Z</time>
      </trkpt>
      <trkpt lat="47.65865" lon="6.15834">
        <ele>231</ele>
        <time>2012-07-11T08:54:32.000Z</time>
      </trkpt>
      <trkpt lat="47.65859" lon="6.15798">
        <ele>231</ele>
        <time>2012-07-11T08:54:39.000Z</time>
      </trkpt>
      <trkpt lat="47.65849" lon="6.15749">
        <ele>231</ele>
        <time>2012-07-11T08:54:48.000Z</time>
      </trkpt>
      <trkpt lat="47.65844" lon="6.15725">
        <ele>230.60000610352</ele>
        <time>2012-07-11T08:54:52.000Z</time>
      </trkpt>
      <trkpt lat="47.65843" lon="6.15718">
        <ele>230.19999694824</ele>
        <time>2012-07-11T08:54:53.000Z</time>
      </trkpt>
      <trkpt lat="47.65841" lon="6.15712">
        <ele>229.80000305176</ele>
        <time>2012-07-11T08:54:54.000Z</time>
      </trkpt>
      <trkpt lat="47.6584" lon="6.15706">
        <ele>229.19999694824</ele>
        <time>2012-07-11T08:54:55.000Z</time>
      </trkpt>
      <trkpt lat="47.65839" lon="6.15699">
        <ele>228.80000305176</ele>
        <time>2012-07-11T08:54:56.000Z</time>
      </trkpt>
      <trkpt lat="47.65838" lon="6.15693">
        <ele>228.80000305176</ele>
        <time>2012-07-11T08:54:57.000Z</time>
      </trkpt>
      <trkpt lat="47.65826" lon="6.15638">
        <ele>228.80000305176</ele>
        <time>2012-07-11T08:55:06.000Z</time>
      </trkpt>
      <trkpt lat="47.6582" lon="6.1561">
        <ele>228.39999389648</ele>
        <time>2012-07-11T08:55:10.000Z</time>
      </trkpt>
      <trkpt lat="47.65819" lon="6.15603">
        <ele>228</ele>
        <time>2012-07-11T08:55:11.000Z</time>
      </trkpt>
      <trkpt lat="47.65817" lon="6.15597">
        <ele>227.60000610352</ele>
        <time>2012-07-11T08:55:12.000Z</time>
      </trkpt>
      <trkpt lat="47.65816" lon="6.1559">
        <ele>227</ele>
        <time>2012-07-11T08:55:13.000Z</time>
      </trkpt>
      <trkpt lat="47.65815" lon="6.15584">
        <ele>226.60000610352</ele>
        <time>2012-07-11T08:55:14.000Z</time>
      </trkpt>
      <trkpt lat="47.65805" lon="6.15539">
        <ele>226.19999694824</ele>
        <time>2012-07-11T08:55:21.000Z</time>
      </trkpt>
      <trkpt lat="47.65804" lon="6.15533">
        <ele>225.80000305176</ele>
        <time>2012-07-11T08:55:22.000Z</time>
      </trkpt>
      <trkpt lat="47.65803" lon="6.15526">
        <ele>225.39999389648</ele>
        <time>2012-07-11T08:55:23.000Z</time>
      </trkpt>
      <trkpt lat="47.65801" lon="6.1552">
        <ele>225</ele>
        <time>2012-07-11T08:55:24.000Z</time>
      </trkpt>
      <trkpt lat="47.65801" lon="6.15513">
        <ele>224.39999389648</ele>
        <time>2012-07-11T08:55:25.000Z</time>
      </trkpt>
      <trkpt lat="47.65799" lon="6.15501">
        <ele>224.39999389648</ele>
        <time>2012-07-11T08:55:27.000Z</time>
      </trkpt>
      <trkpt lat="47.65798" lon="6.15495">
        <ele>224.39999389648</ele>
        <time>2012-07-11T08:55:28.000Z</time>
      </trkpt>
      <trkpt lat="47.65795" lon="6.1548">
        <ele>224</ele>
        <time>2012-07-11T08:55:30.000Z</time>
      </trkpt>
      <trkpt lat="47.65793" lon="6.15473">
        <ele>223.19999694824</ele>
        <time>2012-07-11T08:55:31.000Z</time>
      </trkpt>
      <trkpt lat="47.65792" lon="6.15465">
        <ele>222.80000305176</ele>
        <time>2012-07-11T08:55:32.000Z</time>
      </trkpt>
      <trkpt lat="47.65791" lon="6.15458">
        <ele>222.39999389648</ele>
        <time>2012-07-11T08:55:33.000Z</time>
      </trkpt>
      <trkpt lat="47.65788" lon="6.15443">
        <ele>222.39999389648</ele>
        <time>2012-07-11T08:55:35.000Z</time>
      </trkpt>
      <trkpt lat="47.6578" lon="6.15415">
        <ele>222</ele>
        <time>2012-07-11T08:55:39.000Z</time>
      </trkpt>
      <trkpt lat="47.65779" lon="6.15408">
        <ele>221.60000610352</ele>
        <time>2012-07-11T08:55:40.000Z</time>
      </trkpt>
      <trkpt lat="47.65778" lon="6.15402">
        <ele>221.19999694824</ele>
        <time>2012-07-11T08:55:41.000Z</time>
      </trkpt>
      <trkpt lat="47.65777" lon="6.15397">
        <ele>220.60000610352</ele>
        <time>2012-07-11T08:55:42.000Z</time>
      </trkpt>
      <trkpt lat="47.65776" lon="6.15391">
        <ele>220.19999694824</ele>
        <time>2012-07-11T08:55:43.000Z</time>
      </trkpt>
      <trkpt lat="47.65769" lon="6.15353">
        <ele>220.19999694824</ele>
        <time>2012-07-11T08:55:50.000Z</time>
      </trkpt>
      <trkpt lat="47.65763" lon="6.15324">
        <ele>220.19999694824</ele>
        <time>2012-07-11T08:55:57.000Z</time>
      </trkpt>
      <trkpt lat="47.65757" lon="6.15294">
        <ele>220.19999694824</ele>
        <time>2012-07-11T08:56:05.000Z</time>
      </trkpt>
      <trkpt lat="47.65754" lon="6.15276">
        <ele>220.19999694824</ele>
        <time>2012-07-11T08:56:11.000Z</time>
      </trkpt>
      <trkpt lat="47.65753" lon="6.1527">
        <ele>220.60000610352</ele>
        <time>2012-07-11T08:56:13.000Z</time>
      </trkpt>
      <trkpt lat="47.65752" lon="6.15268">
        <ele>221</ele>
        <time>2012-07-11T08:56:14.000Z</time>
      </trkpt>
      <trkpt lat="47.65751" lon="6.15264">
        <ele>221.39999389648</ele>
        <time>2012-07-11T08:56:15.000Z</time>
      </trkpt>
      <trkpt lat="47.65751" lon="6.15261">
        <ele>221.80000305176</ele>
        <time>2012-07-11T08:56:16.000Z</time>
      </trkpt>
      <trkpt lat="47.6575" lon="6.15258">
        <ele>222.19999694824</ele>
        <time>2012-07-11T08:56:17.000Z</time>
      </trkpt>
      <trkpt lat="47.65747" lon="6.15242">
        <ele>222.19999694824</ele>
        <time>2012-07-11T08:56:22.000Z</time>
      </trkpt>
      <trkpt lat="47.65747" lon="6.1524">
        <ele>222.60000610352</ele>
        <time>2012-07-11T08:56:23.000Z</time>
      </trkpt>
      <trkpt lat="47.65746" lon="6.15236">
        <ele>223.19999694824</ele>
        <time>2012-07-11T08:56:24.000Z</time>
      </trkpt>
      <trkpt lat="47.65745" lon="6.15234">
        <ele>223.60000610352</ele>
        <time>2012-07-11T08:56:25.000Z</time>
      </trkpt>
      <trkpt lat="47.65745" lon="6.15231">
        <ele>224</ele>
        <time>2012-07-11T08:56:26.000Z</time>
      </trkpt>
      <trkpt lat="47.65745" lon="6.15228">
        <ele>224.39999389648</ele>
        <time>2012-07-11T08:56:27.000Z</time>
      </trkpt>
      <trkpt lat="47.65743" lon="6.15216">
        <ele>224.39999389648</ele>
        <time>2012-07-11T08:56:31.000Z</time>
      </trkpt>
      <trkpt lat="47.6574" lon="6.15206">
        <ele>224.80000305176</ele>
        <time>2012-07-11T08:56:35.000Z</time>
      </trkpt>
      <trkpt lat="47.6574" lon="6.15204">
        <ele>225.19999694824</ele>
        <time>2012-07-11T08:56:36.000Z</time>
      </trkpt>
      <trkpt lat="47.65739" lon="6.15201">
        <ele>225.60000610352</ele>
        <time>2012-07-11T08:56:37.000Z</time>
      </trkpt>
      <trkpt lat="47.65739" lon="6.15199">
        <ele>226</ele>
        <time>2012-07-11T08:56:38.000Z</time>
      </trkpt>
      <trkpt lat="47.65738" lon="6.15196">
        <ele>226.39999389648</ele>
        <time>2012-07-11T08:56:39.000Z</time>
      </trkpt>
      <trkpt lat="47.65735" lon="6.1518">
        <ele>226.39999389648</ele>
        <time>2012-07-11T08:56:45.000Z</time>
      </trkpt>
      <trkpt lat="47.65732" lon="6.15163">
        <ele>226.80000305176</ele>
        <time>2012-07-11T08:56:51.000Z</time>
      </trkpt>
      <trkpt lat="47.65731" lon="6.15161">
        <ele>227.19999694824</ele>
        <time>2012-07-11T08:56:52.000Z</time>
      </trkpt>
      <trkpt lat="47.65731" lon="6.15158">
        <ele>227.60000610352</ele>
        <time>2012-07-11T08:56:53.000Z</time>
      </trkpt>
      <trkpt lat="47.6573" lon="6.15155">
        <ele>228.19999694824</ele>
        <time>2012-07-11T08:56:54.000Z</time>
      </trkpt>
      <trkpt lat="47.65729" lon="6.15151">
        <ele>228.60000610352</ele>
        <time>2012-07-11T08:56:55.000Z</time>
      </trkpt>
      <trkpt lat="47.65726" lon="6.15133">
        <ele>228.60000610352</ele>
        <time>2012-07-11T08:57:01.000Z</time>
      </trkpt>
      <trkpt lat="47.65724" lon="6.1511">
        <ele>228.60000610352</ele>
        <time>2012-07-11T08:57:07.000Z</time>
      </trkpt>
      <trkpt lat="47.65718" lon="6.15086">
        <ele>228.60000610352</ele>
        <time>2012-07-11T08:57:15.000Z</time>
      </trkpt>
      <trkpt lat="47.65713" lon="6.15063">
        <ele>228.60000610352</ele>
        <time>2012-07-11T08:57:22.000Z</time>
      </trkpt>
      <trkpt lat="47.65708" lon="6.15035">
        <ele>228.60000610352</ele>
        <time>2012-07-11T08:57:30.000Z</time>
      </trkpt>
      <trkpt lat="47.65712" lon="6.15024">
        <ele>228.60000610352</ele>
        <time>2012-07-11T08:57:34.000Z</time>
      </trkpt>
      <trkpt lat="47.65717" lon="6.15023">
        <ele>228.60000610352</ele>
        <time>2012-07-11T08:57:36.000Z</time>
      </trkpt>
      <trkpt lat="47.65722" lon="6.15025">
        <ele>228.60000610352</ele>
        <time>2012-07-11T08:57:38.000Z</time>
      </trkpt>
      <trkpt lat="47.65729" lon="6.15023">
        <ele>228.60000610352</ele>
        <time>2012-07-11T08:57:41.000Z</time>
      </trkpt>
      <trkpt lat="47.65737" lon="6.15023">
        <ele>228.60000610352</ele>
        <time>2012-07-11T08:57:44.000Z</time>
      </trkpt>
      <trkpt lat="47.65746" lon="6.15023">
        <ele>229</ele>
        <time>2012-07-11T08:57:47.000Z</time>
      </trkpt>
      <trkpt lat="47.65749" lon="6.15022">
        <ele>229.39999389648</ele>
        <time>2012-07-11T08:57:48.000Z</time>
      </trkpt>
      <trkpt lat="47.65752" lon="6.15023">
        <ele>229.80000305176</ele>
        <time>2012-07-11T08:57:49.000Z</time>
      </trkpt>
      <trkpt lat="47.65755" lon="6.15023">
        <ele>230.19999694824</ele>
        <time>2012-07-11T08:57:50.000Z</time>
      </trkpt>
      <trkpt lat="47.65758" lon="6.15023">
        <ele>230.60000610352</ele>
        <time>2012-07-11T08:57:51.000Z</time>
      </trkpt>
      <trkpt lat="47.65764" lon="6.15023">
        <ele>230.60000610352</ele>
        <time>2012-07-11T08:57:53.000Z</time>
      </trkpt>
      <trkpt lat="47.6579" lon="6.15021">
        <ele>230.60000610352</ele>
        <time>2012-07-11T08:58:02.000Z</time>
      </trkpt>
      <trkpt lat="47.6581" lon="6.15018">
        <ele>230.60000610352</ele>
        <time>2012-07-11T08:58:08.000Z</time>
      </trkpt>
      <trkpt lat="47.65837" lon="6.15015">
        <ele>230.60000610352</ele>
        <time>2012-07-11T08:58:15.000Z</time>
      </trkpt>
      <trkpt lat="47.65866" lon="6.15016">
        <ele>230.60000610352</ele>
        <time>2012-07-11T08:58:21.000Z</time>
      </trkpt>
      <trkpt lat="47.65883" lon="6.15016">
        <ele>229.60000610352</ele>
        <time>2012-07-11T08:58:24.000Z</time>
      </trkpt>
      <trkpt lat="47.65889" lon="6.15015">
        <ele>229.19999694824</ele>
        <time>2012-07-11T08:58:25.000Z</time>
      </trkpt>
      <trkpt lat="47.65896" lon="6.15016">
        <ele>228.80000305176</ele>
        <time>2012-07-11T08:58:26.000Z</time>
      </trkpt>
      <trkpt lat="47.65902" lon="6.15016">
        <ele>228.39999389648</ele>
        <time>2012-07-11T08:58:27.000Z</time>
      </trkpt>
      <trkpt lat="47.65937" lon="6.15016">
        <ele>227.80000305176</ele>
        <time>2012-07-11T08:58:33.000Z</time>
      </trkpt>
      <trkpt lat="47.65945" lon="6.15016">
        <ele>227.39999389648</ele>
        <time>2012-07-11T08:58:34.000Z</time>
      </trkpt>
      <trkpt lat="47.65952" lon="6.15017">
        <ele>226.80000305176</ele>
        <time>2012-07-11T08:58:35.000Z</time>
      </trkpt>
      <trkpt lat="47.6596" lon="6.15017">
        <ele>226.39999389648</ele>
        <time>2012-07-11T08:58:36.000Z</time>
      </trkpt>
      <trkpt lat="47.65967" lon="6.15018">
        <ele>225.80000305176</ele>
        <time>2012-07-11T08:58:37.000Z</time>
      </trkpt>
      <trkpt lat="47.66002" lon="6.15022">
        <ele>225.80000305176</ele>
        <time>2012-07-11T08:58:42.000Z</time>
      </trkpt>
      <trkpt lat="47.66055" lon="6.15024">
        <ele>225.80000305176</ele>
        <time>2012-07-11T08:58:50.000Z</time>
      </trkpt>
      <trkpt lat="47.66091" lon="6.15022">
        <ele>225.80000305176</ele>
        <time>2012-07-11T08:58:57.000Z</time>
      </trkpt>
      <trkpt lat="47.66111" lon="6.15023">
        <ele>225.80000305176</ele>
        <time>2012-07-11T08:59:03.000Z</time>
      </trkpt>
      <trkpt lat="47.66129" lon="6.15022">
        <ele>226.19999694824</ele>
        <time>2012-07-11T08:59:09.000Z</time>
      </trkpt>
      <trkpt lat="47.66133" lon="6.15022">
        <ele>226.60000610352</ele>
        <time>2012-07-11T08:59:10.000Z</time>
      </trkpt>
      <trkpt lat="47.66136" lon="6.15021">
        <ele>227</ele>
        <time>2012-07-11T08:59:11.000Z</time>
      </trkpt>
      <trkpt lat="47.66139" lon="6.15021">
        <ele>227.60000610352</ele>
        <time>2012-07-11T08:59:12.000Z</time>
      </trkpt>
      <trkpt lat="47.66143" lon="6.1502">
        <ele>228</ele>
        <time>2012-07-11T08:59:13.000Z</time>
      </trkpt>
      <trkpt lat="47.66156" lon="6.1502">
        <ele>228.39999389648</ele>
        <time>2012-07-11T08:59:17.000Z</time>
      </trkpt>
      <trkpt lat="47.66159" lon="6.1502">
        <ele>228.80000305176</ele>
        <time>2012-07-11T08:59:18.000Z</time>
      </trkpt>
      <trkpt lat="47.66162" lon="6.1502">
        <ele>229.39999389648</ele>
        <time>2012-07-11T08:59:19.000Z</time>
      </trkpt>
      <trkpt lat="47.66165" lon="6.15021">
        <ele>229.80000305176</ele>
        <time>2012-07-11T08:59:20.000Z</time>
      </trkpt>
      <trkpt lat="47.66168" lon="6.15021">
        <ele>230.19999694824</ele>
        <time>2012-07-11T08:59:21.000Z</time>
      </trkpt>
      <trkpt lat="47.6618" lon="6.15023">
        <ele>230.19999694824</ele>
        <time>2012-07-11T08:59:25.000Z</time>
      </trkpt>
      <trkpt lat="47.66183" lon="6.15023">
        <ele>230.60000610352</ele>
        <time>2012-07-11T08:59:26.000Z</time>
      </trkpt>
      <trkpt lat="47.66186" lon="6.15023">
        <ele>231</ele>
        <time>2012-07-11T08:59:27.000Z</time>
      </trkpt>
      <trkpt lat="47.66188" lon="6.15024">
        <ele>231.39999389648</ele>
        <time>2012-07-11T08:59:28.000Z</time>
      </trkpt>
      <trkpt lat="47.66191" lon="6.15024">
        <ele>231.80000305176</ele>
        <time>2012-07-11T08:59:29.000Z</time>
      </trkpt>
      <trkpt lat="47.66193" lon="6.15025">
        <ele>232.19999694824</ele>
        <time>2012-07-11T08:59:30.000Z</time>
      </trkpt>
      <trkpt lat="47.66199" lon="6.15027">
        <ele>232.19999694824</ele>
        <time>2012-07-11T08:59:33.000Z</time>
      </trkpt>
      <trkpt lat="47.66211" lon="6.15029">
        <ele>233.19999694824</ele>
        <time>2012-07-11T08:59:38.000Z</time>
      </trkpt>
      <trkpt lat="47.66213" lon="6.1503">
        <ele>233.60000610352</ele>
        <time>2012-07-11T08:59:39.000Z</time>
      </trkpt>
      <trkpt lat="47.66216" lon="6.15031">
        <ele>234.19999694824</ele>
        <time>2012-07-11T08:59:40.000Z</time>
      </trkpt>
      <trkpt lat="47.66219" lon="6.15031">
        <ele>234.60000610352</ele>
        <time>2012-07-11T08:59:41.000Z</time>
      </trkpt>
      <trkpt lat="47.66236" lon="6.15034">
        <ele>234.60000610352</ele>
        <time>2012-07-11T08:59:48.000Z</time>
      </trkpt>
      <trkpt lat="47.66245" lon="6.15035">
        <ele>235</ele>
        <time>2012-07-11T08:59:52.000Z</time>
      </trkpt>
      <trkpt lat="47.66248" lon="6.15036">
        <ele>235.60000610352</ele>
        <time>2012-07-11T08:59:53.000Z</time>
      </trkpt>
      <trkpt lat="47.66251" lon="6.15037">
        <ele>236</ele>
        <time>2012-07-11T08:59:54.000Z</time>
      </trkpt>
      <trkpt lat="47.66253" lon="6.15038">
        <ele>236.39999389648</ele>
        <time>2012-07-11T08:59:55.000Z</time>
      </trkpt>
      <trkpt lat="47.66256" lon="6.15039">
        <ele>236.80000305176</ele>
        <time>2012-07-11T08:59:56.000Z</time>
      </trkpt>
      <trkpt lat="47.6627" lon="6.15041">
        <ele>236.80000305176</ele>
        <time>2012-07-11T09:00:01.000Z</time>
      </trkpt>
      <trkpt lat="47.66275" lon="6.15041">
        <ele>237.19999694824</ele>
        <time>2012-07-11T09:00:03.000Z</time>
      </trkpt>
      <trkpt lat="47.66278" lon="6.15042">
        <ele>237.60000610352</ele>
        <time>2012-07-11T09:00:04.000Z</time>
      </trkpt>
      <trkpt lat="47.6628" lon="6.15043">
        <ele>238.19999694824</ele>
        <time>2012-07-11T09:00:05.000Z</time>
      </trkpt>
      <trkpt lat="47.66283" lon="6.15044">
        <ele>238.60000610352</ele>
        <time>2012-07-11T09:00:06.000Z</time>
      </trkpt>
      <trkpt lat="47.66285" lon="6.15044">
        <ele>239</ele>
        <time>2012-07-11T09:00:07.000Z</time>
      </trkpt>
      <trkpt lat="47.66307" lon="6.15048">
        <ele>239</ele>
        <time>2012-07-11T09:00:15.000Z</time>
      </trkpt>
      <trkpt lat="47.66328" lon="6.15052">
        <ele>239</ele>
        <time>2012-07-11T09:00:23.000Z</time>
      </trkpt>
      <trkpt lat="47.66352" lon="6.15055">
        <ele>239</ele>
        <time>2012-07-11T09:00:31.000Z</time>
      </trkpt>
      <trkpt lat="47.66375" lon="6.15052">
        <ele>239</ele>
        <time>2012-07-11T09:00:38.000Z</time>
      </trkpt>
      <trkpt lat="47.66404" lon="6.15047">
        <ele>239</ele>
        <time>2012-07-11T09:00:46.000Z</time>
      </trkpt>
      <trkpt lat="47.6643" lon="6.1504">
        <ele>239</ele>
        <time>2012-07-11T09:00:53.000Z</time>
      </trkpt>
      <trkpt lat="47.66434" lon="6.15039">
        <ele>239</ele>
        <time>2012-07-11T09:00:54.000Z</time>
      </trkpt>
      <trkpt lat="47.66453" lon="6.15032">
        <ele>239</ele>
        <time>2012-07-11T09:00:59.000Z</time>
      </trkpt>
      <trkpt lat="47.66462" lon="6.15032">
        <ele>239</ele>
        <time>2012-07-11T09:01:01.000Z</time>
      </trkpt>
      <trkpt lat="47.66475" lon="6.15037">
        <ele>239</ele>
        <time>2012-07-11T09:01:04.000Z</time>
      </trkpt>
      <trkpt lat="47.66483" lon="6.15042">
        <ele>239</ele>
        <time>2012-07-11T09:01:06.000Z</time>
      </trkpt>
      <trkpt lat="47.66511" lon="6.15049">
        <ele>239</ele>
        <time>2012-07-11T09:01:13.000Z</time>
      </trkpt>
      <trkpt lat="47.66519" lon="6.15049">
        <ele>239</ele>
        <time>2012-07-11T09:01:15.000Z</time>
      </trkpt>
      <trkpt lat="47.66534" lon="6.15049">
        <ele>239</ele>
        <time>2012-07-11T09:01:19.000Z</time>
      </trkpt>
      <trkpt lat="47.66556" lon="6.15047">
        <ele>239</ele>
        <time>2012-07-11T09:01:26.000Z</time>
      </trkpt>
      <trkpt lat="47.66568" lon="6.15039">
        <ele>239</ele>
        <time>2012-07-11T09:01:31.000Z</time>
      </trkpt>
      <trkpt lat="47.66574" lon="6.15024">
        <ele>239</ele>
        <time>2012-07-11T09:01:36.000Z</time>
      </trkpt>
      <trkpt lat="47.66576" lon="6.15022">
        <ele>239.39999389648</ele>
        <time>2012-07-11T09:01:37.000Z</time>
      </trkpt>
      <trkpt lat="47.66577" lon="6.1502">
        <ele>239.80000305176</ele>
        <time>2012-07-11T09:01:38.000Z</time>
      </trkpt>
      <trkpt lat="47.66579" lon="6.15018">
        <ele>240.19999694824</ele>
        <time>2012-07-11T09:01:39.000Z</time>
      </trkpt>
      <trkpt lat="47.66581" lon="6.15016">
        <ele>240.60000610352</ele>
        <time>2012-07-11T09:01:40.000Z</time>
      </trkpt>
      <trkpt lat="47.66582" lon="6.15013">
        <ele>241</ele>
        <time>2012-07-11T09:01:41.000Z</time>
      </trkpt>
      <trkpt lat="47.66584" lon="6.15011">
        <ele>241</ele>
        <time>2012-07-11T09:01:42.000Z</time>
      </trkpt>
      <trkpt lat="47.66596" lon="6.14992">
        <ele>241.39999389648</ele>
        <time>2012-07-11T09:01:50.000Z</time>
      </trkpt>
      <trkpt lat="47.66597" lon="6.14991">
        <ele>241.80000305176</ele>
        <time>2012-07-11T09:01:51.000Z</time>
      </trkpt>
      <trkpt lat="47.66599" lon="6.14989">
        <ele>242.19999694824</ele>
        <time>2012-07-11T09:01:52.000Z</time>
      </trkpt>
      <trkpt lat="47.666" lon="6.14987">
        <ele>242.60000610352</ele>
        <time>2012-07-11T09:01:53.000Z</time>
      </trkpt>
      <trkpt lat="47.66601" lon="6.14985">
        <ele>243</ele>
        <time>2012-07-11T09:01:54.000Z</time>
      </trkpt>
      <trkpt lat="47.66604" lon="6.14978">
        <ele>243</ele>
        <time>2012-07-11T09:01:57.000Z</time>
      </trkpt>
      <trkpt lat="47.66614" lon="6.14962">
        <ele>243</ele>
        <time>2012-07-11T09:02:03.000Z</time>
      </trkpt>
      <trkpt lat="47.66619" lon="6.14956">
        <ele>243.39999389648</ele>
        <time>2012-07-11T09:02:06.000Z</time>
      </trkpt>
      <trkpt lat="47.66621" lon="6.14953">
        <ele>243.80000305176</ele>
        <time>2012-07-11T09:02:07.000Z</time>
      </trkpt>
      <trkpt lat="47.66623" lon="6.14951">
        <ele>244.39999389648</ele>
        <time>2012-07-11T09:02:08.000Z</time>
      </trkpt>
      <trkpt lat="47.66624" lon="6.14948">
        <ele>244.80000305176</ele>
        <time>2012-07-11T09:02:09.000Z</time>
      </trkpt>
      <trkpt lat="47.66626" lon="6.14946">
        <ele>245.19999694824</ele>
        <time>2012-07-11T09:02:10.000Z</time>
      </trkpt>
      <trkpt lat="47.66633" lon="6.14933">
        <ele>245.60000610352</ele>
        <time>2012-07-11T09:02:16.000Z</time>
      </trkpt>
      <trkpt lat="47.66634" lon="6.14931">
        <ele>246</ele>
        <time>2012-07-11T09:02:17.000Z</time>
      </trkpt>
      <trkpt lat="47.66635" lon="6.14929">
        <ele>246.39999389648</ele>
        <time>2012-07-11T09:02:18.000Z</time>
      </trkpt>
      <trkpt lat="47.66636" lon="6.14927">
        <ele>246.80000305176</ele>
        <time>2012-07-11T09:02:19.000Z</time>
      </trkpt>
      <trkpt lat="47.66638" lon="6.14924">
        <ele>247.19999694824</ele>
        <time>2012-07-11T09:02:20.000Z</time>
      </trkpt>
      <trkpt lat="47.66641" lon="6.14917">
        <ele>247.19999694824</ele>
        <time>2012-07-11T09:02:23.000Z</time>
      </trkpt>
      <trkpt lat="47.66645" lon="6.14903">
        <ele>247.19999694824</ele>
        <time>2012-07-11T09:02:28.000Z</time>
      </trkpt>
      <trkpt lat="47.66647" lon="6.14898">
        <ele>247.60000610352</ele>
        <time>2012-07-11T09:02:30.000Z</time>
      </trkpt>
      <trkpt lat="47.66648" lon="6.14896">
        <ele>248</ele>
        <time>2012-07-11T09:02:31.000Z</time>
      </trkpt>
      <trkpt lat="47.66649" lon="6.14893">
        <ele>248.39999389648</ele>
        <time>2012-07-11T09:02:32.000Z</time>
      </trkpt>
      <trkpt lat="47.6665" lon="6.1489">
        <ele>248.80000305176</ele>
        <time>2012-07-11T09:02:33.000Z</time>
      </trkpt>
      <trkpt lat="47.66651" lon="6.14887">
        <ele>249.39999389648</ele>
        <time>2012-07-11T09:02:34.000Z</time>
      </trkpt>
      <trkpt lat="47.66652" lon="6.14884">
        <ele>249.39999389648</ele>
        <time>2012-07-11T09:02:35.000Z</time>
      </trkpt>
      <trkpt lat="47.66658" lon="6.14869">
        <ele>249.39999389648</ele>
        <time>2012-07-11T09:02:41.000Z</time>
      </trkpt>
      <trkpt lat="47.66661" lon="6.14858">
        <ele>249.80000305176</ele>
        <time>2012-07-11T09:02:45.000Z</time>
      </trkpt>
      <trkpt lat="47.66661" lon="6.14855">
        <ele>250.19999694824</ele>
        <time>2012-07-11T09:02:46.000Z</time>
      </trkpt>
      <trkpt lat="47.66662" lon="6.14852">
        <ele>250.60000610352</ele>
        <time>2012-07-11T09:02:47.000Z</time>
      </trkpt>
      <trkpt lat="47.66663" lon="6.14849">
        <ele>251</ele>
        <time>2012-07-11T09:02:48.000Z</time>
      </trkpt>
      <trkpt lat="47.66663" lon="6.14847">
        <ele>251.39999389648</ele>
        <time>2012-07-11T09:02:49.000Z</time>
      </trkpt>
      <trkpt lat="47.66669" lon="6.14835">
        <ele>251.39999389648</ele>
        <time>2012-07-11T09:02:54.000Z</time>
      </trkpt>
      <trkpt lat="47.66674" lon="6.14818">
        <ele>251.80000305176</ele>
        <time>2012-07-11T09:03:00.000Z</time>
      </trkpt>
      <trkpt lat="47.66675" lon="6.14816">
        <ele>252.19999694824</ele>
        <time>2012-07-11T09:03:01.000Z</time>
      </trkpt>
      <trkpt lat="47.66676" lon="6.14814">
        <ele>252.60000610352</ele>
        <time>2012-07-11T09:03:02.000Z</time>
      </trkpt>
      <trkpt lat="47.66677" lon="6.14811">
        <ele>253</ele>
        <time>2012-07-11T09:03:03.000Z</time>
      </trkpt>
      <trkpt lat="47.66678" lon="6.14808">
        <ele>253.39999389648</ele>
        <time>2012-07-11T09:03:04.000Z</time>
      </trkpt>
      <trkpt lat="47.6668" lon="6.14802">
        <ele>253.39999389648</ele>
        <time>2012-07-11T09:03:06.000Z</time>
      </trkpt>
      <trkpt lat="47.66688" lon="6.14792">
        <ele>253.39999389648</ele>
        <time>2012-07-11T09:03:12.000Z</time>
      </trkpt>
      <trkpt lat="47.667" lon="6.14796">
        <ele>253.39999389648</ele>
        <time>2012-07-11T09:03:17.000Z</time>
      </trkpt>
      <trkpt lat="47.66705" lon="6.14799">
        <ele>253.39999389648</ele>
        <time>2012-07-11T09:03:19.000Z</time>
      </trkpt>
      <trkpt lat="47.6671" lon="6.14804">
        <ele>253.39999389648</ele>
        <time>2012-07-11T09:03:22.000Z</time>
      </trkpt>
      <trkpt lat="47.66718" lon="6.148">
        <ele>253.39999389648</ele>
        <time>2012-07-11T09:03:26.000Z</time>
      </trkpt>
      <trkpt lat="47.66723" lon="6.14785">
        <ele>253.39999389648</ele>
        <time>2012-07-11T09:03:30.000Z</time>
      </trkpt>
      <trkpt lat="47.66724" lon="6.14781">
        <ele>253.80000305176</ele>
        <time>2012-07-11T09:03:31.000Z</time>
      </trkpt>
      <trkpt lat="47.66725" lon="6.14777">
        <ele>254.19999694824</ele>
        <time>2012-07-11T09:03:32.000Z</time>
      </trkpt>
      <trkpt lat="47.66725" lon="6.14772">
        <ele>254.60000610352</ele>
        <time>2012-07-11T09:03:33.000Z</time>
      </trkpt>
      <trkpt lat="47.66726" lon="6.14767">
        <ele>255</ele>
        <time>2012-07-11T09:03:34.000Z</time>
      </trkpt>
      <trkpt lat="47.66728" lon="6.14762">
        <ele>255.39999389648</ele>
        <time>2012-07-11T09:03:35.000Z</time>
      </trkpt>
      <trkpt lat="47.66732" lon="6.14747">
        <ele>255.39999389648</ele>
        <time>2012-07-11T09:03:38.000Z</time>
      </trkpt>
      <trkpt lat="47.66738" lon="6.14712">
        <ele>255.39999389648</ele>
        <time>2012-07-11T09:03:45.000Z</time>
      </trkpt>
      <trkpt lat="47.66737" lon="6.14677">
        <ele>255.39999389648</ele>
        <time>2012-07-11T09:03:52.000Z</time>
      </trkpt>
      <trkpt lat="47.66732" lon="6.14638">
        <ele>255.39999389648</ele>
        <time>2012-07-11T09:04:00.000Z</time>
      </trkpt>
      <trkpt lat="47.66725" lon="6.14589">
        <ele>255.39999389648</ele>
        <time>2012-07-11T09:04:09.000Z</time>
      </trkpt>
      <trkpt lat="47.66718" lon="6.14542">
        <ele>255.39999389648</ele>
        <time>2012-07-11T09:04:17.000Z</time>
      </trkpt>
      <trkpt lat="47.66714" lon="6.14494">
        <ele>255.39999389648</ele>
        <time>2012-07-11T09:04:25.000Z</time>
      </trkpt>
      <trkpt lat="47.66713" lon="6.14476">
        <ele>255</ele>
        <time>2012-07-11T09:04:28.000Z</time>
      </trkpt>
      <trkpt lat="47.66714" lon="6.1447">
        <ele>254.39999389648</ele>
        <time>2012-07-11T09:04:29.000Z</time>
      </trkpt>
      <trkpt lat="47.66714" lon="6.14464">
        <ele>254</ele>
        <time>2012-07-11T09:04:30.000Z</time>
      </trkpt>
      <trkpt lat="47.66714" lon="6.14458">
        <ele>253.39999389648</ele>
        <time>2012-07-11T09:04:31.000Z</time>
      </trkpt>
      <trkpt lat="47.66714" lon="6.14451">
        <ele>253</ele>
        <time>2012-07-11T09:04:32.000Z</time>
      </trkpt>
      <trkpt lat="47.6672" lon="6.14405">
        <ele>253</ele>
        <time>2012-07-11T09:04:39.000Z</time>
      </trkpt>
      <trkpt lat="47.66721" lon="6.14398">
        <ele>253</ele>
        <time>2012-07-11T09:04:40.000Z</time>
      </trkpt>
      <trkpt lat="47.66726" lon="6.1437">
        <ele>252.60000610352</ele>
        <time>2012-07-11T09:04:44.000Z</time>
      </trkpt>
      <trkpt lat="47.66728" lon="6.14362">
        <ele>252.19999694824</ele>
        <time>2012-07-11T09:04:45.000Z</time>
      </trkpt>
      <trkpt lat="47.66729" lon="6.14354">
        <ele>251.60000610352</ele>
        <time>2012-07-11T09:04:46.000Z</time>
      </trkpt>
      <trkpt lat="47.6673" lon="6.14346">
        <ele>251.19999694824</ele>
        <time>2012-07-11T09:04:47.000Z</time>
      </trkpt>
      <trkpt lat="47.66732" lon="6.14338">
        <ele>250.60000610352</ele>
        <time>2012-07-11T09:04:48.000Z</time>
      </trkpt>
      <trkpt lat="47.66733" lon="6.1433">
        <ele>250.19999694824</ele>
        <time>2012-07-11T09:04:49.000Z</time>
      </trkpt>
      <trkpt lat="47.66735" lon="6.14321">
        <ele>249.60000610352</ele>
        <time>2012-07-11T09:04:50.000Z</time>
      </trkpt>
      <trkpt lat="47.66736" lon="6.14312">
        <ele>249</ele>
        <time>2012-07-11T09:04:51.000Z</time>
      </trkpt>
      <trkpt lat="47.66738" lon="6.14303">
        <ele>248.39999389648</ele>
        <time>2012-07-11T09:04:52.000Z</time>
      </trkpt>
      <trkpt lat="47.66745" lon="6.14261">
        <ele>248</ele>
        <time>2012-07-11T09:04:56.000Z</time>
      </trkpt>
      <trkpt lat="47.66748" lon="6.1425">
        <ele>247.60000610352</ele>
        <time>2012-07-11T09:04:57.000Z</time>
      </trkpt>
      <trkpt lat="47.66751" lon="6.14237">
        <ele>247</ele>
        <time>2012-07-11T09:04:58.000Z</time>
      </trkpt>
      <trkpt lat="47.66753" lon="6.14226">
        <ele>246</ele>
        <time>2012-07-11T09:04:59.000Z</time>
      </trkpt>
      <trkpt lat="47.66756" lon="6.14214">
        <ele>245.39999389648</ele>
        <time>2012-07-11T09:05:00.000Z</time>
      </trkpt>
      <trkpt lat="47.66758" lon="6.14202">
        <ele>244.80000305176</ele>
        <time>2012-07-11T09:05:01.000Z</time>
      </trkpt>
      <trkpt lat="47.66761" lon="6.14189">
        <ele>244.19999694824</ele>
        <time>2012-07-11T09:05:02.000Z</time>
      </trkpt>
      <trkpt lat="47.66762" lon="6.14177">
        <ele>243.60000610352</ele>
        <time>2012-07-11T09:05:03.000Z</time>
      </trkpt>
      <trkpt lat="47.66762" lon="6.14164">
        <ele>243</ele>
        <time>2012-07-11T09:05:04.000Z</time>
      </trkpt>
      <trkpt lat="47.66763" lon="6.14151">
        <ele>242.39999389648</ele>
        <time>2012-07-11T09:05:05.000Z</time>
      </trkpt>
      <trkpt lat="47.66764" lon="6.14137">
        <ele>242</ele>
        <time>2012-07-11T09:05:06.000Z</time>
      </trkpt>
      <trkpt lat="47.66765" lon="6.14125">
        <ele>241.39999389648</ele>
        <time>2012-07-11T09:05:07.000Z</time>
      </trkpt>
      <trkpt lat="47.66767" lon="6.14112">
        <ele>240.80000305176</ele>
        <time>2012-07-11T09:05:08.000Z</time>
      </trkpt>
      <trkpt lat="47.66768" lon="6.141">
        <ele>240.19999694824</ele>
        <time>2012-07-11T09:05:09.000Z</time>
      </trkpt>
      <trkpt lat="47.6677" lon="6.14089">
        <ele>239.60000610352</ele>
        <time>2012-07-11T09:05:10.000Z</time>
      </trkpt>
      <trkpt lat="47.66771" lon="6.14078">
        <ele>239.19999694824</ele>
        <time>2012-07-11T09:05:11.000Z</time>
      </trkpt>
      <trkpt lat="47.66774" lon="6.14058">
        <ele>239.19999694824</ele>
        <time>2012-07-11T09:05:13.000Z</time>
      </trkpt>
      <trkpt lat="47.66779" lon="6.14024">
        <ele>239.19999694824</ele>
        <time>2012-07-11T09:05:17.000Z</time>
      </trkpt>
      <trkpt lat="47.66781" lon="6.14016">
        <ele>239.19999694824</ele>
        <time>2012-07-11T09:05:18.000Z</time>
      </trkpt>
      <trkpt lat="47.66782" lon="6.14009">
        <ele>238.80000305176</ele>
        <time>2012-07-11T09:05:19.000Z</time>
      </trkpt>
      <trkpt lat="47.66783" lon="6.14002">
        <ele>238.19999694824</ele>
        <time>2012-07-11T09:05:20.000Z</time>
      </trkpt>
      <trkpt lat="47.66784" lon="6.13994">
        <ele>237.80000305176</ele>
        <time>2012-07-11T09:05:21.000Z</time>
      </trkpt>
      <trkpt lat="47.66785" lon="6.13987">
        <ele>237.39999389648</ele>
        <time>2012-07-11T09:05:22.000Z</time>
      </trkpt>
      <trkpt lat="47.66786" lon="6.13981">
        <ele>237</ele>
        <time>2012-07-11T09:05:23.000Z</time>
      </trkpt>
      <trkpt lat="47.66789" lon="6.1396">
        <ele>237</ele>
        <time>2012-07-11T09:05:26.000Z</time>
      </trkpt>
      <trkpt lat="47.66798" lon="6.13897">
        <ele>237</ele>
        <time>2012-07-11T09:05:35.000Z</time>
      </trkpt>
      <trkpt lat="47.66811" lon="6.13845">
        <ele>237</ele>
        <time>2012-07-11T09:05:42.000Z</time>
      </trkpt>
      <trkpt lat="47.66821" lon="6.13797">
        <ele>237</ele>
        <time>2012-07-11T09:05:49.000Z</time>
      </trkpt>
      <trkpt lat="47.6682" lon="6.13751">
        <ele>237</ele>
        <time>2012-07-11T09:05:56.000Z</time>
      </trkpt>
      <trkpt lat="47.66817" lon="6.13737">
        <ele>237</ele>
        <time>2012-07-11T09:05:58.000Z</time>
      </trkpt>
      <trkpt lat="47.66813" lon="6.13716">
        <ele>237</ele>
        <time>2012-07-11T09:06:01.000Z</time>
      </trkpt>
      <trkpt lat="47.66807" lon="6.13676">
        <ele>237</ele>
        <time>2012-07-11T09:06:08.000Z</time>
      </trkpt>
      <trkpt lat="47.66802" lon="6.13629">
        <ele>237</ele>
        <time>2012-07-11T09:06:17.000Z</time>
      </trkpt>
      <trkpt lat="47.66803" lon="6.13586">
        <ele>237</ele>
        <time>2012-07-11T09:06:25.000Z</time>
      </trkpt>
      <trkpt lat="47.66811" lon="6.13547">
        <ele>237</ele>
        <time>2012-07-11T09:06:33.000Z</time>
      </trkpt>
      <trkpt lat="47.6682" lon="6.13518">
        <ele>237</ele>
        <time>2012-07-11T09:06:40.000Z</time>
      </trkpt>
      <trkpt lat="47.66834" lon="6.13496">
        <ele>237</ele>
        <time>2012-07-11T09:06:47.000Z</time>
      </trkpt>
      <trkpt lat="47.66844" lon="6.13476">
        <ele>237</ele>
        <time>2012-07-11T09:06:53.000Z</time>
      </trkpt>
      <trkpt lat="47.66853" lon="6.13465">
        <ele>237</ele>
        <time>2012-07-11T09:06:57.000Z</time>
      </trkpt>
      <trkpt lat="47.66867" lon="6.13441">
        <ele>237</ele>
        <time>2012-07-11T09:07:05.000Z</time>
      </trkpt>
      <trkpt lat="47.66877" lon="6.13421">
        <ele>237.39999389648</ele>
        <time>2012-07-11T09:07:12.000Z</time>
      </trkpt>
      <trkpt lat="47.66878" lon="6.13419">
        <ele>237.80000305176</ele>
        <time>2012-07-11T09:07:13.000Z</time>
      </trkpt>
      <trkpt lat="47.6688" lon="6.13416">
        <ele>238.19999694824</ele>
        <time>2012-07-11T09:07:14.000Z</time>
      </trkpt>
      <trkpt lat="47.66881" lon="6.13413">
        <ele>238.60000610352</ele>
        <time>2012-07-11T09:07:15.000Z</time>
      </trkpt>
      <trkpt lat="47.66882" lon="6.1341">
        <ele>239</ele>
        <time>2012-07-11T09:07:16.000Z</time>
      </trkpt>
      <trkpt lat="47.66888" lon="6.13396">
        <ele>239</ele>
        <time>2012-07-11T09:07:20.000Z</time>
      </trkpt>
      <trkpt lat="47.66896" lon="6.13368">
        <ele>239.39999389648</ele>
        <time>2012-07-11T09:07:27.000Z</time>
      </trkpt>
      <trkpt lat="47.66897" lon="6.13364">
        <ele>240.39999389648</ele>
        <time>2012-07-11T09:07:28.000Z</time>
      </trkpt>
      <trkpt lat="47.66898" lon="6.1336">
        <ele>240.80000305176</ele>
        <time>2012-07-11T09:07:29.000Z</time>
      </trkpt>
      <trkpt lat="47.66899" lon="6.13356">
        <ele>241.19999694824</ele>
        <time>2012-07-11T09:07:30.000Z</time>
      </trkpt>
      <trkpt lat="47.66907" lon="6.13331">
        <ele>241.19999694824</ele>
        <time>2012-07-11T09:07:36.000Z</time>
      </trkpt>
      <trkpt lat="47.66916" lon="6.1329">
        <ele>241.19999694824</ele>
        <time>2012-07-11T09:07:44.000Z</time>
      </trkpt>
      <trkpt lat="47.66923" lon="6.13252">
        <ele>241.19999694824</ele>
        <time>2012-07-11T09:07:51.000Z</time>
      </trkpt>
      <trkpt lat="47.66928" lon="6.13235">
        <ele>241.19999694824</ele>
        <time>2012-07-11T09:07:54.000Z</time>
      </trkpt>
      <trkpt lat="47.66934" lon="6.13216">
        <ele>240.80000305176</ele>
        <time>2012-07-11T09:07:57.000Z</time>
      </trkpt>
      <trkpt lat="47.66936" lon="6.13208">
        <ele>240.39999389648</ele>
        <time>2012-07-11T09:07:58.000Z</time>
      </trkpt>
      <trkpt lat="47.66939" lon="6.13201">
        <ele>240</ele>
        <time>2012-07-11T09:07:59.000Z</time>
      </trkpt>
      <trkpt lat="47.66941" lon="6.13192">
        <ele>239.60000610352</ele>
        <time>2012-07-11T09:08:00.000Z</time>
      </trkpt>
      <trkpt lat="47.66944" lon="6.13184">
        <ele>239.19999694824</ele>
        <time>2012-07-11T09:08:01.000Z</time>
      </trkpt>
      <trkpt lat="47.66952" lon="6.13158">
        <ele>239.19999694824</ele>
        <time>2012-07-11T09:08:04.000Z</time>
      </trkpt>
      <trkpt lat="47.66955" lon="6.13149">
        <ele>238.60000610352</ele>
        <time>2012-07-11T09:08:05.000Z</time>
      </trkpt>
      <trkpt lat="47.66959" lon="6.13139">
        <ele>238.19999694824</ele>
        <time>2012-07-11T09:08:06.000Z</time>
      </trkpt>
      <trkpt lat="47.66962" lon="6.1313">
        <ele>237.80000305176</ele>
        <time>2012-07-11T09:08:07.000Z</time>
      </trkpt>
      <trkpt lat="47.66965" lon="6.1312">
        <ele>237.39999389648</ele>
        <time>2012-07-11T09:08:08.000Z</time>
      </trkpt>
      <trkpt lat="47.66969" lon="6.13111">
        <ele>236.80000305176</ele>
        <time>2012-07-11T09:08:09.000Z</time>
      </trkpt>
      <trkpt lat="47.66976" lon="6.13092">
        <ele>236.80000305176</ele>
        <time>2012-07-11T09:08:11.000Z</time>
      </trkpt>
      <trkpt lat="47.66982" lon="6.13074">
        <ele>236.39999389648</ele>
        <time>2012-07-11T09:08:13.000Z</time>
      </trkpt>
      <trkpt lat="47.66986" lon="6.13065">
        <ele>236</ele>
        <time>2012-07-11T09:08:14.000Z</time>
      </trkpt>
      <trkpt lat="47.66989" lon="6.13057">
        <ele>235.60000610352</ele>
        <time>2012-07-11T09:08:15.000Z</time>
      </trkpt>
      <trkpt lat="47.66992" lon="6.13049">
        <ele>235.19999694824</ele>
        <time>2012-07-11T09:08:16.000Z</time>
      </trkpt>
      <trkpt lat="47.66995" lon="6.13041">
        <ele>234.80000305176</ele>
        <time>2012-07-11T09:08:17.000Z</time>
      </trkpt>
      <trkpt lat="47.67013" lon="6.12993">
        <ele>234.80000305176</ele>
        <time>2012-07-11T09:08:24.000Z</time>
      </trkpt>
      <trkpt lat="47.67027" lon="6.12955">
        <ele>234.80000305176</ele>
        <time>2012-07-11T09:08:31.000Z</time>
      </trkpt>
      <trkpt lat="47.67041" lon="6.12923">
        <ele>234.80000305176</ele>
        <time>2012-07-11T09:08:38.000Z</time>
      </trkpt>
      <trkpt lat="47.67062" lon="6.12891">
        <ele>234.80000305176</ele>
        <time>2012-07-11T09:08:46.000Z</time>
      </trkpt>
      <trkpt lat="47.67071" lon="6.1288">
        <ele>235.19999694824</ele>
        <time>2012-07-11T09:08:49.000Z</time>
      </trkpt>
      <trkpt lat="47.67074" lon="6.12877">
        <ele>235.60000610352</ele>
        <time>2012-07-11T09:08:50.000Z</time>
      </trkpt>
      <trkpt lat="47.67077" lon="6.12874">
        <ele>236</ele>
        <time>2012-07-11T09:08:51.000Z</time>
      </trkpt>
      <trkpt lat="47.6708" lon="6.12871">
        <ele>236.39999389648</ele>
        <time>2012-07-11T09:08:52.000Z</time>
      </trkpt>
      <trkpt lat="47.67083" lon="6.12868">
        <ele>236.80000305176</ele>
        <time>2012-07-11T09:08:53.000Z</time>
      </trkpt>
      <trkpt lat="47.67087" lon="6.12866">
        <ele>236.80000305176</ele>
        <time>2012-07-11T09:08:54.000Z</time>
      </trkpt>
      <trkpt lat="47.67111" lon="6.12853">
        <ele>236.80000305176</ele>
        <time>2012-07-11T09:09:01.000Z</time>
      </trkpt>
      <trkpt lat="47.67148" lon="6.12841">
        <ele>236.80000305176</ele>
        <time>2012-07-11T09:09:10.000Z</time>
      </trkpt>
      <trkpt lat="47.6718" lon="6.1283">
        <ele>236.80000305176</ele>
        <time>2012-07-11T09:09:17.000Z</time>
      </trkpt>
      <trkpt lat="47.67215" lon="6.1282">
        <ele>236.80000305176</ele>
        <time>2012-07-11T09:09:25.000Z</time>
      </trkpt>
      <trkpt lat="47.67249" lon="6.12809">
        <ele>236.80000305176</ele>
        <time>2012-07-11T09:09:34.000Z</time>
      </trkpt>
      <trkpt lat="47.67275" lon="6.12802">
        <ele>236.80000305176</ele>
        <time>2012-07-11T09:09:41.000Z</time>
      </trkpt>
      <trkpt lat="47.67305" lon="6.12791">
        <ele>236.80000305176</ele>
        <time>2012-07-11T09:09:49.000Z</time>
      </trkpt>
      <trkpt lat="47.67334" lon="6.12779">
        <ele>237.39999389648</ele>
        <time>2012-07-11T09:09:57.000Z</time>
      </trkpt>
      <trkpt lat="47.67337" lon="6.12777">
        <ele>237.80000305176</ele>
        <time>2012-07-11T09:09:58.000Z</time>
      </trkpt>
      <trkpt lat="47.67341" lon="6.12775">
        <ele>238.19999694824</ele>
        <time>2012-07-11T09:09:59.000Z</time>
      </trkpt>
      <trkpt lat="47.67344" lon="6.12774">
        <ele>238.60000610352</ele>
        <time>2012-07-11T09:10:00.000Z</time>
      </trkpt>
      <trkpt lat="47.67347" lon="6.12772">
        <ele>239.19999694824</ele>
        <time>2012-07-11T09:10:01.000Z</time>
      </trkpt>
      <trkpt lat="47.67357" lon="6.12765">
        <ele>239.19999694824</ele>
        <time>2012-07-11T09:10:04.000Z</time>
      </trkpt>
      <trkpt lat="47.67381" lon="6.12748">
        <ele>239.19999694824</ele>
        <time>2012-07-11T09:10:12.000Z</time>
      </trkpt>
      <trkpt lat="47.67409" lon="6.1272">
        <ele>239.19999694824</ele>
        <time>2012-07-11T09:10:21.000Z</time>
      </trkpt>
      <trkpt lat="47.67434" lon="6.12692">
        <ele>239.19999694824</ele>
        <time>2012-07-11T09:10:29.000Z</time>
      </trkpt>
      <trkpt lat="47.67437" lon="6.12688">
        <ele>239.19999694824</ele>
        <time>2012-07-11T09:10:30.000Z</time>
      </trkpt>
      <trkpt lat="47.6745" lon="6.12672">
        <ele>239.19999694824</ele>
        <time>2012-07-11T09:10:34.000Z</time>
      </trkpt>
      <trkpt lat="47.67453" lon="6.12669">
        <ele>239.19999694824</ele>
        <time>2012-07-11T09:10:35.000Z</time>
      </trkpt>
      <trkpt lat="47.67479" lon="6.12641">
        <ele>239.19999694824</ele>
        <time>2012-07-11T09:10:43.000Z</time>
      </trkpt>
      <trkpt lat="47.67508" lon="6.12606">
        <ele>239.19999694824</ele>
        <time>2012-07-11T09:10:52.000Z</time>
      </trkpt>
      <trkpt lat="47.67513" lon="6.12597">
        <ele>239.19999694824</ele>
        <time>2012-07-11T09:10:54.000Z</time>
      </trkpt>
      <trkpt lat="47.67525" lon="6.12572">
        <ele>239.19999694824</ele>
        <time>2012-07-11T09:10:59.000Z</time>
      </trkpt>
      <trkpt lat="47.67536" lon="6.12536">
        <ele>239.19999694824</ele>
        <time>2012-07-11T09:11:06.000Z</time>
      </trkpt>
      <trkpt lat="47.67538" lon="6.12501">
        <ele>239.19999694824</ele>
        <time>2012-07-11T09:11:13.000Z</time>
      </trkpt>
      <trkpt lat="47.67529" lon="6.12485">
        <ele>239.19999694824</ele>
        <time>2012-07-11T09:11:17.000Z</time>
      </trkpt>
      <trkpt lat="47.67515" lon="6.12471">
        <ele>239.19999694824</ele>
        <time>2012-07-11T09:11:22.000Z</time>
      </trkpt>
      <trkpt lat="47.67511" lon="6.12468">
        <ele>239.19999694824</ele>
        <time>2012-07-11T09:11:23.000Z</time>
      </trkpt>
      <trkpt lat="47.67489" lon="6.12457">
        <ele>239.19999694824</ele>
        <time>2012-07-11T09:11:29.000Z</time>
      </trkpt>
      <trkpt lat="47.67469" lon="6.12448">
        <ele>239.19999694824</ele>
        <time>2012-07-11T09:11:35.000Z</time>
      </trkpt>
      <trkpt lat="47.67451" lon="6.1244">
        <ele>239.19999694824</ele>
        <time>2012-07-11T09:11:41.000Z</time>
      </trkpt>
      <trkpt lat="47.67433" lon="6.1243">
        <ele>239.19999694824</ele>
        <time>2012-07-11T09:11:47.000Z</time>
      </trkpt>
      <trkpt lat="47.67418" lon="6.12424">
        <ele>239.19999694824</ele>
        <time>2012-07-11T09:11:52.000Z</time>
      </trkpt>
      <trkpt lat="47.67403" lon="6.12417">
        <ele>239.19999694824</ele>
        <time>2012-07-11T09:11:58.000Z</time>
      </trkpt>
      <trkpt lat="47.67393" lon="6.12409">
        <ele>239.19999694824</ele>
        <time>2012-07-11T09:12:02.000Z</time>
      </trkpt>
      <trkpt lat="47.67393" lon="6.12406">
        <ele>239.60000610352</ele>
        <time>2012-07-11T09:12:03.000Z</time>
      </trkpt>
      <trkpt lat="47.67393" lon="6.12403">
        <ele>240</ele>
        <time>2012-07-11T09:12:04.000Z</time>
      </trkpt>
      <trkpt lat="47.67394" lon="6.124">
        <ele>240.39999389648</ele>
        <time>2012-07-11T09:12:05.000Z</time>
      </trkpt>
      <trkpt lat="47.67396" lon="6.12399">
        <ele>240.80000305176</ele>
        <time>2012-07-11T09:12:06.000Z</time>
      </trkpt>
      <trkpt lat="47.67399" lon="6.12398">
        <ele>241.19999694824</ele>
        <time>2012-07-11T09:12:07.000Z</time>
      </trkpt>
      <trkpt lat="47.67401" lon="6.12397">
        <ele>241.19999694824</ele>
        <time>2012-07-11T09:12:08.000Z</time>
      </trkpt>
      <trkpt lat="47.67413" lon="6.12389">
        <ele>241.19999694824</ele>
        <time>2012-07-11T09:12:13.000Z</time>
      </trkpt>
      <trkpt lat="47.67428" lon="6.12377">
        <ele>241.19999694824</ele>
        <time>2012-07-11T09:12:19.000Z</time>
      </trkpt>
      <trkpt lat="47.6744" lon="6.12365">
        <ele>241.60000610352</ele>
        <time>2012-07-11T09:12:25.000Z</time>
      </trkpt>
      <trkpt lat="47.67442" lon="6.12362">
        <ele>242</ele>
        <time>2012-07-11T09:12:26.000Z</time>
      </trkpt>
      <trkpt lat="47.67444" lon="6.12361">
        <ele>242.39999389648</ele>
        <time>2012-07-11T09:12:27.000Z</time>
      </trkpt>
      <trkpt lat="47.67446" lon="6.12359">
        <ele>243</ele>
        <time>2012-07-11T09:12:28.000Z</time>
      </trkpt>
      <trkpt lat="47.67447" lon="6.12356">
        <ele>243.39999389648</ele>
        <time>2012-07-11T09:12:29.000Z</time>
      </trkpt>
      <trkpt lat="47.67454" lon="6.12344">
        <ele>243.39999389648</ele>
        <time>2012-07-11T09:12:34.000Z</time>
      </trkpt>
      <trkpt lat="47.67459" lon="6.12337">
        <ele>243.80000305176</ele>
        <time>2012-07-11T09:12:37.000Z</time>
      </trkpt>
      <trkpt lat="47.67461" lon="6.12334">
        <ele>244.19999694824</ele>
        <time>2012-07-11T09:12:38.000Z</time>
      </trkpt>
      <trkpt lat="47.67463" lon="6.12331">
        <ele>244.60000610352</ele>
        <time>2012-07-11T09:12:39.000Z</time>
      </trkpt>
      <trkpt lat="47.67465" lon="6.12328">
        <ele>245</ele>
        <time>2012-07-11T09:12:40.000Z</time>
      </trkpt>
      <trkpt lat="47.67467" lon="6.12325">
        <ele>245.39999389648</ele>
        <time>2012-07-11T09:12:41.000Z</time>
      </trkpt>
      <trkpt lat="47.67476" lon="6.12307">
        <ele>245.39999389648</ele>
        <time>2012-07-11T09:12:45.000Z</time>
      </trkpt>
      <trkpt lat="47.6748" lon="6.12303">
        <ele>245.39999389648</ele>
        <time>2012-07-11T09:12:46.000Z</time>
      </trkpt>
      <trkpt lat="47.675" lon="6.12277">
        <ele>245.39999389648</ele>
        <time>2012-07-11T09:12:52.000Z</time>
      </trkpt>
      <trkpt lat="47.67516" lon="6.12261">
        <ele>245.39999389648</ele>
        <time>2012-07-11T09:12:58.000Z</time>
      </trkpt>
      <trkpt lat="47.67537" lon="6.1224">
        <ele>245.39999389648</ele>
        <time>2012-07-11T09:13:06.000Z</time>
      </trkpt>
      <trkpt lat="47.67554" lon="6.12223">
        <ele>245.39999389648</ele>
        <time>2012-07-11T09:13:14.000Z</time>
      </trkpt>
      <trkpt lat="47.67572" lon="6.12204">
        <ele>245.39999389648</ele>
        <time>2012-07-11T09:13:21.000Z</time>
      </trkpt>
      <trkpt lat="47.67594" lon="6.12182">
        <ele>245.39999389648</ele>
        <time>2012-07-11T09:13:29.000Z</time>
      </trkpt>
      <trkpt lat="47.67617" lon="6.1216">
        <ele>245.39999389648</ele>
        <time>2012-07-11T09:13:37.000Z</time>
      </trkpt>
      <trkpt lat="47.67644" lon="6.12134">
        <ele>245.39999389648</ele>
        <time>2012-07-11T09:13:47.000Z</time>
      </trkpt>
      <trkpt lat="47.67668" lon="6.12111">
        <ele>245.39999389648</ele>
        <time>2012-07-11T09:13:56.000Z</time>
      </trkpt>
      <trkpt lat="47.6769" lon="6.12089">
        <ele>245.39999389648</ele>
        <time>2012-07-11T09:14:05.000Z</time>
      </trkpt>
      <trkpt lat="47.67704" lon="6.12078">
        <ele>245.80000305176</ele>
        <time>2012-07-11T09:14:11.000Z</time>
      </trkpt>
      <trkpt lat="47.67706" lon="6.12076">
        <ele>246.19999694824</ele>
        <time>2012-07-11T09:14:12.000Z</time>
      </trkpt>
      <trkpt lat="47.67708" lon="6.12073">
        <ele>246.60000610352</ele>
        <time>2012-07-11T09:14:13.000Z</time>
      </trkpt>
      <trkpt lat="47.6771" lon="6.12072">
        <ele>247</ele>
        <time>2012-07-11T09:14:14.000Z</time>
      </trkpt>
      <trkpt lat="47.67712" lon="6.1207">
        <ele>247.39999389648</ele>
        <time>2012-07-11T09:14:15.000Z</time>
      </trkpt>
      <trkpt lat="47.67717" lon="6.12067">
        <ele>247.39999389648</ele>
        <time>2012-07-11T09:14:17.000Z</time>
      </trkpt>
      <trkpt lat="47.67734" lon="6.12053">
        <ele>247.39999389648</ele>
        <time>2012-07-11T09:14:25.000Z</time>
      </trkpt>
      <trkpt lat="47.67746" lon="6.12042">
        <ele>247.80000305176</ele>
        <time>2012-07-11T09:14:31.000Z</time>
      </trkpt>
      <trkpt lat="47.67748" lon="6.12041">
        <ele>248.19999694824</ele>
        <time>2012-07-11T09:14:32.000Z</time>
      </trkpt>
      <trkpt lat="47.6775" lon="6.12039">
        <ele>248.60000610352</ele>
        <time>2012-07-11T09:14:33.000Z</time>
      </trkpt>
      <trkpt lat="47.67751" lon="6.12036">
        <ele>249</ele>
        <time>2012-07-11T09:14:34.000Z</time>
      </trkpt>
      <trkpt lat="47.67753" lon="6.12034">
        <ele>249.60000610352</ele>
        <time>2012-07-11T09:14:35.000Z</time>
      </trkpt>
      <trkpt lat="47.67755" lon="6.12031">
        <ele>249.60000610352</ele>
        <time>2012-07-11T09:14:36.000Z</time>
      </trkpt>
      <trkpt lat="47.67764" lon="6.12022">
        <ele>249.60000610352</ele>
        <time>2012-07-11T09:14:41.000Z</time>
      </trkpt>
      <trkpt lat="47.67773" lon="6.12014">
        <ele>250</ele>
        <time>2012-07-11T09:14:46.000Z</time>
      </trkpt>
      <trkpt lat="47.67774" lon="6.12013">
        <ele>250.39999389648</ele>
        <time>2012-07-11T09:14:47.000Z</time>
      </trkpt>
      <trkpt lat="47.67776" lon="6.12011">
        <ele>250.80000305176</ele>
        <time>2012-07-11T09:14:48.000Z</time>
      </trkpt>
      <trkpt lat="47.67777" lon="6.12009">
        <ele>251.19999694824</ele>
        <time>2012-07-11T09:14:49.000Z</time>
      </trkpt>
      <trkpt lat="47.67779" lon="6.12007">
        <ele>251.60000610352</ele>
        <time>2012-07-11T09:14:50.000Z</time>
      </trkpt>
      <trkpt lat="47.6778" lon="6.12005">
        <ele>251.60000610352</ele>
        <time>2012-07-11T09:14:51.000Z</time>
      </trkpt>
      <trkpt lat="47.67789" lon="6.11999">
        <ele>251.60000610352</ele>
        <time>2012-07-11T09:14:56.000Z</time>
      </trkpt>
      <trkpt lat="47.67797" lon="6.11988">
        <ele>252</ele>
        <time>2012-07-11T09:15:02.000Z</time>
      </trkpt>
      <trkpt lat="47.67798" lon="6.11987">
        <ele>252.39999389648</ele>
        <time>2012-07-11T09:15:03.000Z</time>
      </trkpt>
      <trkpt lat="47.67799" lon="6.11985">
        <ele>252.80000305176</ele>
        <time>2012-07-11T09:15:04.000Z</time>
      </trkpt>
      <trkpt lat="47.67801" lon="6.11983">
        <ele>253.19999694824</ele>
        <time>2012-07-11T09:15:05.000Z</time>
      </trkpt>
      <trkpt lat="47.67803" lon="6.11982">
        <ele>253.80000305176</ele>
        <time>2012-07-11T09:15:06.000Z</time>
      </trkpt>
      <trkpt lat="47.6781" lon="6.11973">
        <ele>253.80000305176</ele>
        <time>2012-07-11T09:15:10.000Z</time>
      </trkpt>
      <trkpt lat="47.67828" lon="6.11957">
        <ele>253.80000305176</ele>
        <time>2012-07-11T09:15:18.000Z</time>
      </trkpt>
      <trkpt lat="47.67842" lon="6.11945">
        <ele>253.80000305176</ele>
        <time>2012-07-11T09:15:24.000Z</time>
      </trkpt>
      <trkpt lat="47.67855" lon="6.11935">
        <ele>253.80000305176</ele>
        <time>2012-07-11T09:15:29.000Z</time>
      </trkpt>
      <trkpt lat="47.67857" lon="6.11935">
        <ele>253.80000305176</ele>
        <time>2012-07-11T09:15:33.000Z</time>
      </trkpt>
      <trkpt lat="47.67859" lon="6.11934">
        <ele>253.80000305176</ele>
        <time>2012-07-11T09:15:59.000Z</time>
      </trkpt>
      <trkpt lat="47.67869" lon="6.11918">
        <ele>253.80000305176</ele>
        <time>2012-07-11T09:16:04.000Z</time>
      </trkpt>
      <trkpt lat="47.67889" lon="6.11902">
        <ele>253.80000305176</ele>
        <time>2012-07-11T09:16:11.000Z</time>
      </trkpt>
      <trkpt lat="47.67905" lon="6.11887">
        <ele>253.80000305176</ele>
        <time>2012-07-11T09:16:18.000Z</time>
      </trkpt>
      <trkpt lat="47.67922" lon="6.11873">
        <ele>253.80000305176</ele>
        <time>2012-07-11T09:16:25.000Z</time>
      </trkpt>
      <trkpt lat="47.67932" lon="6.11865">
        <ele>254.19999694824</ele>
        <time>2012-07-11T09:16:29.000Z</time>
      </trkpt>
      <trkpt lat="47.67934" lon="6.11863">
        <ele>254.60000610352</ele>
        <time>2012-07-11T09:16:30.000Z</time>
      </trkpt>
      <trkpt lat="47.67936" lon="6.11862">
        <ele>255</ele>
        <time>2012-07-11T09:16:31.000Z</time>
      </trkpt>
      <trkpt lat="47.67938" lon="6.11861">
        <ele>255.39999389648</ele>
        <time>2012-07-11T09:16:32.000Z</time>
      </trkpt>
      <trkpt lat="47.6794" lon="6.11859">
        <ele>255.80000305176</ele>
        <time>2012-07-11T09:16:33.000Z</time>
      </trkpt>
      <trkpt lat="47.67945" lon="6.11853">
        <ele>255.80000305176</ele>
        <time>2012-07-11T09:16:37.000Z</time>
      </trkpt>
      <trkpt lat="47.67956" lon="6.11846">
        <ele>255.80000305176</ele>
        <time>2012-07-11T09:16:43.000Z</time>
      </trkpt>
      <trkpt lat="47.67958" lon="6.11844">
        <ele>256.20001220703</ele>
        <time>2012-07-11T09:16:44.000Z</time>
      </trkpt>
      <trkpt lat="47.6796" lon="6.11842">
        <ele>256.60000610352</ele>
        <time>2012-07-11T09:16:45.000Z</time>
      </trkpt>
      <trkpt lat="47.67962" lon="6.11841">
        <ele>257</ele>
        <time>2012-07-11T09:16:46.000Z</time>
      </trkpt>
      <trkpt lat="47.67964" lon="6.11839">
        <ele>257.39999389648</ele>
        <time>2012-07-11T09:16:47.000Z</time>
      </trkpt>
      <trkpt lat="47.67966" lon="6.11836">
        <ele>257.79998779297</ele>
        <time>2012-07-11T09:16:48.000Z</time>
      </trkpt>
      <trkpt lat="47.67968" lon="6.11834">
        <ele>257.79998779297</ele>
        <time>2012-07-11T09:16:49.000Z</time>
      </trkpt>
      <trkpt lat="47.67983" lon="6.11822">
        <ele>257.79998779297</ele>
        <time>2012-07-11T09:16:54.000Z</time>
      </trkpt>
      <trkpt lat="47.68004" lon="6.11807">
        <ele>257.79998779297</ele>
        <time>2012-07-11T09:17:00.000Z</time>
      </trkpt>
      <trkpt lat="47.68024" lon="6.11789">
        <ele>257.79998779297</ele>
        <time>2012-07-11T09:17:07.000Z</time>
      </trkpt>
      <trkpt lat="47.68032" lon="6.11785">
        <ele>257.79998779297</ele>
        <time>2012-07-11T09:17:11.000Z</time>
      </trkpt>
      <trkpt lat="47.68037" lon="6.11788">
        <ele>257.79998779297</ele>
        <time>2012-07-11T09:17:13.000Z</time>
      </trkpt>
      <trkpt lat="47.68043" lon="6.11797">
        <ele>257.79998779297</ele>
        <time>2012-07-11T09:17:16.000Z</time>
      </trkpt>
      <trkpt lat="47.68047" lon="6.11807">
        <ele>257.79998779297</ele>
        <time>2012-07-11T09:17:19.000Z</time>
      </trkpt>
      <trkpt lat="47.68059" lon="6.11837">
        <ele>257.79998779297</ele>
        <time>2012-07-11T09:17:26.000Z</time>
      </trkpt>
      <trkpt lat="47.68065" lon="6.11845">
        <ele>257.79998779297</ele>
        <time>2012-07-11T09:17:30.000Z</time>
      </trkpt>
      <trkpt lat="47.68068" lon="6.11853">
        <ele>257.79998779297</ele>
        <time>2012-07-11T09:17:35.000Z</time>
      </trkpt>
      <trkpt lat="47.68068" lon="6.11852">
        <ele>257.79998779297</ele>
        <time>2012-07-11T09:17:39.000Z</time>
      </trkpt>
      <trkpt lat="47.68068" lon="6.1185">
        <ele>257.79998779297</ele>
        <time>2012-07-11T09:17:44.000Z</time>
      </trkpt>
      <trkpt lat="47.6806" lon="6.11837">
        <ele>257.79998779297</ele>
        <time>2012-07-11T09:17:51.000Z</time>
      </trkpt>
      <trkpt lat="47.68059" lon="6.11831">
        <ele>257.79998779297</ele>
        <time>2012-07-11T09:17:54.000Z</time>
      </trkpt>
      <trkpt lat="47.68057" lon="6.11827">
        <ele>257.79998779297</ele>
        <time>2012-07-11T09:17:57.000Z</time>
      </trkpt>
      <trkpt lat="47.68057" lon="6.11827">
        <ele>257.79998779297</ele>
        <time>2012-07-11T09:17:58.000Z</time>
      </trkpt>
      <trkpt lat="47.68056" lon="6.11832">
        <ele>257.79998779297</ele>
        <time>2012-07-11T09:18:07.000Z</time>
      </trkpt>
      <trkpt lat="47.68058" lon="6.11836">
        <ele>257.79998779297</ele>
        <time>2012-07-11T09:18:09.000Z</time>
      </trkpt>
      <trkpt lat="47.68069" lon="6.11859">
        <ele>257.79998779297</ele>
        <time>2012-07-11T09:18:16.000Z</time>
      </trkpt>
      <trkpt lat="47.68081" lon="6.1189">
        <ele>257.79998779297</ele>
        <time>2012-07-11T09:18:22.000Z</time>
      </trkpt>
      <trkpt lat="47.68085" lon="6.11903">
        <ele>257.79998779297</ele>
        <time>2012-07-11T09:18:24.000Z</time>
      </trkpt>
      <trkpt lat="47.68095" lon="6.11928">
        <ele>257.79998779297</ele>
        <time>2012-07-11T09:18:28.000Z</time>
      </trkpt>
      <trkpt lat="47.68111" lon="6.11967">
        <ele>257.79998779297</ele>
        <time>2012-07-11T09:18:35.000Z</time>
      </trkpt>
      <trkpt lat="47.68127" lon="6.12006">
        <ele>257.79998779297</ele>
        <time>2012-07-11T09:18:43.000Z</time>
      </trkpt>
      <trkpt lat="47.68139" lon="6.12036">
        <ele>257.79998779297</ele>
        <time>2012-07-11T09:18:49.000Z</time>
      </trkpt>
      <trkpt lat="47.68147" lon="6.12057">
        <ele>257.79998779297</ele>
        <time>2012-07-11T09:18:53.000Z</time>
      </trkpt>
      <trkpt lat="47.68155" lon="6.12073">
        <ele>257.79998779297</ele>
        <time>2012-07-11T09:18:56.000Z</time>
      </trkpt>
      <trkpt lat="47.68169" lon="6.12107">
        <ele>257.79998779297</ele>
        <time>2012-07-11T09:19:03.000Z</time>
      </trkpt>
      <trkpt lat="47.68182" lon="6.12136">
        <ele>257.79998779297</ele>
        <time>2012-07-11T09:19:10.000Z</time>
      </trkpt>
      <trkpt lat="47.68194" lon="6.12171">
        <ele>257.79998779297</ele>
        <time>2012-07-11T09:19:18.000Z</time>
      </trkpt>
      <trkpt lat="47.68208" lon="6.12205">
        <ele>257.79998779297</ele>
        <time>2012-07-11T09:19:25.000Z</time>
      </trkpt>
      <trkpt lat="47.68215" lon="6.12229">
        <ele>257.79998779297</ele>
        <time>2012-07-11T09:19:30.000Z</time>
      </trkpt>
      <trkpt lat="47.68226" lon="6.12255">
        <ele>257.79998779297</ele>
        <time>2012-07-11T09:19:36.000Z</time>
      </trkpt>
      <trkpt lat="47.6824" lon="6.12289">
        <ele>257.79998779297</ele>
        <time>2012-07-11T09:19:44.000Z</time>
      </trkpt>
      <trkpt lat="47.6825" lon="6.12317">
        <ele>257.79998779297</ele>
        <time>2012-07-11T09:19:51.000Z</time>
      </trkpt>
      <trkpt lat="47.6826" lon="6.1234">
        <ele>257.79998779297</ele>
        <time>2012-07-11T09:19:57.000Z</time>
      </trkpt>
      <trkpt lat="47.68263" lon="6.12348">
        <ele>257.79998779297</ele>
        <time>2012-07-11T09:19:59.000Z</time>
      </trkpt>
      <trkpt lat="47.6827" lon="6.12365">
        <ele>258.20001220703</ele>
        <time>2012-07-11T09:20:03.000Z</time>
      </trkpt>
      <trkpt lat="47.68271" lon="6.12369">
        <ele>258.60000610352</ele>
        <time>2012-07-11T09:20:04.000Z</time>
      </trkpt>
      <trkpt lat="47.68273" lon="6.12373">
        <ele>259</ele>
        <time>2012-07-11T09:20:05.000Z</time>
      </trkpt>
      <trkpt lat="47.68275" lon="6.12376">
        <ele>259.39999389648</ele>
        <time>2012-07-11T09:20:06.000Z</time>
      </trkpt>
      <trkpt lat="47.68277" lon="6.1238">
        <ele>259.79998779297</ele>
        <time>2012-07-11T09:20:07.000Z</time>
      </trkpt>
      <trkpt lat="47.6828" lon="6.12387">
        <ele>259.79998779297</ele>
        <time>2012-07-11T09:20:09.000Z</time>
      </trkpt>
      <trkpt lat="47.68288" lon="6.12407">
        <ele>259.79998779297</ele>
        <time>2012-07-11T09:20:14.000Z</time>
      </trkpt>
      <trkpt lat="47.68297" lon="6.12428">
        <ele>259.79998779297</ele>
        <time>2012-07-11T09:20:20.000Z</time>
      </trkpt>
      <trkpt lat="47.683" lon="6.12431">
        <ele>260.39999389648</ele>
        <time>2012-07-11T09:20:21.000Z</time>
      </trkpt>
      <trkpt lat="47.68301" lon="6.12435">
        <ele>260.79998779297</ele>
        <time>2012-07-11T09:20:22.000Z</time>
      </trkpt>
      <trkpt lat="47.68302" lon="6.12438">
        <ele>261.20001220703</ele>
        <time>2012-07-11T09:20:23.000Z</time>
      </trkpt>
      <trkpt lat="47.68302" lon="6.12442">
        <ele>261.60000610352</ele>
        <time>2012-07-11T09:20:24.000Z</time>
      </trkpt>
      <trkpt lat="47.68303" lon="6.12445">
        <ele>262</ele>
        <time>2012-07-11T09:20:25.000Z</time>
      </trkpt>
      <trkpt lat="47.6831" lon="6.12463">
        <ele>262</ele>
        <time>2012-07-11T09:20:31.000Z</time>
      </trkpt>
      <trkpt lat="47.6832" lon="6.12487">
        <ele>262</ele>
        <time>2012-07-11T09:20:37.000Z</time>
      </trkpt>
      <trkpt lat="47.68332" lon="6.12517">
        <ele>262</ele>
        <time>2012-07-11T09:20:43.000Z</time>
      </trkpt>
      <trkpt lat="47.68346" lon="6.1255">
        <ele>262</ele>
        <time>2012-07-11T09:20:48.000Z</time>
      </trkpt>
      <trkpt lat="47.68364" lon="6.12592">
        <ele>262</ele>
        <time>2012-07-11T09:20:54.000Z</time>
      </trkpt>
      <trkpt lat="47.68367" lon="6.12599">
        <ele>261.60000610352</ele>
        <time>2012-07-11T09:20:55.000Z</time>
      </trkpt>
      <trkpt lat="47.68369" lon="6.12606">
        <ele>261.20001220703</ele>
        <time>2012-07-11T09:20:56.000Z</time>
      </trkpt>
      <trkpt lat="47.68372" lon="6.12613">
        <ele>260.79998779297</ele>
        <time>2012-07-11T09:20:57.000Z</time>
      </trkpt>
      <trkpt lat="47.68374" lon="6.12619">
        <ele>260.39999389648</ele>
        <time>2012-07-11T09:20:58.000Z</time>
      </trkpt>
      <trkpt lat="47.68376" lon="6.12625">
        <ele>260</ele>
        <time>2012-07-11T09:20:59.000Z</time>
      </trkpt>
      <trkpt lat="47.68384" lon="6.12645">
        <ele>260</ele>
        <time>2012-07-11T09:21:04.000Z</time>
      </trkpt>
      <trkpt lat="47.68392" lon="6.12663">
        <ele>260</ele>
        <time>2012-07-11T09:21:10.000Z</time>
      </trkpt>
      <trkpt lat="47.68399" lon="6.12679">
        <ele>260</ele>
        <time>2012-07-11T09:21:17.000Z</time>
      </trkpt>
      <trkpt lat="47.68401" lon="6.12686">
        <ele>260.39999389648</ele>
        <time>2012-07-11T09:21:20.000Z</time>
      </trkpt>
      <trkpt lat="47.68402" lon="6.12689">
        <ele>260.79998779297</ele>
        <time>2012-07-11T09:21:21.000Z</time>
      </trkpt>
      <trkpt lat="47.68403" lon="6.12693">
        <ele>261.20001220703</ele>
        <time>2012-07-11T09:21:22.000Z</time>
      </trkpt>
      <trkpt lat="47.68404" lon="6.12695">
        <ele>261.79998779297</ele>
        <time>2012-07-11T09:21:23.000Z</time>
      </trkpt>
      <trkpt lat="47.68405" lon="6.12697">
        <ele>262.20001220703</ele>
        <time>2012-07-11T09:21:24.000Z</time>
      </trkpt>
      <trkpt lat="47.6841" lon="6.12712">
        <ele>262.60000610352</ele>
        <time>2012-07-11T09:21:31.000Z</time>
      </trkpt>
      <trkpt lat="47.6841" lon="6.12713">
        <ele>263</ele>
        <time>2012-07-11T09:21:32.000Z</time>
      </trkpt>
      <trkpt lat="47.68411" lon="6.12716">
        <ele>263.39999389648</ele>
        <time>2012-07-11T09:21:33.000Z</time>
      </trkpt>
      <trkpt lat="47.68411" lon="6.12718">
        <ele>263.79998779297</ele>
        <time>2012-07-11T09:21:34.000Z</time>
      </trkpt>
      <trkpt lat="47.68412" lon="6.12719">
        <ele>264.39999389648</ele>
        <time>2012-07-11T09:21:35.000Z</time>
      </trkpt>
      <trkpt lat="47.68413" lon="6.1272">
        <ele>264.39999389648</ele>
        <time>2012-07-11T09:21:37.000Z</time>
      </trkpt>
      <trkpt lat="47.68413" lon="6.12726">
        <ele>264.79998779297</ele>
        <time>2012-07-11T09:21:41.000Z</time>
      </trkpt>
      <trkpt lat="47.68413" lon="6.12728">
        <ele>265.20001220703</ele>
        <time>2012-07-11T09:21:42.000Z</time>
      </trkpt>
      <trkpt lat="47.68414" lon="6.1273">
        <ele>265.60000610352</ele>
        <time>2012-07-11T09:21:43.000Z</time>
      </trkpt>
      <trkpt lat="47.68415" lon="6.12731">
        <ele>266</ele>
        <time>2012-07-11T09:21:44.000Z</time>
      </trkpt>
      <trkpt lat="47.68416" lon="6.12733">
        <ele>266.39999389648</ele>
        <time>2012-07-11T09:21:45.000Z</time>
      </trkpt>
      <trkpt lat="47.68418" lon="6.12741">
        <ele>266.39999389648</ele>
        <time>2012-07-11T09:21:49.000Z</time>
      </trkpt>
      <trkpt lat="47.6842" lon="6.12747">
        <ele>266.79998779297</ele>
        <time>2012-07-11T09:21:52.000Z</time>
      </trkpt>
      <trkpt lat="47.6842" lon="6.12748">
        <ele>267.60000610352</ele>
        <time>2012-07-11T09:21:53.000Z</time>
      </trkpt>
      <trkpt lat="47.6842" lon="6.1275">
        <ele>268</ele>
        <time>2012-07-11T09:21:54.000Z</time>
      </trkpt>
      <trkpt lat="47.6842" lon="6.12751">
        <ele>268.39999389648</ele>
        <time>2012-07-11T09:21:55.000Z</time>
      </trkpt>
      <trkpt lat="47.68421" lon="6.12754">
        <ele>268.39999389648</ele>
        <time>2012-07-11T09:21:56.000Z</time>
      </trkpt>
      <trkpt lat="47.68431" lon="6.12772">
        <ele>268.39999389648</ele>
        <time>2012-07-11T09:22:05.000Z</time>
      </trkpt>
      <trkpt lat="47.68431" lon="6.12773">
        <ele>268.79998779297</ele>
        <time>2012-07-11T09:22:06.000Z</time>
      </trkpt>
      <trkpt lat="47.68432" lon="6.12775">
        <ele>269.20001220703</ele>
        <time>2012-07-11T09:22:07.000Z</time>
      </trkpt>
      <trkpt lat="47.68432" lon="6.12777">
        <ele>269.60000610352</ele>
        <time>2012-07-11T09:22:08.000Z</time>
      </trkpt>
      <trkpt lat="47.68434" lon="6.12779">
        <ele>270.20001220703</ele>
        <time>2012-07-11T09:22:09.000Z</time>
      </trkpt>
      <trkpt lat="47.68435" lon="6.12781">
        <ele>270.60000610352</ele>
        <time>2012-07-11T09:22:10.000Z</time>
      </trkpt>
      <trkpt lat="47.68436" lon="6.12783">
        <ele>270.60000610352</ele>
        <time>2012-07-11T09:22:11.000Z</time>
      </trkpt>
      <trkpt lat="47.6844" lon="6.12793">
        <ele>270.60000610352</ele>
        <time>2012-07-11T09:22:18.000Z</time>
      </trkpt>
      <trkpt lat="47.68444" lon="6.128">
        <ele>271</ele>
        <time>2012-07-11T09:22:22.000Z</time>
      </trkpt>
      <trkpt lat="47.68445" lon="6.12802">
        <ele>271.39999389648</ele>
        <time>2012-07-11T09:22:23.000Z</time>
      </trkpt>
      <trkpt lat="47.68447" lon="6.12803">
        <ele>271.79998779297</ele>
        <time>2012-07-11T09:22:24.000Z</time>
      </trkpt>
      <trkpt lat="47.68448" lon="6.12804">
        <ele>272.20001220703</ele>
        <time>2012-07-11T09:22:25.000Z</time>
      </trkpt>
      <trkpt lat="47.68449" lon="6.12806">
        <ele>272.60000610352</ele>
        <time>2012-07-11T09:22:26.000Z</time>
      </trkpt>
      <trkpt lat="47.68451" lon="6.12813">
        <ele>272.60000610352</ele>
        <time>2012-07-11T09:22:30.000Z</time>
      </trkpt>
      <trkpt lat="47.68452" lon="6.12816">
        <ele>272.60000610352</ele>
        <time>2012-07-11T09:22:32.000Z</time>
      </trkpt>
      <trkpt lat="47.68453" lon="6.12817">
        <ele>272</ele>
        <time>2012-07-11T09:22:33.000Z</time>
      </trkpt>
      <trkpt lat="47.68454" lon="6.12818">
        <ele>271.79998779297</ele>
        <time>2012-07-11T09:22:34.000Z</time>
      </trkpt>
      <trkpt lat="47.68455" lon="6.12819">
        <ele>271.79998779297</ele>
        <time>2012-07-11T09:22:35.000Z</time>
      </trkpt>
      <trkpt lat="47.68455" lon="6.1282">
        <ele>273</ele>
        <time>2012-07-11T09:22:36.000Z</time>
      </trkpt>
      <trkpt lat="47.68456" lon="6.1282">
        <ele>273.39999389648</ele>
        <time>2012-07-11T09:22:37.000Z</time>
      </trkpt>
      <trkpt lat="47.68456" lon="6.12821">
        <ele>273.79998779297</ele>
        <time>2012-07-11T09:22:38.000Z</time>
      </trkpt>
      <trkpt lat="47.6846" lon="6.1283">
        <ele>276.20001220703</ele>
        <time>2012-07-11T09:22:56.000Z</time>
      </trkpt>
      <trkpt lat="47.68463" lon="6.12836">
        <ele>276.20001220703</ele>
        <time>2012-07-11T09:23:01.000Z</time>
      </trkpt>
      <trkpt lat="47.68466" lon="6.12848">
        <ele>276.20001220703</ele>
        <time>2012-07-11T09:23:08.000Z</time>
      </trkpt>
      <trkpt lat="47.68468" lon="6.12855">
        <ele>276.20001220703</ele>
        <time>2012-07-11T09:23:14.000Z</time>
      </trkpt>
      <trkpt lat="47.68469" lon="6.12861">
        <ele>276.20001220703</ele>
        <time>2012-07-11T09:23:19.000Z</time>
      </trkpt>
      <trkpt lat="47.68475" lon="6.1288">
        <ele>276.20001220703</ele>
        <time>2012-07-11T09:23:30.000Z</time>
      </trkpt>
      <trkpt lat="47.68476" lon="6.12882">
        <ele>276.20001220703</ele>
        <time>2012-07-11T09:23:31.000Z</time>
      </trkpt>
      <trkpt lat="47.68477" lon="6.12891">
        <ele>276.20001220703</ele>
        <time>2012-07-11T09:23:36.000Z</time>
      </trkpt>
      <trkpt lat="47.68483" lon="6.12907">
        <ele>276.20001220703</ele>
        <time>2012-07-11T09:23:43.000Z</time>
      </trkpt>
      <trkpt lat="47.68488" lon="6.12919">
        <ele>276.20001220703</ele>
        <time>2012-07-11T09:23:49.000Z</time>
      </trkpt>
      <trkpt lat="47.68493" lon="6.12932">
        <ele>276.20001220703</ele>
        <time>2012-07-11T09:23:54.000Z</time>
      </trkpt>
      <trkpt lat="47.68494" lon="6.12934">
        <ele>276.20001220703</ele>
        <time>2012-07-11T09:23:55.000Z</time>
      </trkpt>
      <trkpt lat="47.68498" lon="6.12941">
        <ele>276.20001220703</ele>
        <time>2012-07-11T09:23:58.000Z</time>
      </trkpt>
      <trkpt lat="47.68498" lon="6.12947">
        <ele>276.20001220703</ele>
        <time>2012-07-11T09:24:01.000Z</time>
      </trkpt>
      <trkpt lat="47.68499" lon="6.12951">
        <ele>276.20001220703</ele>
        <time>2012-07-11T09:24:03.000Z</time>
      </trkpt>
      <trkpt lat="47.68504" lon="6.12961">
        <ele>276.20001220703</ele>
        <time>2012-07-11T09:24:06.000Z</time>
      </trkpt>
      <trkpt lat="47.68509" lon="6.1298">
        <ele>276.20001220703</ele>
        <time>2012-07-11T09:24:11.000Z</time>
      </trkpt>
      <trkpt lat="47.68526" lon="6.13005">
        <ele>276.20001220703</ele>
        <time>2012-07-11T09:24:16.000Z</time>
      </trkpt>
      <trkpt lat="47.68532" lon="6.13018">
        <ele>276.20001220703</ele>
        <time>2012-07-11T09:24:20.000Z</time>
      </trkpt>
      <trkpt lat="47.68533" lon="6.1302">
        <ele>276.20001220703</ele>
        <time>2012-07-11T09:24:21.000Z</time>
      </trkpt>
      <trkpt lat="47.68537" lon="6.13027">
        <ele>276.20001220703</ele>
        <time>2012-07-11T09:24:25.000Z</time>
      </trkpt>
      <trkpt lat="47.68541" lon="6.13032">
        <ele>276.20001220703</ele>
        <time>2012-07-11T09:24:28.000Z</time>
      </trkpt>
      <trkpt lat="47.68541" lon="6.13033">
        <ele>276.20001220703</ele>
        <time>2012-07-11T09:24:30.000Z</time>
      </trkpt>
      <trkpt lat="47.68549" lon="6.13086">
        <ele>278.20001220703</ele>
        <time>2012-07-11T09:27:50.000Z</time>
      </trkpt>
      <trkpt lat="47.6855" lon="6.13087">
        <ele>278.20001220703</ele>
        <time>2012-07-11T09:27:51.000Z</time>
      </trkpt>
      <trkpt lat="47.68558" lon="6.13101">
        <ele>278.20001220703</ele>
        <time>2012-07-11T09:27:57.000Z</time>
      </trkpt>
      <trkpt lat="47.68566" lon="6.13112">
        <ele>278.20001220703</ele>
        <time>2012-07-11T09:28:03.000Z</time>
      </trkpt>
      <trkpt lat="47.68574" lon="6.13123">
        <ele>278.20001220703</ele>
        <time>2012-07-11T09:28:10.000Z</time>
      </trkpt>
      <trkpt lat="47.68575" lon="6.13123">
        <ele>278.60000610352</ele>
        <time>2012-07-11T09:28:11.000Z</time>
      </trkpt>
      <trkpt lat="47.68577" lon="6.13125">
        <ele>279</ele>
        <time>2012-07-11T09:28:12.000Z</time>
      </trkpt>
      <trkpt lat="47.68578" lon="6.13126">
        <ele>279.39999389648</ele>
        <time>2012-07-11T09:28:13.000Z</time>
      </trkpt>
      <trkpt lat="47.68579" lon="6.13128">
        <ele>280</ele>
        <time>2012-07-11T09:28:14.000Z</time>
      </trkpt>
      <trkpt lat="47.68581" lon="6.1313">
        <ele>280.39999389648</ele>
        <time>2012-07-11T09:28:15.000Z</time>
      </trkpt>
      <trkpt lat="47.68582" lon="6.13132">
        <ele>280.39999389648</ele>
        <time>2012-07-11T09:28:16.000Z</time>
      </trkpt>
      <trkpt lat="47.6859" lon="6.13144">
        <ele>280.39999389648</ele>
        <time>2012-07-11T09:28:23.000Z</time>
      </trkpt>
      <trkpt lat="47.68598" lon="6.13153">
        <ele>280.79998779297</ele>
        <time>2012-07-11T09:28:29.000Z</time>
      </trkpt>
      <trkpt lat="47.68599" lon="6.13154">
        <ele>281.20001220703</ele>
        <time>2012-07-11T09:28:30.000Z</time>
      </trkpt>
      <trkpt lat="47.686" lon="6.13155">
        <ele>281.60000610352</ele>
        <time>2012-07-11T09:28:31.000Z</time>
      </trkpt>
      <trkpt lat="47.68601" lon="6.13157">
        <ele>282</ele>
        <time>2012-07-11T09:28:32.000Z</time>
      </trkpt>
      <trkpt lat="47.68603" lon="6.13158">
        <ele>282.39999389648</ele>
        <time>2012-07-11T09:28:33.000Z</time>
      </trkpt>
      <trkpt lat="47.68609" lon="6.13167">
        <ele>282.39999389648</ele>
        <time>2012-07-11T09:28:38.000Z</time>
      </trkpt>
      <trkpt lat="47.68621" lon="6.13181">
        <ele>282.39999389648</ele>
        <time>2012-07-11T09:28:47.000Z</time>
      </trkpt>
      <trkpt lat="47.68634" lon="6.13197">
        <ele>282.39999389648</ele>
        <time>2012-07-11T09:28:56.000Z</time>
      </trkpt>
      <trkpt lat="47.68646" lon="6.13211">
        <ele>282.39999389648</ele>
        <time>2012-07-11T09:29:04.000Z</time>
      </trkpt>
      <trkpt lat="47.68648" lon="6.13212">
        <ele>282.79998779297</ele>
        <time>2012-07-11T09:29:05.000Z</time>
      </trkpt>
      <trkpt lat="47.68649" lon="6.13214">
        <ele>283.20001220703</ele>
        <time>2012-07-11T09:29:06.000Z</time>
      </trkpt>
      <trkpt lat="47.68651" lon="6.13216">
        <ele>283.60000610352</ele>
        <time>2012-07-11T09:29:07.000Z</time>
      </trkpt>
      <trkpt lat="47.68652" lon="6.13218">
        <ele>284</ele>
        <time>2012-07-11T09:29:08.000Z</time>
      </trkpt>
      <trkpt lat="47.68654" lon="6.1322">
        <ele>284.39999389648</ele>
        <time>2012-07-11T09:29:09.000Z</time>
      </trkpt>
      <trkpt lat="47.68657" lon="6.13223">
        <ele>284.39999389648</ele>
        <time>2012-07-11T09:29:11.000Z</time>
      </trkpt>
      <trkpt lat="47.68664" lon="6.13233">
        <ele>284.39999389648</ele>
        <time>2012-07-11T09:29:17.000Z</time>
      </trkpt>
      <trkpt lat="47.68669" lon="6.13239">
        <ele>284.39999389648</ele>
        <time>2012-07-11T09:29:20.000Z</time>
      </trkpt>
      <trkpt lat="47.68681" lon="6.13252">
        <ele>284.39999389648</ele>
        <time>2012-07-11T09:29:29.000Z</time>
      </trkpt>
      <trkpt lat="47.68687" lon="6.13259">
        <ele>284.79998779297</ele>
        <time>2012-07-11T09:29:34.000Z</time>
      </trkpt>
      <trkpt lat="47.68688" lon="6.13261">
        <ele>285.39999389648</ele>
        <time>2012-07-11T09:29:35.000Z</time>
      </trkpt>
      <trkpt lat="47.68688" lon="6.13263">
        <ele>285.79998779297</ele>
        <time>2012-07-11T09:29:36.000Z</time>
      </trkpt>
      <trkpt lat="47.68687" lon="6.13266">
        <ele>286.20001220703</ele>
        <time>2012-07-11T09:29:37.000Z</time>
      </trkpt>
      <trkpt lat="47.68686" lon="6.13269">
        <ele>286.60000610352</ele>
        <time>2012-07-11T09:29:38.000Z</time>
      </trkpt>
      <trkpt lat="47.68679" lon="6.13276">
        <ele>286.60000610352</ele>
        <time>2012-07-11T09:29:41.000Z</time>
      </trkpt>
      <trkpt lat="47.68666" lon="6.13299">
        <ele>286.60000610352</ele>
        <time>2012-07-11T09:29:47.000Z</time>
      </trkpt>
      <trkpt lat="47.68648" lon="6.13328">
        <ele>286.60000610352</ele>
        <time>2012-07-11T09:29:53.000Z</time>
      </trkpt>
      <trkpt lat="47.68643" lon="6.13336">
        <ele>286.20001220703</ele>
        <time>2012-07-11T09:29:55.000Z</time>
      </trkpt>
      <trkpt lat="47.6864" lon="6.13341">
        <ele>285.79998779297</ele>
        <time>2012-07-11T09:29:56.000Z</time>
      </trkpt>
      <trkpt lat="47.68638" lon="6.13344">
        <ele>285.79998779297</ele>
        <time>2012-07-11T09:29:57.000Z</time>
      </trkpt>
      <trkpt lat="47.68635" lon="6.13347">
        <ele>286</ele>
        <time>2012-07-11T09:29:58.000Z</time>
      </trkpt>
      <trkpt lat="47.68633" lon="6.13351">
        <ele>286.20001220703</ele>
        <time>2012-07-11T09:29:59.000Z</time>
      </trkpt>
      <trkpt lat="47.6863" lon="6.13355">
        <ele>286.39999389648</ele>
        <time>2012-07-11T09:30:00.000Z</time>
      </trkpt>
      <trkpt lat="47.68628" lon="6.13358">
        <ele>286.39999389648</ele>
        <time>2012-07-11T09:30:01.000Z</time>
      </trkpt>
      <trkpt lat="47.68616" lon="6.13378">
        <ele>286.39999389648</ele>
        <time>2012-07-11T09:30:07.000Z</time>
      </trkpt>
      <trkpt lat="47.68599" lon="6.13405">
        <ele>286.39999389648</ele>
        <time>2012-07-11T09:30:15.000Z</time>
      </trkpt>
      <trkpt lat="47.68583" lon="6.13437">
        <ele>286.39999389648</ele>
        <time>2012-07-11T09:30:22.000Z</time>
      </trkpt>
      <trkpt lat="47.68569" lon="6.13464">
        <ele>286.39999389648</ele>
        <time>2012-07-11T09:30:28.000Z</time>
      </trkpt>
      <trkpt lat="47.68547" lon="6.13503">
        <ele>285.60000610352</ele>
        <time>2012-07-11T09:30:36.000Z</time>
      </trkpt>
      <trkpt lat="47.68544" lon="6.13509">
        <ele>284.79998779297</ele>
        <time>2012-07-11T09:30:37.000Z</time>
      </trkpt>
      <trkpt lat="47.6854" lon="6.13514">
        <ele>283.79998779297</ele>
        <time>2012-07-11T09:30:38.000Z</time>
      </trkpt>
      <trkpt lat="47.68536" lon="6.1352">
        <ele>284.20001220703</ele>
        <time>2012-07-11T09:30:39.000Z</time>
      </trkpt>
      <trkpt lat="47.68533" lon="6.13525">
        <ele>284.60000610352</ele>
        <time>2012-07-11T09:30:40.000Z</time>
      </trkpt>
      <trkpt lat="47.68529" lon="6.13531">
        <ele>285</ele>
        <time>2012-07-11T09:30:41.000Z</time>
      </trkpt>
      <trkpt lat="47.68525" lon="6.13537">
        <ele>284.79998779297</ele>
        <time>2012-07-11T09:30:42.000Z</time>
      </trkpt>
      <trkpt lat="47.68522" lon="6.13543">
        <ele>284.60000610352</ele>
        <time>2012-07-11T09:30:43.000Z</time>
      </trkpt>
      <trkpt lat="47.68518" lon="6.13549">
        <ele>284.20001220703</ele>
        <time>2012-07-11T09:30:44.000Z</time>
      </trkpt>
      <trkpt lat="47.68515" lon="6.13554">
        <ele>284</ele>
        <time>2012-07-11T09:30:45.000Z</time>
      </trkpt>
      <trkpt lat="47.68512" lon="6.13559">
        <ele>283.79998779297</ele>
        <time>2012-07-11T09:30:46.000Z</time>
      </trkpt>
      <trkpt lat="47.68499" lon="6.13582">
        <ele>283.79998779297</ele>
        <time>2012-07-11T09:30:50.000Z</time>
      </trkpt>
      <trkpt lat="47.68474" lon="6.13628">
        <ele>283.79998779297</ele>
        <time>2012-07-11T09:30:58.000Z</time>
      </trkpt>
      <trkpt lat="47.68453" lon="6.13666">
        <ele>283.79998779297</ele>
        <time>2012-07-11T09:31:05.000Z</time>
      </trkpt>
      <trkpt lat="47.68445" lon="6.13684">
        <ele>283.79998779297</ele>
        <time>2012-07-11T09:31:08.000Z</time>
      </trkpt>
      <trkpt lat="47.68436" lon="6.137">
        <ele>283.79998779297</ele>
        <time>2012-07-11T09:31:11.000Z</time>
      </trkpt>
      <trkpt lat="47.68431" lon="6.13711">
        <ele>283.79998779297</ele>
        <time>2012-07-11T09:31:13.000Z</time>
      </trkpt>
      <trkpt lat="47.68414" lon="6.13742">
        <ele>283.79998779297</ele>
        <time>2012-07-11T09:31:19.000Z</time>
      </trkpt>
      <trkpt lat="47.68392" lon="6.13786">
        <ele>283.79998779297</ele>
        <time>2012-07-11T09:31:27.000Z</time>
      </trkpt>
      <trkpt lat="47.68382" lon="6.13826">
        <ele>283.79998779297</ele>
        <time>2012-07-11T09:31:34.000Z</time>
      </trkpt>
      <trkpt lat="47.68388" lon="6.13844">
        <ele>283.79998779297</ele>
        <time>2012-07-11T09:31:38.000Z</time>
      </trkpt>
      <trkpt lat="47.68403" lon="6.1387">
        <ele>283.79998779297</ele>
        <time>2012-07-11T09:31:45.000Z</time>
      </trkpt>
      <trkpt lat="47.68419" lon="6.139">
        <ele>283.79998779297</ele>
        <time>2012-07-11T09:31:53.000Z</time>
      </trkpt>
      <trkpt lat="47.68432" lon="6.13924">
        <ele>283.79998779297</ele>
        <time>2012-07-11T09:31:59.000Z</time>
      </trkpt>
      <trkpt lat="47.68434" lon="6.13928">
        <ele>284.20001220703</ele>
        <time>2012-07-11T09:32:00.000Z</time>
      </trkpt>
      <trkpt lat="47.68435" lon="6.13932">
        <ele>284.60000610352</ele>
        <time>2012-07-11T09:32:01.000Z</time>
      </trkpt>
      <trkpt lat="47.68438" lon="6.13936">
        <ele>285</ele>
        <time>2012-07-11T09:32:02.000Z</time>
      </trkpt>
      <trkpt lat="47.6844" lon="6.1394">
        <ele>285.39999389648</ele>
        <time>2012-07-11T09:32:03.000Z</time>
      </trkpt>
      <trkpt lat="47.68442" lon="6.13943">
        <ele>285.79998779297</ele>
        <time>2012-07-11T09:32:04.000Z</time>
      </trkpt>
      <trkpt lat="47.68447" lon="6.13956">
        <ele>285.79998779297</ele>
        <time>2012-07-11T09:32:07.000Z</time>
      </trkpt>
      <trkpt lat="47.68463" lon="6.13987">
        <ele>285.79998779297</ele>
        <time>2012-07-11T09:32:15.000Z</time>
      </trkpt>
      <trkpt lat="47.68481" lon="6.14021">
        <ele>285.79998779297</ele>
        <time>2012-07-11T09:32:23.000Z</time>
      </trkpt>
      <trkpt lat="47.68502" lon="6.1406">
        <ele>285.79998779297</ele>
        <time>2012-07-11T09:32:32.000Z</time>
      </trkpt>
      <trkpt lat="47.68516" lon="6.14088">
        <ele>285.79998779297</ele>
        <time>2012-07-11T09:32:38.000Z</time>
      </trkpt>
      <trkpt lat="47.68528" lon="6.14109">
        <ele>285.79998779297</ele>
        <time>2012-07-11T09:32:43.000Z</time>
      </trkpt>
      <trkpt lat="47.68542" lon="6.14136">
        <ele>285.79998779297</ele>
        <time>2012-07-11T09:32:49.000Z</time>
      </trkpt>
      <trkpt lat="47.68552" lon="6.14156">
        <ele>285.79998779297</ele>
        <time>2012-07-11T09:32:53.000Z</time>
      </trkpt>
      <trkpt lat="47.68555" lon="6.14162">
        <ele>285.79998779297</ele>
        <time>2012-07-11T09:32:54.000Z</time>
      </trkpt>
      <trkpt lat="47.68564" lon="6.14179">
        <ele>285.79998779297</ele>
        <time>2012-07-11T09:32:57.000Z</time>
      </trkpt>
      <trkpt lat="47.68571" lon="6.1419">
        <ele>285.79998779297</ele>
        <time>2012-07-11T09:32:59.000Z</time>
      </trkpt>
      <trkpt lat="47.68574" lon="6.14197">
        <ele>285.79998779297</ele>
        <time>2012-07-11T09:33:00.000Z</time>
      </trkpt>
      <trkpt lat="47.68581" lon="6.1421">
        <ele>285.39999389648</ele>
        <time>2012-07-11T09:33:02.000Z</time>
      </trkpt>
      <trkpt lat="47.68584" lon="6.14217">
        <ele>285</ele>
        <time>2012-07-11T09:33:03.000Z</time>
      </trkpt>
      <trkpt lat="47.68588" lon="6.14223">
        <ele>284.60000610352</ele>
        <time>2012-07-11T09:33:04.000Z</time>
      </trkpt>
      <trkpt lat="47.68592" lon="6.1423">
        <ele>284</ele>
        <time>2012-07-11T09:33:05.000Z</time>
      </trkpt>
      <trkpt lat="47.68595" lon="6.14236">
        <ele>283.60000610352</ele>
        <time>2012-07-11T09:33:06.000Z</time>
      </trkpt>
      <trkpt lat="47.68612" lon="6.14271">
        <ele>283.60000610352</ele>
        <time>2012-07-11T09:33:11.000Z</time>
      </trkpt>
      <trkpt lat="47.68636" lon="6.14329">
        <ele>283.60000610352</ele>
        <time>2012-07-11T09:33:19.000Z</time>
      </trkpt>
      <trkpt lat="47.68638" lon="6.14336">
        <ele>283.20001220703</ele>
        <time>2012-07-11T09:33:20.000Z</time>
      </trkpt>
      <trkpt lat="47.68641" lon="6.14343">
        <ele>282.79998779297</ele>
        <time>2012-07-11T09:33:21.000Z</time>
      </trkpt>
      <trkpt lat="47.68643" lon="6.1435">
        <ele>282.39999389648</ele>
        <time>2012-07-11T09:33:22.000Z</time>
      </trkpt>
      <trkpt lat="47.68646" lon="6.14358">
        <ele>282</ele>
        <time>2012-07-11T09:33:23.000Z</time>
      </trkpt>
      <trkpt lat="47.68649" lon="6.14365">
        <ele>281.60000610352</ele>
        <time>2012-07-11T09:33:24.000Z</time>
      </trkpt>
      <trkpt lat="47.68651" lon="6.14372">
        <ele>281.60000610352</ele>
        <time>2012-07-11T09:33:25.000Z</time>
      </trkpt>
      <trkpt lat="47.68671" lon="6.14422">
        <ele>281.60000610352</ele>
        <time>2012-07-11T09:33:33.000Z</time>
      </trkpt>
      <trkpt lat="47.68687" lon="6.14467">
        <ele>281.60000610352</ele>
        <time>2012-07-11T09:33:41.000Z</time>
      </trkpt>
      <trkpt lat="47.68705" lon="6.14517">
        <ele>281.60000610352</ele>
        <time>2012-07-11T09:33:50.000Z</time>
      </trkpt>
      <trkpt lat="47.68722" lon="6.14563">
        <ele>281.60000610352</ele>
        <time>2012-07-11T09:33:58.000Z</time>
      </trkpt>
      <trkpt lat="47.6874" lon="6.1461">
        <ele>281.60000610352</ele>
        <time>2012-07-11T09:34:06.000Z</time>
      </trkpt>
      <trkpt lat="47.68756" lon="6.14652">
        <ele>281.20001220703</ele>
        <time>2012-07-11T09:34:12.000Z</time>
      </trkpt>
      <trkpt lat="47.68759" lon="6.1466">
        <ele>280.60000610352</ele>
        <time>2012-07-11T09:34:13.000Z</time>
      </trkpt>
      <trkpt lat="47.68762" lon="6.14668">
        <ele>280.20001220703</ele>
        <time>2012-07-11T09:34:14.000Z</time>
      </trkpt>
      <trkpt lat="47.68765" lon="6.14676">
        <ele>279.39999389648</ele>
        <time>2012-07-11T09:34:15.000Z</time>
      </trkpt>
      <trkpt lat="47.68779" lon="6.14719">
        <ele>279.39999389648</ele>
        <time>2012-07-11T09:34:20.000Z</time>
      </trkpt>
      <trkpt lat="47.68782" lon="6.14727">
        <ele>279</ele>
        <time>2012-07-11T09:34:21.000Z</time>
      </trkpt>
      <trkpt lat="47.68785" lon="6.14736">
        <ele>278.60000610352</ele>
        <time>2012-07-11T09:34:22.000Z</time>
      </trkpt>
      <trkpt lat="47.68789" lon="6.14744">
        <ele>278</ele>
        <time>2012-07-11T09:34:23.000Z</time>
      </trkpt>
      <trkpt lat="47.68792" lon="6.14754">
        <ele>277.60000610352</ele>
        <time>2012-07-11T09:34:24.000Z</time>
      </trkpt>
      <trkpt lat="47.68795" lon="6.14763">
        <ele>277.20001220703</ele>
        <time>2012-07-11T09:34:25.000Z</time>
      </trkpt>
      <trkpt lat="47.68804" lon="6.14789">
        <ele>277.20001220703</ele>
        <time>2012-07-11T09:34:28.000Z</time>
      </trkpt>
      <trkpt lat="47.68828" lon="6.14851">
        <ele>276.79998779297</ele>
        <time>2012-07-11T09:34:35.000Z</time>
      </trkpt>
      <trkpt lat="47.68831" lon="6.1486">
        <ele>276.39999389648</ele>
        <time>2012-07-11T09:34:36.000Z</time>
      </trkpt>
      <trkpt lat="47.68833" lon="6.14869">
        <ele>276</ele>
        <time>2012-07-11T09:34:37.000Z</time>
      </trkpt>
      <trkpt lat="47.68835" lon="6.14878">
        <ele>275.60000610352</ele>
        <time>2012-07-11T09:34:38.000Z</time>
      </trkpt>
      <trkpt lat="47.68836" lon="6.14888">
        <ele>275.20001220703</ele>
        <time>2012-07-11T09:34:39.000Z</time>
      </trkpt>
      <trkpt lat="47.68836" lon="6.14897">
        <ele>275.20001220703</ele>
        <time>2012-07-11T09:34:40.000Z</time>
      </trkpt>
      <trkpt lat="47.68836" lon="6.14905">
        <ele>275.20001220703</ele>
        <time>2012-07-11T09:34:41.000Z</time>
      </trkpt>
      <trkpt lat="47.68833" lon="6.14926">
        <ele>275.20001220703</ele>
        <time>2012-07-11T09:34:44.000Z</time>
      </trkpt>
      <trkpt lat="47.68829" lon="6.14959">
        <ele>275.20001220703</ele>
        <time>2012-07-11T09:34:50.000Z</time>
      </trkpt>
      <trkpt lat="47.68823" lon="6.14993">
        <ele>275.20001220703</ele>
        <time>2012-07-11T09:34:57.000Z</time>
      </trkpt>
      <trkpt lat="47.68819" lon="6.15024">
        <ele>275.20001220703</ele>
        <time>2012-07-11T09:35:04.000Z</time>
      </trkpt>
      <trkpt lat="47.68817" lon="6.15058">
        <ele>275.20001220703</ele>
        <time>2012-07-11T09:35:11.000Z</time>
      </trkpt>
      <trkpt lat="47.68819" lon="6.151">
        <ele>275.20001220703</ele>
        <time>2012-07-11T09:35:18.000Z</time>
      </trkpt>
      <trkpt lat="47.68824" lon="6.15163">
        <ele>275.20001220703</ele>
        <time>2012-07-11T09:35:27.000Z</time>
      </trkpt>
      <trkpt lat="47.68826" lon="6.15185">
        <ele>274.79998779297</ele>
        <time>2012-07-11T09:35:30.000Z</time>
      </trkpt>
      <trkpt lat="47.68827" lon="6.15192">
        <ele>274.39999389648</ele>
        <time>2012-07-11T09:35:31.000Z</time>
      </trkpt>
      <trkpt lat="47.68827" lon="6.15199">
        <ele>274</ele>
        <time>2012-07-11T09:35:32.000Z</time>
      </trkpt>
      <trkpt lat="47.68828" lon="6.15206">
        <ele>273.60000610352</ele>
        <time>2012-07-11T09:35:33.000Z</time>
      </trkpt>
      <trkpt lat="47.68829" lon="6.15213">
        <ele>273.20001220703</ele>
        <time>2012-07-11T09:35:34.000Z</time>
      </trkpt>
      <trkpt lat="47.68829" lon="6.1522">
        <ele>273.20001220703</ele>
        <time>2012-07-11T09:35:35.000Z</time>
      </trkpt>
      <trkpt lat="47.68831" lon="6.15226">
        <ele>273.20001220703</ele>
        <time>2012-07-11T09:35:36.000Z</time>
      </trkpt>
      <trkpt lat="47.68839" lon="6.15256">
        <ele>273.20001220703</ele>
        <time>2012-07-11T09:35:41.000Z</time>
      </trkpt>
      <trkpt lat="47.68847" lon="6.15294">
        <ele>272.60000610352</ele>
        <time>2012-07-11T09:35:46.000Z</time>
      </trkpt>
      <trkpt lat="47.68848" lon="6.15303">
        <ele>272.20001220703</ele>
        <time>2012-07-11T09:35:47.000Z</time>
      </trkpt>
      <trkpt lat="47.68849" lon="6.15313">
        <ele>271.60000610352</ele>
        <time>2012-07-11T09:35:48.000Z</time>
      </trkpt>
      <trkpt lat="47.6885" lon="6.15321">
        <ele>271.20001220703</ele>
        <time>2012-07-11T09:35:49.000Z</time>
      </trkpt>
      <trkpt lat="47.68852" lon="6.15328">
        <ele>270.79998779297</ele>
        <time>2012-07-11T09:35:50.000Z</time>
      </trkpt>
      <trkpt lat="47.68855" lon="6.15343">
        <ele>270.79998779297</ele>
        <time>2012-07-11T09:35:52.000Z</time>
      </trkpt>
      <trkpt lat="47.68857" lon="6.15351">
        <ele>270.39999389648</ele>
        <time>2012-07-11T09:35:53.000Z</time>
      </trkpt>
      <trkpt lat="47.68859" lon="6.15358">
        <ele>269.39999389648</ele>
        <time>2012-07-11T09:35:54.000Z</time>
      </trkpt>
      <trkpt lat="47.68862" lon="6.15366">
        <ele>269</ele>
        <time>2012-07-11T09:35:55.000Z</time>
      </trkpt>
      <trkpt lat="47.68864" lon="6.15374">
        <ele>268.60000610352</ele>
        <time>2012-07-11T09:35:56.000Z</time>
      </trkpt>
      <trkpt lat="47.68868" lon="6.15389">
        <ele>268.20001220703</ele>
        <time>2012-07-11T09:35:58.000Z</time>
      </trkpt>
      <trkpt lat="47.68871" lon="6.15397">
        <ele>267.60000610352</ele>
        <time>2012-07-11T09:35:59.000Z</time>
      </trkpt>
      <trkpt lat="47.68873" lon="6.15405">
        <ele>267.20001220703</ele>
        <time>2012-07-11T09:36:00.000Z</time>
      </trkpt>
      <trkpt lat="47.68874" lon="6.15412">
        <ele>266.79998779297</ele>
        <time>2012-07-11T09:36:01.000Z</time>
      </trkpt>
      <trkpt lat="47.68876" lon="6.1542">
        <ele>266.20001220703</ele>
        <time>2012-07-11T09:36:02.000Z</time>
      </trkpt>
      <trkpt lat="47.68878" lon="6.15428">
        <ele>265.79998779297</ele>
        <time>2012-07-11T09:36:03.000Z</time>
      </trkpt>
      <trkpt lat="47.68879" lon="6.15437">
        <ele>265.20001220703</ele>
        <time>2012-07-11T09:36:04.000Z</time>
      </trkpt>
      <trkpt lat="47.6888" lon="6.15447">
        <ele>264.60000610352</ele>
        <time>2012-07-11T09:36:05.000Z</time>
      </trkpt>
      <trkpt lat="47.6888" lon="6.15456">
        <ele>264.20001220703</ele>
        <time>2012-07-11T09:36:06.000Z</time>
      </trkpt>
      <trkpt lat="47.6888" lon="6.15466">
        <ele>263.60000610352</ele>
        <time>2012-07-11T09:36:07.000Z</time>
      </trkpt>
      <trkpt lat="47.68879" lon="6.15476">
        <ele>263.20001220703</ele>
        <time>2012-07-11T09:36:08.000Z</time>
      </trkpt>
      <trkpt lat="47.68879" lon="6.15486">
        <ele>262.79998779297</ele>
        <time>2012-07-11T09:36:09.000Z</time>
      </trkpt>
      <trkpt lat="47.68878" lon="6.15496">
        <ele>262.20001220703</ele>
        <time>2012-07-11T09:36:10.000Z</time>
      </trkpt>
      <trkpt lat="47.68877" lon="6.15506">
        <ele>261.79998779297</ele>
        <time>2012-07-11T09:36:11.000Z</time>
      </trkpt>
      <trkpt lat="47.68875" lon="6.15527">
        <ele>261.20001220703</ele>
        <time>2012-07-11T09:36:13.000Z</time>
      </trkpt>
      <trkpt lat="47.68875" lon="6.15537">
        <ele>260.79998779297</ele>
        <time>2012-07-11T09:36:14.000Z</time>
      </trkpt>
      <trkpt lat="47.68874" lon="6.15547">
        <ele>260.20001220703</ele>
        <time>2012-07-11T09:36:15.000Z</time>
      </trkpt>
      <trkpt lat="47.68873" lon="6.15557">
        <ele>259.79998779297</ele>
        <time>2012-07-11T09:36:16.000Z</time>
      </trkpt>
      <trkpt lat="47.68872" lon="6.15567">
        <ele>259.20001220703</ele>
        <time>2012-07-11T09:36:17.000Z</time>
      </trkpt>
      <trkpt lat="47.68871" lon="6.15578">
        <ele>258.60000610352</ele>
        <time>2012-07-11T09:36:18.000Z</time>
      </trkpt>
      <trkpt lat="47.68871" lon="6.15587">
        <ele>257.39999389648</ele>
        <time>2012-07-11T09:36:19.000Z</time>
      </trkpt>
      <trkpt lat="47.6887" lon="6.15596">
        <ele>256.79998779297</ele>
        <time>2012-07-11T09:36:20.000Z</time>
      </trkpt>
      <trkpt lat="47.68868" lon="6.15606">
        <ele>256</ele>
        <time>2012-07-11T09:36:21.000Z</time>
      </trkpt>
      <trkpt lat="47.68867" lon="6.15615">
        <ele>256.20001220703</ele>
        <time>2012-07-11T09:36:22.000Z</time>
      </trkpt>
      <trkpt lat="47.68866" lon="6.15624">
        <ele>256.20001220703</ele>
        <time>2012-07-11T09:36:23.000Z</time>
      </trkpt>
      <trkpt lat="47.68864" lon="6.15634">
        <ele>255.60000610352</ele>
        <time>2012-07-11T09:36:24.000Z</time>
      </trkpt>
      <trkpt lat="47.68862" lon="6.15644">
        <ele>255.19999694824</ele>
        <time>2012-07-11T09:36:25.000Z</time>
      </trkpt>
      <trkpt lat="47.6886" lon="6.15652">
        <ele>254.80000305176</ele>
        <time>2012-07-11T09:36:26.000Z</time>
      </trkpt>
      <trkpt lat="47.68859" lon="6.1566">
        <ele>254.19999694824</ele>
        <time>2012-07-11T09:36:27.000Z</time>
      </trkpt>
      <trkpt lat="47.68857" lon="6.15668">
        <ele>253.80000305176</ele>
        <time>2012-07-11T09:36:28.000Z</time>
      </trkpt>
      <trkpt lat="47.68852" lon="6.15699">
        <ele>253.80000305176</ele>
        <time>2012-07-11T09:36:33.000Z</time>
      </trkpt>
      <trkpt lat="47.68845" lon="6.15728">
        <ele>253.80000305176</ele>
        <time>2012-07-11T09:36:39.000Z</time>
      </trkpt>
      <trkpt lat="47.68831" lon="6.15763">
        <ele>253.39999389648</ele>
        <time>2012-07-11T09:36:46.000Z</time>
      </trkpt>
      <trkpt lat="47.68829" lon="6.15769">
        <ele>253</ele>
        <time>2012-07-11T09:36:47.000Z</time>
      </trkpt>
      <trkpt lat="47.68827" lon="6.15775">
        <ele>252.39999389648</ele>
        <time>2012-07-11T09:36:48.000Z</time>
      </trkpt>
      <trkpt lat="47.68824" lon="6.15782">
        <ele>252</ele>
        <time>2012-07-11T09:36:49.000Z</time>
      </trkpt>
      <trkpt lat="47.68822" lon="6.15788">
        <ele>251.60000610352</ele>
        <time>2012-07-11T09:36:50.000Z</time>
      </trkpt>
      <trkpt lat="47.68815" lon="6.15801">
        <ele>251.60000610352</ele>
        <time>2012-07-11T09:36:51.000Z</time>
      </trkpt>
      <trkpt lat="47.68815" lon="6.15801">
        <ele>251.60000610352</ele>
        <time>2012-07-11T09:36:52.000Z</time>
      </trkpt>
      <trkpt lat="47.68802" lon="6.15821">
        <ele>251.19999694824</ele>
        <time>2012-07-11T09:36:55.000Z</time>
      </trkpt>
      <trkpt lat="47.68798" lon="6.15827">
        <ele>250.60000610352</ele>
        <time>2012-07-11T09:36:56.000Z</time>
      </trkpt>
      <trkpt lat="47.68793" lon="6.15833">
        <ele>250.19999694824</ele>
        <time>2012-07-11T09:36:57.000Z</time>
      </trkpt>
      <trkpt lat="47.68788" lon="6.15838">
        <ele>249.60000610352</ele>
        <time>2012-07-11T09:36:58.000Z</time>
      </trkpt>
      <trkpt lat="47.68783" lon="6.15842">
        <ele>249.19999694824</ele>
        <time>2012-07-11T09:36:59.000Z</time>
      </trkpt>
      <trkpt lat="47.68774" lon="6.15851">
        <ele>248.80000305176</ele>
        <time>2012-07-11T09:37:01.000Z</time>
      </trkpt>
      <trkpt lat="47.6877" lon="6.15855">
        <ele>248.39999389648</ele>
        <time>2012-07-11T09:37:02.000Z</time>
      </trkpt>
      <trkpt lat="47.68765" lon="6.15858">
        <ele>248</ele>
        <time>2012-07-11T09:37:03.000Z</time>
      </trkpt>
      <trkpt lat="47.68761" lon="6.15862">
        <ele>247.39999389648</ele>
        <time>2012-07-11T09:37:04.000Z</time>
      </trkpt>
      <trkpt lat="47.68757" lon="6.15865">
        <ele>247</ele>
        <time>2012-07-11T09:37:05.000Z</time>
      </trkpt>
      <trkpt lat="47.68741" lon="6.15881">
        <ele>246.60000610352</ele>
        <time>2012-07-11T09:37:10.000Z</time>
      </trkpt>
      <trkpt lat="47.68738" lon="6.15884">
        <ele>246.19999694824</ele>
        <time>2012-07-11T09:37:11.000Z</time>
      </trkpt>
      <trkpt lat="47.68734" lon="6.15887">
        <ele>245.80000305176</ele>
        <time>2012-07-11T09:37:12.000Z</time>
      </trkpt>
      <trkpt lat="47.68731" lon="6.15889">
        <ele>245.39999389648</ele>
        <time>2012-07-11T09:37:13.000Z</time>
      </trkpt>
      <trkpt lat="47.68728" lon="6.15892">
        <ele>245</ele>
        <time>2012-07-11T09:37:14.000Z</time>
      </trkpt>
      <trkpt lat="47.68712" lon="6.15908">
        <ele>245</ele>
        <time>2012-07-11T09:37:19.000Z</time>
      </trkpt>
      <trkpt lat="47.68697" lon="6.1592">
        <ele>244.60000610352</ele>
        <time>2012-07-11T09:37:23.000Z</time>
      </trkpt>
      <trkpt lat="47.68692" lon="6.15922">
        <ele>244</ele>
        <time>2012-07-11T09:37:24.000Z</time>
      </trkpt>
      <trkpt lat="47.68687" lon="6.15925">
        <ele>243.60000610352</ele>
        <time>2012-07-11T09:37:25.000Z</time>
      </trkpt>
      <trkpt lat="47.68682" lon="6.15928">
        <ele>243.19999694824</ele>
        <time>2012-07-11T09:37:26.000Z</time>
      </trkpt>
      <trkpt lat="47.68676" lon="6.15931">
        <ele>242.60000610352</ele>
        <time>2012-07-11T09:37:27.000Z</time>
      </trkpt>
      <trkpt lat="47.68657" lon="6.1594">
        <ele>242.19999694824</ele>
        <time>2012-07-11T09:37:30.000Z</time>
      </trkpt>
      <trkpt lat="47.6865" lon="6.15942">
        <ele>241.80000305176</ele>
        <time>2012-07-11T09:37:31.000Z</time>
      </trkpt>
      <trkpt lat="47.68643" lon="6.15944">
        <ele>241</ele>
        <time>2012-07-11T09:37:32.000Z</time>
      </trkpt>
      <trkpt lat="47.68636" lon="6.15946">
        <ele>240.60000610352</ele>
        <time>2012-07-11T09:37:33.000Z</time>
      </trkpt>
      <trkpt lat="47.68629" lon="6.15948">
        <ele>240.19999694824</ele>
        <time>2012-07-11T09:37:34.000Z</time>
      </trkpt>
      <trkpt lat="47.68622" lon="6.1595">
        <ele>239.80000305176</ele>
        <time>2012-07-11T09:37:35.000Z</time>
      </trkpt>
      <trkpt lat="47.68614" lon="6.15952">
        <ele>239.39999389648</ele>
        <time>2012-07-11T09:37:36.000Z</time>
      </trkpt>
      <trkpt lat="47.68607" lon="6.15953">
        <ele>239</ele>
        <time>2012-07-11T09:37:37.000Z</time>
      </trkpt>
      <trkpt lat="47.686" lon="6.15955">
        <ele>238.60000610352</ele>
        <time>2012-07-11T09:37:38.000Z</time>
      </trkpt>
      <trkpt lat="47.68592" lon="6.15957">
        <ele>238</ele>
        <time>2012-07-11T09:37:39.000Z</time>
      </trkpt>
      <trkpt lat="47.68585" lon="6.1596">
        <ele>237.39999389648</ele>
        <time>2012-07-11T09:37:40.000Z</time>
      </trkpt>
      <trkpt lat="47.68577" lon="6.15963">
        <ele>237</ele>
        <time>2012-07-11T09:37:41.000Z</time>
      </trkpt>
      <trkpt lat="47.68569" lon="6.15966">
        <ele>236.39999389648</ele>
        <time>2012-07-11T09:37:42.000Z</time>
      </trkpt>
      <trkpt lat="47.68562" lon="6.1597">
        <ele>236</ele>
        <time>2012-07-11T09:37:43.000Z</time>
      </trkpt>
      <trkpt lat="47.68555" lon="6.15976">
        <ele>235.39999389648</ele>
        <time>2012-07-11T09:37:44.000Z</time>
      </trkpt>
      <trkpt lat="47.68548" lon="6.15983">
        <ele>234.80000305176</ele>
        <time>2012-07-11T09:37:45.000Z</time>
      </trkpt>
      <trkpt lat="47.68542" lon="6.1599">
        <ele>234.39999389648</ele>
        <time>2012-07-11T09:37:46.000Z</time>
      </trkpt>
      <trkpt lat="47.68535" lon="6.15997">
        <ele>234</ele>
        <time>2012-07-11T09:37:47.000Z</time>
      </trkpt>
      <trkpt lat="47.68529" lon="6.16004">
        <ele>233.60000610352</ele>
        <time>2012-07-11T09:37:48.000Z</time>
      </trkpt>
      <trkpt lat="47.68522" lon="6.16011">
        <ele>233</ele>
        <time>2012-07-11T09:37:49.000Z</time>
      </trkpt>
      <trkpt lat="47.68515" lon="6.16018">
        <ele>232.60000610352</ele>
        <time>2012-07-11T09:37:50.000Z</time>
      </trkpt>
      <trkpt lat="47.68509" lon="6.16024">
        <ele>232.19999694824</ele>
        <time>2012-07-11T09:37:51.000Z</time>
      </trkpt>
      <trkpt lat="47.6848" lon="6.16057">
        <ele>231.39999389648</ele>
        <time>2012-07-11T09:37:56.000Z</time>
      </trkpt>
      <trkpt lat="47.68474" lon="6.16063">
        <ele>231</ele>
        <time>2012-07-11T09:37:57.000Z</time>
      </trkpt>
      <trkpt lat="47.68468" lon="6.16069">
        <ele>230.60000610352</ele>
        <time>2012-07-11T09:37:58.000Z</time>
      </trkpt>
      <trkpt lat="47.68463" lon="6.16074">
        <ele>230.19999694824</ele>
        <time>2012-07-11T09:37:59.000Z</time>
      </trkpt>
      <trkpt lat="47.68445" lon="6.16092">
        <ele>230.19999694824</ele>
        <time>2012-07-11T09:38:03.000Z</time>
      </trkpt>
      <trkpt lat="47.6842" lon="6.16122">
        <ele>230.19999694824</ele>
        <time>2012-07-11T09:38:10.000Z</time>
      </trkpt>
      <trkpt lat="47.68405" lon="6.16152">
        <ele>230.19999694824</ele>
        <time>2012-07-11T09:38:16.000Z</time>
      </trkpt>
      <trkpt lat="47.68381" lon="6.16196">
        <ele>230.19999694824</ele>
        <time>2012-07-11T09:38:25.000Z</time>
      </trkpt>
      <trkpt lat="47.68359" lon="6.16226">
        <ele>230.19999694824</ele>
        <time>2012-07-11T09:38:33.000Z</time>
      </trkpt>
      <trkpt lat="47.6834" lon="6.16254">
        <ele>230.19999694824</ele>
        <time>2012-07-11T09:38:41.000Z</time>
      </trkpt>
      <trkpt lat="47.68327" lon="6.1628">
        <ele>230.19999694824</ele>
        <time>2012-07-11T09:38:48.000Z</time>
      </trkpt>
      <trkpt lat="47.68311" lon="6.16313">
        <ele>230.19999694824</ele>
        <time>2012-07-11T09:38:56.000Z</time>
      </trkpt>
      <trkpt lat="47.6831" lon="6.16319">
        <ele>230.19999694824</ele>
        <time>2012-07-11T09:38:58.000Z</time>
      </trkpt>
      <trkpt lat="47.68311" lon="6.16323">
        <ele>230.19999694824</ele>
        <time>2012-07-11T09:39:00.000Z</time>
      </trkpt>
      <trkpt lat="47.6832" lon="6.16329">
        <ele>230.19999694824</ele>
        <time>2012-07-11T09:39:04.000Z</time>
      </trkpt>
      <trkpt lat="47.68322" lon="6.16331">
        <ele>230.19999694824</ele>
        <time>2012-07-11T09:39:05.000Z</time>
      </trkpt>
      <trkpt lat="47.68331" lon="6.16341">
        <ele>230.19999694824</ele>
        <time>2012-07-11T09:39:10.000Z</time>
      </trkpt>
      <trkpt lat="47.68344" lon="6.16349">
        <ele>230.19999694824</ele>
        <time>2012-07-11T09:39:15.000Z</time>
      </trkpt>
      <trkpt lat="47.68347" lon="6.16352">
        <ele>230.60000610352</ele>
        <time>2012-07-11T09:39:16.000Z</time>
      </trkpt>
      <trkpt lat="47.68349" lon="6.16354">
        <ele>231</ele>
        <time>2012-07-11T09:39:17.000Z</time>
      </trkpt>
      <trkpt lat="47.68351" lon="6.16355">
        <ele>231.39999389648</ele>
        <time>2012-07-11T09:39:18.000Z</time>
      </trkpt>
      <trkpt lat="47.68354" lon="6.16355">
        <ele>231.80000305176</ele>
        <time>2012-07-11T09:39:19.000Z</time>
      </trkpt>
      <trkpt lat="47.68356" lon="6.16355">
        <ele>232.19999694824</ele>
        <time>2012-07-11T09:39:20.000Z</time>
      </trkpt>
      <trkpt lat="47.68367" lon="6.16355">
        <ele>232.19999694824</ele>
        <time>2012-07-11T09:39:25.000Z</time>
      </trkpt>
      <trkpt lat="47.68381" lon="6.16361">
        <ele>232.60000610352</ele>
        <time>2012-07-11T09:39:32.000Z</time>
      </trkpt>
      <trkpt lat="47.68383" lon="6.16361">
        <ele>233</ele>
        <time>2012-07-11T09:39:33.000Z</time>
      </trkpt>
      <trkpt lat="47.68386" lon="6.16363">
        <ele>234</ele>
        <time>2012-07-11T09:39:34.000Z</time>
      </trkpt>
      <trkpt lat="47.68387" lon="6.16365">
        <ele>234.39999389648</ele>
        <time>2012-07-11T09:39:35.000Z</time>
      </trkpt>
      <trkpt lat="47.68391" lon="6.16369">
        <ele>234.39999389648</ele>
        <time>2012-07-11T09:39:37.000Z</time>
      </trkpt>
      <trkpt lat="47.68406" lon="6.16382">
        <ele>234.39999389648</ele>
        <time>2012-07-11T09:39:45.000Z</time>
      </trkpt>
      <trkpt lat="47.6842" lon="6.16393">
        <ele>234.39999389648</ele>
        <time>2012-07-11T09:39:52.000Z</time>
      </trkpt>
      <trkpt lat="47.6843" lon="6.16403">
        <ele>234.80000305176</ele>
        <time>2012-07-11T09:39:57.000Z</time>
      </trkpt>
      <trkpt lat="47.68432" lon="6.16405">
        <ele>235.19999694824</ele>
        <time>2012-07-11T09:39:58.000Z</time>
      </trkpt>
      <trkpt lat="47.68434" lon="6.16408">
        <ele>236</ele>
        <time>2012-07-11T09:39:59.000Z</time>
      </trkpt>
      <trkpt lat="47.68436" lon="6.16411">
        <ele>236.39999389648</ele>
        <time>2012-07-11T09:40:00.000Z</time>
      </trkpt>
      <trkpt lat="47.68438" lon="6.16413">
        <ele>236.39999389648</ele>
        <time>2012-07-11T09:40:01.000Z</time>
      </trkpt>
      <trkpt lat="47.68457" lon="6.16437">
        <ele>236.39999389648</ele>
        <time>2012-07-11T09:40:08.000Z</time>
      </trkpt>
      <trkpt lat="47.68469" lon="6.16455">
        <ele>236.39999389648</ele>
        <time>2012-07-11T09:40:12.000Z</time>
      </trkpt>
      <trkpt lat="47.68474" lon="6.16465">
        <ele>236.39999389648</ele>
        <time>2012-07-11T09:40:14.000Z</time>
      </trkpt>
      <trkpt lat="47.68477" lon="6.16471">
        <ele>236.39999389648</ele>
        <time>2012-07-11T09:40:15.000Z</time>
      </trkpt>
      <trkpt lat="47.68489" lon="6.16486">
        <ele>236.39999389648</ele>
        <time>2012-07-11T09:40:18.000Z</time>
      </trkpt>
      <trkpt lat="47.68494" lon="6.16489">
        <ele>236.39999389648</ele>
        <time>2012-07-11T09:40:19.000Z</time>
      </trkpt>
      <trkpt lat="47.68509" lon="6.16495">
        <ele>235.80000305176</ele>
        <time>2012-07-11T09:40:23.000Z</time>
      </trkpt>
      <trkpt lat="47.68512" lon="6.16496">
        <ele>235.19999694824</ele>
        <time>2012-07-11T09:40:24.000Z</time>
      </trkpt>
      <trkpt lat="47.68515" lon="6.16496">
        <ele>234.60000610352</ele>
        <time>2012-07-11T09:40:25.000Z</time>
      </trkpt>
      <trkpt lat="47.68518" lon="6.16497">
        <ele>235</ele>
        <time>2012-07-11T09:40:26.000Z</time>
      </trkpt>
      <trkpt lat="47.68521" lon="6.16497">
        <ele>235.60000610352</ele>
        <time>2012-07-11T09:40:27.000Z</time>
      </trkpt>
      <trkpt lat="47.68524" lon="6.16498">
        <ele>236</ele>
        <time>2012-07-11T09:40:28.000Z</time>
      </trkpt>
      <trkpt lat="47.68527" lon="6.16499">
        <ele>236.60000610352</ele>
        <time>2012-07-11T09:40:29.000Z</time>
      </trkpt>
      <trkpt lat="47.6853" lon="6.165">
        <ele>237.19999694824</ele>
        <time>2012-07-11T09:40:30.000Z</time>
      </trkpt>
      <trkpt lat="47.68533" lon="6.16501">
        <ele>237.19999694824</ele>
        <time>2012-07-11T09:40:31.000Z</time>
      </trkpt>
      <trkpt lat="47.68553" lon="6.16504">
        <ele>237.19999694824</ele>
        <time>2012-07-11T09:40:38.000Z</time>
      </trkpt>
      <trkpt lat="47.6857" lon="6.16505">
        <ele>237.19999694824</ele>
        <time>2012-07-11T09:40:44.000Z</time>
      </trkpt>
      <trkpt lat="47.68588" lon="6.16504">
        <ele>237.19999694824</ele>
        <time>2012-07-11T09:40:50.000Z</time>
      </trkpt>
      <trkpt lat="47.68599" lon="6.16504">
        <ele>237.60000610352</ele>
        <time>2012-07-11T09:40:54.000Z</time>
      </trkpt>
      <trkpt lat="47.68602" lon="6.16503">
        <ele>238</ele>
        <time>2012-07-11T09:40:55.000Z</time>
      </trkpt>
      <trkpt lat="47.68605" lon="6.16502">
        <ele>238.39999389648</ele>
        <time>2012-07-11T09:40:56.000Z</time>
      </trkpt>
      <trkpt lat="47.68607" lon="6.16501">
        <ele>238.80000305176</ele>
        <time>2012-07-11T09:40:57.000Z</time>
      </trkpt>
      <trkpt lat="47.6861" lon="6.165">
        <ele>239.19999694824</ele>
        <time>2012-07-11T09:40:58.000Z</time>
      </trkpt>
      <trkpt lat="47.68631" lon="6.16489">
        <ele>239.19999694824</ele>
        <time>2012-07-11T09:41:06.000Z</time>
      </trkpt>
      <trkpt lat="47.68645" lon="6.16478">
        <ele>239.60000610352</ele>
        <time>2012-07-11T09:41:12.000Z</time>
      </trkpt>
      <trkpt lat="47.68647" lon="6.16475">
        <ele>240.39999389648</ele>
        <time>2012-07-11T09:41:13.000Z</time>
      </trkpt>
      <trkpt lat="47.68649" lon="6.16474">
        <ele>240.80000305176</ele>
        <time>2012-07-11T09:41:14.000Z</time>
      </trkpt>
      <trkpt lat="47.68652" lon="6.16472">
        <ele>241.19999694824</ele>
        <time>2012-07-11T09:41:15.000Z</time>
      </trkpt>
      <trkpt lat="47.68663" lon="6.16461">
        <ele>241.19999694824</ele>
        <time>2012-07-11T09:41:21.000Z</time>
      </trkpt>
      <trkpt lat="47.68677" lon="6.16449">
        <ele>241.19999694824</ele>
        <time>2012-07-11T09:41:28.000Z</time>
      </trkpt>
      <trkpt lat="47.68684" lon="6.16444">
        <ele>241.60000610352</ele>
        <time>2012-07-11T09:41:31.000Z</time>
      </trkpt>
      <trkpt lat="47.68686" lon="6.16442">
        <ele>242</ele>
        <time>2012-07-11T09:41:32.000Z</time>
      </trkpt>
      <trkpt lat="47.68688" lon="6.16441">
        <ele>242.60000610352</ele>
        <time>2012-07-11T09:41:33.000Z</time>
      </trkpt>
      <trkpt lat="47.68691" lon="6.16441">
        <ele>243</ele>
        <time>2012-07-11T09:41:34.000Z</time>
      </trkpt>
      <trkpt lat="47.68693" lon="6.1644">
        <ele>243.39999389648</ele>
        <time>2012-07-11T09:41:35.000Z</time>
      </trkpt>
      <trkpt lat="47.68696" lon="6.16439">
        <ele>243.39999389648</ele>
        <time>2012-07-11T09:41:36.000Z</time>
      </trkpt>
      <trkpt lat="47.6871" lon="6.16438">
        <ele>243.39999389648</ele>
        <time>2012-07-11T09:41:42.000Z</time>
      </trkpt>
      <trkpt lat="47.68725" lon="6.16443">
        <ele>243.39999389648</ele>
        <time>2012-07-11T09:41:48.000Z</time>
      </trkpt>
      <trkpt lat="47.6874" lon="6.1645">
        <ele>243.80000305176</ele>
        <time>2012-07-11T09:41:54.000Z</time>
      </trkpt>
      <trkpt lat="47.68742" lon="6.16452">
        <ele>244.19999694824</ele>
        <time>2012-07-11T09:41:55.000Z</time>
      </trkpt>
      <trkpt lat="47.68744" lon="6.16453">
        <ele>244.60000610352</ele>
        <time>2012-07-11T09:41:56.000Z</time>
      </trkpt>
      <trkpt lat="47.68747" lon="6.16454">
        <ele>245</ele>
        <time>2012-07-11T09:41:57.000Z</time>
      </trkpt>
      <trkpt lat="47.68749" lon="6.16456">
        <ele>245.39999389648</ele>
        <time>2012-07-11T09:41:58.000Z</time>
      </trkpt>
      <trkpt lat="47.68764" lon="6.16464">
        <ele>245.39999389648</ele>
        <time>2012-07-11T09:42:04.000Z</time>
      </trkpt>
      <trkpt lat="47.68789" lon="6.1647">
        <ele>245.39999389648</ele>
        <time>2012-07-11T09:42:12.000Z</time>
      </trkpt>
      <trkpt lat="47.68816" lon="6.1647">
        <ele>245.39999389648</ele>
        <time>2012-07-11T09:42:20.000Z</time>
      </trkpt>
      <trkpt lat="47.68829" lon="6.16463">
        <ele>245.39999389648</ele>
        <time>2012-07-11T09:42:24.000Z</time>
      </trkpt>
      <trkpt lat="47.68841" lon="6.16456">
        <ele>247</ele>
        <time>2012-07-11T09:42:28.000Z</time>
      </trkpt>
      <trkpt lat="47.68843" lon="6.16454">
        <ele>247.80000305176</ele>
        <time>2012-07-11T09:42:29.000Z</time>
      </trkpt>
      <trkpt lat="47.68846" lon="6.16452">
        <ele>247.60000610352</ele>
        <time>2012-07-11T09:42:30.000Z</time>
      </trkpt>
      <trkpt lat="47.68848" lon="6.1645">
        <ele>247.39999389648</ele>
        <time>2012-07-11T09:42:31.000Z</time>
      </trkpt>
      <trkpt lat="47.68851" lon="6.16449">
        <ele>247.19999694824</ele>
        <time>2012-07-11T09:42:32.000Z</time>
      </trkpt>
      <trkpt lat="47.68854" lon="6.16448">
        <ele>247</ele>
        <time>2012-07-11T09:42:33.000Z</time>
      </trkpt>
      <trkpt lat="47.68856" lon="6.16446">
        <ele>246.80000305176</ele>
        <time>2012-07-11T09:42:34.000Z</time>
      </trkpt>
      <trkpt lat="47.68861" lon="6.16444">
        <ele>246.80000305176</ele>
        <time>2012-07-11T09:42:36.000Z</time>
      </trkpt>
      <trkpt lat="47.68872" lon="6.16436">
        <ele>247.39999389648</ele>
        <time>2012-07-11T09:42:41.000Z</time>
      </trkpt>
      <trkpt lat="47.68874" lon="6.16436">
        <ele>248</ele>
        <time>2012-07-11T09:42:42.000Z</time>
      </trkpt>
      <trkpt lat="47.68876" lon="6.16434">
        <ele>248.60000610352</ele>
        <time>2012-07-11T09:42:43.000Z</time>
      </trkpt>
      <trkpt lat="47.68879" lon="6.16433">
        <ele>249.19999694824</ele>
        <time>2012-07-11T09:42:44.000Z</time>
      </trkpt>
      <trkpt lat="47.68881" lon="6.16432">
        <ele>249.60000610352</ele>
        <time>2012-07-11T09:42:45.000Z</time>
      </trkpt>
      <trkpt lat="47.68892" lon="6.16426">
        <ele>249.60000610352</ele>
        <time>2012-07-11T09:42:50.000Z</time>
      </trkpt>
      <trkpt lat="47.68902" lon="6.1642">
        <ele>249.60000610352</ele>
        <time>2012-07-11T09:42:55.000Z</time>
      </trkpt>
      <trkpt lat="47.68913" lon="6.16413">
        <ele>249.60000610352</ele>
        <time>2012-07-11T09:43:01.000Z</time>
      </trkpt>
      <trkpt lat="47.68927" lon="6.16405">
        <ele>249.60000610352</ele>
        <time>2012-07-11T09:43:08.000Z</time>
      </trkpt>
      <trkpt lat="47.68929" lon="6.16404">
        <ele>250.19999694824</ele>
        <time>2012-07-11T09:43:09.000Z</time>
      </trkpt>
      <trkpt lat="47.68931" lon="6.16403">
        <ele>250.60000610352</ele>
        <time>2012-07-11T09:43:10.000Z</time>
      </trkpt>
      <trkpt lat="47.68933" lon="6.16402">
        <ele>251</ele>
        <time>2012-07-11T09:43:11.000Z</time>
      </trkpt>
      <trkpt lat="47.68935" lon="6.16401">
        <ele>251.60000610352</ele>
        <time>2012-07-11T09:43:12.000Z</time>
      </trkpt>
      <trkpt lat="47.68937" lon="6.164">
        <ele>252</ele>
        <time>2012-07-11T09:43:13.000Z</time>
      </trkpt>
      <trkpt lat="47.68941" lon="6.16399">
        <ele>252</ele>
        <time>2012-07-11T09:43:15.000Z</time>
      </trkpt>
      <trkpt lat="47.6896" lon="6.16395">
        <ele>252</ele>
        <time>2012-07-11T09:43:23.000Z</time>
      </trkpt>
      <trkpt lat="47.68975" lon="6.16397">
        <ele>252</ele>
        <time>2012-07-11T09:43:30.000Z</time>
      </trkpt>
      <trkpt lat="47.68984" lon="6.16396">
        <ele>252.39999389648</ele>
        <time>2012-07-11T09:43:34.000Z</time>
      </trkpt>
      <trkpt lat="47.68987" lon="6.16397">
        <ele>252.80000305176</ele>
        <time>2012-07-11T09:43:35.000Z</time>
      </trkpt>
      <trkpt lat="47.68989" lon="6.16397">
        <ele>253.19999694824</ele>
        <time>2012-07-11T09:43:36.000Z</time>
      </trkpt>
      <trkpt lat="47.68991" lon="6.16398">
        <ele>253.60000610352</ele>
        <time>2012-07-11T09:43:37.000Z</time>
      </trkpt>
      <trkpt lat="47.68994" lon="6.16399">
        <ele>254</ele>
        <time>2012-07-11T09:43:38.000Z</time>
      </trkpt>
      <trkpt lat="47.69" lon="6.16398">
        <ele>254</ele>
        <time>2012-07-11T09:43:41.000Z</time>
      </trkpt>
      <trkpt lat="47.69016" lon="6.16399">
        <ele>254</ele>
        <time>2012-07-11T09:43:48.000Z</time>
      </trkpt>
      <trkpt lat="47.69036" lon="6.16402">
        <ele>254</ele>
        <time>2012-07-11T09:43:55.000Z</time>
      </trkpt>
      <trkpt lat="47.69058" lon="6.16403">
        <ele>254</ele>
        <time>2012-07-11T09:44:00.000Z</time>
      </trkpt>
      <trkpt lat="47.69063" lon="6.16404">
        <ele>254</ele>
        <time>2012-07-11T09:44:01.000Z</time>
      </trkpt>
      <trkpt lat="47.69082" lon="6.16405">
        <ele>253.60000610352</ele>
        <time>2012-07-11T09:44:04.000Z</time>
      </trkpt>
      <trkpt lat="47.6909" lon="6.16406">
        <ele>253.19999694824</ele>
        <time>2012-07-11T09:44:05.000Z</time>
      </trkpt>
      <trkpt lat="47.69097" lon="6.16407">
        <ele>252.80000305176</ele>
        <time>2012-07-11T09:44:06.000Z</time>
      </trkpt>
      <trkpt lat="47.69105" lon="6.16409">
        <ele>252.39999389648</ele>
        <time>2012-07-11T09:44:07.000Z</time>
      </trkpt>
      <trkpt lat="47.69114" lon="6.16411">
        <ele>251.80000305176</ele>
        <time>2012-07-11T09:44:08.000Z</time>
      </trkpt>
      <trkpt lat="47.69122" lon="6.16412">
        <ele>251.80000305176</ele>
        <time>2012-07-11T09:44:09.000Z</time>
      </trkpt>
      <trkpt lat="47.69131" lon="6.16414">
        <ele>251.39999389648</ele>
        <time>2012-07-11T09:44:10.000Z</time>
      </trkpt>
      <trkpt lat="47.6914" lon="6.16415">
        <ele>251</ele>
        <time>2012-07-11T09:44:11.000Z</time>
      </trkpt>
      <trkpt lat="47.69149" lon="6.16417">
        <ele>250.60000610352</ele>
        <time>2012-07-11T09:44:12.000Z</time>
      </trkpt>
      <trkpt lat="47.69158" lon="6.16418">
        <ele>250.19999694824</ele>
        <time>2012-07-11T09:44:13.000Z</time>
      </trkpt>
      <trkpt lat="47.69167" lon="6.16419">
        <ele>249.80000305176</ele>
        <time>2012-07-11T09:44:14.000Z</time>
      </trkpt>
      <trkpt lat="47.69176" lon="6.16418">
        <ele>249.80000305176</ele>
        <time>2012-07-11T09:44:15.000Z</time>
      </trkpt>
      <trkpt lat="47.69184" lon="6.16417">
        <ele>249.39999389648</ele>
        <time>2012-07-11T09:44:16.000Z</time>
      </trkpt>
      <trkpt lat="47.69193" lon="6.16415">
        <ele>249</ele>
        <time>2012-07-11T09:44:17.000Z</time>
      </trkpt>
      <trkpt lat="47.69201" lon="6.16413">
        <ele>248.60000610352</ele>
        <time>2012-07-11T09:44:18.000Z</time>
      </trkpt>
      <trkpt lat="47.69208" lon="6.16411">
        <ele>248.19999694824</ele>
        <time>2012-07-11T09:44:19.000Z</time>
      </trkpt>
      <trkpt lat="47.69215" lon="6.16409">
        <ele>247.80000305176</ele>
        <time>2012-07-11T09:44:20.000Z</time>
      </trkpt>
      <trkpt lat="47.69223" lon="6.16407">
        <ele>247.80000305176</ele>
        <time>2012-07-11T09:44:21.000Z</time>
      </trkpt>
      <trkpt lat="47.6925" lon="6.16398">
        <ele>247.80000305176</ele>
        <time>2012-07-11T09:44:25.000Z</time>
      </trkpt>
      <trkpt lat="47.69264" lon="6.16391">
        <ele>247.80000305176</ele>
        <time>2012-07-11T09:44:27.000Z</time>
      </trkpt>
      <trkpt lat="47.69298" lon="6.16367">
        <ele>247.80000305176</ele>
        <time>2012-07-11T09:44:33.000Z</time>
      </trkpt>
      <trkpt lat="47.69329" lon="6.16342">
        <ele>247.80000305176</ele>
        <time>2012-07-11T09:44:40.000Z</time>
      </trkpt>
      <trkpt lat="47.69333" lon="6.16338">
        <ele>247.80000305176</ele>
        <time>2012-07-11T09:44:41.000Z</time>
      </trkpt>
      <trkpt lat="47.69347" lon="6.16326">
        <ele>247.80000305176</ele>
        <time>2012-07-11T09:44:46.000Z</time>
      </trkpt>
      <trkpt lat="47.6936" lon="6.16315">
        <ele>247.80000305176</ele>
        <time>2012-07-11T09:44:52.000Z</time>
      </trkpt>
      <trkpt lat="47.6937" lon="6.16308">
        <ele>248.60000610352</ele>
        <time>2012-07-11T09:44:57.000Z</time>
      </trkpt>
      <trkpt lat="47.69371" lon="6.16306">
        <ele>249</ele>
        <time>2012-07-11T09:44:58.000Z</time>
      </trkpt>
      <trkpt lat="47.69373" lon="6.16305">
        <ele>249.39999389648</ele>
        <time>2012-07-11T09:44:59.000Z</time>
      </trkpt>
      <trkpt lat="47.69375" lon="6.16304">
        <ele>250</ele>
        <time>2012-07-11T09:45:00.000Z</time>
      </trkpt>
      <trkpt lat="47.69386" lon="6.16297">
        <ele>250</ele>
        <time>2012-07-11T09:45:06.000Z</time>
      </trkpt>
      <trkpt lat="47.69394" lon="6.16295">
        <ele>250.39999389648</ele>
        <time>2012-07-11T09:45:10.000Z</time>
      </trkpt>
      <trkpt lat="47.69395" lon="6.16295">
        <ele>250.80000305176</ele>
        <time>2012-07-11T09:45:11.000Z</time>
      </trkpt>
      <trkpt lat="47.69397" lon="6.16295">
        <ele>251.19999694824</ele>
        <time>2012-07-11T09:45:12.000Z</time>
      </trkpt>
      <trkpt lat="47.69399" lon="6.16295">
        <ele>251.60000610352</ele>
        <time>2012-07-11T09:45:13.000Z</time>
      </trkpt>
      <trkpt lat="47.69401" lon="6.16295">
        <ele>252</ele>
        <time>2012-07-11T09:45:14.000Z</time>
      </trkpt>
      <trkpt lat="47.69408" lon="6.16296">
        <ele>252</ele>
        <time>2012-07-11T09:45:18.000Z</time>
      </trkpt>
      <trkpt lat="47.6941" lon="6.16296">
        <ele>252.39999389648</ele>
        <time>2012-07-11T09:45:19.000Z</time>
      </trkpt>
      <trkpt lat="47.69412" lon="6.16297">
        <ele>253.39999389648</ele>
        <time>2012-07-11T09:45:20.000Z</time>
      </trkpt>
      <trkpt lat="47.69413" lon="6.16297">
        <ele>253.80000305176</ele>
        <time>2012-07-11T09:45:21.000Z</time>
      </trkpt>
      <trkpt lat="47.69415" lon="6.16298">
        <ele>254.19999694824</ele>
        <time>2012-07-11T09:45:22.000Z</time>
      </trkpt>
      <trkpt lat="47.69419" lon="6.163">
        <ele>254.19999694824</ele>
        <time>2012-07-11T09:45:24.000Z</time>
      </trkpt>
      <trkpt lat="47.69432" lon="6.16308">
        <ele>254.19999694824</ele>
        <time>2012-07-11T09:45:31.000Z</time>
      </trkpt>
      <trkpt lat="47.6945" lon="6.16312">
        <ele>254.19999694824</ele>
        <time>2012-07-11T09:45:37.000Z</time>
      </trkpt>
      <trkpt lat="47.69468" lon="6.16305">
        <ele>254.19999694824</ele>
        <time>2012-07-11T09:45:43.000Z</time>
      </trkpt>
      <trkpt lat="47.69471" lon="6.16303">
        <ele>254.60000610352</ele>
        <time>2012-07-11T09:45:44.000Z</time>
      </trkpt>
      <trkpt lat="47.69474" lon="6.163">
        <ele>255.39999389648</ele>
        <time>2012-07-11T09:45:45.000Z</time>
      </trkpt>
      <trkpt lat="47.69476" lon="6.16298">
        <ele>255.80000305176</ele>
        <time>2012-07-11T09:45:46.000Z</time>
      </trkpt>
      <trkpt lat="47.6948" lon="6.16295">
        <ele>256.20001220703</ele>
        <time>2012-07-11T09:45:47.000Z</time>
      </trkpt>
      <trkpt lat="47.6949" lon="6.16285">
        <ele>256.20001220703</ele>
        <time>2012-07-11T09:45:51.000Z</time>
      </trkpt>
      <trkpt lat="47.69511" lon="6.1626">
        <ele>256.20001220703</ele>
        <time>2012-07-11T09:46:00.000Z</time>
      </trkpt>
      <trkpt lat="47.69528" lon="6.16241">
        <ele>256.20001220703</ele>
        <time>2012-07-11T09:46:08.000Z</time>
      </trkpt>
      <trkpt lat="47.69543" lon="6.16224">
        <ele>256.20001220703</ele>
        <time>2012-07-11T09:46:16.000Z</time>
      </trkpt>
      <trkpt lat="47.69552" lon="6.16214">
        <ele>256.60000610352</ele>
        <time>2012-07-11T09:46:21.000Z</time>
      </trkpt>
      <trkpt lat="47.69555" lon="6.16211">
        <ele>257</ele>
        <time>2012-07-11T09:46:22.000Z</time>
      </trkpt>
      <trkpt lat="47.69557" lon="6.16209">
        <ele>257.39999389648</ele>
        <time>2012-07-11T09:46:23.000Z</time>
      </trkpt>
      <trkpt lat="47.69559" lon="6.16206">
        <ele>258</ele>
        <time>2012-07-11T09:46:24.000Z</time>
      </trkpt>
      <trkpt lat="47.69561" lon="6.16204">
        <ele>258.39999389648</ele>
        <time>2012-07-11T09:46:25.000Z</time>
      </trkpt>
      <trkpt lat="47.69569" lon="6.16197">
        <ele>258.39999389648</ele>
        <time>2012-07-11T09:46:29.000Z</time>
      </trkpt>
      <trkpt lat="47.69589" lon="6.16177">
        <ele>258.79998779297</ele>
        <time>2012-07-11T09:46:39.000Z</time>
      </trkpt>
      <trkpt lat="47.69591" lon="6.16176">
        <ele>259.20001220703</ele>
        <time>2012-07-11T09:46:40.000Z</time>
      </trkpt>
      <trkpt lat="47.69594" lon="6.16174">
        <ele>259.60000610352</ele>
        <time>2012-07-11T09:46:41.000Z</time>
      </trkpt>
      <trkpt lat="47.69596" lon="6.16173">
        <ele>260</ele>
        <time>2012-07-11T09:46:42.000Z</time>
      </trkpt>
      <trkpt lat="47.69598" lon="6.16171">
        <ele>260.60000610352</ele>
        <time>2012-07-11T09:46:43.000Z</time>
      </trkpt>
      <trkpt lat="47.69604" lon="6.16166">
        <ele>260.60000610352</ele>
        <time>2012-07-11T09:46:46.000Z</time>
      </trkpt>
      <trkpt lat="47.69621" lon="6.16156">
        <ele>261</ele>
        <time>2012-07-11T09:46:54.000Z</time>
      </trkpt>
      <trkpt lat="47.69623" lon="6.16154">
        <ele>261.39999389648</ele>
        <time>2012-07-11T09:46:55.000Z</time>
      </trkpt>
      <trkpt lat="47.69625" lon="6.16152">
        <ele>261.79998779297</ele>
        <time>2012-07-11T09:46:56.000Z</time>
      </trkpt>
      <trkpt lat="47.69628" lon="6.1615">
        <ele>262.20001220703</ele>
        <time>2012-07-11T09:46:57.000Z</time>
      </trkpt>
      <trkpt lat="47.6963" lon="6.16148">
        <ele>262.60000610352</ele>
        <time>2012-07-11T09:46:58.000Z</time>
      </trkpt>
      <trkpt lat="47.69639" lon="6.16143">
        <ele>262.60000610352</ele>
        <time>2012-07-11T09:47:01.000Z</time>
      </trkpt>
      <trkpt lat="47.6966" lon="6.16126">
        <ele>262.60000610352</ele>
        <time>2012-07-11T09:47:07.000Z</time>
      </trkpt>
      <trkpt lat="47.69663" lon="6.16123">
        <ele>262.60000610352</ele>
        <time>2012-07-11T09:47:08.000Z</time>
      </trkpt>
      <trkpt lat="47.69671" lon="6.16116">
        <ele>262.60000610352</ele>
        <time>2012-07-11T09:47:10.000Z</time>
      </trkpt>
      <trkpt lat="47.6968" lon="6.16109">
        <ele>262.60000610352</ele>
        <time>2012-07-11T09:47:12.000Z</time>
      </trkpt>
      <trkpt lat="47.69708" lon="6.16078">
        <ele>262.60000610352</ele>
        <time>2012-07-11T09:47:20.000Z</time>
      </trkpt>
      <trkpt lat="47.69711" lon="6.16075">
        <ele>262.20001220703</ele>
        <time>2012-07-11T09:47:21.000Z</time>
      </trkpt>
      <trkpt lat="47.69714" lon="6.16072">
        <ele>261.60000610352</ele>
        <time>2012-07-11T09:47:22.000Z</time>
      </trkpt>
      <trkpt lat="47.69717" lon="6.16069">
        <ele>261.20001220703</ele>
        <time>2012-07-11T09:47:23.000Z</time>
      </trkpt>
      <trkpt lat="47.6972" lon="6.16066">
        <ele>260.39999389648</ele>
        <time>2012-07-11T09:47:24.000Z</time>
      </trkpt>
      <trkpt lat="47.69726" lon="6.16059">
        <ele>260.39999389648</ele>
        <time>2012-07-11T09:47:26.000Z</time>
      </trkpt>
      <trkpt lat="47.69745" lon="6.16039">
        <ele>260.39999389648</ele>
        <time>2012-07-11T09:47:32.000Z</time>
      </trkpt>
      <trkpt lat="47.69749" lon="6.16037">
        <ele>260.39999389648</ele>
        <time>2012-07-11T09:47:33.000Z</time>
      </trkpt>
      <trkpt lat="47.69757" lon="6.16035">
        <ele>260.39999389648</ele>
        <time>2012-07-11T09:47:35.000Z</time>
      </trkpt>
      <trkpt lat="47.69769" lon="6.16039">
        <ele>260.39999389648</ele>
        <time>2012-07-11T09:47:38.000Z</time>
      </trkpt>
      <trkpt lat="47.69772" lon="6.16041">
        <ele>260.39999389648</ele>
        <time>2012-07-11T09:47:39.000Z</time>
      </trkpt>
      <trkpt lat="47.69793" lon="6.16058">
        <ele>260.39999389648</ele>
        <time>2012-07-11T09:47:46.000Z</time>
      </trkpt>
      <trkpt lat="47.69813" lon="6.16076">
        <ele>260.39999389648</ele>
        <time>2012-07-11T09:47:53.000Z</time>
      </trkpt>
      <trkpt lat="47.69834" lon="6.16097">
        <ele>260.39999389648</ele>
        <time>2012-07-11T09:48:01.000Z</time>
      </trkpt>
      <trkpt lat="47.6985" lon="6.16118">
        <ele>260.39999389648</ele>
        <time>2012-07-11T09:48:08.000Z</time>
      </trkpt>
      <trkpt lat="47.6986" lon="6.16134">
        <ele>261.20001220703</ele>
        <time>2012-07-11T09:48:13.000Z</time>
      </trkpt>
      <trkpt lat="47.69862" lon="6.16137">
        <ele>261.60000610352</ele>
        <time>2012-07-11T09:48:14.000Z</time>
      </trkpt>
      <trkpt lat="47.69864" lon="6.16141">
        <ele>262</ele>
        <time>2012-07-11T09:48:15.000Z</time>
      </trkpt>
      <trkpt lat="47.69866" lon="6.16144">
        <ele>262.39999389648</ele>
        <time>2012-07-11T09:48:16.000Z</time>
      </trkpt>
      <trkpt lat="47.6988" lon="6.16166">
        <ele>262.39999389648</ele>
        <time>2012-07-11T09:48:23.000Z</time>
      </trkpt>
      <trkpt lat="47.69895" lon="6.16191">
        <ele>262.79998779297</ele>
        <time>2012-07-11T09:48:30.000Z</time>
      </trkpt>
      <trkpt lat="47.69897" lon="6.16195">
        <ele>263.20001220703</ele>
        <time>2012-07-11T09:48:31.000Z</time>
      </trkpt>
      <trkpt lat="47.69898" lon="6.16198">
        <ele>263.60000610352</ele>
        <time>2012-07-11T09:48:32.000Z</time>
      </trkpt>
      <trkpt lat="47.699" lon="6.16202">
        <ele>264</ele>
        <time>2012-07-11T09:48:33.000Z</time>
      </trkpt>
      <trkpt lat="47.69902" lon="6.16206">
        <ele>264.39999389648</ele>
        <time>2012-07-11T09:48:34.000Z</time>
      </trkpt>
      <trkpt lat="47.69911" lon="6.16224">
        <ele>264.39999389648</ele>
        <time>2012-07-11T09:48:39.000Z</time>
      </trkpt>
      <trkpt lat="47.69924" lon="6.1625">
        <ele>264.39999389648</ele>
        <time>2012-07-11T09:48:46.000Z</time>
      </trkpt>
      <trkpt lat="47.69936" lon="6.16284">
        <ele>264.79998779297</ele>
        <time>2012-07-11T09:48:53.000Z</time>
      </trkpt>
      <trkpt lat="47.69938" lon="6.16288">
        <ele>265.20001220703</ele>
        <time>2012-07-11T09:48:54.000Z</time>
      </trkpt>
      <trkpt lat="47.6994" lon="6.16292">
        <ele>265.60000610352</ele>
        <time>2012-07-11T09:48:55.000Z</time>
      </trkpt>
      <trkpt lat="47.69942" lon="6.16295">
        <ele>266</ele>
        <time>2012-07-11T09:48:56.000Z</time>
      </trkpt>
      <trkpt lat="47.69945" lon="6.16299">
        <ele>266.39999389648</ele>
        <time>2012-07-11T09:48:57.000Z</time>
      </trkpt>
      <trkpt lat="47.6995" lon="6.16304">
        <ele>266.39999389648</ele>
        <time>2012-07-11T09:48:59.000Z</time>
      </trkpt>
      <trkpt lat="47.69967" lon="6.16309">
        <ele>266.39999389648</ele>
        <time>2012-07-11T09:49:05.000Z</time>
      </trkpt>
      <trkpt lat="47.69996" lon="6.16305">
        <ele>266.39999389648</ele>
        <time>2012-07-11T09:49:15.000Z</time>
      </trkpt>
      <trkpt lat="47.7001" lon="6.16303">
        <ele>266.79998779297</ele>
        <time>2012-07-11T09:49:20.000Z</time>
      </trkpt>
      <trkpt lat="47.70013" lon="6.16302">
        <ele>267.20001220703</ele>
        <time>2012-07-11T09:49:21.000Z</time>
      </trkpt>
      <trkpt lat="47.70016" lon="6.16302">
        <ele>267.60000610352</ele>
        <time>2012-07-11T09:49:22.000Z</time>
      </trkpt>
      <trkpt lat="47.70018" lon="6.16301">
        <ele>268</ele>
        <time>2012-07-11T09:49:23.000Z</time>
      </trkpt>
      <trkpt lat="47.70021" lon="6.16301">
        <ele>268.39999389648</ele>
        <time>2012-07-11T09:49:24.000Z</time>
      </trkpt>
      <trkpt lat="47.7003" lon="6.16299">
        <ele>268.39999389648</ele>
        <time>2012-07-11T09:49:28.000Z</time>
      </trkpt>
      <trkpt lat="47.7004" lon="6.16297">
        <ele>268.39999389648</ele>
        <time>2012-07-11T09:49:32.000Z</time>
      </trkpt>
      <trkpt lat="47.7005" lon="6.16295">
        <ele>268.39999389648</ele>
        <time>2012-07-11T09:49:36.000Z</time>
      </trkpt>
      <trkpt lat="47.70065" lon="6.16293">
        <ele>268.39999389648</ele>
        <time>2012-07-11T09:49:42.000Z</time>
      </trkpt>
      <trkpt lat="47.70083" lon="6.1629">
        <ele>268.39999389648</ele>
        <time>2012-07-11T09:49:49.000Z</time>
      </trkpt>
      <trkpt lat="47.70098" lon="6.16289">
        <ele>269</ele>
        <time>2012-07-11T09:49:55.000Z</time>
      </trkpt>
      <trkpt lat="47.70101" lon="6.16288">
        <ele>269.39999389648</ele>
        <time>2012-07-11T09:49:56.000Z</time>
      </trkpt>
      <trkpt lat="47.70103" lon="6.16288">
        <ele>269.79998779297</ele>
        <time>2012-07-11T09:49:57.000Z</time>
      </trkpt>
      <trkpt lat="47.70106" lon="6.16288">
        <ele>270.39999389648</ele>
        <time>2012-07-11T09:49:58.000Z</time>
      </trkpt>
      <trkpt lat="47.70109" lon="6.16288">
        <ele>270.79998779297</ele>
        <time>2012-07-11T09:49:59.000Z</time>
      </trkpt>
      <trkpt lat="47.70126" lon="6.16285">
        <ele>270.79998779297</ele>
        <time>2012-07-11T09:50:05.000Z</time>
      </trkpt>
      <trkpt lat="47.70149" lon="6.16281">
        <ele>270.79998779297</ele>
        <time>2012-07-11T09:50:14.000Z</time>
      </trkpt>
      <trkpt lat="47.70155" lon="6.1628">
        <ele>271.60000610352</ele>
        <time>2012-07-11T09:50:16.000Z</time>
      </trkpt>
      <trkpt lat="47.70157" lon="6.16279">
        <ele>272</ele>
        <time>2012-07-11T09:50:17.000Z</time>
      </trkpt>
      <trkpt lat="47.7016" lon="6.16279">
        <ele>272.39999389648</ele>
        <time>2012-07-11T09:50:18.000Z</time>
      </trkpt>
      <trkpt lat="47.70163" lon="6.16279">
        <ele>272.79998779297</ele>
        <time>2012-07-11T09:50:19.000Z</time>
      </trkpt>
      <trkpt lat="47.70171" lon="6.16278">
        <ele>272.79998779297</ele>
        <time>2012-07-11T09:50:22.000Z</time>
      </trkpt>
      <trkpt lat="47.70192" lon="6.16274">
        <ele>272.79998779297</ele>
        <time>2012-07-11T09:50:30.000Z</time>
      </trkpt>
      <trkpt lat="47.70215" lon="6.1627">
        <ele>272.79998779297</ele>
        <time>2012-07-11T09:50:38.000Z</time>
      </trkpt>
      <trkpt lat="47.70236" lon="6.16268">
        <ele>272.79998779297</ele>
        <time>2012-07-11T09:50:45.000Z</time>
      </trkpt>
      <trkpt lat="47.70242" lon="6.16267">
        <ele>273.20001220703</ele>
        <time>2012-07-11T09:50:47.000Z</time>
      </trkpt>
      <trkpt lat="47.70245" lon="6.16266">
        <ele>273.60000610352</ele>
        <time>2012-07-11T09:50:48.000Z</time>
      </trkpt>
      <trkpt lat="47.70248" lon="6.16266">
        <ele>274</ele>
        <time>2012-07-11T09:50:49.000Z</time>
      </trkpt>
      <trkpt lat="47.7025" lon="6.16266">
        <ele>274.39999389648</ele>
        <time>2012-07-11T09:50:50.000Z</time>
      </trkpt>
      <trkpt lat="47.70253" lon="6.16266">
        <ele>274.79998779297</ele>
        <time>2012-07-11T09:50:51.000Z</time>
      </trkpt>
      <trkpt lat="47.70256" lon="6.16266">
        <ele>274.79998779297</ele>
        <time>2012-07-11T09:50:52.000Z</time>
      </trkpt>
      <trkpt lat="47.70279" lon="6.16263">
        <ele>274.79998779297</ele>
        <time>2012-07-11T09:51:00.000Z</time>
      </trkpt>
      <trkpt lat="47.70297" lon="6.16261">
        <ele>275.20001220703</ele>
        <time>2012-07-11T09:51:07.000Z</time>
      </trkpt>
      <trkpt lat="47.703" lon="6.16261">
        <ele>275.60000610352</ele>
        <time>2012-07-11T09:51:08.000Z</time>
      </trkpt>
      <trkpt lat="47.70303" lon="6.1626">
        <ele>276</ele>
        <time>2012-07-11T09:51:09.000Z</time>
      </trkpt>
      <trkpt lat="47.70306" lon="6.1626">
        <ele>276.39999389648</ele>
        <time>2012-07-11T09:51:10.000Z</time>
      </trkpt>
      <trkpt lat="47.70308" lon="6.1626">
        <ele>276.79998779297</ele>
        <time>2012-07-11T09:51:11.000Z</time>
      </trkpt>
      <trkpt lat="47.70317" lon="6.16258">
        <ele>276.79998779297</ele>
        <time>2012-07-11T09:51:14.000Z</time>
      </trkpt>
      <trkpt lat="47.70336" lon="6.16254">
        <ele>276.79998779297</ele>
        <time>2012-07-11T09:51:21.000Z</time>
      </trkpt>
      <trkpt lat="47.70344" lon="6.16254">
        <ele>277.39999389648</ele>
        <time>2012-07-11T09:51:24.000Z</time>
      </trkpt>
      <trkpt lat="47.70347" lon="6.16253">
        <ele>277.79998779297</ele>
        <time>2012-07-11T09:51:25.000Z</time>
      </trkpt>
      <trkpt lat="47.7035" lon="6.16252">
        <ele>278.20001220703</ele>
        <time>2012-07-11T09:51:26.000Z</time>
      </trkpt>
      <trkpt lat="47.70352" lon="6.16251">
        <ele>278.60000610352</ele>
        <time>2012-07-11T09:51:27.000Z</time>
      </trkpt>
      <trkpt lat="47.70355" lon="6.16251">
        <ele>279</ele>
        <time>2012-07-11T09:51:28.000Z</time>
      </trkpt>
      <trkpt lat="47.70372" lon="6.16251">
        <ele>279</ele>
        <time>2012-07-11T09:51:34.000Z</time>
      </trkpt>
      <trkpt lat="47.704" lon="6.16246">
        <ele>279</ele>
        <time>2012-07-11T09:51:43.000Z</time>
      </trkpt>
      <trkpt lat="47.70419" lon="6.16244">
        <ele>279</ele>
        <time>2012-07-11T09:51:49.000Z</time>
      </trkpt>
      <trkpt lat="47.70441" lon="6.16241">
        <ele>279</ele>
        <time>2012-07-11T09:51:56.000Z</time>
      </trkpt>
      <trkpt lat="47.70463" lon="6.16238">
        <ele>279</ele>
        <time>2012-07-11T09:52:03.000Z</time>
      </trkpt>
      <trkpt lat="47.70472" lon="6.16236">
        <ele>279.39999389648</ele>
        <time>2012-07-11T09:52:06.000Z</time>
      </trkpt>
      <trkpt lat="47.70475" lon="6.16236">
        <ele>279.79998779297</ele>
        <time>2012-07-11T09:52:07.000Z</time>
      </trkpt>
      <trkpt lat="47.70478" lon="6.16235">
        <ele>280.20001220703</ele>
        <time>2012-07-11T09:52:08.000Z</time>
      </trkpt>
      <trkpt lat="47.70481" lon="6.16235">
        <ele>280.60000610352</ele>
        <time>2012-07-11T09:52:09.000Z</time>
      </trkpt>
      <trkpt lat="47.70484" lon="6.16234">
        <ele>281</ele>
        <time>2012-07-11T09:52:10.000Z</time>
      </trkpt>
      <trkpt lat="47.70487" lon="6.16233">
        <ele>281</ele>
        <time>2012-07-11T09:52:11.000Z</time>
      </trkpt>
      <trkpt lat="47.70512" lon="6.16229">
        <ele>281</ele>
        <time>2012-07-11T09:52:20.000Z</time>
      </trkpt>
      <trkpt lat="47.70536" lon="6.16225">
        <ele>281</ele>
        <time>2012-07-11T09:52:28.000Z</time>
      </trkpt>
      <trkpt lat="47.70554" lon="6.16224">
        <ele>281.39999389648</ele>
        <time>2012-07-11T09:52:34.000Z</time>
      </trkpt>
      <trkpt lat="47.70557" lon="6.16224">
        <ele>281.79998779297</ele>
        <time>2012-07-11T09:52:35.000Z</time>
      </trkpt>
      <trkpt lat="47.7056" lon="6.16223">
        <ele>282.20001220703</ele>
        <time>2012-07-11T09:52:36.000Z</time>
      </trkpt>
      <trkpt lat="47.70563" lon="6.16223">
        <ele>282.60000610352</ele>
        <time>2012-07-11T09:52:37.000Z</time>
      </trkpt>
      <trkpt lat="47.70566" lon="6.16223">
        <ele>283</ele>
        <time>2012-07-11T09:52:38.000Z</time>
      </trkpt>
      <trkpt lat="47.70577" lon="6.16222">
        <ele>283</ele>
        <time>2012-07-11T09:52:42.000Z</time>
      </trkpt>
      <trkpt lat="47.70595" lon="6.16218">
        <ele>283</ele>
        <time>2012-07-11T09:52:49.000Z</time>
      </trkpt>
      <trkpt lat="47.70606" lon="6.16216">
        <ele>283.39999389648</ele>
        <time>2012-07-11T09:52:53.000Z</time>
      </trkpt>
      <trkpt lat="47.70609" lon="6.16216">
        <ele>283.79998779297</ele>
        <time>2012-07-11T09:52:54.000Z</time>
      </trkpt>
      <trkpt lat="47.70611" lon="6.16216">
        <ele>284.20001220703</ele>
        <time>2012-07-11T09:52:55.000Z</time>
      </trkpt>
      <trkpt lat="47.70614" lon="6.16216">
        <ele>284.60000610352</ele>
        <time>2012-07-11T09:52:56.000Z</time>
      </trkpt>
      <trkpt lat="47.70617" lon="6.16216">
        <ele>285</ele>
        <time>2012-07-11T09:52:57.000Z</time>
      </trkpt>
      <trkpt lat="47.70631" lon="6.16215">
        <ele>285</ele>
        <time>2012-07-11T09:53:03.000Z</time>
      </trkpt>
      <trkpt lat="47.70633" lon="6.16225">
        <ele>285</ele>
        <time>2012-07-11T09:53:07.000Z</time>
      </trkpt>
      <trkpt lat="47.70633" lon="6.1624">
        <ele>285</ele>
        <time>2012-07-11T09:53:11.000Z</time>
      </trkpt>
      <trkpt lat="47.70633" lon="6.16245">
        <ele>285</ele>
        <time>2012-07-11T09:53:13.000Z</time>
      </trkpt>
      <trkpt lat="47.70636" lon="6.16258">
        <ele>284.60000610352</ele>
        <time>2012-07-11T09:53:19.000Z</time>
      </trkpt>
      <trkpt lat="47.70636" lon="6.1626">
        <ele>284.20001220703</ele>
        <time>2012-07-11T09:53:20.000Z</time>
      </trkpt>
      <trkpt lat="47.70636" lon="6.16262">
        <ele>283.79998779297</ele>
        <time>2012-07-11T09:53:21.000Z</time>
      </trkpt>
      <trkpt lat="47.70636" lon="6.16264">
        <ele>283.39999389648</ele>
        <time>2012-07-11T09:53:22.000Z</time>
      </trkpt>
      <trkpt lat="47.70636" lon="6.16266">
        <ele>283</ele>
        <time>2012-07-11T09:53:23.000Z</time>
      </trkpt>
      <trkpt lat="47.70636" lon="6.1627">
        <ele>283</ele>
        <time>2012-07-11T09:53:25.000Z</time>
      </trkpt>
      <trkpt lat="47.70636" lon="6.16272">
        <ele>283</ele>
        <time>2012-07-11T09:53:26.000Z</time>
      </trkpt>
      <trkpt lat="47.70639" lon="6.16284">
        <ele>283</ele>
        <time>2012-07-11T09:53:32.000Z</time>
      </trkpt>
      <trkpt lat="47.7064" lon="6.16296">
        <ele>283</ele>
        <time>2012-07-11T09:53:37.000Z</time>
      </trkpt>
      <trkpt lat="47.7064" lon="6.16298">
        <ele>283</ele>
        <time>2012-07-11T09:53:38.000Z</time>
      </trkpt>
      <trkpt lat="47.7064" lon="6.16308">
        <ele>283.39999389648</ele>
        <time>2012-07-11T09:53:43.000Z</time>
      </trkpt>
      <trkpt lat="47.7064" lon="6.1631">
        <ele>283.79998779297</ele>
        <time>2012-07-11T09:53:44.000Z</time>
      </trkpt>
      <trkpt lat="47.70641" lon="6.16313">
        <ele>284.20001220703</ele>
        <time>2012-07-11T09:53:45.000Z</time>
      </trkpt>
      <trkpt lat="47.70641" lon="6.16315">
        <ele>284.60000610352</ele>
        <time>2012-07-11T09:53:46.000Z</time>
      </trkpt>
      <trkpt lat="47.70641" lon="6.16317">
        <ele>285</ele>
        <time>2012-07-11T09:53:47.000Z</time>
      </trkpt>
      <trkpt lat="47.70642" lon="6.16327">
        <ele>285</ele>
        <time>2012-07-11T09:53:51.000Z</time>
      </trkpt>
      <trkpt lat="47.70642" lon="6.16336">
        <ele>285</ele>
        <time>2012-07-11T09:53:55.000Z</time>
      </trkpt>
      <trkpt lat="47.70641" lon="6.1634">
        <ele>285</ele>
        <time>2012-07-11T09:53:57.000Z</time>
      </trkpt>
      <trkpt lat="47.7064" lon="6.16344">
        <ele>285</ele>
        <time>2012-07-11T09:53:59.000Z</time>
      </trkpt>
      <trkpt lat="47.7064" lon="6.16355">
        <ele>285.60000610352</ele>
        <time>2012-07-11T09:54:04.000Z</time>
      </trkpt>
      <trkpt lat="47.7064" lon="6.16357">
        <ele>286</ele>
        <time>2012-07-11T09:54:05.000Z</time>
      </trkpt>
      <trkpt lat="47.70641" lon="6.1636">
        <ele>286.39999389648</ele>
        <time>2012-07-11T09:54:06.000Z</time>
      </trkpt>
      <trkpt lat="47.70641" lon="6.16362">
        <ele>286.79998779297</ele>
        <time>2012-07-11T09:54:07.000Z</time>
      </trkpt>
      <trkpt lat="47.70642" lon="6.16364">
        <ele>287.20001220703</ele>
        <time>2012-07-11T09:54:08.000Z</time>
      </trkpt>
      <trkpt lat="47.70643" lon="6.16373">
        <ele>287.20001220703</ele>
        <time>2012-07-11T09:54:11.000Z</time>
      </trkpt>
      <trkpt lat="47.70644" lon="6.16386">
        <ele>287.20001220703</ele>
        <time>2012-07-11T09:54:18.000Z</time>
      </trkpt>
      <trkpt lat="47.70644" lon="6.16395">
        <ele>287.60000610352</ele>
        <time>2012-07-11T09:54:22.000Z</time>
      </trkpt>
      <trkpt lat="47.70644" lon="6.16397">
        <ele>288</ele>
        <time>2012-07-11T09:54:23.000Z</time>
      </trkpt>
      <trkpt lat="47.70644" lon="6.16399">
        <ele>288.79998779297</ele>
        <time>2012-07-11T09:54:24.000Z</time>
      </trkpt>
      <trkpt lat="47.70643" lon="6.16401">
        <ele>289.20001220703</ele>
        <time>2012-07-11T09:54:25.000Z</time>
      </trkpt>
      <trkpt lat="47.70643" lon="6.16414">
        <ele>289.20001220703</ele>
        <time>2012-07-11T09:54:32.000Z</time>
      </trkpt>
      <trkpt lat="47.70642" lon="6.16427">
        <ele>289.20001220703</ele>
        <time>2012-07-11T09:54:39.000Z</time>
      </trkpt>
      <trkpt lat="47.70645" lon="6.16445">
        <ele>289.20001220703</ele>
        <time>2012-07-11T09:54:45.000Z</time>
      </trkpt>
      <trkpt lat="47.70645" lon="6.16448">
        <ele>289.20001220703</ele>
        <time>2012-07-11T09:54:46.000Z</time>
      </trkpt>
      <trkpt lat="47.70646" lon="6.16462">
        <ele>289.20001220703</ele>
        <time>2012-07-11T09:54:51.000Z</time>
      </trkpt>
      <trkpt lat="47.70646" lon="6.16478">
        <ele>289.20001220703</ele>
        <time>2012-07-11T09:54:58.000Z</time>
      </trkpt>
      <trkpt lat="47.70646" lon="6.16485">
        <ele>289.60000610352</ele>
        <time>2012-07-11T09:55:00.000Z</time>
      </trkpt>
      <trkpt lat="47.70646" lon="6.16487">
        <ele>290</ele>
        <time>2012-07-11T09:55:01.000Z</time>
      </trkpt>
      <trkpt lat="47.70647" lon="6.16491">
        <ele>290.39999389648</ele>
        <time>2012-07-11T09:55:02.000Z</time>
      </trkpt>
      <trkpt lat="47.70647" lon="6.16493">
        <ele>290.79998779297</ele>
        <time>2012-07-11T09:55:03.000Z</time>
      </trkpt>
      <trkpt lat="47.70648" lon="6.16495">
        <ele>291.20001220703</ele>
        <time>2012-07-11T09:55:04.000Z</time>
      </trkpt>
      <trkpt lat="47.70648" lon="6.16498">
        <ele>291.20001220703</ele>
        <time>2012-07-11T09:55:05.000Z</time>
      </trkpt>
      <trkpt lat="47.70649" lon="6.16507">
        <ele>291.20001220703</ele>
        <time>2012-07-11T09:55:10.000Z</time>
      </trkpt>
      <trkpt lat="47.70651" lon="6.16527">
        <ele>291.20001220703</ele>
        <time>2012-07-11T09:55:17.000Z</time>
      </trkpt>
      <trkpt lat="47.70651" lon="6.16544">
        <ele>291.20001220703</ele>
        <time>2012-07-11T09:55:24.000Z</time>
      </trkpt>
      <trkpt lat="47.70652" lon="6.16557">
        <ele>291.20001220703</ele>
        <time>2012-07-11T09:55:30.000Z</time>
      </trkpt>
      <trkpt lat="47.70654" lon="6.16577">
        <ele>291.20001220703</ele>
        <time>2012-07-11T09:55:37.000Z</time>
      </trkpt>
      <trkpt lat="47.70655" lon="6.16595">
        <ele>291.20001220703</ele>
        <time>2012-07-11T09:55:44.000Z</time>
      </trkpt>
      <trkpt lat="47.70654" lon="6.16612">
        <ele>291.20001220703</ele>
        <time>2012-07-11T09:55:51.000Z</time>
      </trkpt>
      <trkpt lat="47.70653" lon="6.16639">
        <ele>291.20001220703</ele>
        <time>2012-07-11T09:56:04.000Z</time>
      </trkpt>
      <trkpt lat="47.70655" lon="6.16651">
        <ele>291.20001220703</ele>
        <time>2012-07-11T09:56:08.000Z</time>
      </trkpt>
      <trkpt lat="47.70662" lon="6.16686">
        <ele>290.79998779297</ele>
        <time>2012-07-11T09:56:16.000Z</time>
      </trkpt>
      <trkpt lat="47.70663" lon="6.1669">
        <ele>290.39999389648</ele>
        <time>2012-07-11T09:56:17.000Z</time>
      </trkpt>
      <trkpt lat="47.70663" lon="6.16695">
        <ele>290</ele>
        <time>2012-07-11T09:56:18.000Z</time>
      </trkpt>
      <trkpt lat="47.70664" lon="6.16699">
        <ele>289.60000610352</ele>
        <time>2012-07-11T09:56:19.000Z</time>
      </trkpt>
      <trkpt lat="47.70664" lon="6.16703">
        <ele>289.20001220703</ele>
        <time>2012-07-11T09:56:20.000Z</time>
      </trkpt>
      <trkpt lat="47.70665" lon="6.16706">
        <ele>289.20001220703</ele>
        <time>2012-07-11T09:56:21.000Z</time>
      </trkpt>
      <trkpt lat="47.70665" lon="6.16726">
        <ele>289.20001220703</ele>
        <time>2012-07-11T09:56:29.000Z</time>
      </trkpt>
      <trkpt lat="47.70665" lon="6.16729">
        <ele>289.20001220703</ele>
        <time>2012-07-11T09:56:42.000Z</time>
      </trkpt>
      <trkpt lat="47.70664" lon="6.16732">
        <ele>288.79998779297</ele>
        <time>2012-07-11T09:56:44.000Z</time>
      </trkpt>
      <trkpt lat="47.70663" lon="6.16734">
        <ele>288.39999389648</ele>
        <time>2012-07-11T09:56:45.000Z</time>
      </trkpt>
      <trkpt lat="47.70664" lon="6.16736">
        <ele>288</ele>
        <time>2012-07-11T09:56:46.000Z</time>
      </trkpt>
      <trkpt lat="47.70685" lon="6.16797">
        <ele>287.20001220703</ele>
        <time>2012-07-11T09:58:41.000Z</time>
      </trkpt>
      <trkpt lat="47.70686" lon="6.16799">
        <ele>287.20001220703</ele>
        <time>2012-07-11T09:58:42.000Z</time>
      </trkpt>
      <trkpt lat="47.70687" lon="6.16807">
        <ele>287.20001220703</ele>
        <time>2012-07-11T09:58:45.000Z</time>
      </trkpt>
      <trkpt lat="47.7069" lon="6.16818">
        <ele>287.20001220703</ele>
        <time>2012-07-11T09:58:49.000Z</time>
      </trkpt>
      <trkpt lat="47.70693" lon="6.16829">
        <ele>287.60000610352</ele>
        <time>2012-07-11T09:58:55.000Z</time>
      </trkpt>
      <trkpt lat="47.70693" lon="6.16832">
        <ele>288</ele>
        <time>2012-07-11T09:58:56.000Z</time>
      </trkpt>
      <trkpt lat="47.70694" lon="6.16834">
        <ele>288.39999389648</ele>
        <time>2012-07-11T09:58:57.000Z</time>
      </trkpt>
      <trkpt lat="47.70694" lon="6.16836">
        <ele>288.79998779297</ele>
        <time>2012-07-11T09:58:58.000Z</time>
      </trkpt>
      <trkpt lat="47.70695" lon="6.16839">
        <ele>289.20001220703</ele>
        <time>2012-07-11T09:58:59.000Z</time>
      </trkpt>
      <trkpt lat="47.70695" lon="6.16846">
        <ele>289.20001220703</ele>
        <time>2012-07-11T09:59:02.000Z</time>
      </trkpt>
      <trkpt lat="47.70696" lon="6.16851">
        <ele>289.20001220703</ele>
        <time>2012-07-11T09:59:04.000Z</time>
      </trkpt>
      <trkpt lat="47.70696" lon="6.16864">
        <ele>289.20001220703</ele>
        <time>2012-07-11T09:59:10.000Z</time>
      </trkpt>
      <trkpt lat="47.70699" lon="6.16876">
        <ele>289.20001220703</ele>
        <time>2012-07-11T09:59:17.000Z</time>
      </trkpt>
      <trkpt lat="47.70698" lon="6.16877">
        <ele>289.20001220703</ele>
        <time>2012-07-11T09:59:19.000Z</time>
      </trkpt>
      <trkpt lat="47.707" lon="6.16894">
        <ele>289.20001220703</ele>
        <time>2012-07-11T09:59:30.000Z</time>
      </trkpt>
      <trkpt lat="47.70701" lon="6.16897">
        <ele>289.20001220703</ele>
        <time>2012-07-11T09:59:31.000Z</time>
      </trkpt>
      <trkpt lat="47.70705" lon="6.16914">
        <ele>289.20001220703</ele>
        <time>2012-07-11T09:59:36.000Z</time>
      </trkpt>
      <trkpt lat="47.70709" lon="6.1693">
        <ele>289.20001220703</ele>
        <time>2012-07-11T09:59:41.000Z</time>
      </trkpt>
      <trkpt lat="47.70713" lon="6.16954">
        <ele>289.20001220703</ele>
        <time>2012-07-11T09:59:49.000Z</time>
      </trkpt>
      <trkpt lat="47.70715" lon="6.16958">
        <ele>289.20001220703</ele>
        <time>2012-07-11T09:59:50.000Z</time>
      </trkpt>
      <trkpt lat="47.70717" lon="6.16976">
        <ele>289.20001220703</ele>
        <time>2012-07-11T09:59:54.000Z</time>
      </trkpt>
      <trkpt lat="47.70719" lon="6.16999">
        <ele>289.20001220703</ele>
        <time>2012-07-11T10:00:00.000Z</time>
      </trkpt>
      <trkpt lat="47.70723" lon="6.17028">
        <ele>289.20001220703</ele>
        <time>2012-07-11T10:00:06.000Z</time>
      </trkpt>
      <trkpt lat="47.7073" lon="6.17075">
        <ele>289.20001220703</ele>
        <time>2012-07-11T10:00:14.000Z</time>
      </trkpt>
      <trkpt lat="47.70738" lon="6.17122">
        <ele>289.20001220703</ele>
        <time>2012-07-11T10:00:23.000Z</time>
      </trkpt>
      <trkpt lat="47.70743" lon="6.17157">
        <ele>289.20001220703</ele>
        <time>2012-07-11T10:00:30.000Z</time>
      </trkpt>
      <trkpt lat="47.70749" lon="6.17189">
        <ele>289.20001220703</ele>
        <time>2012-07-11T10:00:37.000Z</time>
      </trkpt>
      <trkpt lat="47.70757" lon="6.17233">
        <ele>289.20001220703</ele>
        <time>2012-07-11T10:00:46.000Z</time>
      </trkpt>
      <trkpt lat="47.70765" lon="6.17275">
        <ele>289.20001220703</ele>
        <time>2012-07-11T10:00:54.000Z</time>
      </trkpt>
      <trkpt lat="47.7077" lon="6.17302">
        <ele>289.20001220703</ele>
        <time>2012-07-11T10:00:59.000Z</time>
      </trkpt>
      <trkpt lat="47.70771" lon="6.17308">
        <ele>289.20001220703</ele>
        <time>2012-07-11T10:01:00.000Z</time>
      </trkpt>
      <trkpt lat="47.70778" lon="6.17346">
        <ele>289.20001220703</ele>
        <time>2012-07-11T10:01:06.000Z</time>
      </trkpt>
      <trkpt lat="47.70785" lon="6.17399">
        <ele>289.20001220703</ele>
        <time>2012-07-11T10:01:14.000Z</time>
      </trkpt>
      <trkpt lat="47.70792" lon="6.17442">
        <ele>289.20001220703</ele>
        <time>2012-07-11T10:01:19.000Z</time>
      </trkpt>
      <trkpt lat="47.70793" lon="6.17451">
        <ele>288.79998779297</ele>
        <time>2012-07-11T10:01:20.000Z</time>
      </trkpt>
      <trkpt lat="47.70794" lon="6.1746">
        <ele>288.20001220703</ele>
        <time>2012-07-11T10:01:21.000Z</time>
      </trkpt>
      <trkpt lat="47.70795" lon="6.17469">
        <ele>287.79998779297</ele>
        <time>2012-07-11T10:01:22.000Z</time>
      </trkpt>
      <trkpt lat="47.70796" lon="6.17479">
        <ele>287.20001220703</ele>
        <time>2012-07-11T10:01:23.000Z</time>
      </trkpt>
      <trkpt lat="47.70798" lon="6.17489">
        <ele>286.60000610352</ele>
        <time>2012-07-11T10:01:24.000Z</time>
      </trkpt>
      <trkpt lat="47.70799" lon="6.17498">
        <ele>285.39999389648</ele>
        <time>2012-07-11T10:01:25.000Z</time>
      </trkpt>
      <trkpt lat="47.70801" lon="6.17508">
        <ele>284.79998779297</ele>
        <time>2012-07-11T10:01:26.000Z</time>
      </trkpt>
      <trkpt lat="47.70802" lon="6.17518">
        <ele>284.20001220703</ele>
        <time>2012-07-11T10:01:27.000Z</time>
      </trkpt>
      <trkpt lat="47.70804" lon="6.17527">
        <ele>283.39999389648</ele>
        <time>2012-07-11T10:01:28.000Z</time>
      </trkpt>
      <trkpt lat="47.70805" lon="6.17535">
        <ele>282.79998779297</ele>
        <time>2012-07-11T10:01:29.000Z</time>
      </trkpt>
      <trkpt lat="47.70808" lon="6.17548">
        <ele>282.79998779297</ele>
        <time>2012-07-11T10:01:31.000Z</time>
      </trkpt>
      <trkpt lat="47.70806" lon="6.17562">
        <ele>282.79998779297</ele>
        <time>2012-07-11T10:01:35.000Z</time>
      </trkpt>
      <trkpt lat="47.70806" lon="6.17566">
        <ele>283.20001220703</ele>
        <time>2012-07-11T10:01:36.000Z</time>
      </trkpt>
      <trkpt lat="47.70805" lon="6.17568">
        <ele>283.60000610352</ele>
        <time>2012-07-11T10:01:37.000Z</time>
      </trkpt>
      <trkpt lat="47.70804" lon="6.17571">
        <ele>284</ele>
        <time>2012-07-11T10:01:38.000Z</time>
      </trkpt>
      <trkpt lat="47.70803" lon="6.17574">
        <ele>284.39999389648</ele>
        <time>2012-07-11T10:01:39.000Z</time>
      </trkpt>
      <trkpt lat="47.70802" lon="6.17578">
        <ele>284.79998779297</ele>
        <time>2012-07-11T10:01:40.000Z</time>
      </trkpt>
      <trkpt lat="47.70799" lon="6.17587">
        <ele>284.79998779297</ele>
        <time>2012-07-11T10:01:42.000Z</time>
      </trkpt>
      <trkpt lat="47.70791" lon="6.17603">
        <ele>284.79998779297</ele>
        <time>2012-07-11T10:01:47.000Z</time>
      </trkpt>
      <trkpt lat="47.70787" lon="6.17609">
        <ele>284.79998779297</ele>
        <time>2012-07-11T10:01:50.000Z</time>
      </trkpt>
      <trkpt lat="47.70783" lon="6.17615">
        <ele>284.79998779297</ele>
        <time>2012-07-11T10:01:53.000Z</time>
      </trkpt>
      <trkpt lat="47.7078" lon="6.17619">
        <ele>284.39999389648</ele>
        <time>2012-07-11T10:01:55.000Z</time>
      </trkpt>
      <trkpt lat="47.70779" lon="6.17621">
        <ele>284</ele>
        <time>2012-07-11T10:01:56.000Z</time>
      </trkpt>
      <trkpt lat="47.70777" lon="6.17624">
        <ele>283.60000610352</ele>
        <time>2012-07-11T10:01:57.000Z</time>
      </trkpt>
      <trkpt lat="47.70776" lon="6.17627">
        <ele>283.20001220703</ele>
        <time>2012-07-11T10:01:58.000Z</time>
      </trkpt>
      <trkpt lat="47.70773" lon="6.17631">
        <ele>282.79998779297</ele>
        <time>2012-07-11T10:01:59.000Z</time>
      </trkpt>
      <trkpt lat="47.70759" lon="6.17655">
        <ele>282.79998779297</ele>
        <time>2012-07-11T10:02:04.000Z</time>
      </trkpt>
      <trkpt lat="47.70752" lon="6.17665">
        <ele>282.39999389648</ele>
        <time>2012-07-11T10:02:07.000Z</time>
      </trkpt>
      <trkpt lat="47.70751" lon="6.17668">
        <ele>281.79998779297</ele>
        <time>2012-07-11T10:02:08.000Z</time>
      </trkpt>
      <trkpt lat="47.70749" lon="6.17669">
        <ele>281.39999389648</ele>
        <time>2012-07-11T10:02:09.000Z</time>
      </trkpt>
      <trkpt lat="47.70748" lon="6.1767">
        <ele>281</ele>
        <time>2012-07-11T10:02:10.000Z</time>
      </trkpt>
      <trkpt lat="47.70747" lon="6.17671">
        <ele>280.60000610352</ele>
        <time>2012-07-11T10:02:11.000Z</time>
      </trkpt>
      <trkpt lat="47.70744" lon="6.17673">
        <ele>280.60000610352</ele>
        <time>2012-07-11T10:02:14.000Z</time>
      </trkpt>
      <trkpt lat="47.70731" lon="6.17678">
        <ele>280.20001220703</ele>
        <time>2012-07-11T10:02:18.000Z</time>
      </trkpt>
      <trkpt lat="47.70726" lon="6.1768">
        <ele>279.60000610352</ele>
        <time>2012-07-11T10:02:19.000Z</time>
      </trkpt>
      <trkpt lat="47.70721" lon="6.17681">
        <ele>279.20001220703</ele>
        <time>2012-07-11T10:02:20.000Z</time>
      </trkpt>
      <trkpt lat="47.70716" lon="6.17683">
        <ele>278.79998779297</ele>
        <time>2012-07-11T10:02:21.000Z</time>
      </trkpt>
      <trkpt lat="47.70711" lon="6.17684">
        <ele>278.39999389648</ele>
        <time>2012-07-11T10:02:22.000Z</time>
      </trkpt>
      <trkpt lat="47.70705" lon="6.17686">
        <ele>278.39999389648</ele>
        <time>2012-07-11T10:02:23.000Z</time>
      </trkpt>
      <trkpt lat="47.70688" lon="6.1769">
        <ele>278</ele>
        <time>2012-07-11T10:02:26.000Z</time>
      </trkpt>
      <trkpt lat="47.70682" lon="6.17693">
        <ele>277.60000610352</ele>
        <time>2012-07-11T10:02:27.000Z</time>
      </trkpt>
      <trkpt lat="47.70676" lon="6.17696">
        <ele>277.20001220703</ele>
        <time>2012-07-11T10:02:28.000Z</time>
      </trkpt>
      <trkpt lat="47.70671" lon="6.177">
        <ele>276.79998779297</ele>
        <time>2012-07-11T10:02:29.000Z</time>
      </trkpt>
      <trkpt lat="47.70666" lon="6.17705">
        <ele>276.39999389648</ele>
        <time>2012-07-11T10:02:30.000Z</time>
      </trkpt>
      <trkpt lat="47.70654" lon="6.17722">
        <ele>276.39999389648</ele>
        <time>2012-07-11T10:02:33.000Z</time>
      </trkpt>
      <trkpt lat="47.70651" lon="6.17727">
        <ele>276.39999389648</ele>
        <time>2012-07-11T10:02:34.000Z</time>
      </trkpt>
      <trkpt lat="47.70639" lon="6.17745">
        <ele>276.39999389648</ele>
        <time>2012-07-11T10:02:38.000Z</time>
      </trkpt>
      <trkpt lat="47.70623" lon="6.17766">
        <ele>276.39999389648</ele>
        <time>2012-07-11T10:02:45.000Z</time>
      </trkpt>
      <trkpt lat="47.70615" lon="6.17774">
        <ele>276.39999389648</ele>
        <time>2012-07-11T10:02:51.000Z</time>
      </trkpt>
      <trkpt lat="47.70615" lon="6.17774">
        <ele>276.39999389648</ele>
        <time>2012-07-11T10:02:52.000Z</time>
      </trkpt>
      <trkpt lat="47.70613" lon="6.17776">
        <ele>276.39999389648</ele>
        <time>2012-07-11T10:05:02.000Z</time>
      </trkpt>
      <trkpt lat="47.7061" lon="6.17776">
        <ele>276.39999389648</ele>
        <time>2012-07-11T10:05:04.000Z</time>
      </trkpt>
      <trkpt lat="47.70605" lon="6.17778">
        <ele>276.39999389648</ele>
        <time>2012-07-11T10:05:06.000Z</time>
      </trkpt>
      <trkpt lat="47.70597" lon="6.17779">
        <ele>276.39999389648</ele>
        <time>2012-07-11T10:05:09.000Z</time>
      </trkpt>
      <trkpt lat="47.70575" lon="6.1778">
        <ele>276.39999389648</ele>
        <time>2012-07-11T10:05:15.000Z</time>
      </trkpt>
      <trkpt lat="47.70558" lon="6.17781">
        <ele>276.39999389648</ele>
        <time>2012-07-11T10:05:19.000Z</time>
      </trkpt>
      <trkpt lat="47.70549" lon="6.17785">
        <ele>276.39999389648</ele>
        <time>2012-07-11T10:05:21.000Z</time>
      </trkpt>
      <trkpt lat="47.70537" lon="6.17797">
        <ele>276.39999389648</ele>
        <time>2012-07-11T10:05:24.000Z</time>
      </trkpt>
      <trkpt lat="47.70534" lon="6.17802">
        <ele>276</ele>
        <time>2012-07-11T10:05:25.000Z</time>
      </trkpt>
      <trkpt lat="47.7053" lon="6.17808">
        <ele>275.60000610352</ele>
        <time>2012-07-11T10:05:26.000Z</time>
      </trkpt>
      <trkpt lat="47.70527" lon="6.17815">
        <ele>275</ele>
        <time>2012-07-11T10:05:27.000Z</time>
      </trkpt>
      <trkpt lat="47.70522" lon="6.17823">
        <ele>274.60000610352</ele>
        <time>2012-07-11T10:05:28.000Z</time>
      </trkpt>
      <trkpt lat="47.70519" lon="6.1783">
        <ele>274.20001220703</ele>
        <time>2012-07-11T10:05:29.000Z</time>
      </trkpt>
      <trkpt lat="47.70515" lon="6.17837">
        <ele>274.20001220703</ele>
        <time>2012-07-11T10:05:30.000Z</time>
      </trkpt>
      <trkpt lat="47.70511" lon="6.17845">
        <ele>273.20001220703</ele>
        <time>2012-07-11T10:05:31.000Z</time>
      </trkpt>
      <trkpt lat="47.70507" lon="6.17851">
        <ele>272.79998779297</ele>
        <time>2012-07-11T10:05:32.000Z</time>
      </trkpt>
      <trkpt lat="47.70503" lon="6.17859">
        <ele>272.39999389648</ele>
        <time>2012-07-11T10:05:33.000Z</time>
      </trkpt>
      <trkpt lat="47.70498" lon="6.17867">
        <ele>272</ele>
        <time>2012-07-11T10:05:34.000Z</time>
      </trkpt>
      <trkpt lat="47.7049" lon="6.17882">
        <ele>271.60000610352</ele>
        <time>2012-07-11T10:05:36.000Z</time>
      </trkpt>
      <trkpt lat="47.70486" lon="6.17889">
        <ele>271.20001220703</ele>
        <time>2012-07-11T10:05:37.000Z</time>
      </trkpt>
      <trkpt lat="47.70482" lon="6.17896">
        <ele>270.79998779297</ele>
        <time>2012-07-11T10:05:38.000Z</time>
      </trkpt>
      <trkpt lat="47.70477" lon="6.17903">
        <ele>270.39999389648</ele>
        <time>2012-07-11T10:05:39.000Z</time>
      </trkpt>
      <trkpt lat="47.70473" lon="6.17911">
        <ele>270</ele>
        <time>2012-07-11T10:05:40.000Z</time>
      </trkpt>
      <trkpt lat="47.70465" lon="6.17926">
        <ele>269.60000610352</ele>
        <time>2012-07-11T10:05:42.000Z</time>
      </trkpt>
      <trkpt lat="47.70461" lon="6.17933">
        <ele>269.20001220703</ele>
        <time>2012-07-11T10:05:43.000Z</time>
      </trkpt>
      <trkpt lat="47.70457" lon="6.17942">
        <ele>268.79998779297</ele>
        <time>2012-07-11T10:05:44.000Z</time>
      </trkpt>
      <trkpt lat="47.70453" lon="6.17949">
        <ele>268.20001220703</ele>
        <time>2012-07-11T10:05:45.000Z</time>
      </trkpt>
      <trkpt lat="47.70449" lon="6.17956">
        <ele>267.79998779297</ele>
        <time>2012-07-11T10:05:46.000Z</time>
      </trkpt>
      <trkpt lat="47.70441" lon="6.17971">
        <ele>267.39999389648</ele>
        <time>2012-07-11T10:05:48.000Z</time>
      </trkpt>
      <trkpt lat="47.70437" lon="6.17979">
        <ele>266.79998779297</ele>
        <time>2012-07-11T10:05:49.000Z</time>
      </trkpt>
      <trkpt lat="47.70433" lon="6.17987">
        <ele>266.39999389648</ele>
        <time>2012-07-11T10:05:50.000Z</time>
      </trkpt>
      <trkpt lat="47.70428" lon="6.17995">
        <ele>266</ele>
        <time>2012-07-11T10:05:51.000Z</time>
      </trkpt>
      <trkpt lat="47.70423" lon="6.18003">
        <ele>265.39999389648</ele>
        <time>2012-07-11T10:05:52.000Z</time>
      </trkpt>
      <trkpt lat="47.70418" lon="6.18011">
        <ele>265</ele>
        <time>2012-07-11T10:05:53.000Z</time>
      </trkpt>
      <trkpt lat="47.70413" lon="6.18019">
        <ele>264.60000610352</ele>
        <time>2012-07-11T10:05:54.000Z</time>
      </trkpt>
      <trkpt lat="47.70408" lon="6.18027">
        <ele>264</ele>
        <time>2012-07-11T10:05:55.000Z</time>
      </trkpt>
      <trkpt lat="47.70403" lon="6.18034">
        <ele>263.20001220703</ele>
        <time>2012-07-11T10:05:56.000Z</time>
      </trkpt>
      <trkpt lat="47.70389" lon="6.18057">
        <ele>262.79998779297</ele>
        <time>2012-07-11T10:05:59.000Z</time>
      </trkpt>
      <trkpt lat="47.70385" lon="6.18064">
        <ele>262.39999389648</ele>
        <time>2012-07-11T10:06:00.000Z</time>
      </trkpt>
      <trkpt lat="47.7038" lon="6.18071">
        <ele>262</ele>
        <time>2012-07-11T10:06:01.000Z</time>
      </trkpt>
      <trkpt lat="47.70375" lon="6.18078">
        <ele>261.39999389648</ele>
        <time>2012-07-11T10:06:02.000Z</time>
      </trkpt>
      <trkpt lat="47.70371" lon="6.18085">
        <ele>261</ele>
        <time>2012-07-11T10:06:03.000Z</time>
      </trkpt>
      <trkpt lat="47.70348" lon="6.18125">
        <ele>260.60000610352</ele>
        <time>2012-07-11T10:06:09.000Z</time>
      </trkpt>
      <trkpt lat="47.70345" lon="6.18132">
        <ele>260.20001220703</ele>
        <time>2012-07-11T10:06:10.000Z</time>
      </trkpt>
      <trkpt lat="47.70342" lon="6.18139">
        <ele>259.79998779297</ele>
        <time>2012-07-11T10:06:11.000Z</time>
      </trkpt>
      <trkpt lat="47.70339" lon="6.18146">
        <ele>259.39999389648</ele>
        <time>2012-07-11T10:06:12.000Z</time>
      </trkpt>
      <trkpt lat="47.70337" lon="6.18153">
        <ele>259</ele>
        <time>2012-07-11T10:06:13.000Z</time>
      </trkpt>
      <trkpt lat="47.70329" lon="6.18176">
        <ele>259</ele>
        <time>2012-07-11T10:06:16.000Z</time>
      </trkpt>
      <trkpt lat="47.70322" lon="6.18199">
        <ele>259</ele>
        <time>2012-07-11T10:06:19.000Z</time>
      </trkpt>
      <trkpt lat="47.70316" lon="6.18233">
        <ele>259</ele>
        <time>2012-07-11T10:06:23.000Z</time>
      </trkpt>
      <trkpt lat="47.70312" lon="6.18261">
        <ele>258.60000610352</ele>
        <time>2012-07-11T10:06:26.000Z</time>
      </trkpt>
      <trkpt lat="47.70311" lon="6.18272">
        <ele>258.20001220703</ele>
        <time>2012-07-11T10:06:27.000Z</time>
      </trkpt>
      <trkpt lat="47.70309" lon="6.18282">
        <ele>257.79998779297</ele>
        <time>2012-07-11T10:06:28.000Z</time>
      </trkpt>
      <trkpt lat="47.70307" lon="6.18294">
        <ele>257.39999389648</ele>
        <time>2012-07-11T10:06:29.000Z</time>
      </trkpt>
      <trkpt lat="47.70305" lon="6.18306">
        <ele>256.79998779297</ele>
        <time>2012-07-11T10:06:30.000Z</time>
      </trkpt>
      <trkpt lat="47.70303" lon="6.18318">
        <ele>256.39999389648</ele>
        <time>2012-07-11T10:06:31.000Z</time>
      </trkpt>
      <trkpt lat="47.70301" lon="6.1833">
        <ele>255.80000305176</ele>
        <time>2012-07-11T10:06:32.000Z</time>
      </trkpt>
      <trkpt lat="47.703" lon="6.18341">
        <ele>255.39999389648</ele>
        <time>2012-07-11T10:06:33.000Z</time>
      </trkpt>
      <trkpt lat="47.70298" lon="6.18353">
        <ele>254.80000305176</ele>
        <time>2012-07-11T10:06:34.000Z</time>
      </trkpt>
      <trkpt lat="47.7029" lon="6.184">
        <ele>254.39999389648</ele>
        <time>2012-07-11T10:06:38.000Z</time>
      </trkpt>
      <trkpt lat="47.70286" lon="6.18411">
        <ele>254</ele>
        <time>2012-07-11T10:06:39.000Z</time>
      </trkpt>
      <trkpt lat="47.70282" lon="6.18422">
        <ele>253.60000610352</ele>
        <time>2012-07-11T10:06:40.000Z</time>
      </trkpt>
      <trkpt lat="47.70278" lon="6.18433">
        <ele>253.19999694824</ele>
        <time>2012-07-11T10:06:41.000Z</time>
      </trkpt>
      <trkpt lat="47.70273" lon="6.18444">
        <ele>252.80000305176</ele>
        <time>2012-07-11T10:06:42.000Z</time>
      </trkpt>
      <trkpt lat="47.70269" lon="6.18456">
        <ele>252.39999389648</ele>
        <time>2012-07-11T10:06:43.000Z</time>
      </trkpt>
      <trkpt lat="47.70264" lon="6.18469">
        <ele>252</ele>
        <time>2012-07-11T10:06:44.000Z</time>
      </trkpt>
      <trkpt lat="47.70261" lon="6.18482">
        <ele>251.60000610352</ele>
        <time>2012-07-11T10:06:45.000Z</time>
      </trkpt>
      <trkpt lat="47.70257" lon="6.18494">
        <ele>250.19999694824</ele>
        <time>2012-07-11T10:06:46.000Z</time>
      </trkpt>
      <trkpt lat="47.70253" lon="6.18507">
        <ele>249.60000610352</ele>
        <time>2012-07-11T10:06:47.000Z</time>
      </trkpt>
      <trkpt lat="47.7025" lon="6.18518">
        <ele>248.80000305176</ele>
        <time>2012-07-11T10:06:48.000Z</time>
      </trkpt>
      <trkpt lat="47.70247" lon="6.18529">
        <ele>248</ele>
        <time>2012-07-11T10:06:49.000Z</time>
      </trkpt>
      <trkpt lat="47.70244" lon="6.18539">
        <ele>247.19999694824</ele>
        <time>2012-07-11T10:06:50.000Z</time>
      </trkpt>
      <trkpt lat="47.70241" lon="6.18548">
        <ele>246.39999389648</ele>
        <time>2012-07-11T10:06:51.000Z</time>
      </trkpt>
      <trkpt lat="47.70237" lon="6.18557">
        <ele>245.60000610352</ele>
        <time>2012-07-11T10:06:52.000Z</time>
      </trkpt>
      <trkpt lat="47.70234" lon="6.18566">
        <ele>244.80000305176</ele>
        <time>2012-07-11T10:06:53.000Z</time>
      </trkpt>
      <trkpt lat="47.7023" lon="6.18576">
        <ele>244</ele>
        <time>2012-07-11T10:06:54.000Z</time>
      </trkpt>
      <trkpt lat="47.70226" lon="6.18583">
        <ele>243.39999389648</ele>
        <time>2012-07-11T10:06:55.000Z</time>
      </trkpt>
      <trkpt lat="47.70223" lon="6.18591">
        <ele>242.80000305176</ele>
        <time>2012-07-11T10:06:56.000Z</time>
      </trkpt>
      <trkpt lat="47.70219" lon="6.18599">
        <ele>242.19999694824</ele>
        <time>2012-07-11T10:06:57.000Z</time>
      </trkpt>
      <trkpt lat="47.70217" lon="6.18606">
        <ele>241.39999389648</ele>
        <time>2012-07-11T10:06:58.000Z</time>
      </trkpt>
      <trkpt lat="47.70213" lon="6.18612">
        <ele>241</ele>
        <time>2012-07-11T10:06:59.000Z</time>
      </trkpt>
      <trkpt lat="47.7021" lon="6.18617">
        <ele>240.39999389648</ele>
        <time>2012-07-11T10:07:00.000Z</time>
      </trkpt>
      <trkpt lat="47.70207" lon="6.18622">
        <ele>239.80000305176</ele>
        <time>2012-07-11T10:07:01.000Z</time>
      </trkpt>
      <trkpt lat="47.70204" lon="6.18625">
        <ele>239.19999694824</ele>
        <time>2012-07-11T10:07:02.000Z</time>
      </trkpt>
      <trkpt lat="47.702" lon="6.18626">
        <ele>238.80000305176</ele>
        <time>2012-07-11T10:07:03.000Z</time>
      </trkpt>
      <trkpt lat="47.70188" lon="6.18625">
        <ele>238.80000305176</ele>
        <time>2012-07-11T10:07:06.000Z</time>
      </trkpt>
      <trkpt lat="47.70181" lon="6.18627">
        <ele>238.19999694824</ele>
        <time>2012-07-11T10:07:08.000Z</time>
      </trkpt>
      <trkpt lat="47.70177" lon="6.18627">
        <ele>237.80000305176</ele>
        <time>2012-07-11T10:07:09.000Z</time>
      </trkpt>
      <trkpt lat="47.70168" lon="6.18629">
        <ele>236.60000610352</ele>
        <time>2012-07-11T10:07:10.000Z</time>
      </trkpt>
      <trkpt lat="47.70158" lon="6.18631">
        <ele>236.60000610352</ele>
        <time>2012-07-11T10:07:13.000Z</time>
      </trkpt>
      <trkpt lat="47.70134" lon="6.18636">
        <ele>236.19999694824</ele>
        <time>2012-07-11T10:07:18.000Z</time>
      </trkpt>
      <trkpt lat="47.70129" lon="6.18638">
        <ele>235.80000305176</ele>
        <time>2012-07-11T10:07:19.000Z</time>
      </trkpt>
      <trkpt lat="47.70124" lon="6.1864">
        <ele>235.39999389648</ele>
        <time>2012-07-11T10:07:20.000Z</time>
      </trkpt>
      <trkpt lat="47.70119" lon="6.18643">
        <ele>235</ele>
        <time>2012-07-11T10:07:21.000Z</time>
      </trkpt>
      <trkpt lat="47.70115" lon="6.18645">
        <ele>234.39999389648</ele>
        <time>2012-07-11T10:07:22.000Z</time>
      </trkpt>
      <trkpt lat="47.70095" lon="6.18654">
        <ele>234.39999389648</ele>
        <time>2012-07-11T10:07:26.000Z</time>
      </trkpt>
      <trkpt lat="47.70062" lon="6.18679">
        <ele>234.39999389648</ele>
        <time>2012-07-11T10:07:33.000Z</time>
      </trkpt>
      <trkpt lat="47.70052" lon="6.18687">
        <ele>233.60000610352</ele>
        <time>2012-07-11T10:07:35.000Z</time>
      </trkpt>
      <trkpt lat="47.70048" lon="6.18691">
        <ele>233.19999694824</ele>
        <time>2012-07-11T10:07:36.000Z</time>
      </trkpt>
      <trkpt lat="47.70043" lon="6.18695">
        <ele>232.80000305176</ele>
        <time>2012-07-11T10:07:37.000Z</time>
      </trkpt>
      <trkpt lat="47.70038" lon="6.18699">
        <ele>232.39999389648</ele>
        <time>2012-07-11T10:07:38.000Z</time>
      </trkpt>
      <trkpt lat="47.70028" lon="6.18707">
        <ele>232.39999389648</ele>
        <time>2012-07-11T10:07:40.000Z</time>
      </trkpt>
      <trkpt lat="47.69993" lon="6.18735">
        <ele>232.39999389648</ele>
        <time>2012-07-11T10:07:48.000Z</time>
      </trkpt>
      <trkpt lat="47.69989" lon="6.18738">
        <ele>232.39999389648</ele>
        <time>2012-07-11T10:07:49.000Z</time>
      </trkpt>
      <trkpt lat="47.69971" lon="6.18746">
        <ele>232.39999389648</ele>
        <time>2012-07-11T10:07:53.000Z</time>
      </trkpt>
      <trkpt lat="47.69967" lon="6.18747">
        <ele>232.39999389648</ele>
        <time>2012-07-11T10:07:54.000Z</time>
      </trkpt>
      <trkpt lat="47.69958" lon="6.1875">
        <ele>232.39999389648</ele>
        <time>2012-07-11T10:07:56.000Z</time>
      </trkpt>
      <trkpt lat="47.69949" lon="6.18763">
        <ele>232.39999389648</ele>
        <time>2012-07-11T10:07:59.000Z</time>
      </trkpt>
      <trkpt lat="47.69946" lon="6.18787">
        <ele>232.39999389648</ele>
        <time>2012-07-11T10:08:03.000Z</time>
      </trkpt>
      <trkpt lat="47.69946" lon="6.18793">
        <ele>232.39999389648</ele>
        <time>2012-07-11T10:08:04.000Z</time>
      </trkpt>
      <trkpt lat="47.69949" lon="6.18836">
        <ele>232.39999389648</ele>
        <time>2012-07-11T10:08:11.000Z</time>
      </trkpt>
      <trkpt lat="47.69949" lon="6.18872">
        <ele>232.39999389648</ele>
        <time>2012-07-11T10:08:16.000Z</time>
      </trkpt>
      <trkpt lat="47.69951" lon="6.18893">
        <ele>232.39999389648</ele>
        <time>2012-07-11T10:08:19.000Z</time>
      </trkpt>
      <trkpt lat="47.69951" lon="6.18906">
        <ele>232.39999389648</ele>
        <time>2012-07-11T10:08:21.000Z</time>
      </trkpt>
      <trkpt lat="47.69951" lon="6.18919">
        <ele>232.39999389648</ele>
        <time>2012-07-11T10:08:23.000Z</time>
      </trkpt>
      <trkpt lat="47.69949" lon="6.18941">
        <ele>232.39999389648</ele>
        <time>2012-07-11T10:08:27.000Z</time>
      </trkpt>
      <trkpt lat="47.69947" lon="6.18954">
        <ele>232.80000305176</ele>
        <time>2012-07-11T10:08:31.000Z</time>
      </trkpt>
      <trkpt lat="47.69946" lon="6.18956">
        <ele>233.19999694824</ele>
        <time>2012-07-11T10:08:32.000Z</time>
      </trkpt>
      <trkpt lat="47.69945" lon="6.18959">
        <ele>233.60000610352</ele>
        <time>2012-07-11T10:08:33.000Z</time>
      </trkpt>
      <trkpt lat="47.69944" lon="6.18961">
        <ele>234</ele>
        <time>2012-07-11T10:08:34.000Z</time>
      </trkpt>
      <trkpt lat="47.69943" lon="6.18963">
        <ele>234.39999389648</ele>
        <time>2012-07-11T10:08:35.000Z</time>
      </trkpt>
      <trkpt lat="47.6994" lon="6.18966">
        <ele>234.39999389648</ele>
        <time>2012-07-11T10:08:37.000Z</time>
      </trkpt>
      <trkpt lat="47.69926" lon="6.18962">
        <ele>234.39999389648</ele>
        <time>2012-07-11T10:08:41.000Z</time>
      </trkpt>
      <trkpt lat="47.69917" lon="6.18962">
        <ele>234.39999389648</ele>
        <time>2012-07-11T10:08:43.000Z</time>
      </trkpt>
      <trkpt lat="47.69907" lon="6.18961">
        <ele>234.39999389648</ele>
        <time>2012-07-11T10:08:45.000Z</time>
      </trkpt>
      <trkpt lat="47.69902" lon="6.1896">
        <ele>234.39999389648</ele>
        <time>2012-07-11T10:08:46.000Z</time>
      </trkpt>
      <trkpt lat="47.69892" lon="6.18957">
        <ele>234.39999389648</ele>
        <time>2012-07-11T10:08:48.000Z</time>
      </trkpt>
      <trkpt lat="47.69878" lon="6.18948">
        <ele>234.39999389648</ele>
        <time>2012-07-11T10:08:51.000Z</time>
      </trkpt>
      <trkpt lat="47.69862" lon="6.18929">
        <ele>234.39999389648</ele>
        <time>2012-07-11T10:08:56.000Z</time>
      </trkpt>
      <trkpt lat="47.69839" lon="6.189">
        <ele>234.39999389648</ele>
        <time>2012-07-11T10:09:04.000Z</time>
      </trkpt>
      <trkpt lat="47.69824" lon="6.18891">
        <ele>234.39999389648</ele>
        <time>2012-07-11T10:09:09.000Z</time>
      </trkpt>
      <trkpt lat="47.69809" lon="6.18896">
        <ele>234.39999389648</ele>
        <time>2012-07-11T10:09:13.000Z</time>
      </trkpt>
      <trkpt lat="47.69805" lon="6.18901">
        <ele>233.60000610352</ele>
        <time>2012-07-11T10:09:14.000Z</time>
      </trkpt>
      <trkpt lat="47.69803" lon="6.18907">
        <ele>233.19999694824</ele>
        <time>2012-07-11T10:09:15.000Z</time>
      </trkpt>
      <trkpt lat="47.69802" lon="6.18913">
        <ele>232.80000305176</ele>
        <time>2012-07-11T10:09:16.000Z</time>
      </trkpt>
      <trkpt lat="47.69801" lon="6.18919">
        <ele>232.39999389648</ele>
        <time>2012-07-11T10:09:17.000Z</time>
      </trkpt>
      <trkpt lat="47.69801" lon="6.18926">
        <ele>232.39999389648</ele>
        <time>2012-07-11T10:09:18.000Z</time>
      </trkpt>
      <trkpt lat="47.698" lon="6.18947">
        <ele>232.39999389648</ele>
        <time>2012-07-11T10:09:21.000Z</time>
      </trkpt>
      <trkpt lat="47.69806" lon="6.18992">
        <ele>232.39999389648</ele>
        <time>2012-07-11T10:09:28.000Z</time>
      </trkpt>
      <trkpt lat="47.69809" lon="6.19017">
        <ele>232.39999389648</ele>
        <time>2012-07-11T10:09:32.000Z</time>
      </trkpt>
      <trkpt lat="47.69811" lon="6.19037">
        <ele>232.39999389648</ele>
        <time>2012-07-11T10:09:35.000Z</time>
      </trkpt>
      <trkpt lat="47.69812" lon="6.19044">
        <ele>232.39999389648</ele>
        <time>2012-07-11T10:09:36.000Z</time>
      </trkpt>
      <trkpt lat="47.69815" lon="6.19074">
        <ele>232.39999389648</ele>
        <time>2012-07-11T10:09:41.000Z</time>
      </trkpt>
      <trkpt lat="47.69818" lon="6.19097">
        <ele>232.39999389648</ele>
        <time>2012-07-11T10:09:45.000Z</time>
      </trkpt>
      <trkpt lat="47.69817" lon="6.19103">
        <ele>232.39999389648</ele>
        <time>2012-07-11T10:09:46.000Z</time>
      </trkpt>
      <trkpt lat="47.69815" lon="6.19109">
        <ele>232.39999389648</ele>
        <time>2012-07-11T10:09:47.000Z</time>
      </trkpt>
      <trkpt lat="47.69806" lon="6.19121">
        <ele>232.39999389648</ele>
        <time>2012-07-11T10:09:50.000Z</time>
      </trkpt>
      <trkpt lat="47.69803" lon="6.19124">
        <ele>232.39999389648</ele>
        <time>2012-07-11T10:09:51.000Z</time>
      </trkpt>
      <trkpt lat="47.69782" lon="6.1914">
        <ele>232.39999389648</ele>
        <time>2012-07-11T10:09:57.000Z</time>
      </trkpt>
      <trkpt lat="47.69757" lon="6.19156">
        <ele>232.39999389648</ele>
        <time>2012-07-11T10:10:04.000Z</time>
      </trkpt>
      <trkpt lat="47.69735" lon="6.19175">
        <ele>232.39999389648</ele>
        <time>2012-07-11T10:10:11.000Z</time>
      </trkpt>
      <trkpt lat="47.69715" lon="6.19192">
        <ele>232.39999389648</ele>
        <time>2012-07-11T10:10:18.000Z</time>
      </trkpt>
      <trkpt lat="47.69695" lon="6.19211">
        <ele>232.39999389648</ele>
        <time>2012-07-11T10:10:26.000Z</time>
      </trkpt>
      <trkpt lat="47.69692" lon="6.19228">
        <ele>232.39999389648</ele>
        <time>2012-07-11T10:10:31.000Z</time>
      </trkpt>
      <trkpt lat="47.69691" lon="6.19231">
        <ele>232.39999389648</ele>
        <time>2012-07-11T10:10:32.000Z</time>
      </trkpt>
      <trkpt lat="47.69687" lon="6.19244">
        <ele>232.39999389648</ele>
        <time>2012-07-11T10:10:36.000Z</time>
      </trkpt>
      <trkpt lat="47.69682" lon="6.19267">
        <ele>232.80000305176</ele>
        <time>2012-07-11T10:10:42.000Z</time>
      </trkpt>
      <trkpt lat="47.69682" lon="6.19271">
        <ele>233.19999694824</ele>
        <time>2012-07-11T10:10:43.000Z</time>
      </trkpt>
      <trkpt lat="47.69681" lon="6.19275">
        <ele>233.60000610352</ele>
        <time>2012-07-11T10:10:44.000Z</time>
      </trkpt>
      <trkpt lat="47.6968" lon="6.19279">
        <ele>234</ele>
        <time>2012-07-11T10:10:45.000Z</time>
      </trkpt>
      <trkpt lat="47.69679" lon="6.19284">
        <ele>234.39999389648</ele>
        <time>2012-07-11T10:10:46.000Z</time>
      </trkpt>
      <trkpt lat="47.69677" lon="6.19294">
        <ele>234.39999389648</ele>
        <time>2012-07-11T10:10:48.000Z</time>
      </trkpt>
      <trkpt lat="47.69672" lon="6.19324">
        <ele>234.39999389648</ele>
        <time>2012-07-11T10:10:53.000Z</time>
      </trkpt>
      <trkpt lat="47.69673" lon="6.19338">
        <ele>234.39999389648</ele>
        <time>2012-07-11T10:10:55.000Z</time>
      </trkpt>
      <trkpt lat="47.69679" lon="6.19362">
        <ele>234.39999389648</ele>
        <time>2012-07-11T10:10:58.000Z</time>
      </trkpt>
      <trkpt lat="47.69683" lon="6.19378">
        <ele>234.39999389648</ele>
        <time>2012-07-11T10:11:00.000Z</time>
      </trkpt>
      <trkpt lat="47.69693" lon="6.19421">
        <ele>234.39999389648</ele>
        <time>2012-07-11T10:11:06.000Z</time>
      </trkpt>
      <trkpt lat="47.69703" lon="6.19474">
        <ele>234.39999389648</ele>
        <time>2012-07-11T10:11:14.000Z</time>
      </trkpt>
      <trkpt lat="47.69708" lon="6.19498">
        <ele>234.39999389648</ele>
        <time>2012-07-11T10:11:18.000Z</time>
      </trkpt>
      <trkpt lat="47.69711" lon="6.19515">
        <ele>234.39999389648</ele>
        <time>2012-07-11T10:11:21.000Z</time>
      </trkpt>
      <trkpt lat="47.69721" lon="6.19563">
        <ele>234.39999389648</ele>
        <time>2012-07-11T10:11:30.000Z</time>
      </trkpt>
      <trkpt lat="47.69729" lon="6.19602">
        <ele>234.39999389648</ele>
        <time>2012-07-11T10:11:37.000Z</time>
      </trkpt>
      <trkpt lat="47.69736" lon="6.19638">
        <ele>234.80000305176</ele>
        <time>2012-07-11T10:11:44.000Z</time>
      </trkpt>
      <trkpt lat="47.69737" lon="6.19642">
        <ele>235.19999694824</ele>
        <time>2012-07-11T10:11:45.000Z</time>
      </trkpt>
      <trkpt lat="47.69738" lon="6.19647">
        <ele>235.60000610352</ele>
        <time>2012-07-11T10:11:46.000Z</time>
      </trkpt>
      <trkpt lat="47.69739" lon="6.19652">
        <ele>236</ele>
        <time>2012-07-11T10:11:47.000Z</time>
      </trkpt>
      <trkpt lat="47.6974" lon="6.19656">
        <ele>236.39999389648</ele>
        <time>2012-07-11T10:11:48.000Z</time>
      </trkpt>
      <trkpt lat="47.69745" lon="6.19687">
        <ele>236.39999389648</ele>
        <time>2012-07-11T10:11:54.000Z</time>
      </trkpt>
      <trkpt lat="47.69745" lon="6.19717">
        <ele>236.80000305176</ele>
        <time>2012-07-11T10:12:00.000Z</time>
      </trkpt>
      <trkpt lat="47.69745" lon="6.19722">
        <ele>237.19999694824</ele>
        <time>2012-07-11T10:12:01.000Z</time>
      </trkpt>
      <trkpt lat="47.69744" lon="6.19727">
        <ele>237.60000610352</ele>
        <time>2012-07-11T10:12:02.000Z</time>
      </trkpt>
      <trkpt lat="47.69743" lon="6.19731">
        <ele>238</ele>
        <time>2012-07-11T10:12:03.000Z</time>
      </trkpt>
      <trkpt lat="47.69742" lon="6.19736">
        <ele>238.39999389648</ele>
        <time>2012-07-11T10:12:04.000Z</time>
      </trkpt>
      <trkpt lat="47.69739" lon="6.1975">
        <ele>238.39999389648</ele>
        <time>2012-07-11T10:12:07.000Z</time>
      </trkpt>
      <trkpt lat="47.6973" lon="6.19794">
        <ele>238.39999389648</ele>
        <time>2012-07-11T10:12:15.000Z</time>
      </trkpt>
      <trkpt lat="47.69722" lon="6.19832">
        <ele>238.80000305176</ele>
        <time>2012-07-11T10:12:22.000Z</time>
      </trkpt>
      <trkpt lat="47.69721" lon="6.19838">
        <ele>239.39999389648</ele>
        <time>2012-07-11T10:12:23.000Z</time>
      </trkpt>
      <trkpt lat="47.69719" lon="6.19843">
        <ele>239.80000305176</ele>
        <time>2012-07-11T10:12:24.000Z</time>
      </trkpt>
      <trkpt lat="47.69718" lon="6.19849">
        <ele>240.19999694824</ele>
        <time>2012-07-11T10:12:25.000Z</time>
      </trkpt>
      <trkpt lat="47.69717" lon="6.19854">
        <ele>240.80000305176</ele>
        <time>2012-07-11T10:12:26.000Z</time>
      </trkpt>
      <trkpt lat="47.69713" lon="6.19886">
        <ele>240.80000305176</ele>
        <time>2012-07-11T10:12:32.000Z</time>
      </trkpt>
      <trkpt lat="47.69711" lon="6.19922">
        <ele>240.80000305176</ele>
        <time>2012-07-11T10:12:39.000Z</time>
      </trkpt>
      <trkpt lat="47.69708" lon="6.19959">
        <ele>240.80000305176</ele>
        <time>2012-07-11T10:12:46.000Z</time>
      </trkpt>
      <trkpt lat="47.69707" lon="6.19991">
        <ele>240.80000305176</ele>
        <time>2012-07-11T10:12:52.000Z</time>
      </trkpt>
      <trkpt lat="47.69706" lon="6.20025">
        <ele>240.80000305176</ele>
        <time>2012-07-11T10:12:59.000Z</time>
      </trkpt>
      <trkpt lat="47.69704" lon="6.20039">
        <ele>241.19999694824</ele>
        <time>2012-07-11T10:13:02.000Z</time>
      </trkpt>
      <trkpt lat="47.69703" lon="6.20044">
        <ele>241.60000610352</ele>
        <time>2012-07-11T10:13:03.000Z</time>
      </trkpt>
      <trkpt lat="47.69702" lon="6.20049">
        <ele>242</ele>
        <time>2012-07-11T10:13:04.000Z</time>
      </trkpt>
      <trkpt lat="47.69701" lon="6.20054">
        <ele>242.39999389648</ele>
        <time>2012-07-11T10:13:05.000Z</time>
      </trkpt>
      <trkpt lat="47.69699" lon="6.20059">
        <ele>242.80000305176</ele>
        <time>2012-07-11T10:13:06.000Z</time>
      </trkpt>
      <trkpt lat="47.69698" lon="6.20064">
        <ele>242.80000305176</ele>
        <time>2012-07-11T10:13:07.000Z</time>
      </trkpt>
      <trkpt lat="47.69693" lon="6.201">
        <ele>242.80000305176</ele>
        <time>2012-07-11T10:13:14.000Z</time>
      </trkpt>
      <trkpt lat="47.69691" lon="6.20111">
        <ele>242.80000305176</ele>
        <time>2012-07-11T10:13:16.000Z</time>
      </trkpt>
      <trkpt lat="47.69689" lon="6.20144">
        <ele>242.80000305176</ele>
        <time>2012-07-11T10:13:23.000Z</time>
      </trkpt>
      <trkpt lat="47.6969" lon="6.20165">
        <ele>243.19999694824</ele>
        <time>2012-07-11T10:13:28.000Z</time>
      </trkpt>
      <trkpt lat="47.6969" lon="6.20169">
        <ele>243.60000610352</ele>
        <time>2012-07-11T10:13:29.000Z</time>
      </trkpt>
      <trkpt lat="47.6969" lon="6.20173">
        <ele>244</ele>
        <time>2012-07-11T10:13:30.000Z</time>
      </trkpt>
      <trkpt lat="47.6969" lon="6.20178">
        <ele>244.60000610352</ele>
        <time>2012-07-11T10:13:31.000Z</time>
      </trkpt>
      <trkpt lat="47.6969" lon="6.20182">
        <ele>245</ele>
        <time>2012-07-11T10:13:32.000Z</time>
      </trkpt>
      <trkpt lat="47.69693" lon="6.20217">
        <ele>245</ele>
        <time>2012-07-11T10:13:40.000Z</time>
      </trkpt>
      <trkpt lat="47.69695" lon="6.20244">
        <ele>245</ele>
        <time>2012-07-11T10:13:46.000Z</time>
      </trkpt>
      <trkpt lat="47.697" lon="6.20289">
        <ele>245</ele>
        <time>2012-07-11T10:13:55.000Z</time>
      </trkpt>
      <trkpt lat="47.69704" lon="6.20332">
        <ele>245</ele>
        <time>2012-07-11T10:14:02.000Z</time>
      </trkpt>
      <trkpt lat="47.69705" lon="6.20343">
        <ele>245.39999389648</ele>
        <time>2012-07-11T10:14:04.000Z</time>
      </trkpt>
      <trkpt lat="47.69706" lon="6.20349">
        <ele>245.80000305176</ele>
        <time>2012-07-11T10:14:05.000Z</time>
      </trkpt>
      <trkpt lat="47.69707" lon="6.20355">
        <ele>246.19999694824</ele>
        <time>2012-07-11T10:14:06.000Z</time>
      </trkpt>
      <trkpt lat="47.69707" lon="6.20361">
        <ele>246.60000610352</ele>
        <time>2012-07-11T10:14:07.000Z</time>
      </trkpt>
      <trkpt lat="47.69708" lon="6.20367">
        <ele>247</ele>
        <time>2012-07-11T10:14:08.000Z</time>
      </trkpt>
      <trkpt lat="47.69709" lon="6.20378">
        <ele>247.39999389648</ele>
        <time>2012-07-11T10:14:10.000Z</time>
      </trkpt>
      <trkpt lat="47.6971" lon="6.20383">
        <ele>247.80000305176</ele>
        <time>2012-07-11T10:14:11.000Z</time>
      </trkpt>
      <trkpt lat="47.6971" lon="6.20388">
        <ele>248.19999694824</ele>
        <time>2012-07-11T10:14:12.000Z</time>
      </trkpt>
      <trkpt lat="47.69711" lon="6.20392">
        <ele>248.60000610352</ele>
        <time>2012-07-11T10:14:13.000Z</time>
      </trkpt>
      <trkpt lat="47.69711" lon="6.20396">
        <ele>249</ele>
        <time>2012-07-11T10:14:14.000Z</time>
      </trkpt>
      <trkpt lat="47.69711" lon="6.20408">
        <ele>249</ele>
        <time>2012-07-11T10:14:17.000Z</time>
      </trkpt>
      <trkpt lat="47.69714" lon="6.20438">
        <ele>249</ele>
        <time>2012-07-11T10:14:25.000Z</time>
      </trkpt>
      <trkpt lat="47.69713" lon="6.20465">
        <ele>249</ele>
        <time>2012-07-11T10:14:32.000Z</time>
      </trkpt>
      <trkpt lat="47.69712" lon="6.20468">
        <ele>249.39999389648</ele>
        <time>2012-07-11T10:14:33.000Z</time>
      </trkpt>
      <trkpt lat="47.69712" lon="6.20472">
        <ele>249.80000305176</ele>
        <time>2012-07-11T10:14:34.000Z</time>
      </trkpt>
      <trkpt lat="47.69712" lon="6.20475">
        <ele>250.80000305176</ele>
        <time>2012-07-11T10:14:35.000Z</time>
      </trkpt>
      <trkpt lat="47.69711" lon="6.20478">
        <ele>251.19999694824</ele>
        <time>2012-07-11T10:14:36.000Z</time>
      </trkpt>
      <trkpt lat="47.6971" lon="6.20489">
        <ele>251.19999694824</ele>
        <time>2012-07-11T10:14:39.000Z</time>
      </trkpt>
      <trkpt lat="47.69706" lon="6.20499">
        <ele>251.60000610352</ele>
        <time>2012-07-11T10:14:42.000Z</time>
      </trkpt>
      <trkpt lat="47.69705" lon="6.20502">
        <ele>252</ele>
        <time>2012-07-11T10:14:43.000Z</time>
      </trkpt>
      <trkpt lat="47.69704" lon="6.20506">
        <ele>252.39999389648</ele>
        <time>2012-07-11T10:14:44.000Z</time>
      </trkpt>
      <trkpt lat="47.69703" lon="6.20509">
        <ele>252.80000305176</ele>
        <time>2012-07-11T10:14:45.000Z</time>
      </trkpt>
      <trkpt lat="47.69701" lon="6.20512">
        <ele>253.39999389648</ele>
        <time>2012-07-11T10:14:46.000Z</time>
      </trkpt>
      <trkpt lat="47.69695" lon="6.20527">
        <ele>253.39999389648</ele>
        <time>2012-07-11T10:14:51.000Z</time>
      </trkpt>
      <trkpt lat="47.69683" lon="6.20547">
        <ele>253.39999389648</ele>
        <time>2012-07-11T10:14:59.000Z</time>
      </trkpt>
      <trkpt lat="47.69682" lon="6.2055">
        <ele>253.80000305176</ele>
        <time>2012-07-11T10:15:00.000Z</time>
      </trkpt>
      <trkpt lat="47.6968" lon="6.20552">
        <ele>254.19999694824</ele>
        <time>2012-07-11T10:15:01.000Z</time>
      </trkpt>
      <trkpt lat="47.69679" lon="6.20554">
        <ele>254.60000610352</ele>
        <time>2012-07-11T10:15:02.000Z</time>
      </trkpt>
      <trkpt lat="47.69677" lon="6.20556">
        <ele>255</ele>
        <time>2012-07-11T10:15:03.000Z</time>
      </trkpt>
      <trkpt lat="47.69676" lon="6.20558">
        <ele>255.39999389648</ele>
        <time>2012-07-11T10:15:04.000Z</time>
      </trkpt>
      <trkpt lat="47.69674" lon="6.2056">
        <ele>256</ele>
        <time>2012-07-11T10:15:05.000Z</time>
      </trkpt>
      <trkpt lat="47.69673" lon="6.20562">
        <ele>256.60000610352</ele>
        <time>2012-07-11T10:15:06.000Z</time>
      </trkpt>
      <trkpt lat="47.69671" lon="6.20563">
        <ele>257.39999389648</ele>
        <time>2012-07-11T10:15:07.000Z</time>
      </trkpt>
      <trkpt lat="47.69669" lon="6.20566">
        <ele>258</ele>
        <time>2012-07-11T10:15:08.000Z</time>
      </trkpt>
      <trkpt lat="47.69668" lon="6.20568">
        <ele>257.60000610352</ele>
        <time>2012-07-11T10:15:09.000Z</time>
      </trkpt>
      <trkpt lat="47.69666" lon="6.20569">
        <ele>257.20001220703</ele>
        <time>2012-07-11T10:15:10.000Z</time>
      </trkpt>
      <trkpt lat="47.69665" lon="6.20571">
        <ele>256.79998779297</ele>
        <time>2012-07-11T10:15:11.000Z</time>
      </trkpt>
      <trkpt lat="47.69663" lon="6.20573">
        <ele>256.39999389648</ele>
        <time>2012-07-11T10:15:12.000Z</time>
      </trkpt>
      <trkpt lat="47.69662" lon="6.20575">
        <ele>256.20001220703</ele>
        <time>2012-07-11T10:15:13.000Z</time>
      </trkpt>
      <trkpt lat="47.69652" lon="6.20588">
        <ele>256.60000610352</ele>
        <time>2012-07-11T10:15:20.000Z</time>
      </trkpt>
      <trkpt lat="47.6965" lon="6.2059">
        <ele>257</ele>
        <time>2012-07-11T10:15:21.000Z</time>
      </trkpt>
      <trkpt lat="47.69649" lon="6.20591">
        <ele>257.39999389648</ele>
        <time>2012-07-11T10:15:22.000Z</time>
      </trkpt>
      <trkpt lat="47.69647" lon="6.20593">
        <ele>258</ele>
        <time>2012-07-11T10:15:23.000Z</time>
      </trkpt>
      <trkpt lat="47.69646" lon="6.20595">
        <ele>258.39999389648</ele>
        <time>2012-07-11T10:15:24.000Z</time>
      </trkpt>
      <trkpt lat="47.69637" lon="6.20607">
        <ele>258.39999389648</ele>
        <time>2012-07-11T10:15:30.000Z</time>
      </trkpt>
      <trkpt lat="47.6963" lon="6.20622">
        <ele>258.39999389648</ele>
        <time>2012-07-11T10:15:37.000Z</time>
      </trkpt>
      <trkpt lat="47.69623" lon="6.20637">
        <ele>258.39999389648</ele>
        <time>2012-07-11T10:15:44.000Z</time>
      </trkpt>
      <trkpt lat="47.69621" lon="6.20641">
        <ele>258.79998779297</ele>
        <time>2012-07-11T10:15:46.000Z</time>
      </trkpt>
      <trkpt lat="47.69621" lon="6.20643">
        <ele>259.20001220703</ele>
        <time>2012-07-11T10:15:47.000Z</time>
      </trkpt>
      <trkpt lat="47.69619" lon="6.20645">
        <ele>259.60000610352</ele>
        <time>2012-07-11T10:15:48.000Z</time>
      </trkpt>
      <trkpt lat="47.69618" lon="6.20647">
        <ele>260.39999389648</ele>
        <time>2012-07-11T10:15:49.000Z</time>
      </trkpt>
      <trkpt lat="47.69617" lon="6.20649">
        <ele>260.39999389648</ele>
        <time>2012-07-11T10:15:50.000Z</time>
      </trkpt>
      <trkpt lat="47.69611" lon="6.20664">
        <ele>260.79998779297</ele>
        <time>2012-07-11T10:15:57.000Z</time>
      </trkpt>
      <trkpt lat="47.69609" lon="6.20666">
        <ele>261.20001220703</ele>
        <time>2012-07-11T10:15:58.000Z</time>
      </trkpt>
      <trkpt lat="47.69608" lon="6.20667">
        <ele>261.60000610352</ele>
        <time>2012-07-11T10:15:59.000Z</time>
      </trkpt>
      <trkpt lat="47.69607" lon="6.20668">
        <ele>262.20001220703</ele>
        <time>2012-07-11T10:16:00.000Z</time>
      </trkpt>
      <trkpt lat="47.69606" lon="6.2067">
        <ele>262.60000610352</ele>
        <time>2012-07-11T10:16:01.000Z</time>
      </trkpt>
      <trkpt lat="47.696" lon="6.20679">
        <ele>262.60000610352</ele>
        <time>2012-07-11T10:16:06.000Z</time>
      </trkpt>
      <trkpt lat="47.69591" lon="6.20692">
        <ele>262.60000610352</ele>
        <time>2012-07-11T10:16:14.000Z</time>
      </trkpt>
      <trkpt lat="47.69582" lon="6.20704">
        <ele>263</ele>
        <time>2012-07-11T10:16:21.000Z</time>
      </trkpt>
      <trkpt lat="47.6958" lon="6.20705">
        <ele>263.39999389648</ele>
        <time>2012-07-11T10:16:22.000Z</time>
      </trkpt>
      <trkpt lat="47.69579" lon="6.20706">
        <ele>263.79998779297</ele>
        <time>2012-07-11T10:16:23.000Z</time>
      </trkpt>
      <trkpt lat="47.69578" lon="6.20708">
        <ele>264.20001220703</ele>
        <time>2012-07-11T10:16:24.000Z</time>
      </trkpt>
      <trkpt lat="47.69576" lon="6.20709">
        <ele>264.60000610352</ele>
        <time>2012-07-11T10:16:25.000Z</time>
      </trkpt>
      <trkpt lat="47.69568" lon="6.20716">
        <ele>264.60000610352</ele>
        <time>2012-07-11T10:16:31.000Z</time>
      </trkpt>
      <trkpt lat="47.69561" lon="6.20723">
        <ele>265</ele>
        <time>2012-07-11T10:16:37.000Z</time>
      </trkpt>
      <trkpt lat="47.6956" lon="6.20724">
        <ele>265.60000610352</ele>
        <time>2012-07-11T10:16:38.000Z</time>
      </trkpt>
      <trkpt lat="47.69558" lon="6.20725">
        <ele>266.39999389648</ele>
        <time>2012-07-11T10:16:39.000Z</time>
      </trkpt>
      <trkpt lat="47.69557" lon="6.20726">
        <ele>266.79998779297</ele>
        <time>2012-07-11T10:16:40.000Z</time>
      </trkpt>
      <trkpt lat="47.69549" lon="6.20734">
        <ele>266.79998779297</ele>
        <time>2012-07-11T10:16:47.000Z</time>
      </trkpt>
      <trkpt lat="47.69548" lon="6.20735">
        <ele>266.79998779297</ele>
        <time>2012-07-11T10:16:48.000Z</time>
      </trkpt>
      <trkpt lat="47.69543" lon="6.20739">
        <ele>267.20001220703</ele>
        <time>2012-07-11T10:16:52.000Z</time>
      </trkpt>
      <trkpt lat="47.69543" lon="6.2074">
        <ele>267.60000610352</ele>
        <time>2012-07-11T10:16:53.000Z</time>
      </trkpt>
      <trkpt lat="47.69541" lon="6.20742">
        <ele>268</ele>
        <time>2012-07-11T10:16:54.000Z</time>
      </trkpt>
      <trkpt lat="47.6954" lon="6.20743">
        <ele>268.39999389648</ele>
        <time>2012-07-11T10:16:55.000Z</time>
      </trkpt>
      <trkpt lat="47.69539" lon="6.20744">
        <ele>269</ele>
        <time>2012-07-11T10:16:56.000Z</time>
      </trkpt>
      <trkpt lat="47.6953" lon="6.20754">
        <ele>269</ele>
        <time>2012-07-11T10:17:03.000Z</time>
      </trkpt>
      <trkpt lat="47.69528" lon="6.20755">
        <ele>269.39999389648</ele>
        <time>2012-07-11T10:17:05.000Z</time>
      </trkpt>
      <trkpt lat="47.69527" lon="6.20756">
        <ele>269.79998779297</ele>
        <time>2012-07-11T10:17:06.000Z</time>
      </trkpt>
      <trkpt lat="47.69526" lon="6.20757">
        <ele>270.20001220703</ele>
        <time>2012-07-11T10:17:07.000Z</time>
      </trkpt>
      <trkpt lat="47.69525" lon="6.20759">
        <ele>270.60000610352</ele>
        <time>2012-07-11T10:17:08.000Z</time>
      </trkpt>
      <trkpt lat="47.69524" lon="6.20759">
        <ele>271</ele>
        <time>2012-07-11T10:17:09.000Z</time>
      </trkpt>
      <trkpt lat="47.69523" lon="6.2076">
        <ele>271</ele>
        <time>2012-07-11T10:17:10.000Z</time>
      </trkpt>
      <trkpt lat="47.69516" lon="6.20765">
        <ele>271</ele>
        <time>2012-07-11T10:17:16.000Z</time>
      </trkpt>
      <trkpt lat="47.69515" lon="6.20765">
        <ele>270.39999389648</ele>
        <time>2012-07-11T10:17:17.000Z</time>
      </trkpt>
      <trkpt lat="47.69513" lon="6.20766">
        <ele>269.60000610352</ele>
        <time>2012-07-11T10:17:18.000Z</time>
      </trkpt>
      <trkpt lat="47.69512" lon="6.20767">
        <ele>269.79998779297</ele>
        <time>2012-07-11T10:17:19.000Z</time>
      </trkpt>
      <trkpt lat="47.69511" lon="6.20768">
        <ele>270.60000610352</ele>
        <time>2012-07-11T10:17:20.000Z</time>
      </trkpt>
      <trkpt lat="47.69509" lon="6.20769">
        <ele>271.39999389648</ele>
        <time>2012-07-11T10:17:21.000Z</time>
      </trkpt>
      <trkpt lat="47.69508" lon="6.20769">
        <ele>272.20001220703</ele>
        <time>2012-07-11T10:17:22.000Z</time>
      </trkpt>
      <trkpt lat="47.69506" lon="6.20769">
        <ele>273</ele>
        <time>2012-07-11T10:17:23.000Z</time>
      </trkpt>
      <trkpt lat="47.69504" lon="6.20768">
        <ele>273.79998779297</ele>
        <time>2012-07-11T10:17:24.000Z</time>
      </trkpt>
      <trkpt lat="47.69502" lon="6.2076">
        <ele>273.79998779297</ele>
        <time>2012-07-11T10:17:28.000Z</time>
      </trkpt>
      <trkpt lat="47.69501" lon="6.20758">
        <ele>273.79998779297</ele>
        <time>2012-07-11T10:17:29.000Z</time>
      </trkpt>
      <trkpt lat="47.69495" lon="6.20742">
        <ele>273.79998779297</ele>
        <time>2012-07-11T10:17:37.000Z</time>
      </trkpt>
      <trkpt lat="47.69491" lon="6.20733">
        <ele>274.39999389648</ele>
        <time>2012-07-11T10:17:41.000Z</time>
      </trkpt>
      <trkpt lat="47.6949" lon="6.20732">
        <ele>274.79998779297</ele>
        <time>2012-07-11T10:17:42.000Z</time>
      </trkpt>
      <trkpt lat="47.69488" lon="6.2073">
        <ele>275.20001220703</ele>
        <time>2012-07-11T10:17:43.000Z</time>
      </trkpt>
      <trkpt lat="47.69486" lon="6.2073">
        <ele>275.79998779297</ele>
        <time>2012-07-11T10:17:44.000Z</time>
      </trkpt>
      <trkpt lat="47.69484" lon="6.20729">
        <ele>276.20001220703</ele>
        <time>2012-07-11T10:17:45.000Z</time>
      </trkpt>
      <trkpt lat="47.69473" lon="6.20727">
        <ele>276.20001220703</ele>
        <time>2012-07-11T10:17:51.000Z</time>
      </trkpt>
      <trkpt lat="47.69461" lon="6.20732">
        <ele>276.20001220703</ele>
        <time>2012-07-11T10:17:58.000Z</time>
      </trkpt>
      <trkpt lat="47.6945" lon="6.20741">
        <ele>276.20001220703</ele>
        <time>2012-07-11T10:18:06.000Z</time>
      </trkpt>
      <trkpt lat="47.69435" lon="6.20753">
        <ele>276.20001220703</ele>
        <time>2012-07-11T10:18:16.000Z</time>
      </trkpt>
      <trkpt lat="47.6943" lon="6.20757">
        <ele>276.60000610352</ele>
        <time>2012-07-11T10:18:19.000Z</time>
      </trkpt>
      <trkpt lat="47.69429" lon="6.20758">
        <ele>277</ele>
        <time>2012-07-11T10:18:20.000Z</time>
      </trkpt>
      <trkpt lat="47.69427" lon="6.20759">
        <ele>277.39999389648</ele>
        <time>2012-07-11T10:18:21.000Z</time>
      </trkpt>
      <trkpt lat="47.69426" lon="6.2076">
        <ele>278</ele>
        <time>2012-07-11T10:18:22.000Z</time>
      </trkpt>
      <trkpt lat="47.69425" lon="6.20762">
        <ele>278.39999389648</ele>
        <time>2012-07-11T10:18:23.000Z</time>
      </trkpt>
      <trkpt lat="47.69419" lon="6.20774">
        <ele>278.39999389648</ele>
        <time>2012-07-11T10:18:29.000Z</time>
      </trkpt>
      <trkpt lat="47.69413" lon="6.20787">
        <ele>278.39999389648</ele>
        <time>2012-07-11T10:18:36.000Z</time>
      </trkpt>
      <trkpt lat="47.69404" lon="6.20787">
        <ele>278.39999389648</ele>
        <time>2012-07-11T10:18:41.000Z</time>
      </trkpt>
      <trkpt lat="47.69396" lon="6.20776">
        <ele>278.39999389648</ele>
        <time>2012-07-11T10:18:48.000Z</time>
      </trkpt>
      <trkpt lat="47.69391" lon="6.20769">
        <ele>278.39999389648</ele>
        <time>2012-07-11T10:18:53.000Z</time>
      </trkpt>
      <trkpt lat="47.69385" lon="6.20767">
        <ele>278.39999389648</ele>
        <time>2012-07-11T10:18:59.000Z</time>
      </trkpt>
      <trkpt lat="47.6938" lon="6.2076">
        <ele>278.39999389648</ele>
        <time>2012-07-11T10:19:34.000Z</time>
      </trkpt>
      <trkpt lat="47.69376" lon="6.20756">
        <ele>278.39999389648</ele>
        <time>2012-07-11T10:19:36.000Z</time>
      </trkpt>
      <trkpt lat="47.6937" lon="6.20753">
        <ele>278</ele>
        <time>2012-07-11T10:19:39.000Z</time>
      </trkpt>
      <trkpt lat="47.69368" lon="6.20752">
        <ele>277.60000610352</ele>
        <time>2012-07-11T10:19:40.000Z</time>
      </trkpt>
      <trkpt lat="47.69366" lon="6.20751">
        <ele>277.20001220703</ele>
        <time>2012-07-11T10:19:41.000Z</time>
      </trkpt>
      <trkpt lat="47.69365" lon="6.2075">
        <ele>276.79998779297</ele>
        <time>2012-07-11T10:19:42.000Z</time>
      </trkpt>
      <trkpt lat="47.69364" lon="6.2075">
        <ele>276.39999389648</ele>
        <time>2012-07-11T10:19:43.000Z</time>
      </trkpt>
      <trkpt lat="47.69358" lon="6.20749">
        <ele>276.39999389648</ele>
        <time>2012-07-11T10:19:46.000Z</time>
      </trkpt>
      <trkpt lat="47.69352" lon="6.20754">
        <ele>276.39999389648</ele>
        <time>2012-07-11T10:19:49.000Z</time>
      </trkpt>
      <trkpt lat="47.69347" lon="6.20763">
        <ele>276.39999389648</ele>
        <time>2012-07-11T10:19:54.000Z</time>
      </trkpt>
      <trkpt lat="47.69342" lon="6.2078">
        <ele>276.39999389648</ele>
        <time>2012-07-11T10:20:00.000Z</time>
      </trkpt>
      <trkpt lat="47.6934" lon="6.20786">
        <ele>276</ele>
        <time>2012-07-11T10:20:02.000Z</time>
      </trkpt>
      <trkpt lat="47.69339" lon="6.2079">
        <ele>275.60000610352</ele>
        <time>2012-07-11T10:20:03.000Z</time>
      </trkpt>
      <trkpt lat="47.69338" lon="6.20793">
        <ele>275.20001220703</ele>
        <time>2012-07-11T10:20:04.000Z</time>
      </trkpt>
      <trkpt lat="47.69337" lon="6.20797">
        <ele>274.79998779297</ele>
        <time>2012-07-11T10:20:05.000Z</time>
      </trkpt>
      <trkpt lat="47.69337" lon="6.208">
        <ele>274.39999389648</ele>
        <time>2012-07-11T10:20:06.000Z</time>
      </trkpt>
      <trkpt lat="47.69331" lon="6.20817">
        <ele>274.39999389648</ele>
        <time>2012-07-11T10:20:12.000Z</time>
      </trkpt>
      <trkpt lat="47.6933" lon="6.20834">
        <ele>274.39999389648</ele>
        <time>2012-07-11T10:20:18.000Z</time>
      </trkpt>
      <trkpt lat="47.69328" lon="6.20855">
        <ele>274.39999389648</ele>
        <time>2012-07-11T10:20:25.000Z</time>
      </trkpt>
      <trkpt lat="47.69328" lon="6.20862">
        <ele>273.79998779297</ele>
        <time>2012-07-11T10:20:27.000Z</time>
      </trkpt>
      <trkpt lat="47.69328" lon="6.20866">
        <ele>273.39999389648</ele>
        <time>2012-07-11T10:20:28.000Z</time>
      </trkpt>
      <trkpt lat="47.69328" lon="6.20869">
        <ele>273</ele>
        <time>2012-07-11T10:20:29.000Z</time>
      </trkpt>
      <trkpt lat="47.69327" lon="6.20873">
        <ele>272.60000610352</ele>
        <time>2012-07-11T10:20:30.000Z</time>
      </trkpt>
      <trkpt lat="47.69327" lon="6.20876">
        <ele>272.20001220703</ele>
        <time>2012-07-11T10:20:31.000Z</time>
      </trkpt>
      <trkpt lat="47.69326" lon="6.20882">
        <ele>272.20001220703</ele>
        <time>2012-07-11T10:20:33.000Z</time>
      </trkpt>
      <trkpt lat="47.69317" lon="6.20907">
        <ele>272.20001220703</ele>
        <time>2012-07-11T10:20:42.000Z</time>
      </trkpt>
      <trkpt lat="47.69308" lon="6.20922">
        <ele>272.20001220703</ele>
        <time>2012-07-11T10:20:48.000Z</time>
      </trkpt>
      <trkpt lat="47.69298" lon="6.20938">
        <ele>272.20001220703</ele>
        <time>2012-07-11T10:20:55.000Z</time>
      </trkpt>
      <trkpt lat="47.6929" lon="6.20952">
        <ele>272.20001220703</ele>
        <time>2012-07-11T10:21:01.000Z</time>
      </trkpt>
      <trkpt lat="47.6929" lon="6.20954">
        <ele>271.79998779297</ele>
        <time>2012-07-11T10:21:02.000Z</time>
      </trkpt>
      <trkpt lat="47.69289" lon="6.20956">
        <ele>271.39999389648</ele>
        <time>2012-07-11T10:21:03.000Z</time>
      </trkpt>
      <trkpt lat="47.69288" lon="6.20959">
        <ele>271</ele>
        <time>2012-07-11T10:21:04.000Z</time>
      </trkpt>
      <trkpt lat="47.69287" lon="6.20961">
        <ele>270.60000610352</ele>
        <time>2012-07-11T10:21:05.000Z</time>
      </trkpt>
      <trkpt lat="47.69285" lon="6.20963">
        <ele>270.20001220703</ele>
        <time>2012-07-11T10:21:06.000Z</time>
      </trkpt>
      <trkpt lat="47.69285" lon="6.20965">
        <ele>270.20001220703</ele>
        <time>2012-07-11T10:21:07.000Z</time>
      </trkpt>
      <trkpt lat="47.69279" lon="6.20983">
        <ele>270.20001220703</ele>
        <time>2012-07-11T10:21:14.000Z</time>
      </trkpt>
      <trkpt lat="47.69275" lon="6.21001">
        <ele>270.20001220703</ele>
        <time>2012-07-11T10:21:22.000Z</time>
      </trkpt>
      <trkpt lat="47.69274" lon="6.2101">
        <ele>270.20001220703</ele>
        <time>2012-07-11T10:21:28.000Z</time>
      </trkpt>
      <trkpt lat="47.6928" lon="6.21006">
        <ele>270.20001220703</ele>
        <time>2012-07-11T10:21:58.000Z</time>
      </trkpt>
      <trkpt lat="47.69285" lon="6.21003">
        <ele>270.20001220703</ele>
        <time>2012-07-11T10:22:04.000Z</time>
      </trkpt>
      <trkpt lat="47.6929" lon="6.21001">
        <ele>270.20001220703</ele>
        <time>2012-07-11T10:22:11.000Z</time>
      </trkpt>
      <trkpt lat="47.69294" lon="6.21001">
        <ele>270.20001220703</ele>
        <time>2012-07-11T10:22:16.000Z</time>
      </trkpt>
      <trkpt lat="47.69281" lon="6.21007">
        <ele>270.20001220703</ele>
        <time>2012-07-11T10:23:03.000Z</time>
      </trkpt>
      <trkpt lat="47.69281" lon="6.21008">
        <ele>270.20001220703</ele>
        <time>2012-07-11T10:23:04.000Z</time>
      </trkpt>
      <trkpt lat="47.69277" lon="6.21012">
        <ele>270.20001220703</ele>
        <time>2012-07-11T10:23:09.000Z</time>
      </trkpt>
      <trkpt lat="47.69274" lon="6.21013">
        <ele>270.20001220703</ele>
        <time>2012-07-11T10:23:11.000Z</time>
      </trkpt>
      <trkpt lat="47.69274" lon="6.21013">
        <ele>270.20001220703</ele>
        <time>2012-07-11T10:23:12.000Z</time>
      </trkpt>
      <trkpt lat="47.69272" lon="6.21018">
        <ele>270.20001220703</ele>
        <time>2012-07-11T10:23:16.000Z</time>
      </trkpt>
      <trkpt lat="47.6927" lon="6.21019">
        <ele>270.20001220703</ele>
        <time>2012-07-11T10:23:18.000Z</time>
      </trkpt>
      <trkpt lat="47.69266" lon="6.21021">
        <ele>270.20001220703</ele>
        <time>2012-07-11T10:23:22.000Z</time>
      </trkpt>
      <trkpt lat="47.69263" lon="6.21021">
        <ele>270.20001220703</ele>
        <time>2012-07-11T10:23:26.000Z</time>
      </trkpt>
      <trkpt lat="47.69262" lon="6.21022">
        <ele>270.20001220703</ele>
        <time>2012-07-11T10:23:34.000Z</time>
      </trkpt>
      <trkpt lat="47.69261" lon="6.21022">
        <ele>270.20001220703</ele>
        <time>2012-07-11T10:23:35.000Z</time>
      </trkpt>
      <trkpt lat="47.69248" lon="6.21026">
        <ele>270.20001220703</ele>
        <time>2012-07-11T10:23:42.000Z</time>
      </trkpt>
      <trkpt lat="47.69235" lon="6.2103">
        <ele>270.20001220703</ele>
        <time>2012-07-11T10:23:49.000Z</time>
      </trkpt>
      <trkpt lat="47.69223" lon="6.21032">
        <ele>270.60000610352</ele>
        <time>2012-07-11T10:23:56.000Z</time>
      </trkpt>
      <trkpt lat="47.69221" lon="6.21032">
        <ele>271</ele>
        <time>2012-07-11T10:23:57.000Z</time>
      </trkpt>
      <trkpt lat="47.6922" lon="6.21033">
        <ele>271.39999389648</ele>
        <time>2012-07-11T10:23:58.000Z</time>
      </trkpt>
      <trkpt lat="47.69219" lon="6.21034">
        <ele>271.79998779297</ele>
        <time>2012-07-11T10:23:59.000Z</time>
      </trkpt>
      <trkpt lat="47.69218" lon="6.21034">
        <ele>272.20001220703</ele>
        <time>2012-07-11T10:24:00.000Z</time>
      </trkpt>
      <trkpt lat="47.69215" lon="6.21036">
        <ele>272.20001220703</ele>
        <time>2012-07-11T10:24:02.000Z</time>
      </trkpt>
      <trkpt lat="47.69203" lon="6.21044">
        <ele>272.20001220703</ele>
        <time>2012-07-11T10:24:10.000Z</time>
      </trkpt>
      <trkpt lat="47.692" lon="6.21044">
        <ele>272.20001220703</ele>
        <time>2012-07-11T10:24:14.000Z</time>
      </trkpt>
      <trkpt lat="47.69181" lon="6.21049">
        <ele>274.20001220703</ele>
        <time>2012-07-11T10:24:40.000Z</time>
      </trkpt>
      <trkpt lat="47.6918" lon="6.21048">
        <ele>274.20001220703</ele>
        <time>2012-07-11T10:24:41.000Z</time>
      </trkpt>
      <trkpt lat="47.69178" lon="6.2105">
        <ele>274.20001220703</ele>
        <time>2012-07-11T10:24:43.000Z</time>
      </trkpt>
      <trkpt lat="47.69176" lon="6.21051">
        <ele>274.20001220703</ele>
        <time>2012-07-11T10:24:45.000Z</time>
      </trkpt>
      <trkpt lat="47.69174" lon="6.21051">
        <ele>274.20001220703</ele>
        <time>2012-07-11T10:24:46.000Z</time>
      </trkpt>
      <trkpt lat="47.69168" lon="6.21055">
        <ele>274.20001220703</ele>
        <time>2012-07-11T10:24:52.000Z</time>
      </trkpt>
      <trkpt lat="47.69161" lon="6.21058">
        <ele>274.20001220703</ele>
        <time>2012-07-11T10:24:59.000Z</time>
      </trkpt>
      <trkpt lat="47.69156" lon="6.21058">
        <ele>274.60000610352</ele>
        <time>2012-07-11T10:25:03.000Z</time>
      </trkpt>
      <trkpt lat="47.69155" lon="6.21059">
        <ele>275</ele>
        <time>2012-07-11T10:25:04.000Z</time>
      </trkpt>
      <trkpt lat="47.69153" lon="6.21059">
        <ele>275.39999389648</ele>
        <time>2012-07-11T10:25:05.000Z</time>
      </trkpt>
      <trkpt lat="47.69152" lon="6.2106">
        <ele>276</ele>
        <time>2012-07-11T10:25:06.000Z</time>
      </trkpt>
      <trkpt lat="47.69151" lon="6.2106">
        <ele>276.39999389648</ele>
        <time>2012-07-11T10:25:07.000Z</time>
      </trkpt>
      <trkpt lat="47.69147" lon="6.21062">
        <ele>276.39999389648</ele>
        <time>2012-07-11T10:25:11.000Z</time>
      </trkpt>
      <trkpt lat="47.69142" lon="6.21068">
        <ele>276.39999389648</ele>
        <time>2012-07-11T10:25:18.000Z</time>
      </trkpt>
      <trkpt lat="47.69138" lon="6.2107">
        <ele>276.79998779297</ele>
        <time>2012-07-11T10:25:23.000Z</time>
      </trkpt>
      <trkpt lat="47.69137" lon="6.2107">
        <ele>277.20001220703</ele>
        <time>2012-07-11T10:25:24.000Z</time>
      </trkpt>
      <trkpt lat="47.69137" lon="6.21071">
        <ele>277.60000610352</ele>
        <time>2012-07-11T10:25:25.000Z</time>
      </trkpt>
      <trkpt lat="47.69136" lon="6.21071">
        <ele>278</ele>
        <time>2012-07-11T10:25:26.000Z</time>
      </trkpt>
      <trkpt lat="47.69135" lon="6.21071">
        <ele>278.39999389648</ele>
        <time>2012-07-11T10:25:27.000Z</time>
      </trkpt>
      <trkpt lat="47.69132" lon="6.21074">
        <ele>278.39999389648</ele>
        <time>2012-07-11T10:25:31.000Z</time>
      </trkpt>
      <trkpt lat="47.69129" lon="6.21076">
        <ele>278.39999389648</ele>
        <time>2012-07-11T10:25:36.000Z</time>
      </trkpt>
      <trkpt lat="47.69058" lon="6.21091">
        <ele>284.60000610352</ele>
        <time>2012-07-11T10:26:38.000Z</time>
      </trkpt>
      <trkpt lat="47.69057" lon="6.21091">
        <ele>284.60000610352</ele>
        <time>2012-07-11T10:26:39.000Z</time>
      </trkpt>
      <trkpt lat="47.69055" lon="6.21091">
        <ele>285</ele>
        <time>2012-07-11T10:26:41.000Z</time>
      </trkpt>
      <trkpt lat="47.69054" lon="6.21091">
        <ele>285.39999389648</ele>
        <time>2012-07-11T10:26:42.000Z</time>
      </trkpt>
      <trkpt lat="47.69053" lon="6.21091">
        <ele>285.79998779297</ele>
        <time>2012-07-11T10:26:43.000Z</time>
      </trkpt>
      <trkpt lat="47.69052" lon="6.2109">
        <ele>286.20001220703</ele>
        <time>2012-07-11T10:26:44.000Z</time>
      </trkpt>
      <trkpt lat="47.69051" lon="6.2109">
        <ele>286.60000610352</ele>
        <time>2012-07-11T10:26:45.000Z</time>
      </trkpt>
      <trkpt lat="47.69048" lon="6.2109">
        <ele>286.60000610352</ele>
        <time>2012-07-11T10:26:47.000Z</time>
      </trkpt>
      <trkpt lat="47.69047" lon="6.2109">
        <ele>286.60000610352</ele>
        <time>2012-07-11T10:26:49.000Z</time>
      </trkpt>
      <trkpt lat="47.69043" lon="6.21087">
        <ele>286.60000610352</ele>
        <time>2012-07-11T10:26:53.000Z</time>
      </trkpt>
      <trkpt lat="47.69041" lon="6.21087">
        <ele>287</ele>
        <time>2012-07-11T10:26:54.000Z</time>
      </trkpt>
      <trkpt lat="47.6904" lon="6.21088">
        <ele>287.39999389648</ele>
        <time>2012-07-11T10:26:55.000Z</time>
      </trkpt>
      <trkpt lat="47.69039" lon="6.21088">
        <ele>287.79998779297</ele>
        <time>2012-07-11T10:26:56.000Z</time>
      </trkpt>
      <trkpt lat="47.69038" lon="6.21088">
        <ele>288.60000610352</ele>
        <time>2012-07-11T10:26:57.000Z</time>
      </trkpt>
      <trkpt lat="47.69033" lon="6.2109">
        <ele>288.60000610352</ele>
        <time>2012-07-11T10:27:01.000Z</time>
      </trkpt>
      <trkpt lat="47.69032" lon="6.2109">
        <ele>286.60000610352</ele>
        <time>2012-07-11T10:27:02.000Z</time>
      </trkpt>
      <trkpt lat="47.69032" lon="6.21091">
        <ele>287</ele>
        <time>2012-07-11T10:27:03.000Z</time>
      </trkpt>
      <trkpt lat="47.69031" lon="6.21091">
        <ele>288</ele>
        <time>2012-07-11T10:27:04.000Z</time>
      </trkpt>
      <trkpt lat="47.68842" lon="6.21044">
        <ele>313.60000610352</ele>
        <time>2012-07-11T10:31:36.000Z</time>
      </trkpt>
      <trkpt lat="47.68842" lon="6.21042">
        <ele>313.60000610352</ele>
        <time>2012-07-11T10:31:37.000Z</time>
      </trkpt>
      <trkpt lat="47.68841" lon="6.21034">
        <ele>313.60000610352</ele>
        <time>2012-07-11T10:31:41.000Z</time>
      </trkpt>
      <trkpt lat="47.68841" lon="6.21032">
        <ele>313.60000610352</ele>
        <time>2012-07-11T10:31:42.000Z</time>
      </trkpt>
      <trkpt lat="47.68841" lon="6.21017">
        <ele>314</ele>
        <time>2012-07-11T10:31:49.000Z</time>
      </trkpt>
      <trkpt lat="47.68832" lon="6.20974">
        <ele>315.60000610352</ele>
        <time>2012-07-11T10:32:12.000Z</time>
      </trkpt>
      <trkpt lat="47.68829" lon="6.2097">
        <ele>315.60000610352</ele>
        <time>2012-07-11T10:32:15.000Z</time>
      </trkpt>
      <trkpt lat="47.68828" lon="6.20968">
        <ele>316</ele>
        <time>2012-07-11T10:32:17.000Z</time>
      </trkpt>
      <trkpt lat="47.68827" lon="6.20966">
        <ele>316.79998779297</ele>
        <time>2012-07-11T10:32:18.000Z</time>
      </trkpt>
      <trkpt lat="47.68826" lon="6.20965">
        <ele>317.20001220703</ele>
        <time>2012-07-11T10:32:19.000Z</time>
      </trkpt>
      <trkpt lat="47.68825" lon="6.20964">
        <ele>317.60000610352</ele>
        <time>2012-07-11T10:32:20.000Z</time>
      </trkpt>
      <trkpt lat="47.68823" lon="6.20963">
        <ele>317.60000610352</ele>
        <time>2012-07-11T10:32:21.000Z</time>
      </trkpt>
      <trkpt lat="47.68818" lon="6.20957">
        <ele>317.60000610352</ele>
        <time>2012-07-11T10:32:27.000Z</time>
      </trkpt>
      <trkpt lat="47.68816" lon="6.20955">
        <ele>317.60000610352</ele>
        <time>2012-07-11T10:32:30.000Z</time>
      </trkpt>
      <trkpt lat="47.68807" lon="6.20951">
        <ele>317.60000610352</ele>
        <time>2012-07-11T10:32:48.000Z</time>
      </trkpt>
      <trkpt lat="47.68805" lon="6.20952">
        <ele>317.60000610352</ele>
        <time>2012-07-11T10:32:49.000Z</time>
      </trkpt>
      <trkpt lat="47.68799" lon="6.2095">
        <ele>317.60000610352</ele>
        <time>2012-07-11T10:32:54.000Z</time>
      </trkpt>
      <trkpt lat="47.68798" lon="6.2095">
        <ele>317.60000610352</ele>
        <time>2012-07-11T10:32:55.000Z</time>
      </trkpt>
      <trkpt lat="47.68789" lon="6.20941">
        <ele>318</ele>
        <time>2012-07-11T10:33:13.000Z</time>
      </trkpt>
      <trkpt lat="47.68785" lon="6.20938">
        <ele>318</ele>
        <time>2012-07-11T10:33:15.000Z</time>
      </trkpt>
      <trkpt lat="47.68772" lon="6.20932">
        <ele>318</ele>
        <time>2012-07-11T10:33:21.000Z</time>
      </trkpt>
      <trkpt lat="47.6876" lon="6.20927">
        <ele>318</ele>
        <time>2012-07-11T10:33:27.000Z</time>
      </trkpt>
      <trkpt lat="47.68753" lon="6.20924">
        <ele>318.39999389648</ele>
        <time>2012-07-11T10:33:32.000Z</time>
      </trkpt>
      <trkpt lat="47.68753" lon="6.20922">
        <ele>318.79998779297</ele>
        <time>2012-07-11T10:33:33.000Z</time>
      </trkpt>
      <trkpt lat="47.68752" lon="6.20921">
        <ele>319.20001220703</ele>
        <time>2012-07-11T10:33:34.000Z</time>
      </trkpt>
      <trkpt lat="47.68751" lon="6.2092">
        <ele>319.60000610352</ele>
        <time>2012-07-11T10:33:35.000Z</time>
      </trkpt>
      <trkpt lat="47.6875" lon="6.2092">
        <ele>320</ele>
        <time>2012-07-11T10:33:36.000Z</time>
      </trkpt>
      <trkpt lat="47.68745" lon="6.20917">
        <ele>320</ele>
        <time>2012-07-11T10:33:41.000Z</time>
      </trkpt>
      <trkpt lat="47.68738" lon="6.20918">
        <ele>320</ele>
        <time>2012-07-11T10:33:46.000Z</time>
      </trkpt>
      <trkpt lat="47.68736" lon="6.20919">
        <ele>320.39999389648</ele>
        <time>2012-07-11T10:33:47.000Z</time>
      </trkpt>
      <trkpt lat="47.68734" lon="6.20919">
        <ele>320.79998779297</ele>
        <time>2012-07-11T10:33:48.000Z</time>
      </trkpt>
      <trkpt lat="47.68733" lon="6.20919">
        <ele>321.20001220703</ele>
        <time>2012-07-11T10:33:49.000Z</time>
      </trkpt>
      <trkpt lat="47.68731" lon="6.20919">
        <ele>321.79998779297</ele>
        <time>2012-07-11T10:33:50.000Z</time>
      </trkpt>
      <trkpt lat="47.6873" lon="6.20919">
        <ele>322.20001220703</ele>
        <time>2012-07-11T10:33:51.000Z</time>
      </trkpt>
      <trkpt lat="47.68727" lon="6.20919">
        <ele>322.20001220703</ele>
        <time>2012-07-11T10:33:53.000Z</time>
      </trkpt>
      <trkpt lat="47.68719" lon="6.2092">
        <ele>322.20001220703</ele>
        <time>2012-07-11T10:33:58.000Z</time>
      </trkpt>
      <trkpt lat="47.68718" lon="6.2092">
        <ele>322.60000610352</ele>
        <time>2012-07-11T10:33:59.000Z</time>
      </trkpt>
      <trkpt lat="47.68716" lon="6.2092">
        <ele>323</ele>
        <time>2012-07-11T10:34:00.000Z</time>
      </trkpt>
      <trkpt lat="47.68715" lon="6.20921">
        <ele>323.39999389648</ele>
        <time>2012-07-11T10:34:01.000Z</time>
      </trkpt>
      <trkpt lat="47.68713" lon="6.20921">
        <ele>323.79998779297</ele>
        <time>2012-07-11T10:34:02.000Z</time>
      </trkpt>
      <trkpt lat="47.68711" lon="6.2092">
        <ele>324.20001220703</ele>
        <time>2012-07-11T10:34:03.000Z</time>
      </trkpt>
      <trkpt lat="47.68709" lon="6.20919">
        <ele>324.20001220703</ele>
        <time>2012-07-11T10:34:05.000Z</time>
      </trkpt>
      <trkpt lat="47.68695" lon="6.20922">
        <ele>324.20001220703</ele>
        <time>2012-07-11T10:34:14.000Z</time>
      </trkpt>
      <trkpt lat="47.68686" lon="6.20918">
        <ele>324.20001220703</ele>
        <time>2012-07-11T10:34:21.000Z</time>
      </trkpt>
      <trkpt lat="47.68684" lon="6.20915">
        <ele>324.60000610352</ele>
        <time>2012-07-11T10:34:24.000Z</time>
      </trkpt>
      <trkpt lat="47.68684" lon="6.20914">
        <ele>325</ele>
        <time>2012-07-11T10:34:25.000Z</time>
      </trkpt>
      <trkpt lat="47.68683" lon="6.20912">
        <ele>325.39999389648</ele>
        <time>2012-07-11T10:34:26.000Z</time>
      </trkpt>
      <trkpt lat="47.68682" lon="6.20911">
        <ele>325.79998779297</ele>
        <time>2012-07-11T10:34:27.000Z</time>
      </trkpt>
      <trkpt lat="47.68681" lon="6.20911">
        <ele>326.20001220703</ele>
        <time>2012-07-11T10:34:28.000Z</time>
      </trkpt>
      <trkpt lat="47.6868" lon="6.20909">
        <ele>326.20001220703</ele>
        <time>2012-07-11T10:34:29.000Z</time>
      </trkpt>
      <trkpt lat="47.68671" lon="6.20904">
        <ele>326.20001220703</ele>
        <time>2012-07-11T10:34:34.000Z</time>
      </trkpt>
      <trkpt lat="47.68662" lon="6.20898">
        <ele>326.20001220703</ele>
        <time>2012-07-11T10:34:39.000Z</time>
      </trkpt>
      <trkpt lat="47.68653" lon="6.20887">
        <ele>326.20001220703</ele>
        <time>2012-07-11T10:34:45.000Z</time>
      </trkpt>
      <trkpt lat="47.68642" lon="6.20876">
        <ele>326.20001220703</ele>
        <time>2012-07-11T10:34:51.000Z</time>
      </trkpt>
      <trkpt lat="47.68632" lon="6.20855">
        <ele>326.20001220703</ele>
        <time>2012-07-11T10:34:58.000Z</time>
      </trkpt>
      <trkpt lat="47.68622" lon="6.2084">
        <ele>326.20001220703</ele>
        <time>2012-07-11T10:35:04.000Z</time>
      </trkpt>
      <trkpt lat="47.68617" lon="6.20831">
        <ele>326.60000610352</ele>
        <time>2012-07-11T10:35:08.000Z</time>
      </trkpt>
      <trkpt lat="47.68615" lon="6.20828">
        <ele>327</ele>
        <time>2012-07-11T10:35:09.000Z</time>
      </trkpt>
      <trkpt lat="47.68614" lon="6.20825">
        <ele>327.60000610352</ele>
        <time>2012-07-11T10:35:10.000Z</time>
      </trkpt>
      <trkpt lat="47.68612" lon="6.20822">
        <ele>327.60000610352</ele>
        <time>2012-07-11T10:35:11.000Z</time>
      </trkpt>
      <trkpt lat="47.68611" lon="6.2082">
        <ele>327.20001220703</ele>
        <time>2012-07-11T10:35:12.000Z</time>
      </trkpt>
      <trkpt lat="47.6861" lon="6.20818">
        <ele>326.79998779297</ele>
        <time>2012-07-11T10:35:13.000Z</time>
      </trkpt>
      <trkpt lat="47.68609" lon="6.20815">
        <ele>326.60000610352</ele>
        <time>2012-07-11T10:35:14.000Z</time>
      </trkpt>
      <trkpt lat="47.68607" lon="6.20812">
        <ele>326.20001220703</ele>
        <time>2012-07-11T10:35:15.000Z</time>
      </trkpt>
      <trkpt lat="47.68595" lon="6.20792">
        <ele>326.20001220703</ele>
        <time>2012-07-11T10:35:22.000Z</time>
      </trkpt>
      <trkpt lat="47.68586" lon="6.20771">
        <ele>326.20001220703</ele>
        <time>2012-07-11T10:35:28.000Z</time>
      </trkpt>
      <trkpt lat="47.68579" lon="6.20755">
        <ele>326.20001220703</ele>
        <time>2012-07-11T10:35:34.000Z</time>
      </trkpt>
      <trkpt lat="47.68571" lon="6.20742">
        <ele>326.20001220703</ele>
        <time>2012-07-11T10:35:40.000Z</time>
      </trkpt>
      <trkpt lat="47.68559" lon="6.20719">
        <ele>326.20001220703</ele>
        <time>2012-07-11T10:35:46.000Z</time>
      </trkpt>
      <trkpt lat="47.6854" lon="6.20692">
        <ele>325.79998779297</ele>
        <time>2012-07-11T10:35:52.000Z</time>
      </trkpt>
      <trkpt lat="47.68538" lon="6.20687">
        <ele>325.39999389648</ele>
        <time>2012-07-11T10:35:53.000Z</time>
      </trkpt>
      <trkpt lat="47.68536" lon="6.20683">
        <ele>325</ele>
        <time>2012-07-11T10:35:54.000Z</time>
      </trkpt>
      <trkpt lat="47.68534" lon="6.20679">
        <ele>324.60000610352</ele>
        <time>2012-07-11T10:35:55.000Z</time>
      </trkpt>
      <trkpt lat="47.68533" lon="6.20675">
        <ele>324</ele>
        <time>2012-07-11T10:35:56.000Z</time>
      </trkpt>
      <trkpt lat="47.68531" lon="6.20671">
        <ele>324</ele>
        <time>2012-07-11T10:35:57.000Z</time>
      </trkpt>
      <trkpt lat="47.68519" lon="6.20656">
        <ele>324</ele>
        <time>2012-07-11T10:36:02.000Z</time>
      </trkpt>
      <trkpt lat="47.68509" lon="6.2064">
        <ele>324</ele>
        <time>2012-07-11T10:36:07.000Z</time>
      </trkpt>
      <trkpt lat="47.68494" lon="6.20618">
        <ele>324</ele>
        <time>2012-07-11T10:36:13.000Z</time>
      </trkpt>
      <trkpt lat="47.68474" lon="6.2059">
        <ele>324</ele>
        <time>2012-07-11T10:36:21.000Z</time>
      </trkpt>
      <trkpt lat="47.68467" lon="6.20584">
        <ele>323.60000610352</ele>
        <time>2012-07-11T10:36:23.000Z</time>
      </trkpt>
      <trkpt lat="47.68463" lon="6.2058">
        <ele>323.20001220703</ele>
        <time>2012-07-11T10:36:24.000Z</time>
      </trkpt>
      <trkpt lat="47.6846" lon="6.20577">
        <ele>322.20001220703</ele>
        <time>2012-07-11T10:36:25.000Z</time>
      </trkpt>
      <trkpt lat="47.68457" lon="6.20575">
        <ele>321.79998779297</ele>
        <time>2012-07-11T10:36:26.000Z</time>
      </trkpt>
      <trkpt lat="47.68455" lon="6.20572">
        <ele>321.79998779297</ele>
        <time>2012-07-11T10:36:27.000Z</time>
      </trkpt>
      <trkpt lat="47.68436" lon="6.20554">
        <ele>321.79998779297</ele>
        <time>2012-07-11T10:36:33.000Z</time>
      </trkpt>
      <trkpt lat="47.6842" lon="6.20538">
        <ele>321.79998779297</ele>
        <time>2012-07-11T10:36:39.000Z</time>
      </trkpt>
      <trkpt lat="47.68406" lon="6.20528">
        <ele>321.79998779297</ele>
        <time>2012-07-11T10:36:44.000Z</time>
      </trkpt>
      <trkpt lat="47.68392" lon="6.20522">
        <ele>321.79998779297</ele>
        <time>2012-07-11T10:36:49.000Z</time>
      </trkpt>
      <trkpt lat="47.68372" lon="6.20512">
        <ele>321.79998779297</ele>
        <time>2012-07-11T10:36:57.000Z</time>
      </trkpt>
      <trkpt lat="47.68353" lon="6.20502">
        <ele>321.79998779297</ele>
        <time>2012-07-11T10:37:05.000Z</time>
      </trkpt>
      <trkpt lat="47.68346" lon="6.20498">
        <ele>321.79998779297</ele>
        <time>2012-07-11T10:37:08.000Z</time>
      </trkpt>
      <trkpt lat="47.68343" lon="6.20496">
        <ele>321.79998779297</ele>
        <time>2012-07-11T10:37:10.000Z</time>
      </trkpt>
      <trkpt lat="47.68329" lon="6.2049">
        <ele>321.79998779297</ele>
        <time>2012-07-11T10:37:17.000Z</time>
      </trkpt>
      <trkpt lat="47.68315" lon="6.20482">
        <ele>322.20001220703</ele>
        <time>2012-07-11T10:37:23.000Z</time>
      </trkpt>
      <trkpt lat="47.68313" lon="6.2048">
        <ele>322.60000610352</ele>
        <time>2012-07-11T10:37:24.000Z</time>
      </trkpt>
      <trkpt lat="47.68311" lon="6.20478">
        <ele>323</ele>
        <time>2012-07-11T10:37:25.000Z</time>
      </trkpt>
      <trkpt lat="47.68309" lon="6.20477">
        <ele>323.39999389648</ele>
        <time>2012-07-11T10:37:26.000Z</time>
      </trkpt>
      <trkpt lat="47.68307" lon="6.20477">
        <ele>323.79998779297</ele>
        <time>2012-07-11T10:37:27.000Z</time>
      </trkpt>
      <trkpt lat="47.683" lon="6.20471">
        <ele>323.79998779297</ele>
        <time>2012-07-11T10:37:31.000Z</time>
      </trkpt>
      <trkpt lat="47.6829" lon="6.20459">
        <ele>323.79998779297</ele>
        <time>2012-07-11T10:37:37.000Z</time>
      </trkpt>
      <trkpt lat="47.68276" lon="6.20451">
        <ele>323.79998779297</ele>
        <time>2012-07-11T10:37:43.000Z</time>
      </trkpt>
      <trkpt lat="47.68261" lon="6.20436">
        <ele>323.79998779297</ele>
        <time>2012-07-11T10:37:49.000Z</time>
      </trkpt>
      <trkpt lat="47.68245" lon="6.20422">
        <ele>323.79998779297</ele>
        <time>2012-07-11T10:37:55.000Z</time>
      </trkpt>
      <trkpt lat="47.68232" lon="6.20411">
        <ele>323.79998779297</ele>
        <time>2012-07-11T10:38:00.000Z</time>
      </trkpt>
      <trkpt lat="47.68216" lon="6.204">
        <ele>323.79998779297</ele>
        <time>2012-07-11T10:38:07.000Z</time>
      </trkpt>
      <trkpt lat="47.682" lon="6.2039">
        <ele>323.79998779297</ele>
        <time>2012-07-11T10:38:14.000Z</time>
      </trkpt>
      <trkpt lat="47.6819" lon="6.20385">
        <ele>324.20001220703</ele>
        <time>2012-07-11T10:38:18.000Z</time>
      </trkpt>
      <trkpt lat="47.68187" lon="6.20384">
        <ele>324.60000610352</ele>
        <time>2012-07-11T10:38:19.000Z</time>
      </trkpt>
      <trkpt lat="47.68185" lon="6.20382">
        <ele>325</ele>
        <time>2012-07-11T10:38:20.000Z</time>
      </trkpt>
      <trkpt lat="47.68183" lon="6.20381">
        <ele>325.39999389648</ele>
        <time>2012-07-11T10:38:21.000Z</time>
      </trkpt>
      <trkpt lat="47.68181" lon="6.2038">
        <ele>325.79998779297</ele>
        <time>2012-07-11T10:38:22.000Z</time>
      </trkpt>
      <trkpt lat="47.68172" lon="6.20375">
        <ele>325.79998779297</ele>
        <time>2012-07-11T10:38:26.000Z</time>
      </trkpt>
      <trkpt lat="47.68162" lon="6.20371">
        <ele>326.20001220703</ele>
        <time>2012-07-11T10:38:31.000Z</time>
      </trkpt>
      <trkpt lat="47.6816" lon="6.2037">
        <ele>326.79998779297</ele>
        <time>2012-07-11T10:38:32.000Z</time>
      </trkpt>
      <trkpt lat="47.68158" lon="6.20369">
        <ele>327.20001220703</ele>
        <time>2012-07-11T10:38:33.000Z</time>
      </trkpt>
      <trkpt lat="47.68156" lon="6.20369">
        <ele>327.60000610352</ele>
        <time>2012-07-11T10:38:34.000Z</time>
      </trkpt>
      <trkpt lat="47.68154" lon="6.20368">
        <ele>328</ele>
        <time>2012-07-11T10:38:35.000Z</time>
      </trkpt>
      <trkpt lat="47.68143" lon="6.20363">
        <ele>328</ele>
        <time>2012-07-11T10:38:41.000Z</time>
      </trkpt>
      <trkpt lat="47.68137" lon="6.20362">
        <ele>328.39999389648</ele>
        <time>2012-07-11T10:38:44.000Z</time>
      </trkpt>
      <trkpt lat="47.68135" lon="6.20361">
        <ele>328.79998779297</ele>
        <time>2012-07-11T10:38:45.000Z</time>
      </trkpt>
      <trkpt lat="47.68133" lon="6.20361">
        <ele>329.20001220703</ele>
        <time>2012-07-11T10:38:46.000Z</time>
      </trkpt>
      <trkpt lat="47.68131" lon="6.2036">
        <ele>329.60000610352</ele>
        <time>2012-07-11T10:38:47.000Z</time>
      </trkpt>
      <trkpt lat="47.68129" lon="6.20359">
        <ele>330</ele>
        <time>2012-07-11T10:38:48.000Z</time>
      </trkpt>
      <trkpt lat="47.68114" lon="6.20354">
        <ele>330</ele>
        <time>2012-07-11T10:38:54.000Z</time>
      </trkpt>
      <trkpt lat="47.68095" lon="6.20346">
        <ele>330</ele>
        <time>2012-07-11T10:39:00.000Z</time>
      </trkpt>
      <trkpt lat="47.68074" lon="6.20338">
        <ele>330</ele>
        <time>2012-07-11T10:39:07.000Z</time>
      </trkpt>
      <trkpt lat="47.68056" lon="6.20332">
        <ele>330</ele>
        <time>2012-07-11T10:39:13.000Z</time>
      </trkpt>
      <trkpt lat="47.68034" lon="6.20322">
        <ele>330</ele>
        <time>2012-07-11T10:39:21.000Z</time>
      </trkpt>
      <trkpt lat="47.68012" lon="6.20311">
        <ele>330.39999389648</ele>
        <time>2012-07-11T10:39:30.000Z</time>
      </trkpt>
      <trkpt lat="47.68009" lon="6.20311">
        <ele>330.79998779297</ele>
        <time>2012-07-11T10:39:31.000Z</time>
      </trkpt>
      <trkpt lat="47.68006" lon="6.20309">
        <ele>331.20001220703</ele>
        <time>2012-07-11T10:39:32.000Z</time>
      </trkpt>
      <trkpt lat="47.68004" lon="6.20308">
        <ele>331.60000610352</ele>
        <time>2012-07-11T10:39:33.000Z</time>
      </trkpt>
      <trkpt lat="47.68001" lon="6.20307">
        <ele>332</ele>
        <time>2012-07-11T10:39:34.000Z</time>
      </trkpt>
      <trkpt lat="47.6799" lon="6.20303">
        <ele>332</ele>
        <time>2012-07-11T10:39:38.000Z</time>
      </trkpt>
      <trkpt lat="47.67963" lon="6.20294">
        <ele>332</ele>
        <time>2012-07-11T10:39:46.000Z</time>
      </trkpt>
      <trkpt lat="47.67938" lon="6.20278">
        <ele>331.60000610352</ele>
        <time>2012-07-11T10:39:52.000Z</time>
      </trkpt>
      <trkpt lat="47.67933" lon="6.20274">
        <ele>331.20001220703</ele>
        <time>2012-07-11T10:39:53.000Z</time>
      </trkpt>
      <trkpt lat="47.67928" lon="6.2027">
        <ele>330.60000610352</ele>
        <time>2012-07-11T10:39:54.000Z</time>
      </trkpt>
      <trkpt lat="47.67923" lon="6.20266">
        <ele>330.20001220703</ele>
        <time>2012-07-11T10:39:55.000Z</time>
      </trkpt>
      <trkpt lat="47.67918" lon="6.20261">
        <ele>329.79998779297</ele>
        <time>2012-07-11T10:39:56.000Z</time>
      </trkpt>
      <trkpt lat="47.67907" lon="6.20251">
        <ele>329.20001220703</ele>
        <time>2012-07-11T10:39:58.000Z</time>
      </trkpt>
      <trkpt lat="47.67901" lon="6.20246">
        <ele>328.79998779297</ele>
        <time>2012-07-11T10:39:59.000Z</time>
      </trkpt>
      <trkpt lat="47.67895" lon="6.20241">
        <ele>328.39999389648</ele>
        <time>2012-07-11T10:40:00.000Z</time>
      </trkpt>
      <trkpt lat="47.67889" lon="6.20235">
        <ele>328</ele>
        <time>2012-07-11T10:40:01.000Z</time>
      </trkpt>
      <trkpt lat="47.67883" lon="6.20229">
        <ele>327.60000610352</ele>
        <time>2012-07-11T10:40:02.000Z</time>
      </trkpt>
      <trkpt lat="47.67876" lon="6.20223">
        <ele>327</ele>
        <time>2012-07-11T10:40:03.000Z</time>
      </trkpt>
      <trkpt lat="47.6787" lon="6.20217">
        <ele>326.60000610352</ele>
        <time>2012-07-11T10:40:04.000Z</time>
      </trkpt>
      <trkpt lat="47.67863" lon="6.20211">
        <ele>326.20001220703</ele>
        <time>2012-07-11T10:40:05.000Z</time>
      </trkpt>
      <trkpt lat="47.67857" lon="6.20205">
        <ele>325.79998779297</ele>
        <time>2012-07-11T10:40:06.000Z</time>
      </trkpt>
      <trkpt lat="47.67851" lon="6.202">
        <ele>324.79998779297</ele>
        <time>2012-07-11T10:40:07.000Z</time>
      </trkpt>
      <trkpt lat="47.67846" lon="6.20197">
        <ele>324.39999389648</ele>
        <time>2012-07-11T10:40:08.000Z</time>
      </trkpt>
      <trkpt lat="47.6784" lon="6.20194">
        <ele>324</ele>
        <time>2012-07-11T10:40:09.000Z</time>
      </trkpt>
      <trkpt lat="47.67835" lon="6.20193">
        <ele>323.60000610352</ele>
        <time>2012-07-11T10:40:10.000Z</time>
      </trkpt>
      <trkpt lat="47.67829" lon="6.20194">
        <ele>323.20001220703</ele>
        <time>2012-07-11T10:40:11.000Z</time>
      </trkpt>
      <trkpt lat="47.67825" lon="6.20197">
        <ele>323.20001220703</ele>
        <time>2012-07-11T10:40:12.000Z</time>
      </trkpt>
      <trkpt lat="47.67808" lon="6.20214">
        <ele>323.20001220703</ele>
        <time>2012-07-11T10:40:16.000Z</time>
      </trkpt>
      <trkpt lat="47.67795" lon="6.2023">
        <ele>322.79998779297</ele>
        <time>2012-07-11T10:40:19.000Z</time>
      </trkpt>
      <trkpt lat="47.67789" lon="6.20234">
        <ele>322.39999389648</ele>
        <time>2012-07-11T10:40:20.000Z</time>
      </trkpt>
      <trkpt lat="47.67782" lon="6.20237">
        <ele>322</ele>
        <time>2012-07-11T10:40:21.000Z</time>
      </trkpt>
      <trkpt lat="47.67776" lon="6.20239">
        <ele>321.60000610352</ele>
        <time>2012-07-11T10:40:22.000Z</time>
      </trkpt>
      <trkpt lat="47.67769" lon="6.20241">
        <ele>321</ele>
        <time>2012-07-11T10:40:23.000Z</time>
      </trkpt>
      <trkpt lat="47.67753" lon="6.20246">
        <ele>320.60000610352</ele>
        <time>2012-07-11T10:40:25.000Z</time>
      </trkpt>
      <trkpt lat="47.67745" lon="6.20249">
        <ele>320.20001220703</ele>
        <time>2012-07-11T10:40:26.000Z</time>
      </trkpt>
      <trkpt lat="47.67736" lon="6.2025">
        <ele>319.60000610352</ele>
        <time>2012-07-11T10:40:27.000Z</time>
      </trkpt>
      <trkpt lat="47.67728" lon="6.20252">
        <ele>319</ele>
        <time>2012-07-11T10:40:28.000Z</time>
      </trkpt>
      <trkpt lat="47.67719" lon="6.20251">
        <ele>318.20001220703</ele>
        <time>2012-07-11T10:40:29.000Z</time>
      </trkpt>
      <trkpt lat="47.67711" lon="6.20249">
        <ele>317.60000610352</ele>
        <time>2012-07-11T10:40:30.000Z</time>
      </trkpt>
      <trkpt lat="47.67703" lon="6.20245">
        <ele>317</ele>
        <time>2012-07-11T10:40:31.000Z</time>
      </trkpt>
      <trkpt lat="47.67696" lon="6.20241">
        <ele>315.79998779297</ele>
        <time>2012-07-11T10:40:32.000Z</time>
      </trkpt>
      <trkpt lat="47.67689" lon="6.20236">
        <ele>315.39999389648</ele>
        <time>2012-07-11T10:40:33.000Z</time>
      </trkpt>
      <trkpt lat="47.67681" lon="6.20233">
        <ele>315</ele>
        <time>2012-07-11T10:40:34.000Z</time>
      </trkpt>
      <trkpt lat="47.67674" lon="6.20229">
        <ele>314.39999389648</ele>
        <time>2012-07-11T10:40:35.000Z</time>
      </trkpt>
      <trkpt lat="47.67666" lon="6.20225">
        <ele>314</ele>
        <time>2012-07-11T10:40:36.000Z</time>
      </trkpt>
      <trkpt lat="47.67644" lon="6.20213">
        <ele>313.60000610352</ele>
        <time>2012-07-11T10:40:39.000Z</time>
      </trkpt>
      <trkpt lat="47.67636" lon="6.20209">
        <ele>313.20001220703</ele>
        <time>2012-07-11T10:40:40.000Z</time>
      </trkpt>
      <trkpt lat="47.67629" lon="6.20204">
        <ele>312.79998779297</ele>
        <time>2012-07-11T10:40:41.000Z</time>
      </trkpt>
      <trkpt lat="47.67622" lon="6.20199">
        <ele>312.39999389648</ele>
        <time>2012-07-11T10:40:42.000Z</time>
      </trkpt>
      <trkpt lat="47.67615" lon="6.20194">
        <ele>312</ele>
        <time>2012-07-11T10:40:43.000Z</time>
      </trkpt>
      <trkpt lat="47.67596" lon="6.20182">
        <ele>312</ele>
        <time>2012-07-11T10:40:46.000Z</time>
      </trkpt>
      <trkpt lat="47.67584" lon="6.20177">
        <ele>312</ele>
        <time>2012-07-11T10:40:48.000Z</time>
      </trkpt>
      <trkpt lat="47.67563" lon="6.20172">
        <ele>312</ele>
        <time>2012-07-11T10:40:51.000Z</time>
      </trkpt>
      <trkpt lat="47.67556" lon="6.20171">
        <ele>311.60000610352</ele>
        <time>2012-07-11T10:40:53.000Z</time>
      </trkpt>
      <trkpt lat="47.6755" lon="6.2017">
        <ele>311</ele>
        <time>2012-07-11T10:40:54.000Z</time>
      </trkpt>
      <trkpt lat="47.67543" lon="6.20169">
        <ele>310.60000610352</ele>
        <time>2012-07-11T10:40:55.000Z</time>
      </trkpt>
      <trkpt lat="47.67536" lon="6.20168">
        <ele>309.79998779297</ele>
        <time>2012-07-11T10:40:56.000Z</time>
      </trkpt>
      <trkpt lat="47.67529" lon="6.20168">
        <ele>309</ele>
        <time>2012-07-11T10:40:57.000Z</time>
      </trkpt>
      <trkpt lat="47.67523" lon="6.20167">
        <ele>307.20001220703</ele>
        <time>2012-07-11T10:40:58.000Z</time>
      </trkpt>
      <trkpt lat="47.67517" lon="6.20167">
        <ele>306.39999389648</ele>
        <time>2012-07-11T10:40:59.000Z</time>
      </trkpt>
      <trkpt lat="47.67506" lon="6.20166">
        <ele>307</ele>
        <time>2012-07-11T10:41:01.000Z</time>
      </trkpt>
      <trkpt lat="47.675" lon="6.20165">
        <ele>307.39999389648</ele>
        <time>2012-07-11T10:41:02.000Z</time>
      </trkpt>
      <trkpt lat="47.67495" lon="6.20165">
        <ele>307.79998779297</ele>
        <time>2012-07-11T10:41:03.000Z</time>
      </trkpt>
      <trkpt lat="47.6749" lon="6.20164">
        <ele>308.20001220703</ele>
        <time>2012-07-11T10:41:04.000Z</time>
      </trkpt>
      <trkpt lat="47.67484" lon="6.20162">
        <ele>308.60000610352</ele>
        <time>2012-07-11T10:41:05.000Z</time>
      </trkpt>
      <trkpt lat="47.67463" lon="6.2016">
        <ele>308.60000610352</ele>
        <time>2012-07-11T10:41:09.000Z</time>
      </trkpt>
      <trkpt lat="47.67458" lon="6.20159">
        <ele>308.60000610352</ele>
        <time>2012-07-11T10:41:10.000Z</time>
      </trkpt>
      <trkpt lat="47.67453" lon="6.20159">
        <ele>308.20001220703</ele>
        <time>2012-07-11T10:41:11.000Z</time>
      </trkpt>
      <trkpt lat="47.67448" lon="6.20158">
        <ele>307.79998779297</ele>
        <time>2012-07-11T10:41:12.000Z</time>
      </trkpt>
      <trkpt lat="47.67443" lon="6.20157">
        <ele>307.39999389648</ele>
        <time>2012-07-11T10:41:13.000Z</time>
      </trkpt>
      <trkpt lat="47.67438" lon="6.20156">
        <ele>307</ele>
        <time>2012-07-11T10:41:14.000Z</time>
      </trkpt>
      <trkpt lat="47.67434" lon="6.20156">
        <ele>306.60000610352</ele>
        <time>2012-07-11T10:41:15.000Z</time>
      </trkpt>
      <trkpt lat="47.67424" lon="6.20157">
        <ele>306.60000610352</ele>
        <time>2012-07-11T10:41:17.000Z</time>
      </trkpt>
      <trkpt lat="47.67407" lon="6.20162">
        <ele>306.60000610352</ele>
        <time>2012-07-11T10:41:21.000Z</time>
      </trkpt>
      <trkpt lat="47.67402" lon="6.20163">
        <ele>306.60000610352</ele>
        <time>2012-07-11T10:41:22.000Z</time>
      </trkpt>
      <trkpt lat="47.67399" lon="6.20165">
        <ele>306.20001220703</ele>
        <time>2012-07-11T10:41:23.000Z</time>
      </trkpt>
      <trkpt lat="47.67395" lon="6.20166">
        <ele>305.79998779297</ele>
        <time>2012-07-11T10:41:24.000Z</time>
      </trkpt>
      <trkpt lat="47.67391" lon="6.20168">
        <ele>305.39999389648</ele>
        <time>2012-07-11T10:41:25.000Z</time>
      </trkpt>
      <trkpt lat="47.67387" lon="6.20171">
        <ele>305</ele>
        <time>2012-07-11T10:41:26.000Z</time>
      </trkpt>
      <trkpt lat="47.67384" lon="6.20174">
        <ele>304.60000610352</ele>
        <time>2012-07-11T10:41:27.000Z</time>
      </trkpt>
      <trkpt lat="47.67373" lon="6.20182">
        <ele>304.60000610352</ele>
        <time>2012-07-11T10:41:30.000Z</time>
      </trkpt>
      <trkpt lat="47.67361" lon="6.2019">
        <ele>304.60000610352</ele>
        <time>2012-07-11T10:41:33.000Z</time>
      </trkpt>
      <trkpt lat="47.67338" lon="6.20206">
        <ele>304.60000610352</ele>
        <time>2012-07-11T10:41:39.000Z</time>
      </trkpt>
      <trkpt lat="47.67334" lon="6.20208">
        <ele>304.60000610352</ele>
        <time>2012-07-11T10:41:40.000Z</time>
      </trkpt>
      <trkpt lat="47.67305" lon="6.20235">
        <ele>304.60000610352</ele>
        <time>2012-07-11T10:41:48.000Z</time>
      </trkpt>
      <trkpt lat="47.67295" lon="6.20245">
        <ele>304.20001220703</ele>
        <time>2012-07-11T10:41:51.000Z</time>
      </trkpt>
      <trkpt lat="47.67291" lon="6.20249">
        <ele>303.60000610352</ele>
        <time>2012-07-11T10:41:52.000Z</time>
      </trkpt>
      <trkpt lat="47.67287" lon="6.20252">
        <ele>303.20001220703</ele>
        <time>2012-07-11T10:41:53.000Z</time>
      </trkpt>
      <trkpt lat="47.67284" lon="6.20255">
        <ele>302.79998779297</ele>
        <time>2012-07-11T10:41:54.000Z</time>
      </trkpt>
      <trkpt lat="47.6728" lon="6.20259">
        <ele>302.39999389648</ele>
        <time>2012-07-11T10:41:55.000Z</time>
      </trkpt>
      <trkpt lat="47.6726" lon="6.20273">
        <ele>302.39999389648</ele>
        <time>2012-07-11T10:42:01.000Z</time>
      </trkpt>
      <trkpt lat="47.67233" lon="6.20286">
        <ele>302.39999389648</ele>
        <time>2012-07-11T10:42:09.000Z</time>
      </trkpt>
      <trkpt lat="47.67222" lon="6.20299">
        <ele>302.39999389648</ele>
        <time>2012-07-11T10:42:13.000Z</time>
      </trkpt>
      <trkpt lat="47.67207" lon="6.20325">
        <ele>302.39999389648</ele>
        <time>2012-07-11T10:42:20.000Z</time>
      </trkpt>
      <trkpt lat="47.67194" lon="6.20357">
        <ele>302</ele>
        <time>2012-07-11T10:42:27.000Z</time>
      </trkpt>
      <trkpt lat="47.67191" lon="6.20361">
        <ele>301.60000610352</ele>
        <time>2012-07-11T10:42:28.000Z</time>
      </trkpt>
      <trkpt lat="47.67188" lon="6.20364">
        <ele>301.20001220703</ele>
        <time>2012-07-11T10:42:29.000Z</time>
      </trkpt>
      <trkpt lat="47.67185" lon="6.20367">
        <ele>300.79998779297</ele>
        <time>2012-07-11T10:42:30.000Z</time>
      </trkpt>
      <trkpt lat="47.67182" lon="6.20369">
        <ele>300.39999389648</ele>
        <time>2012-07-11T10:42:31.000Z</time>
      </trkpt>
      <trkpt lat="47.67178" lon="6.20371">
        <ele>300.39999389648</ele>
        <time>2012-07-11T10:42:32.000Z</time>
      </trkpt>
      <trkpt lat="47.67146" lon="6.20395">
        <ele>300.39999389648</ele>
        <time>2012-07-11T10:42:41.000Z</time>
      </trkpt>
      <trkpt lat="47.67139" lon="6.20403">
        <ele>300.39999389648</ele>
        <time>2012-07-11T10:42:43.000Z</time>
      </trkpt>
      <trkpt lat="47.67124" lon="6.20426">
        <ele>300.39999389648</ele>
        <time>2012-07-11T10:42:47.000Z</time>
      </trkpt>
      <trkpt lat="47.67105" lon="6.20455">
        <ele>300</ele>
        <time>2012-07-11T10:42:51.000Z</time>
      </trkpt>
      <trkpt lat="47.671" lon="6.20463">
        <ele>299.39999389648</ele>
        <time>2012-07-11T10:42:52.000Z</time>
      </trkpt>
      <trkpt lat="47.67095" lon="6.20472">
        <ele>298.79998779297</ele>
        <time>2012-07-11T10:42:53.000Z</time>
      </trkpt>
      <trkpt lat="47.67089" lon="6.20482">
        <ele>298.39999389648</ele>
        <time>2012-07-11T10:42:54.000Z</time>
      </trkpt>
      <trkpt lat="47.67083" lon="6.20491">
        <ele>297.79998779297</ele>
        <time>2012-07-11T10:42:55.000Z</time>
      </trkpt>
      <trkpt lat="47.67077" lon="6.20499">
        <ele>297.39999389648</ele>
        <time>2012-07-11T10:42:56.000Z</time>
      </trkpt>
      <trkpt lat="47.6707" lon="6.20508">
        <ele>297</ele>
        <time>2012-07-11T10:42:57.000Z</time>
      </trkpt>
      <trkpt lat="47.67064" lon="6.20516">
        <ele>296.60000610352</ele>
        <time>2012-07-11T10:42:58.000Z</time>
      </trkpt>
      <trkpt lat="47.67057" lon="6.20524">
        <ele>296</ele>
        <time>2012-07-11T10:42:59.000Z</time>
      </trkpt>
      <trkpt lat="47.67049" lon="6.20531">
        <ele>295.39999389648</ele>
        <time>2012-07-11T10:43:00.000Z</time>
      </trkpt>
      <trkpt lat="47.6704" lon="6.2054">
        <ele>294</ele>
        <time>2012-07-11T10:43:01.000Z</time>
      </trkpt>
      <trkpt lat="47.67032" lon="6.20547">
        <ele>293.39999389648</ele>
        <time>2012-07-11T10:43:02.000Z</time>
      </trkpt>
      <trkpt lat="47.67024" lon="6.20555">
        <ele>292.60000610352</ele>
        <time>2012-07-11T10:43:03.000Z</time>
      </trkpt>
      <trkpt lat="47.67017" lon="6.20563">
        <ele>291.79998779297</ele>
        <time>2012-07-11T10:43:04.000Z</time>
      </trkpt>
      <trkpt lat="47.67011" lon="6.20571">
        <ele>291</ele>
        <time>2012-07-11T10:43:05.000Z</time>
      </trkpt>
      <trkpt lat="47.67006" lon="6.2058">
        <ele>290</ele>
        <time>2012-07-11T10:43:06.000Z</time>
      </trkpt>
      <trkpt lat="47.67002" lon="6.20589">
        <ele>289.39999389648</ele>
        <time>2012-07-11T10:43:07.000Z</time>
      </trkpt>
      <trkpt lat="47.66998" lon="6.206">
        <ele>288.79998779297</ele>
        <time>2012-07-11T10:43:08.000Z</time>
      </trkpt>
      <trkpt lat="47.66994" lon="6.20613">
        <ele>287.79998779297</ele>
        <time>2012-07-11T10:43:09.000Z</time>
      </trkpt>
      <trkpt lat="47.66991" lon="6.20625">
        <ele>286.79998779297</ele>
        <time>2012-07-11T10:43:10.000Z</time>
      </trkpt>
      <trkpt lat="47.66988" lon="6.20635">
        <ele>285.79998779297</ele>
        <time>2012-07-11T10:43:11.000Z</time>
      </trkpt>
      <trkpt lat="47.66985" lon="6.20644">
        <ele>285</ele>
        <time>2012-07-11T10:43:12.000Z</time>
      </trkpt>
      <trkpt lat="47.66981" lon="6.20651">
        <ele>284.20001220703</ele>
        <time>2012-07-11T10:43:13.000Z</time>
      </trkpt>
      <trkpt lat="47.66977" lon="6.20657">
        <ele>283.39999389648</ele>
        <time>2012-07-11T10:43:14.000Z</time>
      </trkpt>
      <trkpt lat="47.66973" lon="6.20663">
        <ele>282.60000610352</ele>
        <time>2012-07-11T10:43:15.000Z</time>
      </trkpt>
      <trkpt lat="47.66969" lon="6.20667">
        <ele>282</ele>
        <time>2012-07-11T10:43:16.000Z</time>
      </trkpt>
      <trkpt lat="47.66965" lon="6.2067">
        <ele>281.39999389648</ele>
        <time>2012-07-11T10:43:17.000Z</time>
      </trkpt>
      <trkpt lat="47.66963" lon="6.20672">
        <ele>280.79998779297</ele>
        <time>2012-07-11T10:43:18.000Z</time>
      </trkpt>
      <trkpt lat="47.6696" lon="6.20674">
        <ele>280.20001220703</ele>
        <time>2012-07-11T10:43:19.000Z</time>
      </trkpt>
      <trkpt lat="47.66958" lon="6.20676">
        <ele>279.60000610352</ele>
        <time>2012-07-11T10:43:20.000Z</time>
      </trkpt>
      <trkpt lat="47.66951" lon="6.20682">
        <ele>279.20001220703</ele>
        <time>2012-07-11T10:43:23.000Z</time>
      </trkpt>
      <trkpt lat="47.66948" lon="6.20684">
        <ele>278.79998779297</ele>
        <time>2012-07-11T10:43:24.000Z</time>
      </trkpt>
      <trkpt lat="47.66946" lon="6.20686">
        <ele>278.39999389648</ele>
        <time>2012-07-11T10:43:25.000Z</time>
      </trkpt>
      <trkpt lat="47.66943" lon="6.20688">
        <ele>277.60000610352</ele>
        <time>2012-07-11T10:43:26.000Z</time>
      </trkpt>
      <trkpt lat="47.66935" lon="6.20696">
        <ele>277.60000610352</ele>
        <time>2012-07-11T10:43:29.000Z</time>
      </trkpt>
      <trkpt lat="47.66927" lon="6.20702">
        <ele>277</ele>
        <time>2012-07-11T10:43:31.000Z</time>
      </trkpt>
      <trkpt lat="47.66923" lon="6.20706">
        <ele>276.60000610352</ele>
        <time>2012-07-11T10:43:32.000Z</time>
      </trkpt>
      <trkpt lat="47.66919" lon="6.2071">
        <ele>276.20001220703</ele>
        <time>2012-07-11T10:43:33.000Z</time>
      </trkpt>
      <trkpt lat="47.66915" lon="6.20715">
        <ele>275.79998779297</ele>
        <time>2012-07-11T10:43:34.000Z</time>
      </trkpt>
      <trkpt lat="47.6691" lon="6.2072">
        <ele>275.39999389648</ele>
        <time>2012-07-11T10:43:35.000Z</time>
      </trkpt>
      <trkpt lat="47.66885" lon="6.2075">
        <ele>275</ele>
        <time>2012-07-11T10:43:40.000Z</time>
      </trkpt>
      <trkpt lat="47.6688" lon="6.20756">
        <ele>274.39999389648</ele>
        <time>2012-07-11T10:43:41.000Z</time>
      </trkpt>
      <trkpt lat="47.66876" lon="6.20762">
        <ele>274</ele>
        <time>2012-07-11T10:43:42.000Z</time>
      </trkpt>
      <trkpt lat="47.66872" lon="6.20768">
        <ele>273.60000610352</ele>
        <time>2012-07-11T10:43:43.000Z</time>
      </trkpt>
      <trkpt lat="47.66869" lon="6.20774">
        <ele>273.20001220703</ele>
        <time>2012-07-11T10:43:44.000Z</time>
      </trkpt>
      <trkpt lat="47.66865" lon="6.20781">
        <ele>273.20001220703</ele>
        <time>2012-07-11T10:43:45.000Z</time>
      </trkpt>
      <trkpt lat="47.66862" lon="6.20788">
        <ele>272.60000610352</ele>
        <time>2012-07-11T10:43:46.000Z</time>
      </trkpt>
      <trkpt lat="47.66858" lon="6.20795">
        <ele>272</ele>
        <time>2012-07-11T10:43:47.000Z</time>
      </trkpt>
      <trkpt lat="47.66854" lon="6.20801">
        <ele>271.60000610352</ele>
        <time>2012-07-11T10:43:48.000Z</time>
      </trkpt>
      <trkpt lat="47.6685" lon="6.20807">
        <ele>271</ele>
        <time>2012-07-11T10:43:49.000Z</time>
      </trkpt>
      <trkpt lat="47.66845" lon="6.20813">
        <ele>270.60000610352</ele>
        <time>2012-07-11T10:43:50.000Z</time>
      </trkpt>
      <trkpt lat="47.66838" lon="6.20819">
        <ele>269.60000610352</ele>
        <time>2012-07-11T10:43:51.000Z</time>
      </trkpt>
      <trkpt lat="47.66831" lon="6.20825">
        <ele>269</ele>
        <time>2012-07-11T10:43:52.000Z</time>
      </trkpt>
      <trkpt lat="47.66825" lon="6.20831">
        <ele>268.20001220703</ele>
        <time>2012-07-11T10:43:53.000Z</time>
      </trkpt>
      <trkpt lat="47.66819" lon="6.20837">
        <ele>267.60000610352</ele>
        <time>2012-07-11T10:43:54.000Z</time>
      </trkpt>
      <trkpt lat="47.66812" lon="6.20844">
        <ele>267</ele>
        <time>2012-07-11T10:43:55.000Z</time>
      </trkpt>
      <trkpt lat="47.66806" lon="6.20849">
        <ele>266.20001220703</ele>
        <time>2012-07-11T10:43:56.000Z</time>
      </trkpt>
      <trkpt lat="47.66799" lon="6.20854">
        <ele>265.39999389648</ele>
        <time>2012-07-11T10:43:57.000Z</time>
      </trkpt>
      <trkpt lat="47.66792" lon="6.2086">
        <ele>264.60000610352</ele>
        <time>2012-07-11T10:43:58.000Z</time>
      </trkpt>
      <trkpt lat="47.66785" lon="6.20866">
        <ele>263.79998779297</ele>
        <time>2012-07-11T10:43:59.000Z</time>
      </trkpt>
      <trkpt lat="47.66778" lon="6.20873">
        <ele>263.20001220703</ele>
        <time>2012-07-11T10:44:00.000Z</time>
      </trkpt>
      <trkpt lat="47.6677" lon="6.20879">
        <ele>262.39999389648</ele>
        <time>2012-07-11T10:44:01.000Z</time>
      </trkpt>
      <trkpt lat="47.66762" lon="6.20885">
        <ele>261.60000610352</ele>
        <time>2012-07-11T10:44:02.000Z</time>
      </trkpt>
      <trkpt lat="47.66753" lon="6.20891">
        <ele>261</ele>
        <time>2012-07-11T10:44:03.000Z</time>
      </trkpt>
      <trkpt lat="47.66745" lon="6.20896">
        <ele>260.20001220703</ele>
        <time>2012-07-11T10:44:04.000Z</time>
      </trkpt>
      <trkpt lat="47.66737" lon="6.209">
        <ele>259.39999389648</ele>
        <time>2012-07-11T10:44:05.000Z</time>
      </trkpt>
      <trkpt lat="47.66729" lon="6.20904">
        <ele>258.79998779297</ele>
        <time>2012-07-11T10:44:06.000Z</time>
      </trkpt>
      <trkpt lat="47.66712" lon="6.20914">
        <ele>258.39999389648</ele>
        <time>2012-07-11T10:44:08.000Z</time>
      </trkpt>
      <trkpt lat="47.66705" lon="6.20918">
        <ele>257.79998779297</ele>
        <time>2012-07-11T10:44:09.000Z</time>
      </trkpt>
      <trkpt lat="47.66698" lon="6.20922">
        <ele>257.39999389648</ele>
        <time>2012-07-11T10:44:10.000Z</time>
      </trkpt>
      <trkpt lat="47.66691" lon="6.20926">
        <ele>257</ele>
        <time>2012-07-11T10:44:11.000Z</time>
      </trkpt>
      <trkpt lat="47.66685" lon="6.2093">
        <ele>256.60000610352</ele>
        <time>2012-07-11T10:44:12.000Z</time>
      </trkpt>
      <trkpt lat="47.66675" lon="6.20936">
        <ele>256.20001220703</ele>
        <time>2012-07-11T10:44:14.000Z</time>
      </trkpt>
      <trkpt lat="47.6667" lon="6.20939">
        <ele>255.80000305176</ele>
        <time>2012-07-11T10:44:15.000Z</time>
      </trkpt>
      <trkpt lat="47.66665" lon="6.20942">
        <ele>254.80000305176</ele>
        <time>2012-07-11T10:44:16.000Z</time>
      </trkpt>
      <trkpt lat="47.66661" lon="6.20944">
        <ele>254.39999389648</ele>
        <time>2012-07-11T10:44:17.000Z</time>
      </trkpt>
      <trkpt lat="47.66656" lon="6.20946">
        <ele>254.39999389648</ele>
        <time>2012-07-11T10:44:18.000Z</time>
      </trkpt>
      <trkpt lat="47.66644" lon="6.2095">
        <ele>254.39999389648</ele>
        <time>2012-07-11T10:44:21.000Z</time>
      </trkpt>
      <trkpt lat="47.66618" lon="6.2096">
        <ele>254.39999389648</ele>
        <time>2012-07-11T10:44:28.000Z</time>
      </trkpt>
      <trkpt lat="47.66611" lon="6.20963">
        <ele>254.39999389648</ele>
        <time>2012-07-11T10:44:32.000Z</time>
      </trkpt>
      <trkpt lat="47.66609" lon="6.20963">
        <ele>253.60000610352</ele>
        <time>2012-07-11T10:44:55.000Z</time>
      </trkpt>
      <trkpt lat="47.66604" lon="6.20966">
        <ele>253.19999694824</ele>
        <time>2012-07-11T10:44:58.000Z</time>
      </trkpt>
      <trkpt lat="47.66602" lon="6.20967">
        <ele>252.80000305176</ele>
        <time>2012-07-11T10:44:59.000Z</time>
      </trkpt>
      <trkpt lat="47.666" lon="6.20968">
        <ele>252.39999389648</ele>
        <time>2012-07-11T10:45:00.000Z</time>
      </trkpt>
      <trkpt lat="47.66599" lon="6.20968">
        <ele>252</ele>
        <time>2012-07-11T10:45:01.000Z</time>
      </trkpt>
      <trkpt lat="47.66596" lon="6.20969">
        <ele>251.60000610352</ele>
        <time>2012-07-11T10:45:02.000Z</time>
      </trkpt>
      <trkpt lat="47.66591" lon="6.2097">
        <ele>251.60000610352</ele>
        <time>2012-07-11T10:45:04.000Z</time>
      </trkpt>
      <trkpt lat="47.66573" lon="6.20977">
        <ele>251.19999694824</ele>
        <time>2012-07-11T10:45:10.000Z</time>
      </trkpt>
      <trkpt lat="47.66569" lon="6.20979">
        <ele>250.80000305176</ele>
        <time>2012-07-11T10:45:11.000Z</time>
      </trkpt>
      <trkpt lat="47.66565" lon="6.20981">
        <ele>250.39999389648</ele>
        <time>2012-07-11T10:45:12.000Z</time>
      </trkpt>
      <trkpt lat="47.66562" lon="6.20983">
        <ele>250</ele>
        <time>2012-07-11T10:45:13.000Z</time>
      </trkpt>
      <trkpt lat="47.66558" lon="6.20985">
        <ele>249.60000610352</ele>
        <time>2012-07-11T10:45:14.000Z</time>
      </trkpt>
      <trkpt lat="47.66545" lon="6.20992">
        <ele>249.19999694824</ele>
        <time>2012-07-11T10:45:17.000Z</time>
      </trkpt>
      <trkpt lat="47.6654" lon="6.20994">
        <ele>248.80000305176</ele>
        <time>2012-07-11T10:45:18.000Z</time>
      </trkpt>
      <trkpt lat="47.66536" lon="6.20997">
        <ele>248.39999389648</ele>
        <time>2012-07-11T10:45:19.000Z</time>
      </trkpt>
      <trkpt lat="47.66531" lon="6.20999">
        <ele>247.80000305176</ele>
        <time>2012-07-11T10:45:20.000Z</time>
      </trkpt>
      <trkpt lat="47.66527" lon="6.21002">
        <ele>247.39999389648</ele>
        <time>2012-07-11T10:45:21.000Z</time>
      </trkpt>
      <trkpt lat="47.6651" lon="6.2101">
        <ele>247.39999389648</ele>
        <time>2012-07-11T10:45:24.000Z</time>
      </trkpt>
      <trkpt lat="47.66504" lon="6.21013">
        <ele>247</ele>
        <time>2012-07-11T10:45:25.000Z</time>
      </trkpt>
      <trkpt lat="47.66497" lon="6.21015">
        <ele>246.60000610352</ele>
        <time>2012-07-11T10:45:26.000Z</time>
      </trkpt>
      <trkpt lat="47.6649" lon="6.21017">
        <ele>246</ele>
        <time>2012-07-11T10:45:27.000Z</time>
      </trkpt>
      <trkpt lat="47.66484" lon="6.21019">
        <ele>245.60000610352</ele>
        <time>2012-07-11T10:45:28.000Z</time>
      </trkpt>
      <trkpt lat="47.66478" lon="6.21021">
        <ele>245</ele>
        <time>2012-07-11T10:45:29.000Z</time>
      </trkpt>
      <trkpt lat="47.66472" lon="6.21024">
        <ele>245</ele>
        <time>2012-07-11T10:45:30.000Z</time>
      </trkpt>
      <trkpt lat="47.66466" lon="6.21027">
        <ele>244.60000610352</ele>
        <time>2012-07-11T10:45:31.000Z</time>
      </trkpt>
      <trkpt lat="47.66461" lon="6.2103">
        <ele>244.19999694824</ele>
        <time>2012-07-11T10:45:32.000Z</time>
      </trkpt>
      <trkpt lat="47.66455" lon="6.21033">
        <ele>243.60000610352</ele>
        <time>2012-07-11T10:45:33.000Z</time>
      </trkpt>
      <trkpt lat="47.6645" lon="6.21037">
        <ele>243.19999694824</ele>
        <time>2012-07-11T10:45:34.000Z</time>
      </trkpt>
      <trkpt lat="47.66444" lon="6.2104">
        <ele>242.80000305176</ele>
        <time>2012-07-11T10:45:35.000Z</time>
      </trkpt>
      <trkpt lat="47.66438" lon="6.21043">
        <ele>242.39999389648</ele>
        <time>2012-07-11T10:45:36.000Z</time>
      </trkpt>
      <trkpt lat="47.66433" lon="6.21046">
        <ele>241.80000305176</ele>
        <time>2012-07-11T10:45:37.000Z</time>
      </trkpt>
      <trkpt lat="47.66428" lon="6.21047">
        <ele>241.39999389648</ele>
        <time>2012-07-11T10:45:38.000Z</time>
      </trkpt>
      <trkpt lat="47.66423" lon="6.21049">
        <ele>240.60000610352</ele>
        <time>2012-07-11T10:45:39.000Z</time>
      </trkpt>
      <trkpt lat="47.66418" lon="6.2105">
        <ele>240</ele>
        <time>2012-07-11T10:45:40.000Z</time>
      </trkpt>
      <trkpt lat="47.66415" lon="6.21051">
        <ele>239.39999389648</ele>
        <time>2012-07-11T10:45:41.000Z</time>
      </trkpt>
      <trkpt lat="47.66412" lon="6.21052">
        <ele>238.80000305176</ele>
        <time>2012-07-11T10:45:42.000Z</time>
      </trkpt>
      <trkpt lat="47.66409" lon="6.21051">
        <ele>238.19999694824</ele>
        <time>2012-07-11T10:45:43.000Z</time>
      </trkpt>
      <trkpt lat="47.66406" lon="6.2105">
        <ele>237.60000610352</ele>
        <time>2012-07-11T10:45:44.000Z</time>
      </trkpt>
      <trkpt lat="47.66404" lon="6.21049">
        <ele>237</ele>
        <time>2012-07-11T10:45:45.000Z</time>
      </trkpt>
      <trkpt lat="47.66401" lon="6.21047">
        <ele>236.39999389648</ele>
        <time>2012-07-11T10:45:46.000Z</time>
      </trkpt>
      <trkpt lat="47.66398" lon="6.21044">
        <ele>235.80000305176</ele>
        <time>2012-07-11T10:45:47.000Z</time>
      </trkpt>
      <trkpt lat="47.66397" lon="6.2104">
        <ele>235.39999389648</ele>
        <time>2012-07-11T10:45:48.000Z</time>
      </trkpt>
      <trkpt lat="47.66396" lon="6.21036">
        <ele>235</ele>
        <time>2012-07-11T10:45:49.000Z</time>
      </trkpt>
      <trkpt lat="47.66396" lon="6.21032">
        <ele>234.60000610352</ele>
        <time>2012-07-11T10:45:50.000Z</time>
      </trkpt>
      <trkpt lat="47.66396" lon="6.21029">
        <ele>234.19999694824</ele>
        <time>2012-07-11T10:45:51.000Z</time>
      </trkpt>
      <trkpt lat="47.66396" lon="6.21026">
        <ele>233.80000305176</ele>
        <time>2012-07-11T10:45:52.000Z</time>
      </trkpt>
      <trkpt lat="47.66397" lon="6.21013">
        <ele>233.80000305176</ele>
        <time>2012-07-11T10:45:56.000Z</time>
      </trkpt>
      <trkpt lat="47.66396" lon="6.20996">
        <ele>233.80000305176</ele>
        <time>2012-07-11T10:46:02.000Z</time>
      </trkpt>
      <trkpt lat="47.66394" lon="6.20984">
        <ele>234.39999389648</ele>
        <time>2012-07-11T10:46:06.000Z</time>
      </trkpt>
      <trkpt lat="47.66393" lon="6.20981">
        <ele>234.80000305176</ele>
        <time>2012-07-11T10:46:07.000Z</time>
      </trkpt>
      <trkpt lat="47.66393" lon="6.20978">
        <ele>235.19999694824</ele>
        <time>2012-07-11T10:46:08.000Z</time>
      </trkpt>
      <trkpt lat="47.66392" lon="6.20975">
        <ele>235.60000610352</ele>
        <time>2012-07-11T10:46:09.000Z</time>
      </trkpt>
      <trkpt lat="47.66392" lon="6.20972">
        <ele>236</ele>
        <time>2012-07-11T10:46:10.000Z</time>
      </trkpt>
      <trkpt lat="47.66388" lon="6.20964">
        <ele>236</ele>
        <time>2012-07-11T10:46:14.000Z</time>
      </trkpt>
      <trkpt lat="47.66386" lon="6.20971">
        <ele>236</ele>
        <time>2012-07-11T10:46:18.000Z</time>
      </trkpt>
      <trkpt lat="47.66393" lon="6.20972">
        <ele>236</ele>
        <time>2012-07-11T10:46:21.000Z</time>
      </trkpt>
      <trkpt lat="47.66399" lon="6.20962">
        <ele>236</ele>
        <time>2012-07-11T10:46:25.000Z</time>
      </trkpt>
      <trkpt lat="47.664" lon="6.20947">
        <ele>236</ele>
        <time>2012-07-11T10:46:30.000Z</time>
      </trkpt>
      <trkpt lat="47.664" lon="6.20944">
        <ele>236.39999389648</ele>
        <time>2012-07-11T10:46:31.000Z</time>
      </trkpt>
      <trkpt lat="47.664" lon="6.20942">
        <ele>236.80000305176</ele>
        <time>2012-07-11T10:46:32.000Z</time>
      </trkpt>
      <trkpt lat="47.664" lon="6.20939">
        <ele>237.19999694824</ele>
        <time>2012-07-11T10:46:33.000Z</time>
      </trkpt>
      <trkpt lat="47.664" lon="6.20936">
        <ele>237.60000610352</ele>
        <time>2012-07-11T10:46:34.000Z</time>
      </trkpt>
      <trkpt lat="47.664" lon="6.20933">
        <ele>238</ele>
        <time>2012-07-11T10:46:35.000Z</time>
      </trkpt>
      <trkpt lat="47.664" lon="6.20927">
        <ele>238</ele>
        <time>2012-07-11T10:46:37.000Z</time>
      </trkpt>
      <trkpt lat="47.66396" lon="6.20906">
        <ele>238</ele>
        <time>2012-07-11T10:46:44.000Z</time>
      </trkpt>
      <trkpt lat="47.66393" lon="6.20896">
        <ele>238.60000610352</ele>
        <time>2012-07-11T10:46:47.000Z</time>
      </trkpt>
      <trkpt lat="47.66392" lon="6.20894">
        <ele>239</ele>
        <time>2012-07-11T10:46:48.000Z</time>
      </trkpt>
      <trkpt lat="47.66391" lon="6.2089">
        <ele>239.39999389648</ele>
        <time>2012-07-11T10:46:49.000Z</time>
      </trkpt>
      <trkpt lat="47.6639" lon="6.20887">
        <ele>239.80000305176</ele>
        <time>2012-07-11T10:46:50.000Z</time>
      </trkpt>
      <trkpt lat="47.66389" lon="6.20884">
        <ele>240.19999694824</ele>
        <time>2012-07-11T10:46:51.000Z</time>
      </trkpt>
      <trkpt lat="47.66384" lon="6.20865">
        <ele>240.19999694824</ele>
        <time>2012-07-11T10:46:56.000Z</time>
      </trkpt>
      <trkpt lat="47.66381" lon="6.20832">
        <ele>240.19999694824</ele>
        <time>2012-07-11T10:47:03.000Z</time>
      </trkpt>
      <trkpt lat="47.6638" lon="6.20821">
        <ele>240.19999694824</ele>
        <time>2012-07-11T10:47:06.000Z</time>
      </trkpt>
      <trkpt lat="47.66376" lon="6.20815">
        <ele>240.19999694824</ele>
        <time>2012-07-11T10:47:08.000Z</time>
      </trkpt>
      <trkpt lat="47.66373" lon="6.20808">
        <ele>240.19999694824</ele>
        <time>2012-07-11T10:47:10.000Z</time>
      </trkpt>
      <trkpt lat="47.66367" lon="6.20797">
        <ele>240.19999694824</ele>
        <time>2012-07-11T10:47:14.000Z</time>
      </trkpt>
      <trkpt lat="47.6636" lon="6.20776">
        <ele>240.19999694824</ele>
        <time>2012-07-11T10:47:21.000Z</time>
      </trkpt>
      <trkpt lat="47.66359" lon="6.20769">
        <ele>240.19999694824</ele>
        <time>2012-07-11T10:47:23.000Z</time>
      </trkpt>
      <trkpt lat="47.66357" lon="6.20763">
        <ele>240.60000610352</ele>
        <time>2012-07-11T10:47:25.000Z</time>
      </trkpt>
      <trkpt lat="47.66356" lon="6.2076">
        <ele>241</ele>
        <time>2012-07-11T10:47:26.000Z</time>
      </trkpt>
      <trkpt lat="47.66355" lon="6.20757">
        <ele>241.39999389648</ele>
        <time>2012-07-11T10:47:27.000Z</time>
      </trkpt>
      <trkpt lat="47.66353" lon="6.20755">
        <ele>242</ele>
        <time>2012-07-11T10:47:28.000Z</time>
      </trkpt>
      <trkpt lat="47.66352" lon="6.20752">
        <ele>242.39999389648</ele>
        <time>2012-07-11T10:47:29.000Z</time>
      </trkpt>
      <trkpt lat="47.66346" lon="6.20744">
        <ele>242.39999389648</ele>
        <time>2012-07-11T10:47:33.000Z</time>
      </trkpt>
      <trkpt lat="47.66336" lon="6.20737">
        <ele>242.80000305176</ele>
        <time>2012-07-11T10:47:39.000Z</time>
      </trkpt>
      <trkpt lat="47.66334" lon="6.20736">
        <ele>243.19999694824</ele>
        <time>2012-07-11T10:47:40.000Z</time>
      </trkpt>
      <trkpt lat="47.66332" lon="6.20736">
        <ele>243.60000610352</ele>
        <time>2012-07-11T10:47:41.000Z</time>
      </trkpt>
      <trkpt lat="47.6633" lon="6.20735">
        <ele>244</ele>
        <time>2012-07-11T10:47:42.000Z</time>
      </trkpt>
      <trkpt lat="47.66328" lon="6.20734">
        <ele>244.39999389648</ele>
        <time>2012-07-11T10:47:43.000Z</time>
      </trkpt>
      <trkpt lat="47.66321" lon="6.20732">
        <ele>244.39999389648</ele>
        <time>2012-07-11T10:47:47.000Z</time>
      </trkpt>
      <trkpt lat="47.66309" lon="6.2073">
        <ele>244.80000305176</ele>
        <time>2012-07-11T10:47:53.000Z</time>
      </trkpt>
      <trkpt lat="47.66306" lon="6.2073">
        <ele>245.19999694824</ele>
        <time>2012-07-11T10:47:54.000Z</time>
      </trkpt>
      <trkpt lat="47.66304" lon="6.20729">
        <ele>245.60000610352</ele>
        <time>2012-07-11T10:47:55.000Z</time>
      </trkpt>
      <trkpt lat="47.66302" lon="6.20729">
        <ele>246</ele>
        <time>2012-07-11T10:47:56.000Z</time>
      </trkpt>
      <trkpt lat="47.66301" lon="6.20729">
        <ele>246.39999389648</ele>
        <time>2012-07-11T10:47:57.000Z</time>
      </trkpt>
      <trkpt lat="47.66293" lon="6.20726">
        <ele>246.39999389648</ele>
        <time>2012-07-11T10:48:01.000Z</time>
      </trkpt>
      <trkpt lat="47.66281" lon="6.20722">
        <ele>246.39999389648</ele>
        <time>2012-07-11T10:48:08.000Z</time>
      </trkpt>
      <trkpt lat="47.66278" lon="6.20722">
        <ele>246.80000305176</ele>
        <time>2012-07-11T10:48:10.000Z</time>
      </trkpt>
      <trkpt lat="47.66276" lon="6.20721">
        <ele>247.19999694824</ele>
        <time>2012-07-11T10:48:11.000Z</time>
      </trkpt>
      <trkpt lat="47.66275" lon="6.2072">
        <ele>247.80000305176</ele>
        <time>2012-07-11T10:48:12.000Z</time>
      </trkpt>
      <trkpt lat="47.66273" lon="6.2072">
        <ele>248.19999694824</ele>
        <time>2012-07-11T10:48:13.000Z</time>
      </trkpt>
      <trkpt lat="47.66271" lon="6.20718">
        <ele>248.60000610352</ele>
        <time>2012-07-11T10:48:14.000Z</time>
      </trkpt>
      <trkpt lat="47.6627" lon="6.20717">
        <ele>248.60000610352</ele>
        <time>2012-07-11T10:48:15.000Z</time>
      </trkpt>
      <trkpt lat="47.6626" lon="6.20711">
        <ele>248.60000610352</ele>
        <time>2012-07-11T10:48:22.000Z</time>
      </trkpt>
      <trkpt lat="47.66259" lon="6.2071">
        <ele>249</ele>
        <time>2012-07-11T10:48:23.000Z</time>
      </trkpt>
      <trkpt lat="47.66258" lon="6.20709">
        <ele>249.80000305176</ele>
        <time>2012-07-11T10:48:24.000Z</time>
      </trkpt>
      <trkpt lat="47.66257" lon="6.20707">
        <ele>250.19999694824</ele>
        <time>2012-07-11T10:48:25.000Z</time>
      </trkpt>
      <trkpt lat="47.66255" lon="6.20706">
        <ele>250.80000305176</ele>
        <time>2012-07-11T10:48:26.000Z</time>
      </trkpt>
      <trkpt lat="47.66255" lon="6.20704">
        <ele>250.80000305176</ele>
        <time>2012-07-11T10:48:27.000Z</time>
      </trkpt>
      <trkpt lat="47.66251" lon="6.207">
        <ele>250.80000305176</ele>
        <time>2012-07-11T10:48:30.000Z</time>
      </trkpt>
      <trkpt lat="47.66249" lon="6.20696">
        <ele>250.80000305176</ele>
        <time>2012-07-11T10:48:32.000Z</time>
      </trkpt>
      <trkpt lat="47.66248" lon="6.20695">
        <ele>250.80000305176</ele>
        <time>2012-07-11T10:48:33.000Z</time>
      </trkpt>
      <trkpt lat="47.66246" lon="6.20691">
        <ele>250.80000305176</ele>
        <time>2012-07-11T10:48:36.000Z</time>
      </trkpt>
      <trkpt lat="47.66244" lon="6.20687">
        <ele>250.80000305176</ele>
        <time>2012-07-11T10:48:39.000Z</time>
      </trkpt>
      <trkpt lat="47.66242" lon="6.20686">
        <ele>250.80000305176</ele>
        <time>2012-07-11T10:48:41.000Z</time>
      </trkpt>
      <trkpt lat="47.66241" lon="6.20685">
        <ele>251.19999694824</ele>
        <time>2012-07-11T10:48:42.000Z</time>
      </trkpt>
      <trkpt lat="47.6624" lon="6.20685">
        <ele>251.60000610352</ele>
        <time>2012-07-11T10:48:43.000Z</time>
      </trkpt>
      <trkpt lat="47.66239" lon="6.20684">
        <ele>252</ele>
        <time>2012-07-11T10:48:44.000Z</time>
      </trkpt>
      <trkpt lat="47.66238" lon="6.20683">
        <ele>252.39999389648</ele>
        <time>2012-07-11T10:48:45.000Z</time>
      </trkpt>
      <trkpt lat="47.66237" lon="6.20682">
        <ele>252.80000305176</ele>
        <time>2012-07-11T10:48:46.000Z</time>
      </trkpt>
      <trkpt lat="47.66233" lon="6.20677">
        <ele>253.19999694824</ele>
        <time>2012-07-11T10:48:50.000Z</time>
      </trkpt>
      <trkpt lat="47.66232" lon="6.20675">
        <ele>253.60000610352</ele>
        <time>2012-07-11T10:48:51.000Z</time>
      </trkpt>
      <trkpt lat="47.66231" lon="6.20674">
        <ele>254</ele>
        <time>2012-07-11T10:48:52.000Z</time>
      </trkpt>
      <trkpt lat="47.6623" lon="6.20672">
        <ele>254.39999389648</ele>
        <time>2012-07-11T10:48:53.000Z</time>
      </trkpt>
      <trkpt lat="47.66229" lon="6.2067">
        <ele>254.80000305176</ele>
        <time>2012-07-11T10:48:54.000Z</time>
      </trkpt>
      <trkpt lat="47.66227" lon="6.20668">
        <ele>254.80000305176</ele>
        <time>2012-07-11T10:48:56.000Z</time>
      </trkpt>
      <trkpt lat="47.66224" lon="6.20662">
        <ele>254.80000305176</ele>
        <time>2012-07-11T10:49:00.000Z</time>
      </trkpt>
      <trkpt lat="47.66224" lon="6.20661">
        <ele>255.39999389648</ele>
        <time>2012-07-11T10:49:01.000Z</time>
      </trkpt>
      <trkpt lat="47.66224" lon="6.20659">
        <ele>255.80000305176</ele>
        <time>2012-07-11T10:49:02.000Z</time>
      </trkpt>
      <trkpt lat="47.66223" lon="6.20657">
        <ele>256.20001220703</ele>
        <time>2012-07-11T10:49:03.000Z</time>
      </trkpt>
      <trkpt lat="47.66223" lon="6.20655">
        <ele>256.60000610352</ele>
        <time>2012-07-11T10:49:04.000Z</time>
      </trkpt>
      <trkpt lat="47.66222" lon="6.20654">
        <ele>257.20001220703</ele>
        <time>2012-07-11T10:49:05.000Z</time>
      </trkpt>
      <trkpt lat="47.66217" lon="6.20647">
        <ele>257.20001220703</ele>
        <time>2012-07-11T10:49:11.000Z</time>
      </trkpt>
      <trkpt lat="47.66216" lon="6.20644">
        <ele>257.60000610352</ele>
        <time>2012-07-11T10:49:13.000Z</time>
      </trkpt>
      <trkpt lat="47.66215" lon="6.20643">
        <ele>258</ele>
        <time>2012-07-11T10:49:14.000Z</time>
      </trkpt>
      <trkpt lat="47.66214" lon="6.20642">
        <ele>258.39999389648</ele>
        <time>2012-07-11T10:49:15.000Z</time>
      </trkpt>
      <trkpt lat="47.66213" lon="6.20641">
        <ele>258.79998779297</ele>
        <time>2012-07-11T10:49:16.000Z</time>
      </trkpt>
      <trkpt lat="47.66212" lon="6.2064">
        <ele>259.20001220703</ele>
        <time>2012-07-11T10:49:17.000Z</time>
      </trkpt>
      <trkpt lat="47.66211" lon="6.20639">
        <ele>259.20001220703</ele>
        <time>2012-07-11T10:49:18.000Z</time>
      </trkpt>
      <trkpt lat="47.66208" lon="6.20635">
        <ele>259.20001220703</ele>
        <time>2012-07-11T10:49:22.000Z</time>
      </trkpt>
      <trkpt lat="47.66207" lon="6.20635">
        <ele>259.20001220703</ele>
        <time>2012-07-11T10:49:23.000Z</time>
      </trkpt>
      <trkpt lat="47.66205" lon="6.20634">
        <ele>259.20001220703</ele>
        <time>2012-07-11T10:49:24.000Z</time>
      </trkpt>
      <trkpt lat="47.66204" lon="6.20632">
        <ele>259.60000610352</ele>
        <time>2012-07-11T10:49:25.000Z</time>
      </trkpt>
      <trkpt lat="47.66203" lon="6.20631">
        <ele>260</ele>
        <time>2012-07-11T10:49:26.000Z</time>
      </trkpt>
      <trkpt lat="47.66202" lon="6.2063">
        <ele>260.39999389648</ele>
        <time>2012-07-11T10:49:27.000Z</time>
      </trkpt>
      <trkpt lat="47.66201" lon="6.2063">
        <ele>260.79998779297</ele>
        <time>2012-07-11T10:49:28.000Z</time>
      </trkpt>
      <trkpt lat="47.662" lon="6.20629">
        <ele>261.20001220703</ele>
        <time>2012-07-11T10:49:29.000Z</time>
      </trkpt>
      <trkpt lat="47.66193" lon="6.20624">
        <ele>261.20001220703</ele>
        <time>2012-07-11T10:49:36.000Z</time>
      </trkpt>
      <trkpt lat="47.66191" lon="6.20623">
        <ele>261.20001220703</ele>
        <time>2012-07-11T10:49:38.000Z</time>
      </trkpt>
      <trkpt lat="47.66185" lon="6.20619">
        <ele>261.60000610352</ele>
        <time>2012-07-11T10:49:43.000Z</time>
      </trkpt>
      <trkpt lat="47.66185" lon="6.20618">
        <ele>262</ele>
        <time>2012-07-11T10:49:44.000Z</time>
      </trkpt>
      <trkpt lat="47.66184" lon="6.20617">
        <ele>262.39999389648</ele>
        <time>2012-07-11T10:49:45.000Z</time>
      </trkpt>
      <trkpt lat="47.66183" lon="6.20616">
        <ele>262.79998779297</ele>
        <time>2012-07-11T10:49:46.000Z</time>
      </trkpt>
      <trkpt lat="47.66182" lon="6.20615">
        <ele>263.20001220703</ele>
        <time>2012-07-11T10:49:47.000Z</time>
      </trkpt>
      <trkpt lat="47.6618" lon="6.20615">
        <ele>263.20001220703</ele>
        <time>2012-07-11T10:49:48.000Z</time>
      </trkpt>
      <trkpt lat="47.66171" lon="6.2061">
        <ele>263.60000610352</ele>
        <time>2012-07-11T10:49:56.000Z</time>
      </trkpt>
      <trkpt lat="47.6617" lon="6.20609">
        <ele>264</ele>
        <time>2012-07-11T10:49:57.000Z</time>
      </trkpt>
      <trkpt lat="47.66169" lon="6.20609">
        <ele>264.39999389648</ele>
        <time>2012-07-11T10:49:58.000Z</time>
      </trkpt>
      <trkpt lat="47.66168" lon="6.20608">
        <ele>264.79998779297</ele>
        <time>2012-07-11T10:49:59.000Z</time>
      </trkpt>
      <trkpt lat="47.66167" lon="6.20608">
        <ele>265.20001220703</ele>
        <time>2012-07-11T10:50:00.000Z</time>
      </trkpt>
      <trkpt lat="47.66162" lon="6.20604">
        <ele>265.20001220703</ele>
        <time>2012-07-11T10:50:04.000Z</time>
      </trkpt>
      <trkpt lat="47.66161" lon="6.20604">
        <ele>265.20001220703</ele>
        <time>2012-07-11T10:50:05.000Z</time>
      </trkpt>
      <trkpt lat="47.66155" lon="6.20602">
        <ele>265.20001220703</ele>
        <time>2012-07-11T10:50:10.000Z</time>
      </trkpt>
      <trkpt lat="47.66153" lon="6.20601">
        <ele>265.20001220703</ele>
        <time>2012-07-11T10:50:25.000Z</time>
      </trkpt>
      <trkpt lat="47.66141" lon="6.20597">
        <ele>265.20001220703</ele>
        <time>2012-07-11T10:50:30.000Z</time>
      </trkpt>
      <trkpt lat="47.66139" lon="6.20596">
        <ele>265.20001220703</ele>
        <time>2012-07-11T10:50:31.000Z</time>
      </trkpt>
      <trkpt lat="47.66117" lon="6.20583">
        <ele>265.20001220703</ele>
        <time>2012-07-11T10:50:37.000Z</time>
      </trkpt>
      <trkpt lat="47.66087" lon="6.20566">
        <ele>265.20001220703</ele>
        <time>2012-07-11T10:50:45.000Z</time>
      </trkpt>
      <trkpt lat="47.66063" lon="6.20553">
        <ele>265.20001220703</ele>
        <time>2012-07-11T10:50:52.000Z</time>
      </trkpt>
      <trkpt lat="47.66047" lon="6.20544">
        <ele>265.20001220703</ele>
        <time>2012-07-11T10:50:57.000Z</time>
      </trkpt>
      <trkpt lat="47.66031" lon="6.20533">
        <ele>265.20001220703</ele>
        <time>2012-07-11T10:51:01.000Z</time>
      </trkpt>
      <trkpt lat="47.66021" lon="6.20527">
        <ele>265.20001220703</ele>
        <time>2012-07-11T10:51:04.000Z</time>
      </trkpt>
      <trkpt lat="47.65998" lon="6.20517">
        <ele>265.20001220703</ele>
        <time>2012-07-11T10:51:11.000Z</time>
      </trkpt>
      <trkpt lat="47.65982" lon="6.20508">
        <ele>265.20001220703</ele>
        <time>2012-07-11T10:51:17.000Z</time>
      </trkpt>
      <trkpt lat="47.65967" lon="6.20496">
        <ele>265.20001220703</ele>
        <time>2012-07-11T10:51:23.000Z</time>
      </trkpt>
      <trkpt lat="47.6595" lon="6.20484">
        <ele>265.20001220703</ele>
        <time>2012-07-11T10:51:30.000Z</time>
      </trkpt>
      <trkpt lat="47.65932" lon="6.20474">
        <ele>265.20001220703</ele>
        <time>2012-07-11T10:51:36.000Z</time>
      </trkpt>
      <trkpt lat="47.65907" lon="6.20452">
        <ele>265.20001220703</ele>
        <time>2012-07-11T10:51:45.000Z</time>
      </trkpt>
      <trkpt lat="47.65891" lon="6.20436">
        <ele>265.20001220703</ele>
        <time>2012-07-11T10:51:52.000Z</time>
      </trkpt>
      <trkpt lat="47.6587" lon="6.20416">
        <ele>265.20001220703</ele>
        <time>2012-07-11T10:51:59.000Z</time>
      </trkpt>
      <trkpt lat="47.65844" lon="6.20393">
        <ele>265.20001220703</ele>
        <time>2012-07-11T10:52:06.000Z</time>
      </trkpt>
      <trkpt lat="47.65823" lon="6.20372">
        <ele>265.20001220703</ele>
        <time>2012-07-11T10:52:12.000Z</time>
      </trkpt>
      <trkpt lat="47.65801" lon="6.20347">
        <ele>265.20001220703</ele>
        <time>2012-07-11T10:52:19.000Z</time>
      </trkpt>
      <trkpt lat="47.65788" lon="6.20333">
        <ele>265.20001220703</ele>
        <time>2012-07-11T10:52:25.000Z</time>
      </trkpt>
      <trkpt lat="47.65779" lon="6.20323">
        <ele>265.20001220703</ele>
        <time>2012-07-11T10:52:30.000Z</time>
      </trkpt>
      <trkpt lat="47.65777" lon="6.20321">
        <ele>265.60000610352</ele>
        <time>2012-07-11T10:52:31.000Z</time>
      </trkpt>
      <trkpt lat="47.65775" lon="6.2032">
        <ele>266</ele>
        <time>2012-07-11T10:52:32.000Z</time>
      </trkpt>
      <trkpt lat="47.65773" lon="6.20318">
        <ele>266.39999389648</ele>
        <time>2012-07-11T10:52:33.000Z</time>
      </trkpt>
      <trkpt lat="47.65771" lon="6.20316">
        <ele>266.79998779297</ele>
        <time>2012-07-11T10:52:34.000Z</time>
      </trkpt>
      <trkpt lat="47.65769" lon="6.20315">
        <ele>267.20001220703</ele>
        <time>2012-07-11T10:52:35.000Z</time>
      </trkpt>
      <trkpt lat="47.65757" lon="6.20302">
        <ele>267.20001220703</ele>
        <time>2012-07-11T10:52:41.000Z</time>
      </trkpt>
      <trkpt lat="47.65748" lon="6.20291">
        <ele>267.20001220703</ele>
        <time>2012-07-11T10:52:47.000Z</time>
      </trkpt>
      <trkpt lat="47.65746" lon="6.20289">
        <ele>267.20001220703</ele>
        <time>2012-07-11T10:52:48.000Z</time>
      </trkpt>
      <trkpt lat="47.65741" lon="6.20282">
        <ele>267.20001220703</ele>
        <time>2012-07-11T10:52:51.000Z</time>
      </trkpt>
      <trkpt lat="47.65735" lon="6.20276">
        <ele>267.20001220703</ele>
        <time>2012-07-11T10:52:54.000Z</time>
      </trkpt>
      <trkpt lat="47.6573" lon="6.20269">
        <ele>267.60000610352</ele>
        <time>2012-07-11T10:52:57.000Z</time>
      </trkpt>
      <trkpt lat="47.65728" lon="6.20268">
        <ele>268</ele>
        <time>2012-07-11T10:52:58.000Z</time>
      </trkpt>
      <trkpt lat="47.65726" lon="6.20267">
        <ele>268.60000610352</ele>
        <time>2012-07-11T10:52:59.000Z</time>
      </trkpt>
      <trkpt lat="47.65725" lon="6.20266">
        <ele>269</ele>
        <time>2012-07-11T10:53:00.000Z</time>
      </trkpt>
      <trkpt lat="47.65723" lon="6.20265">
        <ele>269.39999389648</ele>
        <time>2012-07-11T10:53:01.000Z</time>
      </trkpt>
      <trkpt lat="47.65715" lon="6.20256">
        <ele>269.79998779297</ele>
        <time>2012-07-11T10:53:07.000Z</time>
      </trkpt>
      <trkpt lat="47.65714" lon="6.20254">
        <ele>270.20001220703</ele>
        <time>2012-07-11T10:53:08.000Z</time>
      </trkpt>
      <trkpt lat="47.65712" lon="6.20253">
        <ele>270.79998779297</ele>
        <time>2012-07-11T10:53:09.000Z</time>
      </trkpt>
      <trkpt lat="47.65711" lon="6.20251">
        <ele>271.20001220703</ele>
        <time>2012-07-11T10:53:10.000Z</time>
      </trkpt>
      <trkpt lat="47.65709" lon="6.20249">
        <ele>271.60000610352</ele>
        <time>2012-07-11T10:53:11.000Z</time>
      </trkpt>
      <trkpt lat="47.65702" lon="6.20241">
        <ele>271.60000610352</ele>
        <time>2012-07-11T10:53:15.000Z</time>
      </trkpt>
      <trkpt lat="47.65693" lon="6.20227">
        <ele>271.60000610352</ele>
        <time>2012-07-11T10:53:21.000Z</time>
      </trkpt>
      <trkpt lat="47.65681" lon="6.20215">
        <ele>271.60000610352</ele>
        <time>2012-07-11T10:53:27.000Z</time>
      </trkpt>
      <trkpt lat="47.65669" lon="6.202">
        <ele>271.60000610352</ele>
        <time>2012-07-11T10:53:34.000Z</time>
      </trkpt>
      <trkpt lat="47.65666" lon="6.20197">
        <ele>271.60000610352</ele>
        <time>2012-07-11T10:53:36.000Z</time>
      </trkpt>
      <trkpt lat="47.65663" lon="6.20191">
        <ele>271.60000610352</ele>
        <time>2012-07-11T10:53:39.000Z</time>
      </trkpt>
      <trkpt lat="47.65662" lon="6.2019">
        <ele>271.60000610352</ele>
        <time>2012-07-11T10:53:40.000Z</time>
      </trkpt>
      <trkpt lat="47.65653" lon="6.20182">
        <ele>271.60000610352</ele>
        <time>2012-07-11T10:53:45.000Z</time>
      </trkpt>
      <trkpt lat="47.65647" lon="6.20171">
        <ele>271.60000610352</ele>
        <time>2012-07-11T10:53:50.000Z</time>
      </trkpt>
      <trkpt lat="47.65641" lon="6.20162">
        <ele>271.60000610352</ele>
        <time>2012-07-11T10:53:54.000Z</time>
      </trkpt>
      <trkpt lat="47.65635" lon="6.20159">
        <ele>271.60000610352</ele>
        <time>2012-07-11T10:53:57.000Z</time>
      </trkpt>
      <trkpt lat="47.65633" lon="6.20159">
        <ele>271.60000610352</ele>
        <time>2012-07-11T10:53:58.000Z</time>
      </trkpt>
      <trkpt lat="47.65628" lon="6.20153">
        <ele>271.60000610352</ele>
        <time>2012-07-11T10:54:01.000Z</time>
      </trkpt>
      <trkpt lat="47.65615" lon="6.20137">
        <ele>271.60000610352</ele>
        <time>2012-07-11T10:54:07.000Z</time>
      </trkpt>
      <trkpt lat="47.65602" lon="6.20124">
        <ele>271.60000610352</ele>
        <time>2012-07-11T10:54:13.000Z</time>
      </trkpt>
      <trkpt lat="47.65584" lon="6.20105">
        <ele>271.60000610352</ele>
        <time>2012-07-11T10:54:20.000Z</time>
      </trkpt>
      <trkpt lat="47.65558" lon="6.20079">
        <ele>271.60000610352</ele>
        <time>2012-07-11T10:54:28.000Z</time>
      </trkpt>
      <trkpt lat="47.65544" lon="6.20062">
        <ele>271.20001220703</ele>
        <time>2012-07-11T10:54:33.000Z</time>
      </trkpt>
      <trkpt lat="47.65541" lon="6.20058">
        <ele>270.79998779297</ele>
        <time>2012-07-11T10:54:34.000Z</time>
      </trkpt>
      <trkpt lat="47.65538" lon="6.20054">
        <ele>270.39999389648</ele>
        <time>2012-07-11T10:54:35.000Z</time>
      </trkpt>
      <trkpt lat="47.65535" lon="6.20051">
        <ele>270</ele>
        <time>2012-07-11T10:54:36.000Z</time>
      </trkpt>
      <trkpt lat="47.65532" lon="6.20047">
        <ele>269.60000610352</ele>
        <time>2012-07-11T10:54:37.000Z</time>
      </trkpt>
      <trkpt lat="47.65523" lon="6.20034">
        <ele>269.60000610352</ele>
        <time>2012-07-11T10:54:41.000Z</time>
      </trkpt>
      <trkpt lat="47.65512" lon="6.20017">
        <ele>269.60000610352</ele>
        <time>2012-07-11T10:54:47.000Z</time>
      </trkpt>
      <trkpt lat="47.65497" lon="6.19995">
        <ele>269.60000610352</ele>
        <time>2012-07-11T10:54:54.000Z</time>
      </trkpt>
      <trkpt lat="47.65479" lon="6.19966">
        <ele>269.60000610352</ele>
        <time>2012-07-11T10:55:01.000Z</time>
      </trkpt>
      <trkpt lat="47.65464" lon="6.19939">
        <ele>269.60000610352</ele>
        <time>2012-07-11T10:55:08.000Z</time>
      </trkpt>
      <trkpt lat="47.65456" lon="6.19916">
        <ele>269.60000610352</ele>
        <time>2012-07-11T10:55:14.000Z</time>
      </trkpt>
      <trkpt lat="47.65443" lon="6.19885">
        <ele>269.60000610352</ele>
        <time>2012-07-11T10:55:21.000Z</time>
      </trkpt>
      <trkpt lat="47.65436" lon="6.19865">
        <ele>269.60000610352</ele>
        <time>2012-07-11T10:55:27.000Z</time>
      </trkpt>
      <trkpt lat="47.65429" lon="6.19844">
        <ele>269.60000610352</ele>
        <time>2012-07-11T10:55:32.000Z</time>
      </trkpt>
      <trkpt lat="47.65413" lon="6.1982">
        <ele>269.60000610352</ele>
        <time>2012-07-11T10:55:38.000Z</time>
      </trkpt>
      <trkpt lat="47.65395" lon="6.19793">
        <ele>269</ele>
        <time>2012-07-11T10:55:45.000Z</time>
      </trkpt>
      <trkpt lat="47.65392" lon="6.19788">
        <ele>268.60000610352</ele>
        <time>2012-07-11T10:55:46.000Z</time>
      </trkpt>
      <trkpt lat="47.6539" lon="6.19784">
        <ele>267.79998779297</ele>
        <time>2012-07-11T10:55:47.000Z</time>
      </trkpt>
      <trkpt lat="47.65388" lon="6.1978">
        <ele>267.39999389648</ele>
        <time>2012-07-11T10:55:48.000Z</time>
      </trkpt>
      <trkpt lat="47.65381" lon="6.19763">
        <ele>267.39999389648</ele>
        <time>2012-07-11T10:55:52.000Z</time>
      </trkpt>
      <trkpt lat="47.65366" lon="6.19733">
        <ele>267.39999389648</ele>
        <time>2012-07-11T10:55:58.000Z</time>
      </trkpt>
      <trkpt lat="47.6535" lon="6.19695">
        <ele>267.39999389648</ele>
        <time>2012-07-11T10:56:04.000Z</time>
      </trkpt>
      <trkpt lat="47.65335" lon="6.19659">
        <ele>267.39999389648</ele>
        <time>2012-07-11T10:56:11.000Z</time>
      </trkpt>
      <trkpt lat="47.65333" lon="6.19655">
        <ele>267</ele>
        <time>2012-07-11T10:56:12.000Z</time>
      </trkpt>
      <trkpt lat="47.65331" lon="6.1965">
        <ele>266.60000610352</ele>
        <time>2012-07-11T10:56:13.000Z</time>
      </trkpt>
      <trkpt lat="47.65329" lon="6.19646">
        <ele>266.20001220703</ele>
        <time>2012-07-11T10:56:14.000Z</time>
      </trkpt>
      <trkpt lat="47.65326" lon="6.19641">
        <ele>265.60000610352</ele>
        <time>2012-07-11T10:56:15.000Z</time>
      </trkpt>
      <trkpt lat="47.65324" lon="6.19636">
        <ele>265.20001220703</ele>
        <time>2012-07-11T10:56:16.000Z</time>
      </trkpt>
      <trkpt lat="47.65321" lon="6.19633">
        <ele>265.20001220703</ele>
        <time>2012-07-11T10:56:17.000Z</time>
      </trkpt>
      <trkpt lat="47.65311" lon="6.19613">
        <ele>265.20001220703</ele>
        <time>2012-07-11T10:56:21.000Z</time>
      </trkpt>
      <trkpt lat="47.65307" lon="6.19602">
        <ele>265.20001220703</ele>
        <time>2012-07-11T10:56:23.000Z</time>
      </trkpt>
      <trkpt lat="47.65298" lon="6.1958">
        <ele>265.20001220703</ele>
        <time>2012-07-11T10:56:28.000Z</time>
      </trkpt>
      <trkpt lat="47.65292" lon="6.19566">
        <ele>265.20001220703</ele>
        <time>2012-07-11T10:56:33.000Z</time>
      </trkpt>
      <trkpt lat="47.65289" lon="6.19551">
        <ele>265.60000610352</ele>
        <time>2012-07-11T10:56:37.000Z</time>
      </trkpt>
      <trkpt lat="47.65289" lon="6.19547">
        <ele>266.20001220703</ele>
        <time>2012-07-11T10:56:38.000Z</time>
      </trkpt>
      <trkpt lat="47.65288" lon="6.19544">
        <ele>266.60000610352</ele>
        <time>2012-07-11T10:56:39.000Z</time>
      </trkpt>
      <trkpt lat="47.65288" lon="6.19542">
        <ele>267</ele>
        <time>2012-07-11T10:56:40.000Z</time>
      </trkpt>
      <trkpt lat="47.65287" lon="6.19538">
        <ele>267.39999389648</ele>
        <time>2012-07-11T10:56:41.000Z</time>
      </trkpt>
      <trkpt lat="47.65284" lon="6.19522">
        <ele>267.39999389648</ele>
        <time>2012-07-11T10:56:46.000Z</time>
      </trkpt>
      <trkpt lat="47.65277" lon="6.19501">
        <ele>267.39999389648</ele>
        <time>2012-07-11T10:56:52.000Z</time>
      </trkpt>
      <trkpt lat="47.65268" lon="6.19481">
        <ele>267.39999389648</ele>
        <time>2012-07-11T10:56:58.000Z</time>
      </trkpt>
      <trkpt lat="47.65259" lon="6.19462">
        <ele>267.39999389648</ele>
        <time>2012-07-11T10:57:04.000Z</time>
      </trkpt>
      <trkpt lat="47.65244" lon="6.19445">
        <ele>267.39999389648</ele>
        <time>2012-07-11T10:57:10.000Z</time>
      </trkpt>
      <trkpt lat="47.65231" lon="6.19427">
        <ele>267.39999389648</ele>
        <time>2012-07-11T10:57:15.000Z</time>
      </trkpt>
      <trkpt lat="47.6522" lon="6.19405">
        <ele>267.39999389648</ele>
        <time>2012-07-11T10:57:21.000Z</time>
      </trkpt>
      <trkpt lat="47.65209" lon="6.19386">
        <ele>267.39999389648</ele>
        <time>2012-07-11T10:57:28.000Z</time>
      </trkpt>
      <trkpt lat="47.65197" lon="6.19365">
        <ele>267.39999389648</ele>
        <time>2012-07-11T10:57:36.000Z</time>
      </trkpt>
      <trkpt lat="47.65186" lon="6.19349">
        <ele>267.39999389648</ele>
        <time>2012-07-11T10:57:43.000Z</time>
      </trkpt>
      <trkpt lat="47.65172" lon="6.19331">
        <ele>267.39999389648</ele>
        <time>2012-07-11T10:57:52.000Z</time>
      </trkpt>
      <trkpt lat="47.65158" lon="6.19316">
        <ele>267.39999389648</ele>
        <time>2012-07-11T10:58:01.000Z</time>
      </trkpt>
      <trkpt lat="47.65148" lon="6.19305">
        <ele>267.39999389648</ele>
        <time>2012-07-11T10:58:07.000Z</time>
      </trkpt>
      <trkpt lat="47.65136" lon="6.19292">
        <ele>267.39999389648</ele>
        <time>2012-07-11T10:58:14.000Z</time>
      </trkpt>
      <trkpt lat="47.6512" lon="6.19273">
        <ele>267.39999389648</ele>
        <time>2012-07-11T10:58:20.000Z</time>
      </trkpt>
      <trkpt lat="47.65098" lon="6.19243">
        <ele>267.39999389648</ele>
        <time>2012-07-11T10:58:28.000Z</time>
      </trkpt>
      <trkpt lat="47.6508" lon="6.19212">
        <ele>267.39999389648</ele>
        <time>2012-07-11T10:58:36.000Z</time>
      </trkpt>
      <trkpt lat="47.65071" lon="6.19197">
        <ele>267.39999389648</ele>
        <time>2012-07-11T10:58:41.000Z</time>
      </trkpt>
      <trkpt lat="47.65069" lon="6.19195">
        <ele>267.39999389648</ele>
        <time>2012-07-11T10:58:45.000Z</time>
      </trkpt>
      <trkpt lat="47.65068" lon="6.19193">
        <ele>267.39999389648</ele>
        <time>2012-07-11T10:58:47.000Z</time>
      </trkpt>
      <trkpt lat="47.65063" lon="6.19187">
        <ele>267.39999389648</ele>
        <time>2012-07-11T10:58:50.000Z</time>
      </trkpt>
      <trkpt lat="47.65054" lon="6.19175">
        <ele>267.39999389648</ele>
        <time>2012-07-11T10:58:54.000Z</time>
      </trkpt>
      <trkpt lat="47.65044" lon="6.19162">
        <ele>267.39999389648</ele>
        <time>2012-07-11T10:58:59.000Z</time>
      </trkpt>
      <trkpt lat="47.65024" lon="6.19132">
        <ele>267.39999389648</ele>
        <time>2012-07-11T10:59:07.000Z</time>
      </trkpt>
      <trkpt lat="47.65015" lon="6.19117">
        <ele>267</ele>
        <time>2012-07-11T10:59:11.000Z</time>
      </trkpt>
      <trkpt lat="47.65013" lon="6.19113">
        <ele>266.60000610352</ele>
        <time>2012-07-11T10:59:12.000Z</time>
      </trkpt>
      <trkpt lat="47.65011" lon="6.19109">
        <ele>266.20001220703</ele>
        <time>2012-07-11T10:59:13.000Z</time>
      </trkpt>
      <trkpt lat="47.65008" lon="6.19105">
        <ele>265.79998779297</ele>
        <time>2012-07-11T10:59:14.000Z</time>
      </trkpt>
      <trkpt lat="47.65006" lon="6.19101">
        <ele>265.39999389648</ele>
        <time>2012-07-11T10:59:15.000Z</time>
      </trkpt>
      <trkpt lat="47.64995" lon="6.19081">
        <ele>265.39999389648</ele>
        <time>2012-07-11T10:59:21.000Z</time>
      </trkpt>
      <trkpt lat="47.64985" lon="6.19057">
        <ele>265.39999389648</ele>
        <time>2012-07-11T10:59:28.000Z</time>
      </trkpt>
      <trkpt lat="47.64978" lon="6.19037">
        <ele>265.39999389648</ele>
        <time>2012-07-11T10:59:34.000Z</time>
      </trkpt>
      <trkpt lat="47.6497" lon="6.19021">
        <ele>265.39999389648</ele>
        <time>2012-07-11T10:59:40.000Z</time>
      </trkpt>
      <trkpt lat="47.64961" lon="6.19006">
        <ele>265.39999389648</ele>
        <time>2012-07-11T10:59:46.000Z</time>
      </trkpt>
      <trkpt lat="47.64948" lon="6.18985">
        <ele>265.39999389648</ele>
        <time>2012-07-11T10:59:54.000Z</time>
      </trkpt>
      <trkpt lat="47.64941" lon="6.18977">
        <ele>265</ele>
        <time>2012-07-11T10:59:58.000Z</time>
      </trkpt>
      <trkpt lat="47.6494" lon="6.18974">
        <ele>264.60000610352</ele>
        <time>2012-07-11T10:59:59.000Z</time>
      </trkpt>
      <trkpt lat="47.64938" lon="6.18971">
        <ele>264.20001220703</ele>
        <time>2012-07-11T11:00:00.000Z</time>
      </trkpt>
      <trkpt lat="47.64937" lon="6.18968">
        <ele>263.79998779297</ele>
        <time>2012-07-11T11:00:01.000Z</time>
      </trkpt>
      <trkpt lat="47.64936" lon="6.18966">
        <ele>263.39999389648</ele>
        <time>2012-07-11T11:00:02.000Z</time>
      </trkpt>
      <trkpt lat="47.6493" lon="6.18953">
        <ele>263.39999389648</ele>
        <time>2012-07-11T11:00:06.000Z</time>
      </trkpt>
      <trkpt lat="47.64919" lon="6.18936">
        <ele>263.39999389648</ele>
        <time>2012-07-11T11:00:12.000Z</time>
      </trkpt>
      <trkpt lat="47.64907" lon="6.18915">
        <ele>263.39999389648</ele>
        <time>2012-07-11T11:00:19.000Z</time>
      </trkpt>
      <trkpt lat="47.64905" lon="6.18913">
        <ele>262.60000610352</ele>
        <time>2012-07-11T11:00:20.000Z</time>
      </trkpt>
      <trkpt lat="47.64904" lon="6.18911">
        <ele>262</ele>
        <time>2012-07-11T11:00:21.000Z</time>
      </trkpt>
      <trkpt lat="47.64903" lon="6.18908">
        <ele>261.60000610352</ele>
        <time>2012-07-11T11:00:22.000Z</time>
      </trkpt>
      <trkpt lat="47.64901" lon="6.18906">
        <ele>261.20001220703</ele>
        <time>2012-07-11T11:00:23.000Z</time>
      </trkpt>
      <trkpt lat="47.64896" lon="6.18899">
        <ele>261.20001220703</ele>
        <time>2012-07-11T11:00:26.000Z</time>
      </trkpt>
      <trkpt lat="47.64885" lon="6.1888">
        <ele>261.20001220703</ele>
        <time>2012-07-11T11:00:33.000Z</time>
      </trkpt>
      <trkpt lat="47.64875" lon="6.18855">
        <ele>261.20001220703</ele>
        <time>2012-07-11T11:00:39.000Z</time>
      </trkpt>
      <trkpt lat="47.64859" lon="6.18821">
        <ele>261.20001220703</ele>
        <time>2012-07-11T11:00:45.000Z</time>
      </trkpt>
      <trkpt lat="47.64849" lon="6.188">
        <ele>260.79998779297</ele>
        <time>2012-07-11T11:00:49.000Z</time>
      </trkpt>
      <trkpt lat="47.64847" lon="6.18795">
        <ele>260.20001220703</ele>
        <time>2012-07-11T11:00:50.000Z</time>
      </trkpt>
      <trkpt lat="47.64844" lon="6.1879">
        <ele>259.79998779297</ele>
        <time>2012-07-11T11:00:51.000Z</time>
      </trkpt>
      <trkpt lat="47.64842" lon="6.18785">
        <ele>259.39999389648</ele>
        <time>2012-07-11T11:00:52.000Z</time>
      </trkpt>
      <trkpt lat="47.6484" lon="6.18779">
        <ele>258.79998779297</ele>
        <time>2012-07-11T11:00:53.000Z</time>
      </trkpt>
      <trkpt lat="47.64818" lon="6.18732">
        <ele>258.79998779297</ele>
        <time>2012-07-11T11:01:01.000Z</time>
      </trkpt>
      <trkpt lat="47.64802" lon="6.187">
        <ele>258.39999389648</ele>
        <time>2012-07-11T11:01:06.000Z</time>
      </trkpt>
      <trkpt lat="47.64799" lon="6.18694">
        <ele>258</ele>
        <time>2012-07-11T11:01:07.000Z</time>
      </trkpt>
      <trkpt lat="47.64795" lon="6.18688">
        <ele>257.60000610352</ele>
        <time>2012-07-11T11:01:08.000Z</time>
      </trkpt>
      <trkpt lat="47.64792" lon="6.18682">
        <ele>257.20001220703</ele>
        <time>2012-07-11T11:01:09.000Z</time>
      </trkpt>
      <trkpt lat="47.64788" lon="6.18675">
        <ele>256.79998779297</ele>
        <time>2012-07-11T11:01:10.000Z</time>
      </trkpt>
      <trkpt lat="47.64776" lon="6.18652">
        <ele>256.39999389648</ele>
        <time>2012-07-11T11:01:14.000Z</time>
      </trkpt>
      <trkpt lat="47.64773" lon="6.18647">
        <ele>256</ele>
        <time>2012-07-11T11:01:15.000Z</time>
      </trkpt>
      <trkpt lat="47.64771" lon="6.18641">
        <ele>255.60000610352</ele>
        <time>2012-07-11T11:01:16.000Z</time>
      </trkpt>
      <trkpt lat="47.64768" lon="6.18636">
        <ele>255.19999694824</ele>
        <time>2012-07-11T11:01:17.000Z</time>
      </trkpt>
      <trkpt lat="47.64765" lon="6.18631">
        <ele>254.80000305176</ele>
        <time>2012-07-11T11:01:18.000Z</time>
      </trkpt>
      <trkpt lat="47.64757" lon="6.18616">
        <ele>254.80000305176</ele>
        <time>2012-07-11T11:01:21.000Z</time>
      </trkpt>
      <trkpt lat="47.64737" lon="6.1858">
        <ele>254.80000305176</ele>
        <time>2012-07-11T11:01:29.000Z</time>
      </trkpt>
      <trkpt lat="47.64726" lon="6.18559">
        <ele>254.80000305176</ele>
        <time>2012-07-11T11:01:34.000Z</time>
      </trkpt>
      <trkpt lat="47.64708" lon="6.18525">
        <ele>254.80000305176</ele>
        <time>2012-07-11T11:01:42.000Z</time>
      </trkpt>
      <trkpt lat="47.64696" lon="6.18502">
        <ele>254.80000305176</ele>
        <time>2012-07-11T11:01:48.000Z</time>
      </trkpt>
      <trkpt lat="47.64683" lon="6.18482">
        <ele>254.80000305176</ele>
        <time>2012-07-11T11:01:55.000Z</time>
      </trkpt>
      <trkpt lat="47.64679" lon="6.18477">
        <ele>254.80000305176</ele>
        <time>2012-07-11T11:01:57.000Z</time>
      </trkpt>
      <trkpt lat="47.64673" lon="6.18478">
        <ele>254.80000305176</ele>
        <time>2012-07-11T11:01:59.000Z</time>
      </trkpt>
      <trkpt lat="47.64669" lon="6.1848">
        <ele>254.80000305176</ele>
        <time>2012-07-11T11:02:00.000Z</time>
      </trkpt>
      <trkpt lat="47.64659" lon="6.18491">
        <ele>254.19999694824</ele>
        <time>2012-07-11T11:02:03.000Z</time>
      </trkpt>
      <trkpt lat="47.64656" lon="6.18497">
        <ele>253.80000305176</ele>
        <time>2012-07-11T11:02:04.000Z</time>
      </trkpt>
      <trkpt lat="47.64652" lon="6.18502">
        <ele>253.39999389648</ele>
        <time>2012-07-11T11:02:05.000Z</time>
      </trkpt>
      <trkpt lat="47.64649" lon="6.18508">
        <ele>253</ele>
        <time>2012-07-11T11:02:06.000Z</time>
      </trkpt>
      <trkpt lat="47.64645" lon="6.18514">
        <ele>252.39999389648</ele>
        <time>2012-07-11T11:02:07.000Z</time>
      </trkpt>
      <trkpt lat="47.64642" lon="6.18521">
        <ele>251.80000305176</ele>
        <time>2012-07-11T11:02:08.000Z</time>
      </trkpt>
      <trkpt lat="47.64639" lon="6.18529">
        <ele>251.19999694824</ele>
        <time>2012-07-11T11:02:09.000Z</time>
      </trkpt>
      <trkpt lat="47.64635" lon="6.18537">
        <ele>250.60000610352</ele>
        <time>2012-07-11T11:02:10.000Z</time>
      </trkpt>
      <trkpt lat="47.64632" lon="6.18545">
        <ele>250</ele>
        <time>2012-07-11T11:02:11.000Z</time>
      </trkpt>
      <trkpt lat="47.64629" lon="6.18552">
        <ele>249.39999389648</ele>
        <time>2012-07-11T11:02:12.000Z</time>
      </trkpt>
      <trkpt lat="47.64627" lon="6.18558">
        <ele>248.80000305176</ele>
        <time>2012-07-11T11:02:13.000Z</time>
      </trkpt>
      <trkpt lat="47.64625" lon="6.18564">
        <ele>248.19999694824</ele>
        <time>2012-07-11T11:02:14.000Z</time>
      </trkpt>
      <trkpt lat="47.64624" lon="6.18571">
        <ele>247.60000610352</ele>
        <time>2012-07-11T11:02:15.000Z</time>
      </trkpt>
      <trkpt lat="47.64621" lon="6.18577">
        <ele>247.60000610352</ele>
        <time>2012-07-11T11:02:16.000Z</time>
      </trkpt>
      <trkpt lat="47.64618" lon="6.18582">
        <ele>247.19999694824</ele>
        <time>2012-07-11T11:02:17.000Z</time>
      </trkpt>
      <trkpt lat="47.64615" lon="6.18585">
        <ele>246.60000610352</ele>
        <time>2012-07-11T11:02:18.000Z</time>
      </trkpt>
      <trkpt lat="47.64611" lon="6.18587">
        <ele>246.19999694824</ele>
        <time>2012-07-11T11:02:19.000Z</time>
      </trkpt>
      <trkpt lat="47.64607" lon="6.18588">
        <ele>245.39999389648</ele>
        <time>2012-07-11T11:02:20.000Z</time>
      </trkpt>
      <trkpt lat="47.64602" lon="6.18588">
        <ele>244.80000305176</ele>
        <time>2012-07-11T11:02:21.000Z</time>
      </trkpt>
      <trkpt lat="47.64598" lon="6.18587">
        <ele>244.19999694824</ele>
        <time>2012-07-11T11:02:22.000Z</time>
      </trkpt>
      <trkpt lat="47.64593" lon="6.18586">
        <ele>243</ele>
        <time>2012-07-11T11:02:23.000Z</time>
      </trkpt>
      <trkpt lat="47.6459" lon="6.18583">
        <ele>242.60000610352</ele>
        <time>2012-07-11T11:02:24.000Z</time>
      </trkpt>
      <trkpt lat="47.64587" lon="6.18582">
        <ele>242</ele>
        <time>2012-07-11T11:02:25.000Z</time>
      </trkpt>
      <trkpt lat="47.64584" lon="6.18579">
        <ele>241.39999389648</ele>
        <time>2012-07-11T11:02:26.000Z</time>
      </trkpt>
      <trkpt lat="47.64582" lon="6.18577">
        <ele>241</ele>
        <time>2012-07-11T11:02:27.000Z</time>
      </trkpt>
      <trkpt lat="47.6458" lon="6.18575">
        <ele>241</ele>
        <time>2012-07-11T11:02:28.000Z</time>
      </trkpt>
      <trkpt lat="47.64572" lon="6.18574">
        <ele>241</ele>
        <time>2012-07-11T11:02:33.000Z</time>
      </trkpt>
      <trkpt lat="47.6457" lon="6.18573">
        <ele>241</ele>
        <time>2012-07-11T11:02:34.000Z</time>
      </trkpt>
      <trkpt lat="47.64559" lon="6.18568">
        <ele>241</ele>
        <time>2012-07-11T11:02:39.000Z</time>
      </trkpt>
      <trkpt lat="47.64555" lon="6.18566">
        <ele>241</ele>
        <time>2012-07-11T11:02:40.000Z</time>
      </trkpt>
      <trkpt lat="47.64545" lon="6.18562">
        <ele>240.39999389648</ele>
        <time>2012-07-11T11:02:43.000Z</time>
      </trkpt>
      <trkpt lat="47.64542" lon="6.1856">
        <ele>240</ele>
        <time>2012-07-11T11:02:44.000Z</time>
      </trkpt>
      <trkpt lat="47.64538" lon="6.18559">
        <ele>239.60000610352</ele>
        <time>2012-07-11T11:02:45.000Z</time>
      </trkpt>
      <trkpt lat="47.64535" lon="6.18557">
        <ele>239.19999694824</ele>
        <time>2012-07-11T11:02:46.000Z</time>
      </trkpt>
      <trkpt lat="47.64532" lon="6.18557">
        <ele>238.60000610352</ele>
        <time>2012-07-11T11:02:47.000Z</time>
      </trkpt>
      <trkpt lat="47.64525" lon="6.18556">
        <ele>238.19999694824</ele>
        <time>2012-07-11T11:02:49.000Z</time>
      </trkpt>
      <trkpt lat="47.64521" lon="6.18553">
        <ele>237.80000305176</ele>
        <time>2012-07-11T11:02:50.000Z</time>
      </trkpt>
      <trkpt lat="47.64517" lon="6.18549">
        <ele>237.19999694824</ele>
        <time>2012-07-11T11:02:51.000Z</time>
      </trkpt>
      <trkpt lat="47.64513" lon="6.18546">
        <ele>236.80000305176</ele>
        <time>2012-07-11T11:02:52.000Z</time>
      </trkpt>
      <trkpt lat="47.6451" lon="6.18543">
        <ele>236.39999389648</ele>
        <time>2012-07-11T11:02:53.000Z</time>
      </trkpt>
      <trkpt lat="47.64505" lon="6.1854">
        <ele>236.39999389648</ele>
        <time>2012-07-11T11:02:55.000Z</time>
      </trkpt>
      <trkpt lat="47.64494" lon="6.18536">
        <ele>236</ele>
        <time>2012-07-11T11:02:58.000Z</time>
      </trkpt>
      <trkpt lat="47.6449" lon="6.18535">
        <ele>235.60000610352</ele>
        <time>2012-07-11T11:02:59.000Z</time>
      </trkpt>
      <trkpt lat="47.64487" lon="6.18533">
        <ele>235</ele>
        <time>2012-07-11T11:03:00.000Z</time>
      </trkpt>
      <trkpt lat="47.64484" lon="6.18531">
        <ele>234.60000610352</ele>
        <time>2012-07-11T11:03:01.000Z</time>
      </trkpt>
      <trkpt lat="47.64481" lon="6.18529">
        <ele>234.19999694824</ele>
        <time>2012-07-11T11:03:02.000Z</time>
      </trkpt>
      <trkpt lat="47.64472" lon="6.18525">
        <ele>234.19999694824</ele>
        <time>2012-07-11T11:03:05.000Z</time>
      </trkpt>
      <trkpt lat="47.64466" lon="6.1852">
        <ele>233.80000305176</ele>
        <time>2012-07-11T11:03:08.000Z</time>
      </trkpt>
      <trkpt lat="47.64464" lon="6.18518">
        <ele>233.39999389648</ele>
        <time>2012-07-11T11:03:09.000Z</time>
      </trkpt>
      <trkpt lat="47.64462" lon="6.18516">
        <ele>233</ele>
        <time>2012-07-11T11:03:10.000Z</time>
      </trkpt>
      <trkpt lat="47.6446" lon="6.18513">
        <ele>232.60000610352</ele>
        <time>2012-07-11T11:03:11.000Z</time>
      </trkpt>
      <trkpt lat="47.64458" lon="6.18511">
        <ele>232.19999694824</ele>
        <time>2012-07-11T11:03:12.000Z</time>
      </trkpt>
      <trkpt lat="47.64448" lon="6.18496">
        <ele>232.19999694824</ele>
        <time>2012-07-11T11:03:19.000Z</time>
      </trkpt>
      <trkpt lat="47.64445" lon="6.18495">
        <ele>232.19999694824</ele>
        <time>2012-07-11T11:03:20.000Z</time>
      </trkpt>
      <trkpt lat="47.64439" lon="6.18491">
        <ele>232.19999694824</ele>
        <time>2012-07-11T11:03:24.000Z</time>
      </trkpt>
      <trkpt lat="47.64433" lon="6.18487">
        <ele>232.19999694824</ele>
        <time>2012-07-11T11:03:28.000Z</time>
      </trkpt>
      <trkpt lat="47.6443" lon="6.18484">
        <ele>232.19999694824</ele>
        <time>2012-07-11T11:03:30.000Z</time>
      </trkpt>
      <trkpt lat="47.64415" lon="6.18479">
        <ele>232.19999694824</ele>
        <time>2012-07-11T11:03:37.000Z</time>
      </trkpt>
      <trkpt lat="47.64409" lon="6.18476">
        <ele>232.19999694824</ele>
        <time>2012-07-11T11:03:41.000Z</time>
      </trkpt>
      <trkpt lat="47.64404" lon="6.18475">
        <ele>232.19999694824</ele>
        <time>2012-07-11T11:03:43.000Z</time>
      </trkpt>
      <trkpt lat="47.64399" lon="6.18475">
        <ele>232.19999694824</ele>
        <time>2012-07-11T11:03:46.000Z</time>
      </trkpt>
      <trkpt lat="47.64389" lon="6.18473">
        <ele>231.80000305176</ele>
        <time>2012-07-11T11:03:50.000Z</time>
      </trkpt>
      <trkpt lat="47.64386" lon="6.18472">
        <ele>231.19999694824</ele>
        <time>2012-07-11T11:03:51.000Z</time>
      </trkpt>
      <trkpt lat="47.64383" lon="6.18471">
        <ele>230.80000305176</ele>
        <time>2012-07-11T11:03:52.000Z</time>
      </trkpt>
      <trkpt lat="47.64379" lon="6.1847">
        <ele>230.39999389648</ele>
        <time>2012-07-11T11:03:53.000Z</time>
      </trkpt>
      <trkpt lat="47.64376" lon="6.1847">
        <ele>230</ele>
        <time>2012-07-11T11:03:54.000Z</time>
      </trkpt>
      <trkpt lat="47.64369" lon="6.18468">
        <ele>229.39999389648</ele>
        <time>2012-07-11T11:03:57.000Z</time>
      </trkpt>
      <trkpt lat="47.64366" lon="6.18466">
        <ele>229</ele>
        <time>2012-07-11T11:03:58.000Z</time>
      </trkpt>
      <trkpt lat="47.64363" lon="6.18465">
        <ele>228.60000610352</ele>
        <time>2012-07-11T11:03:59.000Z</time>
      </trkpt>
      <trkpt lat="47.64361" lon="6.18465">
        <ele>228.19999694824</ele>
        <time>2012-07-11T11:04:00.000Z</time>
      </trkpt>
      <trkpt lat="47.64359" lon="6.18464">
        <ele>227.80000305176</ele>
        <time>2012-07-11T11:04:01.000Z</time>
      </trkpt>
      <trkpt lat="47.64357" lon="6.18462">
        <ele>227.80000305176</ele>
        <time>2012-07-11T11:04:02.000Z</time>
      </trkpt>
      <trkpt lat="47.64354" lon="6.1846">
        <ele>227.19999694824</ele>
        <time>2012-07-11T11:04:03.000Z</time>
      </trkpt>
      <trkpt lat="47.64352" lon="6.18458">
        <ele>226.80000305176</ele>
        <time>2012-07-11T11:04:04.000Z</time>
      </trkpt>
      <trkpt lat="47.6435" lon="6.18455">
        <ele>226.39999389648</ele>
        <time>2012-07-11T11:04:05.000Z</time>
      </trkpt>
      <trkpt lat="47.64348" lon="6.18453">
        <ele>226</ele>
        <time>2012-07-11T11:04:06.000Z</time>
      </trkpt>
      <trkpt lat="47.64346" lon="6.18451">
        <ele>225.39999389648</ele>
        <time>2012-07-11T11:04:07.000Z</time>
      </trkpt>
      <trkpt lat="47.64344" lon="6.18448">
        <ele>225</ele>
        <time>2012-07-11T11:04:08.000Z</time>
      </trkpt>
      <trkpt lat="47.64342" lon="6.18446">
        <ele>224.39999389648</ele>
        <time>2012-07-11T11:04:09.000Z</time>
      </trkpt>
      <trkpt lat="47.64341" lon="6.18444">
        <ele>224</ele>
        <time>2012-07-11T11:04:10.000Z</time>
      </trkpt>
      <trkpt lat="47.64339" lon="6.18441">
        <ele>223.39999389648</ele>
        <time>2012-07-11T11:04:11.000Z</time>
      </trkpt>
      <trkpt lat="47.64337" lon="6.18437">
        <ele>223</ele>
        <time>2012-07-11T11:04:12.000Z</time>
      </trkpt>
      <trkpt lat="47.64336" lon="6.1843">
        <ele>223</ele>
        <time>2012-07-11T11:04:14.000Z</time>
      </trkpt>
      <trkpt lat="47.64341" lon="6.18416">
        <ele>222.39999389648</ele>
        <time>2012-07-11T11:04:17.000Z</time>
      </trkpt>
      <trkpt lat="47.64344" lon="6.18411">
        <ele>222</ele>
        <time>2012-07-11T11:04:18.000Z</time>
      </trkpt>
      <trkpt lat="47.64346" lon="6.18406">
        <ele>221.60000610352</ele>
        <time>2012-07-11T11:04:19.000Z</time>
      </trkpt>
      <trkpt lat="47.64348" lon="6.18401">
        <ele>221.19999694824</ele>
        <time>2012-07-11T11:04:20.000Z</time>
      </trkpt>
      <trkpt lat="47.6435" lon="6.18397">
        <ele>220.80000305176</ele>
        <time>2012-07-11T11:04:21.000Z</time>
      </trkpt>
      <trkpt lat="47.64354" lon="6.1839">
        <ele>220.80000305176</ele>
        <time>2012-07-11T11:04:23.000Z</time>
      </trkpt>
      <trkpt lat="47.64356" lon="6.18388">
        <ele>220.80000305176</ele>
        <time>2012-07-11T11:04:24.000Z</time>
      </trkpt>
      <trkpt lat="47.64374" lon="6.18371">
        <ele>220.80000305176</ele>
        <time>2012-07-11T11:04:30.000Z</time>
      </trkpt>
      <trkpt lat="47.64386" lon="6.18362">
        <ele>220.80000305176</ele>
        <time>2012-07-11T11:04:36.000Z</time>
      </trkpt>
      <trkpt lat="47.6439" lon="6.18356">
        <ele>220.39999389648</ele>
        <time>2012-07-11T11:04:46.000Z</time>
      </trkpt>
      <trkpt lat="47.64391" lon="6.18355">
        <ele>220</ele>
        <time>2012-07-11T11:04:47.000Z</time>
      </trkpt>
      <trkpt lat="47.64393" lon="6.18353">
        <ele>219.60000610352</ele>
        <time>2012-07-11T11:04:48.000Z</time>
      </trkpt>
      <trkpt lat="47.64395" lon="6.18351">
        <ele>219.19999694824</ele>
        <time>2012-07-11T11:04:49.000Z</time>
      </trkpt>
      <trkpt lat="47.64397" lon="6.18349">
        <ele>218.80000305176</ele>
        <time>2012-07-11T11:04:50.000Z</time>
      </trkpt>
      <trkpt lat="47.64411" lon="6.18334">
        <ele>218.80000305176</ele>
        <time>2012-07-11T11:04:57.000Z</time>
      </trkpt>
      <trkpt lat="47.64426" lon="6.18317">
        <ele>218.80000305176</ele>
        <time>2012-07-11T11:05:05.000Z</time>
      </trkpt>
      <trkpt lat="47.64435" lon="6.18309">
        <ele>218.80000305176</ele>
        <time>2012-07-11T11:05:11.000Z</time>
      </trkpt>
      <trkpt lat="47.64435" lon="6.18308">
        <ele>218.80000305176</ele>
        <time>2012-07-11T11:05:12.000Z</time>
      </trkpt>
      <trkpt lat="47.64436" lon="6.18308">
        <ele>218.80000305176</ele>
        <time>2012-07-11T11:05:13.000Z</time>
      </trkpt>
    </trkseg>
  </trk>
</gpx>